# Wetter Temperatur Luftdruck Luftfeuchtigkeit Sichtweite Windgeschwindigkeit Windrichtung Zeit
1 Rain 6 1013 75 10000 9.77 260 16:59 01.02.2023
2 Rain 7 1013 65 10000 10.8 250 14:22 01.02.2023
3 Clouds 7 1015 65 10000 7.72 270 13:19 01.02.2023
4 Clouds 6 1015 70 10000 8.75 270 12:26 01.02.2023
5 Clouds 6 1016 70 10000 9.26 280 11:35 01.02.2023
6 Clouds 5 1014 75 10000 8.75 270 08:41 01.02.2023
7 Clouds 6 1017 75 10000 7.2 280 22:59 31.01.2023
8 Clouds 7 1017 75 10000 7.2 290 21:20 31.01.2023
9 Clouds 7 1017 81 10000 6.69 270 19:24 31.01.2023
10 Drizzle 5 1017 87 10000 4.63 240 17:41 31.01.2023
11 Mist 5 1017 93 3900 5.66 240 15:36 31.01.2023
12 Rain 5 1016 87 10000 5.66 240 15:18 31.01.2023
13 Drizzle 5 1017 87 6000 5.66 230 13:34 31.01.2023
14 Rain 6 1019 75 10000 6.69 250 11:28 31.01.2023
15 Clouds 4 1020 75 10000 4.12 230 10:25 31.01.2023
16 Clouds 4 1020 81 10000 3.6 220 09:44 31.01.2023
17 Clouds 3 1021 81 10000 3.6 210 08:36 31.01.2023
18 Clouds 4 1021 81 10000 4.12 260 06:25 31.01.2023
19 Clouds 4 1021 87 10000 5.66 260 01:54 31.01.2023
20 Clouds 4 1020 93 10000 4.12 310 23:26 30.01.2023
21 Clouds 5 1019 81 10000 5.14 290 22:50 30.01.2023
22 Clouds 5 1019 81 10000 6.69 290 21:43 30.01.2023
23 Clouds 5 1018 81 10000 8.75 290 20:44 30.01.2023
24 Clouds 5 1016 81 10000 7.2 280 18:26 30.01.2023
25 Clouds 5 1015 81 10000 7.72 290 17:23 30.01.2023
26 Clouds 5 1012 81 10000 8.23 270 14:47 30.01.2023
27 Rain 4 1012 93 7000 6.69 290 13:39 30.01.2023
28 Rain 5 1012 75 8000 7.72 280 12:18 30.01.2023
29 Rain 3 1012 93 8000 8.75 280 10:20 30.01.2023
30 Rain 3 1011 93 10000 7.72 240 09:53 30.01.2023
31 Clouds 3 1012 87 10000 3.6 240 08:19 30.01.2023
32 Snow 2 1013 86 10000 5.66 210 04:30 30.01.2023
33 Clouds 1 1018 80 10000 5.66 210 23:35 29.01.2023
34 Clouds 1 1018 80 10000 6.69 210 22:56 29.01.2023
35 Clouds 1 1019 80 10000 7.72 200 22:21 29.01.2023
36 Clouds 1 1021 80 10000 5.66 200 20:52 29.01.2023
37 Clouds 1 1022 80 10000 5.14 200 20:18 29.01.2023
38 Clouds 1 1022 80 10000 5.14 210 19:32 29.01.2023
39 Clouds 1 1023 80 10000 4.12 220 17:52 29.01.2023
40 Clouds 2 1023 75 10000 3.6 200 16:22 29.01.2023
41 Clouds 2 1023 69 10000 4.12 210 15:50 29.01.2023
42 Clouds 1 1025 74 10000 4.12 210 13:39 29.01.2023
43 Clouds 0 1026 80 10000 3.6 200 12:53 29.01.2023
44 Clouds 0 1026 80 10000 3.09 160 12:24 29.01.2023
45 Clouds -1 1027 86 10000 2.57 150 11:58 29.01.2023
46 Clouds -1 1027 86 10000 2.57 150 11:33 29.01.2023
47 Clouds -1 1027 86 10000 3.09 160 10:38 29.01.2023
48 Clouds -3 1027 93 10000 1.03 0 07:57 29.01.2023
49 Clouds -2 1028 86 10000 1.03 0 03:43 29.01.2023
50 Clouds -3 1029 86 10000 0.51 0 23:49 28.01.2023
51 Clouds -2 1029 80 10000 1.54 270 20:50 28.01.2023
52 Clouds -1 1029 80 10000 1.03 280 19:54 28.01.2023
53 Clouds -1 1028 80 10000 1.54 260 18:52 28.01.2023
54 Clouds 1 1027 69 10000 2.06 230 17:27 28.01.2023
55 Clouds 0 1028 74 10000 1.03 0 16:40 28.01.2023
56 Clouds 0 1028 74 10000 1.03 0 16:18 28.01.2023
57 Clouds 1 1027 69 10000 1.03 0 15:22 28.01.2023
58 Clouds 1 1028 69 10000 1.54 330 13:48 28.01.2023
59 Clouds 1 1028 69 10000 2.06 360 12:21 28.01.2023
60 Clouds 1 1028 69 10000 2.06 60 10:35 28.01.2023
61 Clouds 1 1027 69 10000 2.06 80 09:21 28.01.2023
62 Clouds 0 1026 93 10000 2.57 10 02:27 28.01.2023
63 Clouds 2 1026 80 10000 2.57 30 00:28 28.01.2023
64 Clouds 2 1026 86 10000 3.6 20 22:46 27.01.2023
65 Clouds 2 1025 86 10000 3.6 10 19:47 27.01.2023
66 Clouds 3 1024 87 10000 2.06 360 17:58 27.01.2023
67 Clouds 3 1024 87 10000 2.06 0 17:20 27.01.2023
68 Clouds 3 1024 87 10000 2.06 10 16:41 27.01.2023
69 Clouds 3 1023 93 10000 3.09 20 15:25 27.01.2023
70 Clouds 4 1023 87 10000 3.6 20 14:26 27.01.2023
71 Clouds 4 1023 87 10000 3.6 20 13:33 27.01.2023
72 Clouds 2 1023 100 9000 1.54 360 09:30 27.01.2023
73 Clouds 2 1021 93 4100 1.03 0 06:30 27.01.2023
74 Clouds 1 1021 100 900 1.54 330 00:28 27.01.2023
75 Clouds 1 1021 100 5000 2.06 290 21:57 26.01.2023
76 Mist 0 1021 100 1200 2.57 300 20:55 26.01.2023
77 Snow 0 1021 100 9000 2.57 290 19:59 26.01.2023
78 Mist 0 1021 100 3700 3.09 300 17:57 26.01.2023
79 Mist 0 1021 100 2400 4.12 300 16:50 26.01.2023
80 Mist 0 1020 100 2200 3.09 300 16:20 26.01.2023
81 Mist 0 1020 100 1700 3.6 300 15:42 26.01.2023
82 Mist 0 1020 93 1500 3.09 300 15:24 26.01.2023
83 Mist 0 1021 93 4500 2.06 300 13:53 26.01.2023
84 Mist -1 1022 100 2300 1.54 300 12:31 26.01.2023
85 Mist -1 1022 93 1100 2.06 290 10:56 26.01.2023
86 Mist -2 1022 100 1100 1.54 300 10:25 26.01.2023
87 Mist -2 1022 100 1200 1.54 300 09:40 26.01.2023
88 Clouds -3 1021 93 3600 2.06 300 06:57 26.01.2023
89 Clouds -1 1024 93 6000 1.54 260 23:42 25.01.2023
90 Clouds -1 1025 93 8000 1.03 0 22:56 25.01.2023
91 Clouds -1 1025 100 3600 2.06 270 21:43 25.01.2023
92 Clouds -1 1025 93 5000 1.03 0 21:20 25.01.2023
93 Mist -1 1027 100 2400 2.06 260 18:30 25.01.2023
94 Mist 0 1027 93 4300 1.03 0 16:58 25.01.2023
95 Mist -1 1028 93 5000 2.06 200 15:36 25.01.2023
96 Fog 0 1031 100 800 0.51 0 12:44 25.01.2023
97 Fog 0 1033 100 600 1.54 150 09:54 25.01.2023
98 Fog 0 1033 93 600 2.06 180 09:30 25.01.2023
99 Clouds 0 1034 100 4200 1.54 0 06:53 25.01.2023
100 Clouds 1 1036 93 10000 2.57 130 00:42 25.01.2023
101 Clouds 1 1037 93 10000 3.09 80 22:45 24.01.2023
102 Clouds 1 1036 93 10000 2.57 80 21:29 24.01.2023
103 Clouds 1 1037 93 10000 4.12 90 19:40 24.01.2023
104 Clouds 1 1037 86 10000 3.6 100 18:31 24.01.2023
105 Clouds 2 1037 80 10000 4.63 100 18:31 24.01.2023
106 Clouds 2 1037 80 10000 3.6 70 17:19 24.01.2023
107 Clouds 2 1037 80 10000 4.63 80 16:52 24.01.2023
108 Clouds 2 1037 80 10000 4.12 80 14:50 24.01.2023
109 Clouds 2 1038 80 10000 4.12 80 12:47 24.01.2023
110 Clouds 2 1038 80 10000 4.63 80 11:20 24.01.2023
111 Clouds 2 1037 80 10000 6.17 80 08:21 24.01.2023
112 Clouds 2 1036 80 10000 6.17 80 07:50 24.01.2023
113 Clouds 2 1036 80 10000 5.66 80 05:22 24.01.2023
114 Clouds 2 1036 86 10000 4.12 70 00:49 24.01.2023
115 Clouds 3 1036 75 10000 4.12 60 23:48 23.01.2023
116 Clouds 3 1036 80 10000 4.63 80 21:50 23.01.2023
117 Clouds 2 1036 93 10000 2.06 20 19:45 23.01.2023
118 Clouds 3 1036 87 10000 2.06 20 17:59 23.01.2023
119 Clouds 2 1035 93 10000 2.06 360 15:35 23.01.2023
120 Clouds 2 1035 93 10000 2.57 50 14:22 23.01.2023
121 Clouds 2 1035 93 10000 2.57 30 13:23 23.01.2023
122 Clouds 2 1035 86 10000 2.06 20 12:48 23.01.2023
123 Clouds 2 1035 93 10000 2.06 20 11:43 23.01.2023
124 Clouds 1 1034 93 10000 2.57 70 08:42 23.01.2023
125 Clouds 1 1033 93 8000 2.06 30 05:40 23.01.2023
126 Clouds 1 1032 93 10000 2.57 360 23:22 22.01.2023
127 Clouds 1 1031 93 7000 1.54 350 21:33 22.01.2023
128 Clouds 1 1031 93 9000 1.54 10 20:50 22.01.2023
129 Clouds 1 1030 100 6000 1.54 360 19:53 22.01.2023
130 Clouds 1 1030 100 6000 1.54 350 19:20 22.01.2023
131 Clouds 1 1030 100 10000 1.54 10 17:58 22.01.2023
132 Clouds 1 1029 93 10000 1.54 340 17:27 22.01.2023
133 Clouds 1 1029 93 10000 1.54 320 16:39 22.01.2023
134 Clouds 2 1028 86 10000 3.09 30 14:55 22.01.2023
135 Clouds 2 1028 86 10000 1.54 360 13:49 22.01.2023
136 Clouds 1 1028 93 10000 1.54 340 12:49 22.01.2023
137 Clouds 1 1028 93 10000 1.54 360 11:39 22.01.2023
138 Clouds 1 1027 93 10000 1.54 330 09:36 22.01.2023
139 Clouds 1 1027 93 10000 2.06 340 08:43 22.01.2023
140 Clouds 0 1026 93 8000 3.6 340 02:51 22.01.2023
141 Snow 0 1027 100 2700 4.12 330 23:41 21.01.2023
142 Snow 0 1027 100 2200 4.63 330 22:41 21.01.2023
143 Clouds 1 1028 86 10000 3.6 320 20:27 21.01.2023
144 Clouds 1 1028 80 10000 2.57 310 17:59 21.01.2023
145 Clouds 0 1028 86 10000 1.03 0 14:42 21.01.2023
146 Clouds -1 1028 93 10000 2.06 320 12:58 21.01.2023
147 Clouds -1 1028 93 10000 2.06 320 12:36 21.01.2023
148 Clouds -1 1028 93 10000 1.54 340 11:27 21.01.2023
149 Clouds -3 1027 93 8000 2.57 260 09:56 21.01.2023
150 Clouds -8 1025 86 400 1.54 300 04:41 21.01.2023
151 Clouds -5 1021 93 200 0.51 0 22:31 20.01.2023
152 Clouds -4 1021 93 400 2.06 20 21:57 20.01.2023
153 Clouds -4 1021 93 400 2.06 20 21:33 20.01.2023
154 Clouds -2 1019 93 10000 2.06 140 19:55 20.01.2023
155 Clouds 0 1017 93 10000 2.57 140 17:20 20.01.2023
156 Clouds 0 1016 93 10000 2.57 140 14:47 20.01.2023
157 Mist -1 1015 100 4000 3.6 120 13:51 20.01.2023
158 Fog -2 1014 100 350 3.09 150 10:48 20.01.2023
159 Fog -2 1013 93 10000 0.51 0 08:58 20.01.2023
160 Clouds -3 1012 93 10000 2.06 200 06:40 20.01.2023
161 Clouds -6 1010 100 6000 0 0 02:32 20.01.2023
162 Clouds -4 1008 93 1200 2.06 210 22:37 19.01.2023
163 Clouds -3 1007 100 8000 2.57 210 21:37 19.01.2023
164 Clouds 1 1006 100 10000 0.51 0 19:29 19.01.2023
165 Clouds 1 1006 93 10000 0 0 18:55 19.01.2023
166 Snow 1 1003 100 500 3.09 260 14:25 19.01.2023
167 Snow 1 1002 80 8000 6.17 190 10:22 19.01.2023
168 Clouds 0 1002 86 10000 5.66 180 08:57 19.01.2023
169 Clouds -1 1001 74 10000 2.57 150 22:41 18.01.2023
170 Clear -1 1000 80 10000 3.09 210 20:21 18.01.2023
171 Clear -1 999 74 10000 2.57 210 19:45 18.01.2023
172 Clear -1 999 80 10000 3.09 200 19:27 18.01.2023
173 Clear 1 997 69 10000 3.6 250 16:46 18.01.2023
174 Clear 2 995 75 10000 3.09 290 14:20 18.01.2023
175 Clear -1 995 93 10000 2.06 270 12:25 18.01.2023
176 Mist -4 993 93 1300 1.03 0 09:37 18.01.2023
177 Clouds -5 991 93 1100 0.51 0 06:44 18.01.2023
178 Clouds -2 989 93 10000 1.54 280 01:24 18.01.2023
179 Clouds -2 989 86 10000 0.51 0 21:53 17.01.2023
180 Clear -1 988 86 10000 0.51 0 19:43 17.01.2023
181 Clouds 0 987 80 10000 1.03 310 18:51 17.01.2023
182 Clouds 1 987 75 10000 0 0 17:41 17.01.2023
183 Clouds 4 987 65 10000 2.06 240 15:27 17.01.2023
184 Clouds 4 987 65 10000 2.57 230 14:45 17.01.2023
185 Clouds 4 988 63 10000 2.7 249 13:33 17.01.2023
186 Clouds 3 987 80 10000 3.6 260 11:47 17.01.2023
187 Clouds 2 986 86 10000 3.09 240 09:36 17.01.2023
188 Clouds 2 986 93 10000 5.66 240 08:45 17.01.2023
189 Snow 3 984 80 10000 7.72 250 07:28 17.01.2023
190 Clouds 4 981 81 10000 3.6 220 03:47 17.01.2023
191 Rain 5 979 81 10000 4.63 210 00:48 17.01.2023
192 Clouds 5 977 81 10000 6.17 210 22:38 16.01.2023
193 Clouds 4 977 87 10000 6.17 190 21:43 16.01.2023
194 Rain 4 978 87 10000 5.66 140 19:55 16.01.2023
195 Rain 5 979 75 10000 7.2 140 18:57 16.01.2023
196 Rain 5 979 75 10000 7.2 140 18:37 16.01.2023
197 Clear 5 979 75 10000 7.2 140 18:18 16.01.2023
198 Clouds 5 980 75 10000 8.23 150 17:20 16.01.2023
199 Clouds 5 984 81 10000 8.75 150 14:18 16.01.2023
200 Rain 5 985 81 10000 7.72 150 13:35 16.01.2023
201 Clouds 5 990 81 10000 5.66 140 10:23 16.01.2023
202 Clouds 4 992 87 10000 6.17 170 08:20 16.01.2023
203 Clouds 5 1001 70 10000 5.14 210 22:44 15.01.2023
204 Clouds 6 1001 70 10000 7.72 210 21:23 15.01.2023
205 Clouds 6 1001 70 10000 8.23 210 20:26 15.01.2023
206 Clouds 6 1001 65 10000 9.26 220 18:57 15.01.2023
207 Clear 7 1000 61 10000 8.23 220 17:23 15.01.2023
208 Clouds 6 1000 70 10000 7.72 230 13:44 15.01.2023
209 Clouds 6 1000 75 10000 8.23 220 12:21 15.01.2023
210 Clouds 6 1000 75 10000 7.2 220 11:28 15.01.2023
211 Clouds 5 999 81 10000 6.69 220 10:21 15.01.2023
212 Rain 6 998 70 10000 6.69 220 07:45 15.01.2023
213 Rain 10 997 87 10000 8.23 200 23:33 14.01.2023
214 Rain 9 998 87 10000 8.75 200 22:43 14.01.2023
215 Clouds 9 998 81 10000 9.77 200 21:36 14.01.2023
216 Clouds 9 998 81 10000 8.75 200 21:18 14.01.2023
217 Clouds 9 999 81 10000 8.75 200 20:42 14.01.2023
218 Rain 9 999 87 10000 9.77 200 20:21 14.01.2023
219 Rain 8 1001 93 10000 8.23 190 17:49 14.01.2023
220 Rain 8 1003 87 10000 10.8 190 15:31 14.01.2023
221 Rain 8 1004 87 10000 9.77 190 14:56 14.01.2023
222 Rain 7 1007 87 10000 7.2 170 13:44 14.01.2023
223 Rain 7 1009 87 10000 7.2 190 12:49 14.01.2023
224 Rain 6 1012 87 10000 7.72 190 10:48 14.01.2023
225 Clouds 6 1013 81 10000 5.66 190 08:20 14.01.2023
226 Clouds 7 1013 76 10000 4.63 230 00:56 14.01.2023
227 Clouds 7 1012 70 10000 4.63 230 22:59 13.01.2023
228 Clouds 7 1012 70 10000 4.63 230 22:41 13.01.2023
229 Clouds 7 1012 81 10000 6.17 250 21:56 13.01.2023
230 Clouds 8 1011 70 10000 6.17 240 20:25 13.01.2023
231 Clouds 7 1012 83 10000 6.78 251 19:25 13.01.2023
232 Clouds 8 1008 76 10000 5.66 250 16:58 13.01.2023
233 Clouds 8 1006 81 10000 4.63 230 14:52 13.01.2023
234 Clouds 9 1006 66 10000 5.66 230 12:22 13.01.2023
235 Clouds 8 1005 76 10000 6.17 210 10:37 13.01.2023
236 Clouds 7 1005 76 10000 6.69 210 10:18 13.01.2023
237 Clouds 7 1005 76 10000 6.17 210 09:39 13.01.2023
238 Clouds 7 1005 76 10000 5.66 210 08:49 13.01.2023
239 Clouds 7 1005 76 10000 5.66 210 08:49 13.01.2023
240 Rain 8 1004 66 10000 6.17 230 06:56 13.01.2023
241 Rain 9 1004 76 10000 7.2 220 05:47 13.01.2023
242 Clouds 10 1005 87 10000 6.17 210 00:55 13.01.2023
243 Clouds 10 1006 87 10000 6.69 210 22:46 12.01.2023
244 Rain 10 1006 87 10000 7.2 210 21:19 12.01.2023
245 Rain 10 1006 87 10000 7.2 200 20:46 12.01.2023
246 Rain 10 1007 87 10000 6.17 210 18:26 12.01.2023
247 Rain 10 1007 87 10000 7.72 210 16:59 12.01.2023
248 Clouds 9 1009 88 10000 8.68 224 14:54 12.01.2023
249 Clouds 11 1006 81 10000 8.23 210 14:26 12.01.2023
250 Clouds 9 1009 87 10000 8.56 226 13:38 12.01.2023
251 Clouds 9 1007 81 10000 8.23 210 11:44 12.01.2023
252 Rain 8 1007 87 10000 8.23 210 10:24 12.01.2023
253 Clouds 8 1009 76 10000 7.72 210 07:26 12.01.2023
254 Clouds 8 1012 76 10000 7.2 210 00:31 12.01.2023
255 Clouds 7 1012 76 10000 7.2 200 23:48 11.01.2023
256 Clouds 8 1012 76 10000 5.66 220 23:30 11.01.2023
257 Clouds 8 1012 76 10000 5.66 220 23:30 11.01.2023
258 Clouds 7 1012 76 10000 6.17 210 22:55 11.01.2023
259 Clouds 8 1013 76 10000 6.17 200 21:20 11.01.2023
260 Clear 7 1013 81 10000 3.09 230 18:50 11.01.2023
261 Clouds 8 1012 87 10000 3.6 240 17:30 11.01.2023
262 Clouds 10 1010 81 10000 4.12 270 15:38 11.01.2023
263 Rain 9 1009 87 10000 5.66 210 13:54 11.01.2023
264 Rain 9 1009 93 10000 6.69 190 12:25 11.01.2023
265 Rain 9 1009 87 10000 6.69 210 10:53 11.01.2023
266 Rain 8 1009 87 10000 7.2 200 08:31 11.01.2023
267 Rain 8 1009 87 10000 8.23 200 07:27 11.01.2023
268 Clouds 6 1010 93 10000 8.23 190 04:37 11.01.2023
269 Clouds 6 1013 81 10000 9.26 190 22:54 10.01.2023
270 Rain 6 1014 81 10000 9.77 180 22:18 10.01.2023
271 Clouds 6 1015 81 10000 7.2 180 20:56 10.01.2023
272 Rain 6 1016 75 10000 8.23 190 19:51 10.01.2023
273 Rain 6 1016 75 10000 5.66 170 18:48 10.01.2023
274 Clouds 6 1017 75 10000 4.63 190 17:59 10.01.2023
275 Clouds 6 1017 75 10000 5.66 190 16:54 10.01.2023
276 Clouds 7 1018 75 10000 4.63 190 15:33 10.01.2023
277 Clouds 7 1018 75 10000 4.63 210 14:35 10.01.2023
278 Clouds 7 1018 75 10000 4.63 210 12:47 10.01.2023
279 Clouds 6 1017 81 10000 3.09 220 09:43 10.01.2023
280 Clouds 6 1017 81 10000 3.09 220 09:43 10.01.2023
281 Clouds 5 1016 81 10000 3.09 200 08:37 10.01.2023
282 Clouds 5 1016 81 10000 3.09 230 07:55 10.01.2023
283 Clouds 5 1013 87 10000 4.12 270 04:59 10.01.2023
284 Clouds 6 1008 87 10000 3.6 240 00:19 10.01.2023
285 Clouds 6 1006 87 10000 2.06 240 21:57 09.01.2023
286 Clouds 6 1005 81 10000 3.6 250 20:46 09.01.2023
287 Clouds 6 1003 81 10000 2.57 220 19:50 09.01.2023
288 Clouds 7 1002 81 10000 3.6 240 18:21 09.01.2023
289 Clouds 6 1001 81 10000 3.6 240 17:49 09.01.2023
290 Clouds 7 1000 81 10000 4.12 230 16:33 09.01.2023
291 Clouds 8 999 81 10000 5.66 220 15:31 09.01.2023
292 Rain 8 999 76 10000 5.66 210 14:53 09.01.2023
293 Clouds 9 998 76 10000 6.69 210 14:21 09.01.2023
294 Clouds 8 998 76 10000 5.14 220 12:49 09.01.2023
295 Clouds 8 999 76 10000 5.66 210 11:51 09.01.2023
296 Clouds 7 998 81 10000 5.66 200 11:19 09.01.2023
297 Clouds 7 996 87 10000 3.6 240 06:53 09.01.2023
298 Rain 8 995 93 10000 3.09 140 02:55 09.01.2023
299 Rain 8 996 87 10000 4.12 140 00:58 09.01.2023
300 Clouds 8 999 87 10000 4.63 140 21:50 08.01.2023
301 Clouds 8 1000 87 10000 4.12 150 21:21 08.01.2023
302 Clouds 8 1000 87 10000 3.6 160 20:33 08.01.2023
303 Clouds 9 1001 87 10000 4.12 170 17:59 08.01.2023
304 Clouds 9 1001 87 10000 4.63 180 17:21 08.01.2023
305 Rain 10 1002 81 10000 5.14 180 15:49 08.01.2023
306 Rain 10 1002 81 10000 5.14 180 15:49 08.01.2023
307 Clouds 10 1002 81 10000 6.17 180 15:30 08.01.2023
308 Clouds 10 1003 76 10000 5.14 200 13:58 08.01.2023
309 Clouds 10 1003 87 10000 5.66 190 13:30 08.01.2023
310 Clouds 9 1003 87 10000 5.66 200 12:43 08.01.2023
311 Clouds 9 1004 87 10000 5.14 200 09:55 08.01.2023
312 Rain 9 1004 87 10000 5.14 200 09:35 08.01.2023
313 Rain 9 1004 93 10000 5.14 180 07:45 08.01.2023
314 Clouds 9 1007 76 10000 4.12 130 23:59 07.01.2023
315 Clouds 8 1008 76 10000 3.6 150 22:47 07.01.2023
316 Clouds 9 1008 76 10000 4.12 140 22:23 07.01.2023
317 Clouds 8 1008 76 10000 4.63 140 21:46 07.01.2023
318 Clouds 9 1009 76 10000 4.12 170 20:31 07.01.2023
319 Clouds 10 1010 71 10000 5.14 170 19:30 07.01.2023
320 Clouds 10 1010 71 10000 5.14 160 18:26 07.01.2023
321 Clouds 10 1010 71 10000 4.63 150 17:44 07.01.2023
322 Clouds 10 1010 71 10000 5.14 160 17:21 07.01.2023
323 Clouds 10 1011 71 10000 5.14 160 16:32 07.01.2023
324 Clouds 10 1011 76 10000 5.66 160 15:46 07.01.2023
325 Clouds 10 1011 71 10000 5.14 150 15:22 07.01.2023
326 Clouds 10 1013 76 10000 5.14 170 14:26 07.01.2023
327 Clouds 10 1013 76 10000 5.66 170 13:43 07.01.2023
328 Clouds 10 1013 81 10000 5.66 170 13:22 07.01.2023
329 Clouds 10 1014 81 10000 4.63 150 12:21 07.01.2023
330 Clouds 10 1015 81 10000 3.09 150 10:41 07.01.2023
331 Clouds 9 1016 87 10000 3.09 170 10:18 07.01.2023
332 Clouds 10 1016 87 10000 1.54 140 08:21 07.01.2023
333 Clouds 9 1016 87 10000 2.06 150 07:43 07.01.2023
334 Clouds 9 1016 93 10000 4.63 170 06:49 07.01.2023
335 Clouds 10 1018 87 10000 5.66 200 23:54 06.01.2023
336 Clouds 10 1019 87 10000 3.6 200 22:22 06.01.2023
337 Clouds 10 1018 87 10000 4.12 200 21:58 06.01.2023
338 Clouds 10 1018 87 10000 4.12 200 20:38 06.01.2023
339 Clouds 10 1018 87 10000 4.12 210 19:56 06.01.2023
340 Clouds 10 1018 87 10000 4.12 210 19:38 06.01.2023
341 Rain 9 1018 87 10000 3.09 200 19:20 06.01.2023
342 Clouds 9 1018 87 10000 2.57 190 18:24 06.01.2023
343 Clouds 10 1018 81 10000 3.6 240 16:54 06.01.2023
344 Clouds 10 1018 87 10000 3.6 240 16:23 06.01.2023
345 Clouds 11 1017 81 10000 5.14 250 15:53 06.01.2023
346 Clouds 11 1017 87 10000 4.12 250 15:31 06.01.2023
347 Clouds 11 1017 87 10000 4.12 250 15:31 06.01.2023
348 Clouds 11 1017 81 10000 5.66 230 13:47 06.01.2023
349 Clouds 11 1017 76 10000 6.17 220 12:21 06.01.2023
350 Clouds 10 1017 81 10000 4.63 210 10:57 06.01.2023
351 Clouds 10 1017 81 10000 4.12 200 08:51 06.01.2023
352 Clouds 9 1018 100 10000 1.54 170 05:26 06.01.2023
353 Clouds 9 1020 81 10000 5.66 210 23:39 05.01.2023
354 Clouds 8 1020 87 10000 3.09 210 22:45 05.01.2023
355 Clouds 8 1020 81 10000 4.12 210 21:19 05.01.2023
356 Clouds 10 1020 76 10000 4.63 250 17:39 05.01.2023
357 Clouds 10 1020 81 10000 4.63 250 17:21 05.01.2023
358 Clouds 10 1019 81 10000 7.72 270 15:58 05.01.2023
359 Clouds 10 1019 81 10000 6.69 280 15:34 05.01.2023
360 Clouds 10 1018 81 10000 6.69 280 14:33 05.01.2023
361 Rain 10 1018 87 10000 5.66 270 12:41 05.01.2023
362 Clouds 10 1017 81 10000 7.2 270 11:36 05.01.2023
363 Clouds 10 1016 76 10000 7.2 270 09:43 05.01.2023
364 Clouds 10 1015 81 10000 6.17 260 08:23 05.01.2023
365 Rain 11 1014 71 10000 7.72 270 06:50 05.01.2023
366 Clouds 11 1014 71 10000 6.69 270 03:34 05.01.2023
367 Clouds 13 1012 66 10000 9.77 250 22:27 04.01.2023
368 Clouds 12 1012 82 10000 8.23 250 21:32 04.01.2023
369 Rain 11 1012 93 10000 3.6 220 20:23 04.01.2023
370 Clouds 11 1012 82 10000 7.2 240 19:47 04.01.2023
371 Clouds 13 1012 71 10000 7.2 250 19:29 04.01.2023
372 Clouds 11 1012 82 10000 6.17 210 18:18 04.01.2023
373 Clouds 11 1013 81 10000 7.72 210 16:31 04.01.2023
374 Clouds 10 1013 81 10000 8.23 210 14:52 04.01.2023
375 Clouds 10 1015 87 10000 8.23 210 13:30 04.01.2023
376 Clouds 8 1016 87 10000 9.26 190 11:24 04.01.2023
377 Rain 8 1017 87 10000 9.77 190 10:44 04.01.2023
378 Rain 8 1017 87 10000 8.75 200 10:25 04.01.2023
379 Clouds 8 1017 87 10000 9.26 200 09:52 04.01.2023
380 Rain 7 1019 87 10000 9.26 200 05:39 04.01.2023
381 Clouds 6 1024 87 10000 3.6 190 01:41 04.01.2023
382 Clouds 6 1025 87 10000 2.57 150 23:42 03.01.2023
383 Clear 6 1026 81 10000 3.6 170 22:56 03.01.2023
384 Clear 6 1026 81 10000 5.14 180 21:42 03.01.2023
385 Clouds 6 1027 87 10000 5.14 190 20:50 03.01.2023
386 Clear 7 1027 87 10000 4.63 190 18:40 03.01.2023
387 Clouds 7 1027 87 10000 1.03 0 16:40 03.01.2023
388 Clouds 9 1027 71 10000 3.6 190 15:28 03.01.2023
389 Clouds 9 1027 76 10000 6.69 200 13:33 03.01.2023
390 Clear 9 1028 76 10000 5.14 200 12:59 03.01.2023
391 Clear 9 1028 76 10000 5.14 200 12:38 03.01.2023
392 Clouds 8 1028 81 10000 4.63 200 11:56 03.01.2023
393 Clear 4 1028 87 10000 2.06 190 09:50 03.01.2023
394 Clouds 6 1026 87 10000 2.57 240 04:28 03.01.2023
395 Clouds 6 1025 87 10000 1.03 0 03:49 03.01.2023
396 Clouds 7 1025 87 10000 1.03 0 03:28 03.01.2023
397 Clouds 9 1023 76 10000 5.66 270 23:19 02.01.2023
398 Clouds 9 1023 81 10000 5.66 280 22:39 02.01.2023
399 Clouds 10 1021 81 10000 4.63 260 20:51 02.01.2023
400 Clouds 10 1020 87 10000 4.12 270 20:31 02.01.2023
401 Rain 10 1019 87 10000 1.54 260 18:45 02.01.2023
402 Rain 11 1017 87 10000 4.12 270 15:43 02.01.2023
403 Rain 12 1016 76 10000 5.66 250 13:51 02.01.2023
404 Rain 14 1015 62 10000 6.69 210 12:38 02.01.2023
405 Clear 14 1015 62 10000 6.69 200 11:25 02.01.2023
406 Clear 13 1014 62 10000 4.63 210 08:38 02.01.2023
407 Clouds 14 1013 62 10000 6.69 200 04:38 02.01.2023
408 Clouds 10 1015 93 10000 3.09 130 23:18 01.01.2023
409 Rain 11 1016 82 10000 3.6 200 21:46 01.01.2023
410 Rain 11 1017 82 10000 3.09 190 20:49 01.01.2023
411 Rain 12 1017 76 10000 4.12 200 20:18 01.01.2023
412 Rain 13 1017 67 10000 5.66 200 18:52 01.01.2023
413 Clouds 13 1018 77 10000 4.68 217 17:24 01.01.2023
414 Clouds 12 1018 77 10000 4.68 217 16:49 01.01.2023
415 Clouds 14 1018 76 10000 5.42 218 15:31 01.01.2023
416 Clear 14 1016 67 10000 6.69 210 13:48 01.01.2023
417 Clear 14 1016 67 10000 5.66 210 12:57 01.01.2023
418 Clear 14 1016 67 10000 5.66 210 11:41 01.01.2023
419 Clear 14 1016 67 10000 6.17 210 11:21 01.01.2023
420 Clear 14 1015 62 10000 6.17 200 09:29 01.01.2023
421 Clear 14 1014 62 10000 6.69 210 08:25 01.01.2023
422 Clouds 14 1013 62 10000 6.69 210 07:30 01.01.2023
423 Clouds 13 1013 58 10000 6.69 210 06:39 01.01.2023
424 Clouds 14 1011 58 10000 8.23 210 23:45 31.12.2022
425 Clouds 15 1011 58 10000 7.72 210 23:20 31.12.2022
426 Clouds 15 1010 63 10000 6.69 210 21:45 31.12.2022
427 Clouds 16 1010 63 10000 7.2 210 21:22 31.12.2022
428 Clouds 16 1010 67 10000 7.72 210 20:22 31.12.2022
429 Clouds 15 1010 72 10000 9.26 200 18:45 31.12.2022
430 Clouds 16 1011 72 10000 6.69 200 18:20 31.12.2022
431 Clouds 15 1010 77 10000 5.66 200 17:56 31.12.2022
432 Clouds 17 1010 67 10000 6.17 200 17:22 31.12.2022
433 Clouds 17 1010 67 10000 7.2 220 16:31 31.12.2022
434 Clouds 18 1009 63 10000 8.23 220 15:28 31.12.2022
435 Clouds 18 1009 63 10000 9.26 230 13:55 31.12.2022
436 Clouds 17 1009 67 10000 9.26 230 13:24 31.12.2022
437 Clouds 17 1008 72 10000 8.23 220 12:21 31.12.2022
438 Clouds 16 1008 67 10000 9.77 210 11:51 31.12.2022
439 Clouds 16 1008 77 10000 8.23 220 10:49 31.12.2022
440 Clouds 16 1008 77 10000 8.75 210 09:56 31.12.2022
441 Clouds 16 1008 77 10000 8.75 210 09:36 31.12.2022
442 Clouds 15 1006 82 10000 8.75 200 07:51 31.12.2022
443 Clouds 11 1006 87 10000 7.72 200 00:59 31.12.2022
444 Clouds 11 1006 87 10000 8.23 190 23:50 30.12.2022
445 Clouds 10 1005 81 10000 7.2 190 22:50 30.12.2022
446 Clouds 9 1005 87 10000 7.72 200 21:54 30.12.2022
447 Clouds 10 1004 87 10000 8.23 190 21:31 30.12.2022
448 Clouds 8 1004 87 10000 9.26 180 19:52 30.12.2022
449 Rain 8 1004 81 10000 9.26 160 17:53 30.12.2022
450 Rain 8 1004 81 10000 9.26 160 17:33 30.12.2022
451 Rain 8 1006 76 10000 7.72 150 15:58 30.12.2022
452 Clouds 9 1008 71 10000 7.72 170 14:54 30.12.2022
453 Clouds 9 1011 71 10000 5.66 170 12:50 30.12.2022
454 Clouds 6 1013 81 10000 4.12 170 08:23 30.12.2022
455 Clouds 7 1012 75 10000 3.6 240 03:44 30.12.2022
456 Clouds 8 1011 70 10000 4.12 230 02:24 30.12.2022
457 Clouds 8 1008 76 10000 5.66 230 22:58 29.12.2022
458 Clouds 9 1007 71 10000 6.17 220 21:32 29.12.2022
459 Clouds 8 1007 71 10000 5.66 220 20:54 29.12.2022
460 Clouds 9 1007 76 10000 5.66 230 20:25 29.12.2022
461 Rain 9 1007 76 10000 4.12 220 18:30 29.12.2022
462 Clouds 10 1007 76 10000 5.14 230 17:37 29.12.2022
463 Clouds 10 1006 76 10000 6.69 230 16:56 29.12.2022
464 Clouds 10 1006 76 10000 6.69 230 16:33 29.12.2022
465 Clouds 11 1005 66 10000 8.23 230 15:37 29.12.2022
466 Clouds 11 1004 76 10000 6.69 220 13:34 29.12.2022
467 Clouds 11 1004 81 10000 6.69 210 11:48 29.12.2022
468 Rain 11 1003 87 8000 7.2 200 09:18 29.12.2022
469 Clouds 10 1006 76 10000 7.2 200 00:23 29.12.2022
470 Clouds 10 1006 71 10000 6.17 190 23:28 28.12.2022
471 Clouds 9 1007 76 10000 6.69 190 21:22 28.12.2022
472 Rain 9 1008 76 10000 6.69 190 20:50 28.12.2022
473 Clouds 9 1009 76 10000 7.2 190 19:25 28.12.2022
474 Rain 9 1011 71 10000 5.66 210 16:57 28.12.2022
475 Clouds 9 1011 76 10000 5.14 210 15:25 28.12.2022
476 Clouds 8 1012 81 10000 5.66 210 12:56 28.12.2022
477 Clouds 8 1013 81 10000 6.17 210 12:23 28.12.2022
478 Clouds 8 1013 81 10000 6.69 210 11:21 28.12.2022
479 Clouds 7 1013 81 10000 7.2 210 08:45 28.12.2022
480 Clouds 6 1016 88 10000 7.84 208 07:27 28.12.2022
481 Clouds 5 1017 88 10000 7.78 207 06:43 28.12.2022
482 Clouds 3 1023 88 10000 5.07 199 23:36 27.12.2022
483 Clear 6 1023 75 10000 5.66 200 20:30 27.12.2022
484 Clouds 6 1023 75 10000 5.66 190 19:31 27.12.2022
485 Clouds 6 1023 75 10000 5.66 190 19:31 27.12.2022
486 Clouds 6 1024 81 10000 4.63 210 17:28 27.12.2022
487 Clouds 6 1024 81 10000 4.63 210 16:43 27.12.2022
488 Clouds 7 1024 70 10000 3.6 230 15:30 27.12.2022
489 Clouds 7 1024 70 10000 4.63 240 12:35 27.12.2022
490 Clouds 6 1024 75 10000 3.09 230 11:28 27.12.2022
491 Clouds 4 1023 81 10000 4.63 230 09:46 27.12.2022
492 Clouds 5 1023 81 10000 4.12 220 09:23 27.12.2022
493 Clouds 3 1022 81 10000 4.63 220 06:50 27.12.2022
494 Clouds 3 1021 80 10000 6.69 240 04:30 27.12.2022
495 Clouds 5 1018 81 10000 7.2 280 22:26 26.12.2022
496 Clouds 6 1016 81 10000 5.14 290 20:55 26.12.2022
497 Clouds 6 1016 81 10000 5.14 290 20:34 26.12.2022
498 Clouds 8 1014 87 10000 4.63 310 18:44 26.12.2022
499 Rain 9 1014 81 10000 5.14 280 17:44 26.12.2022
500 Rain 10 1013 81 10000 4.63 240 16:20 26.12.2022
501 Clouds 10 1013 81 10000 2.57 230 13:54 26.12.2022
502 Clouds 10 1013 81 10000 4.12 210 12:45 26.12.2022
503 Rain 12 1011 82 10000 3.09 230 07:29 26.12.2022
504 Clouds 11 1010 82 10000 5.66 210 23:56 25.12.2022
505 Clouds 11 1010 82 10000 5.66 210 23:35 25.12.2022
506 Clouds 12 1009 82 10000 5.66 210 22:26 25.12.2022
507 Rain 11 1009 82 10000 7.2 210 21:37 25.12.2022
508 Rain 11 1010 87 10000 4.63 210 18:49 25.12.2022
509 Clouds 10 1011 93 10000 3.6 180 17:51 25.12.2022
510 Rain 10 1011 93 10000 3.6 180 17:33 25.12.2022
511 Clouds 10 1011 93 10000 5.14 150 15:19 25.12.2022
512 Rain 9 1014 93 10000 5.14 150 11:50 25.12.2022
513 Rain 7 1016 100 9000 2.06 150 06:21 25.12.2022
514 Clouds 6 1016 93 10000 1.54 170 23:25 24.12.2022
515 Clouds 5 1016 93 10000 3.6 190 21:18 24.12.2022
516 Clouds 7 1014 87 10000 1.03 0 17:56 24.12.2022
517 Clouds 10 1013 81 10000 2.57 240 16:32 24.12.2022
518 Clouds 11 1012 76 10000 4.12 230 14:48 24.12.2022
519 Clouds 10 1012 87 10000 3.6 240 12:42 24.12.2022
520 Clouds 9 1010 93 10000 3.09 210 10:31 24.12.2022
521 Clouds 9 1010 87 10000 3.09 220 09:55 24.12.2022
522 Clouds 9 1010 87 10000 3.09 220 09:36 24.12.2022
523 Clouds 11 1006 76 10000 8.23 260 04:28 24.12.2022
524 Clouds 11 1003 81 10000 5.66 250 00:52 24.12.2022
525 Clouds 12 1002 76 10000 5.14 250 23:31 23.12.2022
526 Clouds 11 1001 87 9000 3.6 270 21:55 23.12.2022
527 Clouds 10 1000 93 10000 4.63 210 20:22 23.12.2022
528 Clouds 9 1000 100 10000 3.6 200 19:39 23.12.2022
529 Clouds 9 1000 93 10000 3.6 180 19:21 23.12.2022
530 Clouds 9 1000 93 10000 2.57 130 18:38 23.12.2022
531 Clouds 9 1001 93 10000 4.63 140 18:18 23.12.2022
532 Rain 9 1003 93 10000 2.57 150 16:25 23.12.2022
533 Rain 10 1004 87 10000 3.09 200 14:42 23.12.2022
534 Drizzle 10 1005 93 10000 4.63 230 10:56 23.12.2022
535 Clouds 9 1005 93 10000 3.09 220 09:36 23.12.2022
536 Clouds 9 1004 87 10000 4.12 240 07:45 23.12.2022
537 Clouds 9 1004 87 10000 4.63 240 06:50 23.12.2022
538 Clouds 9 1003 87 10000 3.6 210 05:19 23.12.2022
539 Clouds 8 1003 93 10000 4.63 190 23:20 22.12.2022
540 Clouds 8 1004 93 10000 5.66 200 21:56 22.12.2022
541 Clear 6 1006 81 10000 2.57 180 19:56 22.12.2022
542 Rain 7 1006 81 10000 3.09 180 19:22 22.12.2022
543 Clouds 8 1007 81 10000 3.6 240 17:59 22.12.2022
544 Clouds 9 1006 81 10000 4.63 270 16:54 22.12.2022
545 Clouds 9 1006 81 10000 4.63 270 16:30 22.12.2022
546 Clouds 10 1005 87 10000 4.12 290 15:29 22.12.2022
547 Drizzle 10 1005 93 10000 3.6 280 14:30 22.12.2022
548 Clouds 10 1004 93 10000 5.66 280 13:31 22.12.2022
549 Mist 10 1003 93 5000 3.09 280 12:31 22.12.2022
550 Rain 9 1001 100 9000 3.09 240 10:32 22.12.2022
551 Rain 9 1001 100 8000 2.06 170 09:24 22.12.2022
552 Rain 9 1002 100 6000 1.54 160 08:59 22.12.2022
553 Rain 9 1002 93 10000 3.09 180 07:54 22.12.2022
554 Clouds 9 1004 93 10000 4.63 200 04:19 22.12.2022
555 Clouds 9 1007 87 10000 4.63 210 00:48 22.12.2022
556 Clouds 8 1009 87 10000 3.6 180 22:40 21.12.2022
557 Clouds 8 1009 81 10000 3.09 210 21:49 21.12.2022
558 Rain 8 1009 87 10000 3.6 190 21:20 21.12.2022
559 Clouds 8 1009 87 10000 3.6 160 20:40 21.12.2022
560 Clouds 8 1010 81 10000 4.12 200 19:56 21.12.2022
561 Clouds 8 1010 81 10000 4.12 200 19:37 21.12.2022
562 Clouds 8 1010 81 10000 4.63 190 19:18 21.12.2022
563 Clouds 8 1010 76 10000 3.6 200 18:38 21.12.2022
564 Clouds 10 1010 87 10000 2.57 260 16:19 21.12.2022
565 Clouds 11 1010 87 10000 4.12 210 14:20 21.12.2022
566 Clouds 9 1010 93 10000 4.63 200 11:58 21.12.2022
567 Clouds 9 1010 93 10000 4.63 190 11:21 21.12.2022
568 Fog 8 1010 100 10000 2.06 160 10:29 21.12.2022
569 Fog 7 1010 100 500 2.06 210 08:48 21.12.2022
570 Clouds 9 1010 93 10000 2.57 220 06:30 21.12.2022
571 Clouds 9 1010 93 10000 2.57 220 06:30 21.12.2022
572 Rain 8 1011 93 10000 4.12 210 00:26 21.12.2022
573 Clouds 10 1011 76 10000 6.17 200 21:47 20.12.2022
574 Clouds 8 1011 81 10000 5.66 210 20:58 20.12.2022
575 Clear 8 1012 76 10000 4.12 200 19:55 20.12.2022
576 Clear 8 1013 81 10000 4.12 190 18:47 20.12.2022
577 Clear 9 1013 81 10000 4.63 200 18:22 20.12.2022
578 Clear 9 1013 81 10000 3.6 200 17:48 20.12.2022
579 Clear 8 1013 81 10000 4.12 190 17:24 20.12.2022
580 Clear 9 1013 81 10000 4.12 190 15:55 20.12.2022
581 Clear 10 1013 76 10000 4.12 190 14:55 20.12.2022
582 Clear 10 1013 76 10000 4.12 190 14:35 20.12.2022
583 Clear 9 1014 81 10000 3.09 0 13:26 20.12.2022
584 Clear 9 1014 76 10000 2.06 160 12:32 20.12.2022
585 Clear 9 1015 76 10000 3.6 200 11:42 20.12.2022
586 Clear 7 1016 87 10000 2.57 150 09:57 20.12.2022
587 Clouds 6 1017 87 10000 0.51 0 06:58 20.12.2022
588 Clouds 5 1018 81 10000 1.54 100 23:58 19.12.2022
589 Clouds 4 1019 87 10000 1.54 150 22:22 19.12.2022
590 Clear 4 1018 87 10000 6.69 200 20:48 19.12.2022
591 Rain 4 1019 87 10000 6.17 190 19:40 19.12.2022
592 Clear 4 1018 87 10000 3.6 110 18:43 19.12.2022
593 Clouds 4 1018 87 10000 4.12 190 17:38 19.12.2022
594 Clouds 3 1020 93 10000 1.03 0 14:45 19.12.2022
595 Rain 2 1020 93 9000 3.09 140 12:35 19.12.2022
596 Rain 2 1020 93 8000 2.06 130 11:36 19.12.2022
597 Snow 0 1021 86 8000 7.72 140 07:48 19.12.2022
598 Snow 0 1021 80 10000 4.63 160 06:32 19.12.2022
599 Snow -1 1024 80 10000 2.57 170 00:20 19.12.2022
600 Clouds -3 1025 86 10000 5.66 130 21:48 18.12.2022
601 Clouds -3 1025 80 10000 5.66 140 21:24 18.12.2022
602 Clouds -3 1025 80 10000 6.69 130 20:53 18.12.2022
603 Clear -2 1026 74 10000 4.63 140 19:43 18.12.2022
604 Clear -3 1026 74 10000 5.14 140 18:57 18.12.2022
605 Clear -3 1027 74 10000 4.12 150 17:52 18.12.2022
606 Clear -4 1027 86 10000 2.06 110 15:41 18.12.2022
607 Clear -4 1027 93 10000 2.06 90 15:23 18.12.2022
608 Clear -4 1027 86 10000 3.09 120 14:29 18.12.2022
609 Clear -7 1029 93 10000 2.57 80 12:58 18.12.2022
610 Clear -7 1029 93 10000 2.57 120 12:32 18.12.2022
611 Clear -8 1029 86 10000 2.57 130 11:48 18.12.2022
612 Clear -10 1030 92 10000 3.6 100 09:24 18.12.2022
613 Clear -10 1030 85 10000 4.12 100 08:46 18.12.2022
614 Clouds -10 1029 92 10000 1.54 80 06:24 18.12.2022
615 Clouds -9 1029 85 6000 1.03 100 04:41 18.12.2022
616 Clouds -8 1029 92 5000 2.06 100 01:49 18.12.2022
617 Clouds -7 1028 93 6000 2.57 130 22:30 17.12.2022
618 Clouds -7 1028 93 7000 3.09 120 20:37 17.12.2022
619 Fog -6 1026 93 10000 3.6 140 17:21 17.12.2022
620 Clouds -4 1026 93 10000 3.09 130 15:19 17.12.2022
621 Clouds -5 1026 93 7000 2.57 140 13:18 17.12.2022
622 Fog -7 1025 93 9000 2.57 130 11:18 17.12.2022
623 Clouds -7 1025 93 8000 2.06 130 10:39 17.12.2022
624 Clouds -8 1024 86 9000 2.57 100 08:36 17.12.2022
625 Clouds -8 1023 86 8000 1.03 110 06:47 17.12.2022
626 Clouds -10 1020 92 5000 0.51 0 00:32 17.12.2022
627 Clouds -9 1019 92 6000 0 0 22:34 16.12.2022
628 Fog -8 1018 86 650 0.51 0 20:26 16.12.2022
629 Fog -6 1016 93 500 0 0 17:49 16.12.2022
630 Fog -3 1014 93 10000 0.51 0 15:19 16.12.2022
631 Mist -3 1014 100 3000 1.03 0 14:36 16.12.2022
632 Clouds -6 1013 86 10000 0 0 12:22 16.12.2022
633 Clear -7 1013 86 10000 0 0 11:55 16.12.2022
634 Clouds -10 1012 92 9000 0 0 09:40 16.12.2022
635 Clear -11 1010 92 10000 1.54 260 08:27 16.12.2022
636 Clear -11 1010 92 10000 1.54 260 08:27 16.12.2022
637 Clear -11 1010 92 10000 1.54 260 08:27 16.12.2022
638 Clear -11 1010 85 10000 1.03 280 07:54 16.12.2022
639 Clouds -8 1011 96 10000 0.96 34 00:22 16.12.2022
640 Mist -9 1008 92 5000 0 0 22:33 15.12.2022
641 Clouds -8 1008 86 6000 1.03 0 21:25 15.12.2022
642 Clouds -8 1009 92 7000 0.51 320 19:42 15.12.2022
643 Clouds -7 1008 86 8000 0.51 0 18:53 15.12.2022
644 Fog -6 1007 93 8000 1.03 120 17:27 15.12.2022
645 Clouds -4 1008 86 8000 1.54 110 15:46 15.12.2022
646 Clouds -4 1008 86 9000 2.57 140 14:55 15.12.2022
647 Clouds -4 1009 86 7000 2.06 140 12:51 15.12.2022
648 Clouds -5 1009 93 9000 3.09 140 12:22 15.12.2022
649 Mist -8 1007 92 3000 2.06 120 08:55 15.12.2022
650 Clouds -8 1007 86 10000 2.06 130 08:18 15.12.2022
651 Clouds -8 1006 92 10000 1.03 0 05:43 15.12.2022
652 Clouds -8 1003 92 10000 0 0 22:59 14.12.2022
653 Clouds -8 1002 86 10000 0.51 0 21:24 14.12.2022
654 Clouds -7 1002 86 10000 1.54 250 20:44 14.12.2022
655 Clear -7 1002 86 10000 1.03 280 19:51 14.12.2022
656 Clear -5 1001 93 10000 2.06 240 16:58 14.12.2022
657 Clear -5 1001 93 10000 2.06 240 16:38 14.12.2022
658 Clouds -3 1001 86 10000 1.54 310 14:55 14.12.2022
659 Clear -3 1001 80 10000 1.54 50 13:19 14.12.2022
660 Snow -4 1001 86 10000 2.06 130 10:46 14.12.2022
661 Snow -4 1004 69 10000 0.93 97 10:22 14.12.2022
662 Clear -6 1002 93 10000 4.12 110 07:44 14.12.2022
663 Clouds -6 1008 93 6000 1.03 120 22:19 13.12.2022
664 Clouds -6 1008 93 6000 1.03 150 21:37 13.12.2022
665 Clouds -6 1009 93 6000 1.03 0 20:47 13.12.2022
666 Mist -6 1009 100 1100 2.06 110 19:21 13.12.2022
667 Mist -6 1010 100 1900 1.03 140 16:40 13.12.2022
668 Mist -6 1010 93 3000 1.54 140 14:59 13.12.2022
669 Mist -6 1010 93 3000 1.54 140 14:59 13.12.2022
670 Mist -6 1010 93 2800 1.54 140 13:33 13.12.2022
671 Mist -6 1011 93 2500 1.54 140 10:49 13.12.2022
672 Mist -6 1011 93 2500 1.54 170 10:26 13.12.2022
673 Mist -6 1011 93 2000 1.54 180 08:18 13.12.2022
674 Clouds -5 1012 93 3300 2.57 160 22:37 12.12.2022
675 Clouds -4 1012 93 4000 3.09 140 21:58 12.12.2022
676 Mist -5 1012 93 4400 2.57 140 19:46 12.12.2022
677 Clouds -4 1012 93 7000 1.03 110 17:53 12.12.2022
678 Clear -2 1011 80 10000 1.03 100 15:32 12.12.2022
679 Clear -3 1011 86 10000 2.06 90 13:51 12.12.2022
680 Clear -7 1011 93 10000 1.03 300 09:21 12.12.2022
681 Clear -7 1011 93 10000 1.54 270 08:56 12.12.2022
682 Clouds -6 1010 93 10000 0 0 04:48 12.12.2022
683 Clouds -3 1009 93 10000 0 0 01:51 12.12.2022
684 Clouds -2 1009 93 6000 1.03 270 22:18 11.12.2022
685 Clouds -1 1009 93 5000 2.06 270 20:37 11.12.2022
686 Clouds -1 1009 93 5000 1.03 0 19:38 11.12.2022
687 Mist -1 1009 93 4000 1.03 0 18:34 11.12.2022
688 Clouds -1 1009 93 6000 0.51 0 17:53 11.12.2022
689 Clouds -1 1009 93 6000 0.51 0 16:53 11.12.2022
690 Clouds -1 1009 93 6000 1.03 280 16:29 11.12.2022
691 Clouds -1 1009 93 6000 0.51 0 15:45 11.12.2022
692 Clouds -1 1009 93 6000 0 0 13:35 11.12.2022
693 Mist -1 1009 93 5000 0 0 12:42 11.12.2022
694 Clouds -1 1009 86 9000 1.54 240 10:26 11.12.2022
695 Clouds -3 1010 93 10000 1.03 290 01:36 11.12.2022
696 Clouds -4 1010 93 10000 1.03 0 00:28 11.12.2022
697 Clouds -4 1010 93 10000 1.03 0 22:38 10.12.2022
698 Clouds -2 1010 86 10000 0.51 0 21:59 10.12.2022
699 Clouds -2 1010 86 10000 1.03 240 21:18 10.12.2022
700 Clouds -1 1010 86 10000 1.54 280 20:19 10.12.2022
701 Clouds -1 1010 86 10000 2.57 290 17:53 10.12.2022
702 Clouds -1 1009 86 10000 2.57 300 16:46 10.12.2022
703 Clouds 0 1009 86 9000 2.57 300 15:43 10.12.2022
704 Clouds 0 1009 86 9000 2.57 300 15:24 10.12.2022
705 Clouds 0 1008 93 8000 3.09 290 13:44 10.12.2022
706 Clouds -1 1008 100 7000 3.09 300 12:23 10.12.2022
707 Clouds 0 1008 93 7000 2.57 290 10:55 10.12.2022
708 Clouds -1 1008 93 5000 2.06 290 09:44 10.12.2022
709 Clouds -1 1007 100 3800 2.57 280 07:22 10.12.2022
710 Clouds -1 1007 100 3300 3.09 290 06:51 10.12.2022
711 Snow 0 1006 100 6000 1.54 290 23:38 09.12.2022
712 Snow 0 1006 93 9000 1.54 270 22:42 09.12.2022
713 Snow 0 1005 93 8000 1.03 250 21:29 09.12.2022
714 Snow 0 1005 93 10000 1.54 280 20:58 09.12.2022
715 Clouds 0 1005 93 10000 1.54 270 19:46 09.12.2022
716 Clouds 1 1005 86 10000 1.03 0 17:56 09.12.2022
717 Clouds 1 1005 86 10000 1.03 0 16:53 09.12.2022
718 Clouds 1 1005 86 10000 1.54 80 16:18 09.12.2022
719 Clouds 1 1005 93 10000 2.06 90 15:27 09.12.2022
720 Clouds 1 1005 93 10000 2.06 90 12:37 09.12.2022
721 Mist 0 1006 100 4500 2.57 120 10:49 09.12.2022
722 Mist 0 1006 100 4000 2.06 120 10:20 09.12.2022
723 Clouds 0 1005 100 1000 1.03 0 05:37 09.12.2022
724 Clouds 1 1006 100 1400 0 0 03:18 09.12.2022
725 Snow 1 1006 100 1500 0 0 22:48 08.12.2022
726 Snow 1 1006 100 1800 0.51 70 20:51 08.12.2022
727 Clouds 3 1008 99 127 1.7 228 18:55 08.12.2022
728 Snow 2 1006 93 3900 3.09 270 16:26 08.12.2022
729 Rain 3 1005 93 10000 3.6 320 14:29 08.12.2022
730 Clouds 5 1006 81 10000 3.09 230 12:25 08.12.2022
731 Rain 4 1006 87 10000 3.6 200 10:34 08.12.2022
732 Clouds 4 1006 81 10000 3.09 200 09:28 08.12.2022
733 Clouds 3 1007 87 10000 3.09 190 06:49 08.12.2022
734 Clouds 3 1010 81 10000 3.6 240 22:36 07.12.2022
735 Clouds 3 1010 81 10000 3.09 240 22:18 07.12.2022
736 Clouds 3 1010 87 10000 2.57 240 21:45 07.12.2022
737 Clouds 3 1011 81 10000 3.09 260 19:48 07.12.2022
738 Clouds 4 1012 87 10000 4.12 260 17:41 07.12.2022
739 Clouds 5 1012 87 10000 3.6 270 14:41 07.12.2022
740 Clouds 4 1013 93 9000 5.14 280 12:39 07.12.2022
741 Rain 4 1014 93 6000 5.14 280 10:46 07.12.2022
742 Clouds 3 1013 93 10000 4.63 270 09:56 07.12.2022
743 Clouds 3 1013 93 8000 3.6 270 08:54 07.12.2022
744 Clouds 4 1013 93 10000 4.12 280 06:49 07.12.2022
745 Clouds 4 1013 100 6000 3.6 280 05:23 07.12.2022
746 Clouds 3 1015 93 10000 2.06 220 23:43 06.12.2022
747 Clouds 2 1016 93 10000 2.06 240 21:24 06.12.2022
748 Clouds 3 1016 93 9000 3.09 270 18:28 06.12.2022
749 Clouds 3 1016 93 10000 3.09 280 16:56 06.12.2022
750 Clouds 3 1016 93 10000 3.09 280 16:20 06.12.2022
751 Clouds 3 1016 93 10000 3.09 290 15:34 06.12.2022
752 Clouds 3 1016 93 9000 2.57 290 14:32 06.12.2022
753 Clouds 2 1016 100 10000 3.09 300 13:39 06.12.2022
754 Clouds 2 1016 100 5000 4.12 280 12:40 06.12.2022
755 Snow 2 1017 93 9000 2.57 250 10:23 06.12.2022
756 Drizzle 1 1016 100 5000 2.06 290 06:48 06.12.2022
757 Clouds 1 1017 100 1600 0.51 300 02:22 06.12.2022
758 Clouds 2 1018 93 700 0.51 0 22:37 05.12.2022
759 Clouds 2 1018 100 3900 1.03 0 21:37 05.12.2022
760 Clouds 2 1018 100 10000 0 0 20:39 05.12.2022
761 Clouds 2 1017 100 10000 1.03 180 19:51 05.12.2022
762 Clouds 2 1017 100 10000 1.54 210 19:32 05.12.2022
763 Clouds 2 1017 100 8000 1.54 230 16:49 05.12.2022
764 Clouds 2 1017 100 10000 1.54 170 15:26 05.12.2022
765 Clouds 1 1017 93 6000 1.54 140 13:28 05.12.2022
766 Clouds 2 1017 100 8000 0 0 12:56 05.12.2022
767 Clouds 2 1017 100 8000 0 0 12:37 05.12.2022
768 Mist 2 1017 93 1100 0.51 170 10:59 05.12.2022
769 Snow 1 1015 100 1800 1.03 0 05:22 05.12.2022
770 Clouds 2 1015 93 6000 2.06 20 23:56 04.12.2022
771 Clouds 2 1015 100 4500 3.09 20 22:41 04.12.2022
772 Clouds 2 1015 100 4300 3.09 20 22:18 04.12.2022
773 Clouds 2 1015 93 4100 2.06 30 21:30 04.12.2022
774 Mist 2 1015 93 5000 2.57 20 19:49 04.12.2022
775 Mist 2 1015 93 5000 2.57 30 19:23 04.12.2022
776 Mist 2 1015 93 4600 3.09 30 17:58 04.12.2022
777 Mist 2 1015 93 5000 2.06 40 17:21 04.12.2022
778 Clouds 2 1015 93 6000 3.09 50 16:36 04.12.2022
779 Clouds 2 1015 93 7000 2.06 60 16:18 04.12.2022
780 Clouds 2 1015 93 8000 3.6 40 14:54 04.12.2022
781 Clouds 2 1016 93 9000 4.12 90 13:45 04.12.2022
782 Clouds 2 1016 93 9000 3.6 90 12:45 04.12.2022
783 Clouds 2 1017 87 10000 3.04 57 12:21 04.12.2022
784 Clouds 2 1017 93 8000 4.12 80 11:19 04.12.2022
785 Clouds 1 1016 93 8000 3.6 90 07:34 04.12.2022
786 Clouds 0 1017 93 9000 4.12 80 02:24 04.12.2022
787 Clouds 0 1018 93 7000 3.6 70 23:43 03.12.2022
788 Clouds 0 1018 93 6000 3.6 90 22:24 03.12.2022
789 Clouds 0 1018 93 7000 3.6 100 21:41 03.12.2022
790 Clouds 0 1018 93 9000 3.09 100 20:35 03.12.2022
791 Clouds 0 1019 86 10000 3.6 90 18:40 03.12.2022
792 Clouds 0 1019 86 9000 3.6 90 17:27 03.12.2022
793 Clouds 0 1019 86 10000 3.6 80 15:48 03.12.2022
794 Clouds 0 1020 86 10000 4.63 80 12:55 03.12.2022
795 Clouds 0 1020 86 10000 3.6 70 12:26 03.12.2022
796 Clouds 0 1021 86 10000 4.12 90 10:27 03.12.2022
797 Clouds 0 1021 86 10000 5.14 80 07:58 03.12.2022
798 Snow 0 1022 93 10000 5.14 80 01:31 03.12.2022
799 Snow 1 1022 86 6000 4.63 70 23:25 02.12.2022
800 Clouds 1 1022 93 10000 5.66 70 21:34 02.12.2022
801 Snow 1 1022 93 6000 2.57 40 19:34 02.12.2022
802 Snow 1 1022 93 3000 3.09 50 16:19 02.12.2022
803 Snow 2 1021 86 6000 3.09 30 14:48 02.12.2022
804 Snow 2 1021 86 5000 4.12 50 14:27 02.12.2022
805 Snow 2 1022 93 5000 3.6 50 13:41 02.12.2022
806 Snow 2 1022 93 6000 3.6 60 11:46 02.12.2022
807 Snow 1 1023 93 9000 3.6 90 09:52 02.12.2022
808 Snow 1 1022 100 5000 2.57 50 07:25 02.12.2022
809 Snow 2 1023 93 10000 2.57 40 05:58 02.12.2022
810 Clouds 3 1025 93 7000 2.57 40 22:40 01.12.2022
811 Clouds 3 1025 93 8000 2.57 50 21:40 01.12.2022
812 Clouds 3 1025 93 8000 2.57 50 20:32 01.12.2022
813 Clouds 3 1025 93 10000 2.57 20 18:57 01.12.2022
814 Clouds 5 1025 87 10000 2.57 10 16:25 01.12.2022
815 Clouds 4 1025 81 10000 3.09 50 13:41 01.12.2022
816 Clouds 4 1026 87 9000 2.06 70 10:42 01.12.2022
817 Clouds 4 1026 87 9000 2.06 70 10:42 01.12.2022
818 Clouds 4 1026 93 8000 2.06 60 09:54 01.12.2022
819 Clouds 4 1026 93 8000 2.06 60 09:36 01.12.2022
820 Clouds 5 1024 93 3000 2.57 40 05:34 01.12.2022
821 Clouds 6 1024 100 1100 2.06 10 22:40 30.11.2022
822 Clouds 6 1024 100 650 2.06 10 21:20 30.11.2022
823 Clouds 6 1024 100 600 1.54 10 20:48 30.11.2022
824 Fog 6 1023 100 500 1.03 0 20:23 30.11.2022
825 Fog 6 1023 93 450 2.06 360 18:35 30.11.2022
826 Mist 7 1022 100 1000 1.54 350 17:36 30.11.2022
827 Drizzle 7 1022 100 3000 1.54 330 16:20 30.11.2022
828 Mist 7 1022 100 2500 1.54 310 14:41 30.11.2022
829 Mist 7 1022 100 1800 2.06 300 14:23 30.11.2022
830 Fog 7 1022 100 2500 2.06 290 11:35 30.11.2022
831 Mist 7 1021 100 4000 1.03 320 08:40 30.11.2022
832 Mist 7 1021 100 3000 1.03 300 07:58 30.11.2022
833 Rain 8 1020 93 3900 1.54 260 23:42 29.11.2022
834 Clouds 8 1020 93 3300 1.54 250 23:21 29.11.2022
835 Clouds 8 1019 93 1200 1.54 290 21:47 29.11.2022
836 Clouds 8 1019 93 2300 1.54 280 20:38 29.11.2022
837 Mist 7 1019 100 4800 0 0 19:20 29.11.2022
838 Mist 7 1018 100 4000 0.51 0 17:36 29.11.2022
839 Mist 7 1018 100 3100 1.54 300 16:27 29.11.2022
840 Mist 7 1017 100 2400 1.03 0 14:50 29.11.2022
841 Mist 7 1017 100 1300 1.03 0 13:35 29.11.2022
842 Fog 7 1017 100 500 1.03 0 12:22 29.11.2022
843 Mist 7 1017 100 1500 1.54 310 11:24 29.11.2022
844 Fog 6 1016 93 500 1.54 310 10:22 29.11.2022
845 Fog 6 1015 100 800 0.51 290 08:42 29.11.2022
846 Rain 6 1013 100 3400 1.03 150 01:30 29.11.2022
847 Clouds 6 1013 93 5000 1.54 150 23:35 28.11.2022
848 Rain 6 1013 93 5000 1.54 150 22:57 28.11.2022
849 Clouds 6 1013 93 10000 2.57 140 21:54 28.11.2022
850 Clouds 6 1013 93 10000 2.57 140 21:36 28.11.2022
851 Clouds 7 1012 81 10000 3.09 160 19:41 28.11.2022
852 Clouds 6 1012 87 10000 3.09 170 18:30 28.11.2022
853 Clouds 7 1012 75 10000 3.6 170 17:51 28.11.2022
854 Clouds 7 1012 75 10000 1.54 180 16:35 28.11.2022
855 Rain 7 1011 75 10000 1.54 140 14:28 28.11.2022
856 Rain 7 1012 70 10000 2.57 120 13:52 28.11.2022
857 Rain 6 1012 75 10000 4.63 140 12:42 28.11.2022
858 Rain 5 1012 81 10000 4.12 140 09:39 28.11.2022
859 Rain 6 1012 75 10000 3.09 130 07:27 28.11.2022
860 Rain 4 1013 81 10000 4.63 150 04:43 28.11.2022
861 Rain 5 1013 81 10000 7.72 150 03:58 28.11.2022
862 Rain 5 1013 81 10000 7.2 150 03:18 28.11.2022
863 Rain 6 1016 75 10000 4.63 140 22:47 27.11.2022
864 Rain 6 1017 75 10000 6.17 140 21:41 27.11.2022
865 Rain 6 1018 81 10000 6.69 150 20:26 27.11.2022
866 Rain 7 1019 81 10000 6.17 150 17:49 27.11.2022
867 Clear 8 1021 76 10000 4.63 150 15:20 27.11.2022
868 Clouds 7 1023 81 10000 5.66 150 12:32 27.11.2022
869 Clouds 6 1024 87 10000 4.63 140 10:48 27.11.2022
870 Clouds 5 1025 93 10000 2.57 140 08:19 27.11.2022
871 Clouds 5 1029 93 10000 4.12 190 00:42 27.11.2022
872 Clouds 5 1029 100 10000 3.09 180 22:22 26.11.2022
873 Clouds 5 1029 93 10000 1.54 150 20:51 26.11.2022
874 Clouds 6 1029 93 9000 2.57 160 19:23 26.11.2022
875 Fog 6 1029 93 10000 1.54 150 17:29 26.11.2022
876 Clouds 8 1029 81 10000 4.12 190 15:39 26.11.2022
877 Clouds 7 1029 93 10000 2.06 80 13:31 26.11.2022
878 Fog 5 1029 100 10000 2.06 140 11:24 26.11.2022
879 Clouds 4 1029 93 10000 0 0 09:45 26.11.2022
880 Clouds 3 1028 100 10000 2.06 190 08:49 26.11.2022
881 Rain 8 1023 93 9000 3.09 240 00:20 26.11.2022
882 Rain 6 1022 93 6000 2.06 290 21:41 25.11.2022
883 Clouds 6 1021 100 10000 1.54 210 21:20 25.11.2022
884 Clouds 6 1020 93 10000 2.57 210 19:44 25.11.2022
885 Clouds 8 1017 87 10000 2.57 190 16:43 25.11.2022
886 Clouds 8 1016 87 10000 3.09 200 13:50 25.11.2022
887 Clouds 7 1014 87 10000 1.03 0 09:20 25.11.2022
888 Clouds 6 1013 87 10000 3.09 120 08:40 25.11.2022
889 Clouds 4 1013 93 10000 1.03 0 06:53 25.11.2022
890 Clouds 4 1013 100 10000 2.57 160 02:31 25.11.2022
891 Clouds 4 1014 93 10000 1.03 0 23:47 24.11.2022
892 Clouds 3 1014 93 10000 2.57 170 22:43 24.11.2022
893 Clouds 4 1014 100 10000 2.06 170 21:55 24.11.2022
894 Clear 4 1013 93 10000 2.06 190 19:50 24.11.2022
895 Clouds 7 1013 81 10000 2.57 200 17:48 24.11.2022
896 Clouds 8 1012 81 10000 2.06 230 17:24 24.11.2022
897 Clouds 8 1012 81 10000 1.54 190 16:50 24.11.2022
898 Clouds 9 1011 81 10000 6.17 260 14:27 24.11.2022
899 Clouds 10 1010 76 10000 2.06 220 13:29 24.11.2022
900 Clouds 9 1010 87 10000 3.09 220 11:46 24.11.2022
901 Clouds 9 1010 87 10000 3.09 220 11:45 24.11.2022
902 Clouds 9 1010 87 10000 3.09 220 11:45 24.11.2022
903 Rain 8 1009 87 10000 2.57 180 09:23 24.11.2022
904 Clouds 6 1007 93 10000 2.06 140 06:23 24.11.2022
905 Clouds 6 1004 87 10000 3.6 180 00:41 24.11.2022
906 Rain 6 1003 93 10000 2.57 190 23:32 23.11.2022
907 Rain 6 1003 81 10000 3.6 180 21:48 23.11.2022
908 Rain 6 1002 75 10000 4.12 160 20:52 23.11.2022
909 Clear 5 1001 75 10000 4.63 140 19:40 23.11.2022
910 Clear 6 1001 75 10000 4.12 140 18:56 23.11.2022
911 Clear 6 1000 81 10000 3.6 150 17:35 23.11.2022
912 Clouds 10 1000 71 10000 4.12 170 14:28 23.11.2022
913 Clouds 9 1001 76 10000 6.69 190 13:24 23.11.2022
914 Clouds 9 1001 76 10000 4.12 170 12:41 23.11.2022
915 Clouds 9 1001 81 10000 5.66 190 11:46 23.11.2022
916 Clouds 8 1001 81 10000 4.12 190 10:48 23.11.2022
917 Clouds 8 1001 81 10000 3.6 200 10:18 23.11.2022
918 Clouds 7 1001 87 10000 3.6 190 09:40 23.11.2022
919 Clouds 7 1001 87 10000 2.57 180 09:21 23.11.2022
920 Clouds 7 1001 87 10000 3.09 150 08:36 23.11.2022
921 Clouds 7 1000 87 10000 3.09 150 05:20 23.11.2022
922 Clouds 7 999 87 10000 5.14 150 01:53 23.11.2022
923 Clouds 7 998 87 10000 4.63 160 22:37 22.11.2022
924 Clouds 7 998 81 10000 4.63 180 21:51 22.11.2022
925 Clouds 6 998 87 10000 4.63 180 21:31 22.11.2022
926 Clouds 7 998 81 10000 5.14 180 20:44 22.11.2022
927 Clouds 7 997 81 10000 5.14 170 19:47 22.11.2022
928 Clouds 7 997 75 10000 3.6 160 17:54 22.11.2022
929 Clouds 7 997 75 10000 4.12 150 16:48 22.11.2022
930 Clouds 7 997 75 10000 3.6 170 14:43 22.11.2022
931 Clouds 7 999 78 10000 4.67 202 12:56 22.11.2022
932 Clouds 6 996 93 10000 3.6 150 09:41 22.11.2022
933 Clouds 5 996 93 10000 2.57 150 08:57 22.11.2022
934 Clouds 5 995 93 10000 3.09 130 06:44 22.11.2022
935 Rain 2 996 93 10000 4.63 110 00:54 22.11.2022
936 Snow 1 997 100 5000 4.12 100 22:57 21.11.2022
937 Clouds 3 997 93 10000 5.66 110 22:24 21.11.2022
938 Clouds 3 997 93 10000 4.63 130 21:32 21.11.2022
939 Clouds 2 998 100 6000 2.57 120 20:31 21.11.2022
940 Clouds 1 998 93 7000 3.6 120 19:39 21.11.2022
941 Clouds 2 999 100 8000 4.63 130 18:52 21.11.2022
942 Clouds 2 1000 100 10000 3.6 130 17:32 21.11.2022
943 Clouds 2 1001 93 10000 2.06 90 16:43 21.11.2022
944 Clouds 2 1002 93 10000 2.06 110 15:58 21.11.2022
945 Clouds 3 1002 87 9000 2.57 100 15:23 21.11.2022
946 Clouds 2 1003 93 8000 2.06 120 13:54 21.11.2022
947 Clouds 2 1003 93 9000 2.57 120 13:18 21.11.2022
948 Clouds 1 1004 93 7000 0.51 0 09:43 21.11.2022
949 Clouds 0 1004 100 6000 0 0 07:52 21.11.2022
950 Clouds 0 1004 100 6000 0 0 07:52 21.11.2022
951 Snow 1 1001 100 4700 2.57 80 00:36 21.11.2022
952 Snow 1 1004 93 5000 3.6 120 21:47 20.11.2022
953 Snow 0 1005 93 3800 4.12 120 20:47 20.11.2022
954 Snow 0 1006 93 4500 2.06 140 19:21 20.11.2022
955 Clouds -1 1008 93 10000 3.09 140 17:24 20.11.2022
956 Clouds -2 1009 93 10000 3.09 150 15:44 20.11.2022
957 Clouds -2 1009 93 10000 1.54 90 15:21 20.11.2022
958 Clouds -2 1009 93 10000 1.03 0 14:18 20.11.2022
959 Fog -3 1010 93 9000 1.54 90 13:31 20.11.2022
960 Fog -4 1011 93 9000 0.51 0 11:46 20.11.2022
961 Clear -3 1013 61 10000 1.32 226 10:58 20.11.2022
962 Mist -6 1011 93 10000 0.51 0 09:44 20.11.2022
963 Mist -6 1011 93 10000 0.51 0 09:44 20.11.2022
964 Fog -7 1010 93 100 0.51 0 08:53 20.11.2022
965 Fog -8 1010 86 300 0.51 0 08:20 20.11.2022
966 Clouds -8 1010 92 6000 0.51 0 07:26 20.11.2022
967 Clear -6 1012 93 10000 1.03 0 01:28 20.11.2022
968 Clear -7 1012 100 8000 1.03 0 00:48 20.11.2022
969 Clear -6 1012 93 8000 0 0 00:29 20.11.2022
970 Clear -7 1012 93 1600 0 0 23:59 19.11.2022
971 Clouds -6 1012 100 5000 0 0 23:26 19.11.2022
972 Clouds -6 1012 93 7000 0 0 22:44 19.11.2022
973 Clouds -6 1012 93 7000 0 0 22:44 19.11.2022
974 Clear -5 1012 93 10000 1.03 0 21:51 19.11.2022
975 Clear -5 1013 93 10000 0.51 0 21:25 19.11.2022
976 Clouds -5 1013 93 10000 1.03 280 20:41 19.11.2022
977 Clear -4 1012 93 10000 0 0 19:51 19.11.2022
978 Clear -4 1012 93 10000 1.54 290 18:53 19.11.2022
979 Clear -3 1012 93 10000 1.03 300 17:38 19.11.2022
980 Clear -2 1012 86 10000 0 0 17:18 19.11.2022
981 Clear 1 1012 64 10000 2.06 90 14:54 19.11.2022
982 Clear 0 1013 69 10000 3.6 100 13:29 19.11.2022
983 Clear -1 1013 74 10000 5.14 100 11:52 19.11.2022
984 Clear -3 1013 86 10000 3.6 70 09:45 19.11.2022
985 Clouds -2 1011 80 10000 3.6 80 07:52 19.11.2022
986 Snow -1 1010 86 10000 6.17 90 04:44 19.11.2022
987 Snow 0 1009 93 3300 4.63 90 00:46 19.11.2022
988 Snow 0 1009 93 1800 6.17 100 23:34 18.11.2022
989 Snow 0 1008 93 2000 6.69 80 22:23 18.11.2022
990 Snow 0 1008 100 5000 5.66 90 21:35 18.11.2022
991 Snow 1 1007 93 4800 6.69 90 20:57 18.11.2022
992 Snow 1 1007 93 5000 6.17 90 20:21 18.11.2022
993 Snow 2 1006 93 4200 5.14 80 19:36 18.11.2022
994 Clouds 4 1005 93 8000 5.14 100 17:45 18.11.2022
995 Rain 6 1003 100 8000 2.57 70 15:59 18.11.2022
996 Mist 8 1002 100 4000 1.54 50 11:52 18.11.2022
997 Mist 8 1001 100 1000 1.03 10 10:22 18.11.2022
998 Mist 8 1001 100 1000 1.03 10 10:22 18.11.2022
999 Fog 7 1000 100 500 2.06 40 07:52 18.11.2022
1000 Clouds 8 998 100 3200 1.54 50 05:27 18.11.2022
1001 Clouds 9 997 93 10000 3.09 140 02:25 18.11.2022
1002 Clouds 8 996 93 10000 2.06 110 23:29 17.11.2022
1003 Clouds 8 995 93 10000 3.6 150 20:48 17.11.2022
1004 Clouds 9 995 93 10000 4.12 150 19:51 17.11.2022
1005 Clouds 8 995 93 10000 3.6 150 19:25 17.11.2022
1006 Clouds 9 995 93 10000 2.57 130 18:27 17.11.2022
1007 Clouds 9 994 93 10000 3.09 140 17:30 17.11.2022
1008 Clouds 9 994 93 10000 3.09 140 17:30 17.11.2022
1009 Rain 10 994 93 10000 3.6 140 15:45 17.11.2022
1010 Rain 9 993 93 10000 5.66 130 12:19 17.11.2022
1011 Rain 8 993 93 10000 6.17 130 10:30 17.11.2022
1012 Rain 8 994 93 10000 8.23 120 07:20 17.11.2022
1013 Clouds 8 999 93 10000 5.14 120 00:52 17.11.2022
1014 Clouds 7 1000 100 10000 2.57 110 23:21 16.11.2022
1015 Clouds 6 1000 93 10000 2.57 110 21:54 16.11.2022
1016 Clear 7 1001 93 10000 2.06 120 20:31 16.11.2022
1017 Clouds 8 1001 93 10000 1.03 0 18:48 16.11.2022
1018 Clouds 8 1001 87 10000 2.57 190 18:27 16.11.2022
1019 Clouds 11 1001 76 10000 3.09 200 15:35 16.11.2022
1020 Clouds 10 1002 93 9000 2.57 130 10:56 16.11.2022
1021 Rain 10 1001 93 10000 4.63 130 06:50 16.11.2022
1022 Rain 11 1003 76 10000 3.6 150 01:36 16.11.2022
1023 Clouds 11 1004 71 10000 3.6 130 23:18 15.11.2022
1024 Clouds 12 1005 76 10000 3.09 130 21:23 15.11.2022
1025 Clear 12 1005 71 10000 4.12 130 19:47 15.11.2022
1026 Clear 12 1006 71 10000 3.09 130 18:51 15.11.2022
1027 Clouds 13 1007 71 10000 2.57 140 17:35 15.11.2022
1028 Clouds 14 1007 72 10000 2.06 160 16:20 15.11.2022
1029 Clouds 15 1008 72 10000 4.63 170 15:22 15.11.2022
1030 Clouds 14 1009 71 10000 4.12 210 13:39 15.11.2022
1031 Clouds 14 1010 71 10000 3.09 150 12:26 15.11.2022
1032 Clouds 14 1010 71 10000 2.06 170 11:21 15.11.2022
1033 Clear 10 1010 81 10000 4.12 110 09:28 15.11.2022
1034 Clouds 11 1013 87 10000 3.42 175 00:42 15.11.2022
1035 Clouds 9 1013 90 10000 3.23 172 00:22 15.11.2022
1036 Clouds 11 1011 76 10000 6.69 180 21:51 14.11.2022
1037 Clouds 11 1011 76 10000 5.66 140 20:43 14.11.2022
1038 Clouds 9 1012 81 10000 4.12 140 19:19 14.11.2022
1039 Clouds 10 1012 76 10000 4.63 130 18:21 14.11.2022
1040 Clear 9 1014 71 10000 3.6 140 12:55 14.11.2022
1041 Clear 8 1014 76 10000 4.12 130 11:45 14.11.2022
1042 Clear 6 1015 87 10000 1.54 160 10:49 14.11.2022
1043 Fog 2 1015 100 7000 3.6 120 08:30 14.11.2022
1044 Clear 2 1015 93 6000 2.57 120 07:51 14.11.2022
1045 Clear 3 1019 93 9000 1.54 120 00:19 14.11.2022
1046 Clear 3 1019 93 9000 1.54 120 00:19 14.11.2022
1047 Clear 3 1019 93 9000 1.54 120 00:19 14.11.2022
1048 Clear 4 1020 81 10000 3.09 100 22:43 13.11.2022
1049 Clear 5 1020 75 10000 1.03 100 21:40 13.11.2022
1050 Clear 6 1020 70 10000 2.06 60 20:45 13.11.2022
1051 Clear 8 1020 61 10000 1.54 90 18:35 13.11.2022
1052 Clear 10 1021 50 10000 3.6 80 17:49 13.11.2022
1053 Clear 14 1022 44 10000 2.06 70 15:20 13.11.2022
1054 Clear 14 1023 62 10000 1.03 0 14:30 13.11.2022
1055 Clear 11 1024 62 10000 1.03 0 12:52 13.11.2022
1056 Clear 9 1025 71 10000 1.03 0 11:34 13.11.2022
1057 Clear 2 1026 100 10000 0 0 09:44 13.11.2022
1058 Clouds 2 1027 100 700 0.51 280 05:52 13.11.2022
1059 Clouds 5 1029 93 10000 1.03 280 23:35 12.11.2022
1060 Clouds 6 1030 93 10000 1.03 0 21:24 12.11.2022
1061 Clouds 7 1031 93 10000 1.54 160 20:23 12.11.2022
1062 Clear 7 1031 87 10000 1.54 110 18:56 12.11.2022
1063 Clear 11 1031 81 10000 1.03 0 16:32 12.11.2022
1064 Clear 13 1031 71 10000 2.06 140 15:24 12.11.2022
1065 Clouds 10 1032 81 9000 1.54 110 13:28 12.11.2022
1066 Fog 4 1033 100 400 2.06 120 09:35 12.11.2022
1067 Fog 4 1032 100 400 0 0 07:47 12.11.2022
1068 Fog 4 1032 100 400 0 0 07:47 12.11.2022
1069 Clouds 10 1033 78 10000 2.41 164 23:23 11.11.2022
1070 Clouds 6 1033 81 10000 2.32 181 20:52 11.11.2022
1071 Clear 9 1032 81 10000 1.54 120 20:23 11.11.2022
1072 Clear 9 1031 87 10000 2.06 190 19:25 11.11.2022
1073 Clear 10 1031 71 10000 2.06 120 17:58 11.11.2022
1074 Clear 12 1031 66 10000 3.09 190 16:55 11.11.2022
1075 Clear 14 1031 67 10000 4.63 150 14:29 11.11.2022
1076 Clear 13 1032 66 10000 3.6 190 13:31 11.11.2022
1077 Fog 10 1032 87 9000 4.12 140 11:38 11.11.2022
1078 Clouds 6 1030 100 10000 4.12 200 08:43 11.11.2022
1079 Clear 6 1030 100 10000 4.63 180 07:41 11.11.2022
1080 Clouds 8 1029 93 10000 4.12 210 00:30 11.11.2022
1081 Clouds 9 1028 81 10000 4.63 210 22:51 10.11.2022
1082 Clear 9 1028 81 10000 5.14 210 21:39 10.11.2022
1083 Clouds 9 1029 90 10000 3.14 191 21:20 10.11.2022
1084 Clear 11 1028 81 10000 5.14 200 20:24 10.11.2022
1085 Clear 10 1028 81 10000 4.63 200 19:55 10.11.2022
1086 Clear 10 1027 81 10000 2.57 190 18:45 10.11.2022
1087 Clouds 13 1026 71 10000 4.63 200 16:27 10.11.2022
1088 Clouds 15 1026 67 10000 4.63 220 15:24 10.11.2022
1089 Clouds 13 1025 71 10000 5.14 230 13:34 10.11.2022
1090 Clear 9 1022 87 10000 3.09 180 09:19 10.11.2022
1091 Clouds 7 1020 93 10000 2.06 190 06:59 10.11.2022
1092 Clouds 9 1016 76 10000 2.06 240 00:57 10.11.2022
1093 Clouds 11 1015 71 10000 5.14 240 22:47 09.11.2022
1094 Clouds 11 1015 71 10000 5.14 240 22:47 09.11.2022
1095 Clear 13 1013 71 10000 5.14 230 21:21 09.11.2022
1096 Clear 12 1013 71 10000 4.63 220 20:40 09.11.2022
1097 Clear 13 1013 71 10000 4.12 200 19:59 09.11.2022
1098 Clouds 13 1012 76 10000 4.12 200 19:25 09.11.2022
1099 Clouds 13 1011 76 10000 2.06 180 17:41 09.11.2022
1100 Clouds 15 1010 67 10000 5.14 200 14:56 09.11.2022
1101 Clouds 16 1010 67 10000 5.14 200 14:26 09.11.2022
1102 Clouds 16 1010 67 10000 6.17 210 13:44 09.11.2022
1103 Clouds 15 1009 67 10000 7.2 200 12:52 09.11.2022
1104 Clouds 14 1009 82 10000 6.17 200 09:29 09.11.2022
1105 Clouds 13 1009 82 10000 5.14 200 07:47 09.11.2022
1106 Rain 13 1009 82 10000 7.2 190 04:35 09.11.2022
1107 Clouds 14 1009 58 10000 6.17 190 22:35 08.11.2022
1108 Clouds 15 1009 55 10000 7.2 210 21:37 08.11.2022
1109 Clear 14 1009 58 10000 7.2 200 20:47 08.11.2022
1110 Clear 14 1009 58 10000 6.69 190 20:18 08.11.2022
1111 Clear 15 1009 58 10000 7.2 190 19:24 08.11.2022
1112 Clear 14 1009 58 10000 7.2 210 17:35 08.11.2022
1113 Clear 16 1009 51 10000 6.69 180 15:22 08.11.2022
1114 Clear 16 1009 51 10000 6.17 190 14:31 08.11.2022
1115 Clear 16 1009 51 10000 6.17 190 14:31 08.11.2022
1116 Clear 17 1010 51 10000 6.69 190 13:28 08.11.2022
1117 Clear 13 1011 71 10000 4.63 170 10:58 08.11.2022
1118 Clear 9 1011 93 10000 4.12 140 07:39 08.11.2022
1119 Clouds 11 1013 87 10000 3.6 160 04:27 08.11.2022
1120 Clouds 12 1014 87 10000 3.6 180 22:58 07.11.2022
1121 Clouds 12 1014 82 10000 3.09 180 21:42 07.11.2022
1122 Clouds 13 1013 76 10000 4.12 190 20:48 07.11.2022
1123 Clear 13 1013 82 10000 6.17 190 19:40 07.11.2022
1124 Clouds 13 1013 71 10000 5.66 190 17:41 07.11.2022
1125 Clouds 14 1012 71 10000 5.14 200 15:38 07.11.2022
1126 Clouds 14 1012 71 10000 5.14 210 14:57 07.11.2022
1127 Clouds 14 1012 71 10000 6.17 210 13:33 07.11.2022
1128 Clouds 14 1012 71 10000 7.2 200 12:24 07.11.2022
1129 Clouds 13 1012 71 10000 6.69 200 10:45 07.11.2022
1130 Clouds 10 1012 81 10000 6.17 190 08:30 07.11.2022
1131 Clouds 9 1011 87 10000 5.66 190 06:31 07.11.2022
1132 Clouds 10 1010 76 10000 5.66 200 01:45 07.11.2022
1133 Clouds 10 1009 71 10000 8.23 200 23:33 06.11.2022
1134 Clouds 9 1009 81 10000 5.14 150 21:22 06.11.2022
1135 Clouds 9 1009 81 10000 5.14 160 20:48 06.11.2022
1136 Rain 9 1010 71 10000 5.14 160 19:56 06.11.2022
1137 Rain 10 1010 66 10000 5.14 170 19:24 06.11.2022
1138 Rain 9 1010 61 10000 5.14 170 18:20 06.11.2022
1139 Clear 11 1010 57 10000 3.09 140 17:23 06.11.2022
1140 Clear 10 1011 57 10000 3.09 160 16:58 06.11.2022
1141 Clear 12 1011 54 10000 5.66 150 16:18 06.11.2022
1142 Clear 12 1012 62 10000 4.12 160 14:45 06.11.2022
1143 Clouds 11 1014 71 10000 5.66 190 12:44 06.11.2022
1144 Clouds 9 1016 81 10000 6.17 200 10:52 06.11.2022
1145 Clouds 8 1016 81 10000 5.66 190 09:51 06.11.2022
1146 Clouds 8 1016 81 9000 5.14 190 07:39 06.11.2022
1147 Clouds 7 1018 81 10000 5.14 200 23:23 05.11.2022
1148 Clouds 8 1018 76 10000 3.6 200 20:40 05.11.2022
1149 Clear 9 1018 71 10000 1.54 180 18:22 05.11.2022
1150 Clouds 10 1018 66 10000 2.06 230 16:26 05.11.2022
1151 Clouds 12 1018 58 10000 4.63 250 14:34 05.11.2022
1152 Clouds 11 1018 66 10000 3.6 270 13:29 05.11.2022
1153 Clouds 10 1017 76 10000 3.09 220 10:54 05.11.2022
1154 Clouds 6 1016 93 9000 2.57 250 08:54 05.11.2022
1155 Clouds 6 1015 93 5000 2.57 250 07:23 05.11.2022
1156 Clouds 7 1015 93 5000 2.06 240 06:54 05.11.2022
1157 Clouds 9 1012 87 10000 1.03 0 23:36 04.11.2022
1158 Clouds 9 1012 87 10000 2.57 290 23:18 04.11.2022
1159 Clear 10 1010 87 10000 2.57 290 20:33 04.11.2022
1160 Clear 10 1010 87 10000 2.57 290 20:31 04.11.2022
1161 Clear 10 1010 87 10000 2.57 290 20:30 04.11.2022
1162 Clear 10 1010 87 10000 2.57 290 20:30 04.11.2022
1163 Clouds 11 1008 81 10000 1.54 300 17:56 04.11.2022
1164 Clouds 11 1008 81 10000 1.03 0 17:21 04.11.2022
1165 Clouds 12 1006 71 10000 3.6 230 13:47 04.11.2022
1166 Clouds 11 1006 76 10000 3.09 220 12:27 04.11.2022
1167 Clouds 10 1006 81 10000 2.06 160 10:40 04.11.2022
1168 Clouds 8 1005 81 10000 1.54 220 08:45 04.11.2022
1169 Clouds 9 1005 76 10000 3.09 190 07:43 04.11.2022
1170 Clouds 12 1002 82 10000 5.66 240 03:51 04.11.2022
1171 Rain 11 1002 93 10000 5.14 130 23:26 03.11.2022
1172 Rain 12 1003 82 10000 3.6 130 20:51 03.11.2022
1173 Clouds 12 1004 76 10000 3.6 140 20:22 03.11.2022
1174 Clear 12 1004 76 10000 6.17 140 19:27 03.11.2022
1175 Clear 12 1005 71 10000 5.14 150 17:49 03.11.2022
1176 Clear 13 1007 67 10000 5.66 160 16:52 03.11.2022
1177 Clear 13 1009 71 10000 4.63 150 14:19 03.11.2022
1178 Clear 13 1011 71 10000 4.63 150 12:38 03.11.2022
1179 Clear 12 1013 76 10000 4.63 160 11:44 03.11.2022
1180 Clear 9 1015 81 10000 5.14 140 09:25 03.11.2022
1181 Clear 8 1016 81 10000 2.06 170 07:43 03.11.2022
1182 Clouds 9 1021 76 10000 3.09 140 21:29 02.11.2022
1183 Clouds 8 1021 76 10000 2.57 170 20:39 02.11.2022
1184 Clear 8 1021 71 10000 3.09 190 19:55 02.11.2022
1185 Clear 13 1021 47 10000 4.12 230 16:51 02.11.2022
1186 Clear 15 1021 44 10000 3.6 250 15:50 02.11.2022
1187 Clear 15 1021 44 10000 6.17 260 14:32 02.11.2022
1188 Clouds 15 1021 51 10000 7.2 260 12:44 02.11.2022
1189 Clouds 14 1020 67 10000 5.66 230 11:25 02.11.2022
1190 Clouds 11 1019 76 10000 5.14 210 08:51 02.11.2022
1191 Clouds 12 1017 71 10000 6.17 210 05:30 02.11.2022
1192 Clouds 11 1019 71 10000 4.12 190 00:21 02.11.2022
1193 Clear 11 1019 66 10000 4.63 210 22:19 01.11.2022
1194 Clear 12 1019 62 10000 5.14 210 21:37 01.11.2022
1195 Clear 14 1018 50 10000 3.6 210 20:25 01.11.2022
1196 Clear 13 1018 50 10000 3.6 200 19:42 01.11.2022
1197 Clear 14 1018 54 10000 3.6 210 18:36 01.11.2022
1198 Clear 15 1017 51 10000 3.6 200 17:28 01.11.2022
1199 Clear 18 1017 42 10000 4.63 230 16:18 01.11.2022
1200 Clouds 19 1016 42 10000 5.14 220 14:20 01.11.2022
1201 Clouds 18 1016 63 10000 5.66 220 12:27 01.11.2022
1202 Clouds 17 1015 72 10000 5.14 210 11:22 01.11.2022
1203 Clouds 16 1015 82 10000 4.63 200 09:54 01.11.2022
1204 Clouds 15 1014 82 10000 4.63 200 08:38 01.11.2022
1205 Rain 14 1013 88 10000 5.14 200 07:29 01.11.2022
1206 Clouds 14 1014 88 10000 5.14 190 06:47 01.11.2022
1207 Clouds 14 1013 82 10000 3.6 150 05:56 01.11.2022
1208 Rain 15 1013 82 6000 4.63 140 03:32 01.11.2022
1209 Clear 12 1015 94 10000 2.57 140 21:46 31.10.2022
1210 Clear 15 1016 82 10000 2.57 100 20:30 31.10.2022
1211 Clear 16 1017 82 10000 3.09 130 18:50 31.10.2022
1212 Clear 17 1017 77 10000 1.03 130 17:26 31.10.2022
1213 Clear 17 1017 82 10000 3.09 120 16:39 31.10.2022
1214 Clear 19 1020 68 10000 1.54 110 13:23 31.10.2022
1215 Clear 13 1022 88 10000 1.03 0 10:20 31.10.2022
1216 Clear 9 1021 100 10000 0 0 08:37 31.10.2022
1217 Clouds 11 1021 87 10000 1.03 0 04:48 31.10.2022
1218 Clouds 11 1021 87 10000 0 0 02:20 31.10.2022
1219 Clouds 13 1020 76 10000 3.09 220 22:59 30.10.2022
1220 Clear 15 1019 77 10000 2.06 200 20:46 30.10.2022
1221 Clear 17 1019 63 10000 2.57 160 19:54 30.10.2022
1222 Clear 19 1018 55 10000 0.51 0 17:53 30.10.2022
1223 Clear 22 1018 56 10000 3.6 150 15:29 30.10.2022
1224 Clear 22 1018 56 10000 2.06 160 13:52 30.10.2022
1225 Clear 21 1019 64 10000 3.09 190 12:46 30.10.2022
1226 Clear 17 1019 82 10000 2.06 130 11:21 30.10.2022
1227 Clear 14 1019 88 10000 2.06 80 09:36 30.10.2022
1228 Clear 12 1019 93 10000 1.03 0 08:20 30.10.2022
1229 Clouds 16 1019 82 10000 1.54 90 00:30 30.10.2022
1230 Clouds 16 1019 77 10000 0 0 23:48 29.10.2022
1231 Clouds 16 1020 77 10000 0 0 22:53 29.10.2022
1232 Clear 14 1020 82 10000 1.54 160 20:54 29.10.2022
1233 Clear 19 1020 72 10000 2.57 150 17:34 29.10.2022
1234 Clear 20 1020 68 10000 2.06 140 15:51 29.10.2022
1235 Clear 19 1020 72 10000 2.06 140 15:24 29.10.2022
1236 Clear 19 1021 68 10000 2.57 150 14:43 29.10.2022
1237 Clear 17 1022 77 10000 2.57 120 12:34 29.10.2022
1238 Clear 14 1022 88 10000 1.54 110 10:36 29.10.2022
1239 Clouds 11 1022 100 10000 0 0 07:33 29.10.2022
1240 Clear 12 1022 100 10000 0.51 0 05:55 29.10.2022
1241 Clouds 13 1022 88 10000 2.06 230 02:45 29.10.2022
1242 Clear 17 1021 77 10000 2.57 130 22:30 28.10.2022
1243 Clear 18 1021 68 10000 2.06 160 20:46 28.10.2022
1244 Clear 19 1019 63 10000 5.14 200 18:52 28.10.2022
1245 Clear 20 1019 59 10000 3.09 170 18:30 28.10.2022
1246 Clear 24 1019 49 10000 5.14 190 15:30 28.10.2022
1247 Clear 24 1019 49 10000 5.14 190 15:30 28.10.2022
1248 Clear 23 1020 46 10000 6.17 190 14:36 28.10.2022
1249 Clouds 20 1021 63 10000 4.54 207 12:26 28.10.2022
1250 Clear 20 1020 68 10000 3.6 190 11:34 28.10.2022
1251 Clear 21 1020 56 10000 4.63 220 10:47 28.10.2022
1252 Clear 16 1020 77 10000 3.09 110 09:47 28.10.2022
1253 Clear 18 1020 72 10000 1.03 0 08:21 28.10.2022
1254 Clouds 15 1021 82 10000 1.54 0 03:42 28.10.2022
1255 Clear 16 1022 82 10000 1.03 0 23:48 27.10.2022
1256 Rain 17 1022 77 10000 2.06 90 22:40 27.10.2022
1257 Clear 17 1022 77 10000 3.6 130 21:35 27.10.2022
1258 Clear 17 1022 77 10000 2.06 140 19:55 27.10.2022
1259 Clear 18 1022 77 10000 2.57 130 18:22 27.10.2022
1260 Clear 16 1024 77 10000 4.63 140 13:58 27.10.2022
1261 Fog 10 1025 93 400 2.57 100 08:59 27.10.2022
1262 Clouds 10 1024 100 3900 1.54 100 03:40 27.10.2022
1263 Clouds 12 1023 94 10000 2.57 190 23:54 26.10.2022
1264 Clouds 12 1022 94 10000 1.54 240 22:47 26.10.2022
1265 Clouds 13 1022 94 10000 3.09 210 22:22 26.10.2022
1266 Clear 16 1020 82 10000 2.57 160 19:27 26.10.2022
1267 Clear 19 1018 68 10000 5.14 200 16:35 26.10.2022
1268 Clear 18 1017 67 10000 3.09 190 14:33 26.10.2022
1269 Clear 13 1017 82 10000 3.6 150 12:37 26.10.2022
1270 Clear 11 1016 87 10000 2.06 150 09:41 26.10.2022
1271 Clear 10 1016 93 10000 1.54 140 08:53 26.10.2022
1272 Clear 11 1016 93 10000 2.06 80 08:22 26.10.2022
1273 Clouds 10 1017 93 10000 2.57 170 00:45 26.10.2022
1274 Clouds 11 1017 93 10000 1.54 140 00:20 26.10.2022
1275 Clear 12 1017 82 10000 2.57 210 21:47 25.10.2022
1276 Clear 12 1017 82 10000 2.57 190 20:53 25.10.2022
1277 Clear 13 1017 82 10000 2.06 200 19:40 25.10.2022
1278 Clear 16 1017 72 10000 3.09 230 17:51 25.10.2022
1279 Clouds 17 1017 67 10000 3.6 230 14:37 25.10.2022
1280 Clouds 15 1016 82 10000 3.6 220 11:38 25.10.2022
1281 Clouds 14 1016 88 10000 4.12 200 10:37 25.10.2022
1282 Clouds 13 1015 88 10000 4.12 200 09:44 25.10.2022
1283 Clouds 13 1014 82 10000 4.12 200 08:18 25.10.2022
1284 Clouds 13 1014 82 10000 4.12 200 07:54 25.10.2022
1285 Clouds 13 1014 82 10000 4.12 200 06:56 25.10.2022
1286 Clouds 14 1013 82 10000 4.12 200 03:46 25.10.2022
1287 Clouds 14 1013 82 10000 1.03 0 00:37 25.10.2022
1288 Clouds 15 1012 72 10000 4.12 300 23:47 24.10.2022
1289 Clear 16 1011 72 10000 5.14 210 22:24 24.10.2022
1290 Clear 16 1011 67 10000 4.63 200 21:33 24.10.2022
1291 Clear 16 1011 63 10000 5.66 210 20:42 24.10.2022
1292 Clouds 17 1010 59 10000 4.63 230 18:52 24.10.2022
1293 Clouds 19 1010 55 10000 5.14 210 17:50 24.10.2022
1294 Clouds 19 1009 55 10000 6.17 220 16:34 24.10.2022
1295 Clouds 20 1009 59 10000 6.69 220 14:22 24.10.2022
1296 Clouds 20 1009 59 10000 7.2 210 13:34 24.10.2022
1297 Clear 18 1008 72 10000 8.75 190 11:41 24.10.2022
1298 Clear 15 1008 88 10000 5.66 200 07:57 24.10.2022
1299 Clouds 15 1010 94 10000 3.6 170 00:50 24.10.2022
1300 Rain 15 1010 82 10000 2.06 240 21:23 23.10.2022
1301 Rain 16 1009 72 10000 4.12 150 19:50 23.10.2022
1302 Clear 17 1010 72 10000 4.63 150 17:55 23.10.2022
1303 Clouds 18 1010 72 10000 5.14 150 17:27 23.10.2022
1304 Clear 16 1012 72 10000 5.14 140 15:19 23.10.2022
1305 Clear 16 1014 72 10000 4.63 150 12:59 23.10.2022
1306 Clouds 12 1014 100 10000 3.6 150 10:59 23.10.2022
1307 Clouds 10 1015 100 10000 2.06 140 07:53 23.10.2022
1308 Clouds 12 1017 94 10000 3.09 200 23:39 22.10.2022
1309 Clouds 14 1017 88 10000 3.09 190 22:31 22.10.2022
1310 Clear 13 1017 88 10000 3.6 190 21:42 22.10.2022
1311 Clear 14 1017 88 10000 2.57 190 20:36 22.10.2022
1312 Clouds 16 1016 77 10000 2.06 210 19:32 22.10.2022
1313 Clouds 16 1016 72 10000 3.09 230 18:55 22.10.2022
1314 Clouds 18 1015 67 10000 3.09 220 17:35 22.10.2022
1315 Clouds 19 1014 68 10000 4.12 230 15:28 22.10.2022
1316 Clouds 20 1014 63 10000 4.63 240 14:36 22.10.2022
1317 Clouds 19 1015 68 10000 4.12 220 13:33 22.10.2022
1318 Fog 14 1013 100 10000 2.57 180 09:50 22.10.2022
1319 Fog 13 1013 100 9000 2.06 180 09:18 22.10.2022
1320 Clouds 13 1012 100 2100 0.51 0 06:59 22.10.2022
1321 Clouds 14 1011 100 5000 2.06 170 01:54 22.10.2022
1322 Clouds 14 1011 100 8000 1.03 0 23:44 21.10.2022
1323 Clear 14 1010 94 10000 2.57 160 21:34 21.10.2022
1324 Clear 15 1010 94 10000 2.06 150 20:56 21.10.2022
1325 Clouds 15 1010 94 10000 1.54 130 18:55 21.10.2022
1326 Rain 15 1010 94 7000 2.06 160 15:26 21.10.2022
1327 Rain 15 1010 94 8000 2.57 150 13:53 21.10.2022
1328 Rain 15 1010 88 10000 4.12 150 12:39 21.10.2022
1329 Clouds 15 1010 94 10000 4.12 150 10:28 21.10.2022
1330 Clouds 14 1010 94 10000 4.63 160 09:38 21.10.2022
1331 Clouds 15 1010 88 10000 3.6 140 08:26 21.10.2022
1332 Clouds 13 1010 94 10000 3.09 130 06:21 21.10.2022
1333 Clouds 13 1013 94 10000 5.14 150 00:20 21.10.2022
1334 Rain 12 1014 93 10000 3.6 160 21:50 20.10.2022
1335 Clouds 12 1014 93 10000 4.12 150 20:18 20.10.2022
1336 Rain 12 1015 93 10000 4.12 160 19:30 20.10.2022
1337 Rain 13 1015 82 10000 3.09 170 17:51 20.10.2022
1338 Clear 13 1015 71 10000 5.14 130 15:46 20.10.2022
1339 Clear 11 1017 76 10000 4.63 130 12:33 20.10.2022
1340 Clear 10 1018 81 10000 3.6 120 11:53 20.10.2022
1341 Clear 8 1018 87 10000 2.57 90 10:56 20.10.2022
1342 Clear 7 1018 87 10000 3.09 100 10:23 20.10.2022
1343 Clear 4 1019 93 10000 1.03 0 07:44 20.10.2022
1344 Clouds 7 1022 87 10000 1.54 100 03:31 20.10.2022
1345 Clouds 8 1024 87 10000 3.6 100 23:53 19.10.2022
1346 Clouds 8 1024 87 10000 3.09 110 22:32 19.10.2022
1347 Clear 8 1024 87 10000 3.09 120 21:39 19.10.2022
1348 Clear 9 1025 81 10000 3.6 100 20:40 19.10.2022
1349 Clouds 12 1025 66 10000 4.63 80 17:52 19.10.2022
1350 Clouds 14 1026 62 10000 4.12 100 16:58 19.10.2022
1351 Clouds 12 1027 71 10000 3.6 110 14:46 19.10.2022
1352 Clouds 11 1028 71 10000 4.12 90 12:42 19.10.2022
1353 Fog 8 1028 100 550 0.51 0 09:26 19.10.2022
1354 Clouds 8 1028 93 2400 0 0 07:31 19.10.2022
1355 Clouds 8 1028 100 8000 2.06 280 02:46 19.10.2022
1356 Clouds 11 1028 93 10000 1.54 260 00:21 19.10.2022
1357 Clouds 11 1028 100 10000 2.06 260 22:41 18.10.2022
1358 Clear 13 1028 87 10000 2.57 290 21:32 18.10.2022
1359 Clouds 13 1028 94 10000 1.54 260 20:31 18.10.2022
1360 Clouds 15 1027 88 10000 2.57 290 19:22 18.10.2022
1361 Clouds 19 1026 72 10000 4.12 290 16:59 18.10.2022
1362 Clouds 18 1026 77 10000 3.6 290 15:43 18.10.2022
1363 Clouds 17 1027 88 10000 2.06 310 13:45 18.10.2022
1364 Clouds 16 1027 94 10000 3.09 290 11:48 18.10.2022
1365 Rain 16 1026 94 5000 1.03 0 11:18 18.10.2022
1366 Rain 15 1025 94 4500 0 0 09:26 18.10.2022
1367 Rain 14 1025 99 5052 0.89 277 07:20 18.10.2022
1368 Clouds 15 1026 92 10000 1 262 00:34 18.10.2022
1369 Clear 18 1024 77 10000 3.09 220 21:45 17.10.2022
1370 Clear 19 1024 72 10000 2.57 230 20:50 17.10.2022
1371 Clear 20 1024 72 10000 3.6 230 20:30 17.10.2022
1372 Clear 20 1024 68 10000 3.09 220 19:46 17.10.2022
1373 Clear 23 1023 60 10000 3.09 210 17:54 17.10.2022
1374 Clear 24 1022 53 10000 5.66 210 16:22 17.10.2022
1375 Clear 24 1022 53 10000 4.63 230 15:27 17.10.2022
1376 Clear 24 1021 53 10000 7.72 210 13:35 17.10.2022
1377 Clear 16 1021 77 10000 2.57 130 09:46 17.10.2022
1378 Clouds 16 1020 94 10000 1.03 0 03:21 17.10.2022
1379 Clouds 16 1020 82 10000 3.09 140 22:59 16.10.2022
1380 Clouds 15 1019 82 10000 2.57 130 21:46 16.10.2022
1381 Clear 16 1019 72 10000 2.57 170 19:56 16.10.2022
1382 Clear 16 1019 72 10000 2.57 170 19:38 16.10.2022
1383 Clear 19 1018 59 10000 2.57 200 17:47 16.10.2022
1384 Clouds 20 1018 55 10000 2.57 210 16:32 16.10.2022
1385 Clouds 20 1017 52 10000 2.06 240 15:55 16.10.2022
1386 Clouds 18 1017 67 10000 3.6 210 12:49 16.10.2022
1387 Clouds 17 1016 72 10000 4.63 200 11:41 16.10.2022
1388 Clouds 15 1015 82 10000 3.09 190 10:26 16.10.2022
1389 Clouds 15 1013 88 10000 1.54 170 07:38 16.10.2022
1390 Clouds 16 1011 88 10000 3.09 210 23:43 15.10.2022
1391 Clouds 17 1009 88 10000 4.63 210 21:58 15.10.2022
1392 Clouds 17 1009 88 10000 4.63 190 21:20 15.10.2022
1393 Clouds 17 1008 82 10000 5.14 190 19:34 15.10.2022
1394 Clouds 17 1007 88 10000 4.12 160 17:24 15.10.2022
1395 Clouds 17 1008 77 10000 5.66 190 15:45 15.10.2022
1396 Clouds 17 1009 77 10000 3.6 210 13:37 15.10.2022
1397 Clouds 15 1009 94 10000 4.12 190 11:50 15.10.2022
1398 Mist 14 1008 94 4700 1.54 170 09:43 15.10.2022
1399 Clouds 13 1007 100 7000 1.54 190 07:55 15.10.2022
1400 Clouds 15 1008 94 10000 2.57 160 00:41 15.10.2022
1401 Clouds 14 1009 94 10000 3.09 170 22:58 14.10.2022
1402 Clouds 14 1009 100 10000 3.09 180 22:22 14.10.2022
1403 Clouds 14 1010 100 10000 3.09 140 20:53 14.10.2022
1404 Rain 15 1010 94 10000 3.09 150 19:21 14.10.2022
1405 Clouds 16 1012 82 10000 4.12 180 16:19 14.10.2022
1406 Clouds 15 1014 82 10000 4.12 150 13:20 14.10.2022
1407 Clouds 14 1014 82 10000 3.09 160 11:36 14.10.2022
1408 Clouds 12 1015 100 10000 0.51 0 08:32 14.10.2022
1409 Clouds 12 1015 100 10000 2.06 180 06:51 14.10.2022
1410 Clouds 13 1015 94 10000 2.57 210 06:18 14.10.2022
1411 Clouds 13 1015 94 10000 2.57 190 05:42 14.10.2022
1412 Clouds 13 1016 94 10000 2.06 210 03:19 14.10.2022
1413 Clouds 13 1017 94 10000 2.06 210 23:42 13.10.2022
1414 Clear 13 1017 87 10000 2.57 160 21:43 13.10.2022
1415 Clouds 13 1017 87 10000 2.06 170 20:44 13.10.2022
1416 Rain 13 1017 87 10000 4.12 200 19:43 13.10.2022
1417 Rain 14 1017 76 10000 3.6 160 18:52 13.10.2022
1418 Rain 15 1017 72 10000 4.63 200 18:21 13.10.2022
1419 Clouds 15 1017 72 10000 5.66 210 15:51 13.10.2022
1420 Clouds 15 1017 72 10000 5.66 210 15:33 13.10.2022
1421 Clouds 14 1018 82 9000 5.14 200 13:54 13.10.2022
1422 Clouds 14 1019 82 9000 3.6 150 12:42 13.10.2022
1423 Mist 9 1019 100 4000 2.57 150 10:58 13.10.2022
1424 Fog 8 1019 93 350 1.54 100 08:34 13.10.2022
1425 Fog 7 1020 93 500 1.54 70 07:38 13.10.2022
1426 Clouds 9 1020 93 10000 3.6 150 04:25 13.10.2022
1427 Clouds 8 1021 93 10000 1.03 0 01:40 13.10.2022
1428 Clouds 8 1021 93 10000 3.09 170 00:34 13.10.2022
1429 Clouds 10 1022 87 10000 2.57 210 22:45 12.10.2022
1430 Clear 9 1022 87 10000 2.57 200 21:46 12.10.2022
1431 Clear 11 1022 82 10000 2.57 210 21:19 12.10.2022
1432 Clear 11 1021 76 10000 3.09 190 20:33 12.10.2022
1433 Clear 13 1021 76 10000 2.57 160 19:22 12.10.2022
1434 Clouds 16 1022 58 10000 3.6 200 17:57 12.10.2022
1435 Clouds 17 1022 55 10000 3.09 170 16:59 12.10.2022
1436 Clear 15 1024 54 10000 4.63 130 14:27 12.10.2022
1437 Clear 14 1024 58 10000 3.09 120 13:53 12.10.2022
1438 Clear 9 1024 76 10000 1.54 40 11:54 12.10.2022
1439 Fog 3 1024 93 9000 1.03 80 09:36 12.10.2022
1440 Fog 1 1025 100 900 0 0 07:42 12.10.2022
1441 Clouds 2 1025 93 1100 0 0 06:44 12.10.2022
1442 Fog 3 1025 93 1400 1.03 280 05:27 12.10.2022
1443 Clear 5 1026 93 10000 1.03 280 23:56 11.10.2022
1444 Clear 7 1026 87 10000 0 0 21:25 11.10.2022
1445 Clear 8 1026 81 10000 1.03 10 20:30 11.10.2022
1446 Clouds 13 1026 54 10000 1.03 0 18:27 11.10.2022
1447 Clouds 14 1026 54 10000 1.03 0 16:24 11.10.2022
1448 Clouds 12 1027 71 10000 1.03 0 13:44 11.10.2022
1449 Clouds 9 1027 87 10000 2.06 270 10:48 11.10.2022
1450 Clouds 8 1027 93 10000 1.54 300 10:26 11.10.2022
1451 Clouds 7 1026 100 9000 1.03 0 08:46 11.10.2022
1452 Clear 7 1023 87 10000 3.09 270 04:23 11.10.2022
1453 Clouds 11 1022 81 10000 3.09 300 00:47 11.10.2022
1454 Clouds 12 1021 87 10000 4.12 320 23:52 10.10.2022
1455 Clouds 15 1019 67 10000 4.63 300 21:18 10.10.2022
1456 Clear 15 1017 67 10000 2.06 260 19:43 10.10.2022
1457 Clouds 18 1015 55 10000 3.6 220 17:52 10.10.2022
1458 Clear 19 1015 55 10000 4.12 230 16:39 10.10.2022
1459 Clear 18 1015 59 10000 5.14 200 14:31 10.10.2022
1460 Clear 15 1016 62 10000 3.09 170 12:24 10.10.2022
1461 Clear 10 1016 76 10000 2.57 160 10:20 10.10.2022
1462 Clear 5 1016 93 10000 3.6 160 07:41 10.10.2022
1463 Clear 6 1016 87 10000 3.09 150 05:37 10.10.2022
1464 Clear 2 1018 79 10000 1.75 138 02:42 10.10.2022
1465 Clear 6 1020 76 10000 1.76 128 00:24 10.10.2022
1466 Clear 8 1020 72 10000 1.71 119 22:27 09.10.2022
1467 Clear 8 1020 81 10000 2.57 150 21:49 09.10.2022
1468 Clear 9 1020 76 10000 1.03 0 20:50 09.10.2022
1469 Clear 12 1020 66 10000 2.57 130 19:53 09.10.2022
1470 Clear 14 1020 62 10000 3.09 90 19:20 09.10.2022
1471 Clear 16 1021 51 10000 4.12 140 18:27 09.10.2022
1472 Clear 17 1022 41 10000 4.63 120 16:56 09.10.2022
1473 Clear 17 1022 41 10000 4.12 120 16:25 09.10.2022
1474 Clouds 16 1023 51 10000 3.09 150 15:33 09.10.2022
1475 Clouds 15 1024 54 10000 4.12 130 14:28 09.10.2022
1476 Clouds 15 1024 54 10000 4.12 130 14:28 09.10.2022
1477 Clear 13 1025 62 10000 3.09 150 12:57 09.10.2022
1478 Clear 10 1026 76 10000 1.03 0 11:42 09.10.2022
1479 Fog 4 1026 100 500 0 0 09:57 09.10.2022
1480 Clouds 3 1026 100 10000 1.54 80 07:57 09.10.2022
1481 Clear 5 1026 93 10000 1.54 120 03:33 09.10.2022
1482 Clear 6 1026 93 10000 0.51 0 02:23 09.10.2022
1483 Clear 7 1025 87 10000 1.03 0 23:56 08.10.2022
1484 Clear 9 1025 76 10000 1.54 270 22:53 08.10.2022
1485 Clear 10 1024 76 10000 2.57 260 21:43 08.10.2022
1486 Clouds 12 1022 62 10000 4.63 280 19:57 08.10.2022
1487 Clouds 15 1021 54 10000 4.63 290 18:24 08.10.2022
1488 Clouds 15 1020 62 10000 5.14 270 15:56 08.10.2022
1489 Clouds 14 1020 67 10000 5.66 260 14:42 08.10.2022
1490 Clouds 13 1020 82 10000 3.09 260 12:38 08.10.2022
1491 Clouds 11 1019 93 10000 3.09 260 10:37 08.10.2022
1492 Clouds 10 1018 81 10000 3.09 220 09:52 08.10.2022
1493 Clouds 10 1017 81 10000 2.57 240 08:41 08.10.2022
1494 Clouds 9 1017 87 10000 3.09 210 03:50 08.10.2022
1495 Clouds 8 1018 93 10000 1.54 110 00:35 08.10.2022
1496 Clear 10 1018 81 10000 1.03 0 23:21 07.10.2022
1497 Clear 11 1019 76 10000 1.03 0 22:39 07.10.2022
1498 Clear 14 1019 62 10000 4.12 160 20:50 07.10.2022
1499 Clear 15 1019 62 10000 4.12 170 19:32 07.10.2022
1500 Clear 18 1020 48 10000 3.09 180 17:47 07.10.2022
1501 Clear 18 1020 45 10000 3.6 190 16:40 07.10.2022
1502 Clear 18 1022 48 10000 4.12 230 14:54 07.10.2022
1503 Clouds 15 1024 55 10000 3.6 210 12:37 07.10.2022
1504 Fog 6 1026 93 10000 1.03 0 09:37 07.10.2022
1505 Fog 5 1026 93 10000 1.54 80 09:18 07.10.2022
1506 Clouds 4 1027 100 10000 1.54 90 06:58 07.10.2022
1507 Clear 7 1029 87 10000 1.03 0 01:34 07.10.2022
1508 Clear 8 1030 76 10000 1.54 240 22:51 06.10.2022
1509 Clear 10 1030 71 10000 2.57 210 21:46 06.10.2022
1510 Clear 12 1030 66 10000 3.09 210 21:25 06.10.2022
1511 Clear 11 1030 72 10000 1.36 214 19:59 06.10.2022
1512 Clear 16 1029 51 10000 2.06 220 18:37 06.10.2022
1513 Clear 17 1029 42 10000 2.06 240 18:18 06.10.2022
1514 Clouds 17 1030 48 10000 5.14 280 14:52 06.10.2022
1515 Clouds 15 1029 62 10000 5.66 270 11:45 06.10.2022
1516 Clouds 11 1026 82 10000 4.63 270 07:35 06.10.2022
1517 Clouds 16 1021 77 10000 6.17 280 03:37 06.10.2022
1518 Clouds 17 1019 77 10000 5.14 220 00:27 06.10.2022
1519 Clouds 17 1017 72 10000 4.12 190 21:22 05.10.2022
1520 Clear 17 1016 77 10000 5.66 190 19:29 05.10.2022
1521 Clouds 18 1015 67 10000 5.14 170 17:36 05.10.2022
1522 Clouds 18 1017 63 10000 6.69 190 15:57 05.10.2022
1523 Clouds 17 1017 67 10000 5.66 200 14:47 05.10.2022
1524 Clouds 16 1018 72 10000 5.66 200 14:19 05.10.2022
1525 Clouds 15 1019 72 10000 4.63 190 12:23 05.10.2022
1526 Clouds 11 1018 93 10000 4.63 200 09:28 05.10.2022
1527 Clear 9 1018 93 10000 3.6 170 07:43 05.10.2022
1528 Clear 8 1019 93 10000 3.6 190 05:39 05.10.2022
1529 Clouds 9 1019 93 10000 2.06 200 04:18 05.10.2022
1530 Clouds 11 1020 82 10000 2.57 190 00:50 05.10.2022
1531 Clouds 12 1020 82 10000 1.54 230 00:27 05.10.2022
1532 Clouds 13 1021 67 10000 1.54 230 22:37 04.10.2022
1533 Clear 13 1020 71 10000 2.57 190 20:39 04.10.2022
1534 Clear 17 1020 59 10000 3.6 180 18:58 04.10.2022
1535 Clear 17 1020 59 10000 3.6 180 18:37 04.10.2022
1536 Clear 18 1020 55 10000 4.12 190 17:45 04.10.2022
1537 Clear 19 1020 48 10000 5.14 190 16:35 04.10.2022
1538 Clouds 15 1022 58 10000 5.66 200 12:58 04.10.2022
1539 Fog 8 1023 93 7000 2.06 120 09:46 04.10.2022
1540 Clouds 7 1022 93 10000 1.54 90 07:24 04.10.2022
1541 Clouds 7 1024 100 10000 0 0 02:27 04.10.2022
1542 Clouds 8 1025 100 10000 0.51 0 23:40 03.10.2022
1543 Clear 10 1025 93 10000 1.03 0 21:52 03.10.2022
1544 Clear 10 1025 87 10000 0 0 21:23 03.10.2022
1545 Clouds 12 1025 87 10000 2.06 230 19:52 03.10.2022
1546 Clouds 15 1026 72 10000 3.09 280 17:59 03.10.2022
1547 Clouds 15 1026 72 10000 3.6 280 17:18 03.10.2022
1548 Clouds 16 1026 58 10000 4.63 290 15:42 03.10.2022
1549 Clouds 15 1026 72 10000 5.66 290 13:45 03.10.2022
1550 Clouds 13 1026 82 10000 4.12 280 12:28 03.10.2022
1551 Clouds 12 1026 93 10000 4.63 280 10:39 03.10.2022
1552 Clouds 11 1025 87 9000 4.63 270 09:37 03.10.2022
1553 Clouds 12 1024 87 10000 3.6 280 06:30 03.10.2022
1554 Clouds 10 1023 87 10000 3.6 270 02:52 03.10.2022
1555 Clouds 11 1021 82 10000 3.09 290 22:35 02.10.2022
1556 Clear 13 1019 76 10000 3.09 290 20:51 02.10.2022
1557 Clouds 15 1017 67 10000 5.66 280 18:42 02.10.2022
1558 Clouds 16 1017 63 10000 6.69 280 17:52 02.10.2022
1559 Clouds 17 1016 63 10000 6.17 280 16:33 02.10.2022
1560 Clouds 16 1016 72 10000 5.14 290 15:56 02.10.2022
1561 Clouds 16 1016 72 10000 5.14 280 13:52 02.10.2022
1562 Clouds 16 1016 77 10000 5.14 280 13:21 02.10.2022
1563 Clouds 15 1016 82 10000 4.12 260 12:29 02.10.2022
1564 Rain 14 1016 82 10000 3.09 270 11:39 02.10.2022
1565 Clouds 14 1015 82 10000 4.12 240 10:59 02.10.2022
1566 Clouds 13 1015 87 10000 5.14 210 09:27 02.10.2022
1567 Clouds 11 1014 87 10000 5.14 200 07:39 02.10.2022
1568 Clouds 11 1014 82 10000 3.09 210 02:55 02.10.2022
1569 Clouds 11 1013 82 10000 3.09 240 00:46 02.10.2022
1570 Clear 12 1013 82 10000 3.09 250 00:20 02.10.2022
1571 Clouds 11 1012 82 10000 2.06 270 22:43 01.10.2022
1572 Clear 12 1010 87 10000 2.57 240 20:36 01.10.2022
1573 Clouds 14 1008 82 10000 3.09 240 18:40 01.10.2022
1574 Rain 15 1006 82 8000 4.12 250 16:36 01.10.2022
1575 Rain 14 1005 77 10000 5.66 210 14:35 01.10.2022
1576 Clouds 12 1005 82 10000 6.69 210 13:31 01.10.2022
1577 Rain 12 1004 82 10000 7.2 210 12:32 01.10.2022
1578 Clouds 11 1004 87 10000 6.17 210 11:20 01.10.2022
1579 Clouds 11 1004 87 10000 7.2 210 10:32 01.10.2022
1580 Rain 10 1003 93 10000 10.29 190 09:28 01.10.2022
1581 Rain 10 1003 93 10000 9.77 180 08:58 01.10.2022
1582 Rain 9 1009 79 10000 3.75 187 04:27 01.10.2022
1583 Clouds 10 1009 79 10000 3.74 187 03:32 01.10.2022
1584 Clouds 7 1011 83 10000 3.07 168 00:18 01.10.2022
1585 Clear 10 1010 71 10000 3.09 160 22:37 30.09.2022
1586 Clear 12 1011 66 10000 3.09 190 21:29 30.09.2022
1587 Clear 11 1011 66 10000 3.09 190 20:44 30.09.2022
1588 Clear 12 1010 58 10000 3.6 180 19:49 30.09.2022
1589 Clear 17 1010 44 10000 3.09 170 17:32 30.09.2022
1590 Clouds 16 1010 51 10000 4.12 210 15:56 30.09.2022
1591 Clouds 13 1011 76 10000 1.03 0 13:30 30.09.2022
1592 Clouds 7 1011 100 10000 2.06 120 11:58 30.09.2022
1593 Fog 6 1011 100 600 2.57 120 10:40 30.09.2022
1594 Fog 4 1010 100 300 1.03 0 08:26 30.09.2022
1595 Fog 4 1008 100 800 0.51 0 05:54 30.09.2022
1596 Clouds 5 1008 100 10000 1.03 0 02:36 30.09.2022
1597 Clear 7 1006 93 10000 1.54 270 22:31 29.09.2022
1598 Clear 8 1006 93 10000 0 0 21:27 29.09.2022
1599 Clear 9 1005 87 10000 1.54 0 20:44 29.09.2022
1600 Clear 11 1004 71 10000 0.51 0 18:34 29.09.2022
1601 Clear 13 1003 62 10000 1.54 250 17:23 29.09.2022
1602 Clouds 13 1003 66 10000 2.06 180 16:28 29.09.2022
1603 Clouds 13 1003 66 10000 2.06 160 15:35 29.09.2022
1604 Clouds 12 1003 71 10000 2.06 140 14:25 29.09.2022
1605 Fog 7 1001 93 200 1.03 0 09:57 29.09.2022
1606 Clouds 6 1001 100 6000 0.51 0 06:46 29.09.2022
1607 Clouds 5 1000 100 10000 0 0 02:47 29.09.2022
1608 Clouds 7 1000 93 10000 1.54 150 23:54 28.09.2022
1609 Clouds 9 999 93 10000 0.51 0 22:32 28.09.2022
1610 Clouds 9 999 93 10000 2.06 200 21:29 28.09.2022
1611 Clouds 10 999 81 10000 0.51 230 20:22 28.09.2022
1612 Clouds 10 997 76 10000 2.06 260 18:31 28.09.2022
1613 Clouds 10 997 76 10000 4.12 310 14:52 28.09.2022
1614 Rain 10 996 76 10000 4.63 270 12:56 28.09.2022
1615 Clouds 9 995 87 10000 1.54 300 10:51 28.09.2022
1616 Clouds 8 994 93 10000 2.57 280 08:33 28.09.2022
1617 Rain 8 994 93 10000 2.06 220 06:50 28.09.2022
1618 Rain 8 996 93 10000 3.6 150 01:56 28.09.2022
1619 Clouds 8 997 93 10000 4.63 200 01:31 28.09.2022
1620 Clouds 9 998 81 10000 3.09 190 23:20 27.09.2022
1621 Clouds 9 998 87 10000 1.03 0 21:42 27.09.2022
1622 Clouds 9 998 93 10000 2.57 250 20:37 27.09.2022
1623 Clouds 9 998 93 10000 1.54 250 19:47 27.09.2022
1624 Clouds 12 997 71 10000 4.63 250 18:37 27.09.2022
1625 Clouds 12 997 71 10000 3.6 230 17:44 27.09.2022
1626 Clouds 12 997 71 10000 5.14 250 15:29 27.09.2022
1627 Clouds 12 997 76 10000 4.12 250 14:45 27.09.2022
1628 Rain 10 997 81 10000 7.2 250 12:40 27.09.2022
1629 Clouds 10 996 87 10000 5.66 270 10:58 27.09.2022
1630 Clouds 10 995 87 10000 5.14 280 08:46 27.09.2022
1631 Rain 10 996 93 10000 3.89 252 06:31 27.09.2022
1632 Clouds 10 996 93 10000 5.24 206 01:56 27.09.2022
1633 Rain 10 996 92 10000 6.15 202 01:27 27.09.2022
1634 Rain 11 998 91 10000 6.7 199 23:25 26.09.2022
1635 Clouds 12 997 76 10000 6.69 200 22:31 26.09.2022
1636 Rain 12 998 82 10000 5.66 180 20:40 26.09.2022
1637 Clouds 12 999 76 10000 5.66 190 19:30 26.09.2022
1638 Clouds 12 1000 76 10000 7.2 190 18:31 26.09.2022
1639 Rain 14 1001 67 10000 7.2 200 15:55 26.09.2022
1640 Clouds 14 1003 62 10000 6.69 210 13:30 26.09.2022
1641 Clouds 13 1004 76 10000 6.17 200 11:29 26.09.2022
1642 Clouds 11 1005 76 10000 5.14 210 10:37 26.09.2022
1643 Clouds 11 1005 76 10000 5.14 210 10:19 26.09.2022
1644 Clear 10 1005 81 10000 6.17 200 09:53 26.09.2022
1645 Clear 11 1005 81 10000 5.14 210 09:22 26.09.2022
1646 Clouds 8 1007 93 10000 1.54 140 06:28 26.09.2022
1647 Clouds 6 1010 93 10000 1.54 220 02:48 26.09.2022
1648 Clouds 10 1011 87 10000 2.06 240 23:29 25.09.2022
1649 Clear 12 1011 82 10000 1.03 0 21:54 25.09.2022
1650 Clear 12 1011 82 10000 1.03 0 21:34 25.09.2022
1651 Clouds 12 1011 76 10000 1.54 270 20:44 25.09.2022
1652 Clear 14 1011 71 10000 1.54 300 19:31 25.09.2022
1653 Clouds 14 1011 71 10000 2.57 300 18:34 25.09.2022
1654 Clouds 15 1012 67 10000 3.6 310 17:52 25.09.2022
1655 Clear 15 1012 67 10000 1.54 300 16:22 25.09.2022
1656 Clouds 14 1012 67 10000 2.57 300 15:43 25.09.2022
1657 Clouds 14 1013 76 10000 3.09 300 14:21 25.09.2022
1658 Clouds 14 1013 76 10000 2.06 320 12:44 25.09.2022
1659 Clouds 12 1013 87 10000 1.54 310 10:26 25.09.2022
1660 Clouds 12 1013 93 8000 1.54 310 08:23 25.09.2022
1661 Drizzle 13 1013 94 6000 2.06 300 05:31 25.09.2022
1662 Clouds 13 1013 94 10000 1.03 0 00:36 25.09.2022
1663 Clouds 13 1013 94 10000 1.03 0 22:34 24.09.2022
1664 Clear 13 1013 87 10000 1.03 0 20:45 24.09.2022
1665 Clear 15 1013 77 10000 2.57 10 19:21 24.09.2022
1666 Clouds 16 1013 72 10000 2.57 10 16:59 24.09.2022
1667 Clouds 17 1013 67 10000 2.06 360 16:23 24.09.2022
1668 Drizzle 17 1013 59 10000 1.03 0 15:19 24.09.2022
1669 Rain 16 1013 59 10000 1.03 0 13:23 24.09.2022
1670 Rain 15 1013 67 10000 2.06 30 12:40 24.09.2022
1671 Clear 12 1013 76 10000 1.03 0 10:19 24.09.2022
1672 Clear 11 1013 87 10000 0.51 0 09:22 24.09.2022
1673 Clear 9 1012 93 10000 1.54 120 08:43 24.09.2022
1674 Clouds 9 1013 93 10000 1.03 0 05:55 24.09.2022
1675 Clouds 11 1013 87 10000 0.51 180 04:31 24.09.2022
1676 Clouds 12 1014 76 10000 1.03 100 23:47 23.09.2022
1677 Rain 13 1015 71 10000 2.06 210 21:44 23.09.2022
1678 Rain 14 1015 71 10000 2.57 210 21:24 23.09.2022
1679 Rain 13 1015 71 10000 2.57 210 20:54 23.09.2022
1680 Clear 15 1015 62 10000 2.06 220 19:44 23.09.2022
1681 Clear 18 1015 45 10000 2.06 240 17:55 23.09.2022
1682 Clear 18 1017 48 10000 3.6 170 13:41 23.09.2022
1683 Clear 9 1018 81 10000 3.09 130 10:24 23.09.2022
1684 Clear 5 1018 100 10000 0 0 07:43 23.09.2022
1685 Clouds 8 1020 81 10000 1.03 0 03:37 23.09.2022
1686 Clouds 9 1021 76 10000 1.54 140 23:30 22.09.2022
1687 Clear 10 1021 76 10000 2.06 150 22:28 22.09.2022
1688 Clear 10 1021 81 10000 2.06 160 21:36 22.09.2022
1689 Clear 13 1021 71 10000 1.03 130 20:25 22.09.2022
1690 Clear 17 1021 48 10000 2.06 160 18:58 22.09.2022
1691 Clear 18 1023 36 10000 3.09 170 15:39 22.09.2022
1692 Clouds 8 1024 87 10000 1.54 30 10:51 22.09.2022
1693 Clouds 7 1024 93 10000 1.03 0 10:19 22.09.2022
1694 Fog 4 1024 93 550 0.51 100 08:20 22.09.2022
1695 Clouds 5 1025 93 6000 0.51 0 05:22 22.09.2022
1696 Clouds 7 1026 93 10000 2.06 270 01:19 22.09.2022
1697 Clouds 9 1026 87 10000 0 0 22:29 21.09.2022
1698 Clear 10 1026 87 10000 1.54 280 21:18 21.09.2022
1699 Clear 15 1025 54 10000 1.03 40 18:51 21.09.2022
1700 Clear 15 1025 58 10000 0.51 0 17:44 21.09.2022
1701 Clouds 16 1026 55 10000 1.54 0 15:47 21.09.2022
1702 Clouds 13 1027 71 10000 1.03 0 13:54 21.09.2022
1703 Mist 8 1027 100 800 1.03 0 11:43 21.09.2022
1704 Fog 7 1027 100 100 0 0 10:59 21.09.2022
1705 Clouds 6 1027 100 100 1.03 0 09:40 21.09.2022
1706 Fog 5 1027 100 10000 0.51 0 08:43 21.09.2022
1707 Clear 6 1026 100 10000 1.03 280 03:56 21.09.2022
1708 Clear 7 1025 93 10000 1.03 0 02:38 21.09.2022
1709 Clear 7 1025 93 10000 1.03 260 01:56 21.09.2022
1710 Clear 8 1025 93 10000 1.54 280 00:19 21.09.2022
1711 Clear 10 1024 87 10000 1.03 290 21:53 20.09.2022
1712 Clouds 11 1023 87 10000 2.06 120 20:32 20.09.2022
1713 Clouds 14 1022 62 10000 3.09 290 18:41 20.09.2022
1714 Clouds 15 1021 55 10000 3.6 310 15:37 20.09.2022
1715 Clouds 14 1022 62 10000 4.63 300 14:18 20.09.2022
1716 Clouds 13 1022 82 10000 3.6 300 11:51 20.09.2022
1717 Clouds 8 1020 93 9000 4.63 270 08:44 20.09.2022
1718 Rain 8 1022 92 10000 1.48 261 08:23 20.09.2022
1719 Clouds 10 1020 93 10000 4.12 270 04:37 20.09.2022
1720 Clouds 10 1019 93 10000 4.12 280 01:42 20.09.2022
1721 Clouds 10 1019 100 10000 3.09 280 22:42 19.09.2022
1722 Rain 11 1019 93 9000 3.6 280 21:28 19.09.2022
1723 Rain 11 1019 93 8000 2.57 290 20:40 19.09.2022
1724 Clouds 12 1018 82 10000 4.12 280 18:49 19.09.2022
1725 Rain 10 1017 81 7000 5.66 310 17:20 19.09.2022
1726 Clouds 14 1017 76 10000 5.66 290 13:47 19.09.2022
1727 Clouds 13 1017 82 10000 3.6 300 11:57 19.09.2022
1728 Clouds 11 1016 93 10000 5.66 280 09:44 19.09.2022
1729 Clouds 10 1015 93 10000 5.14 280 08:36 19.09.2022
1730 Clouds 10 1012 93 10000 8.23 290 03:39 19.09.2022
1731 Clouds 10 1011 87 10000 7.2 280 00:48 19.09.2022
1732 Clouds 9 1011 87 10000 5.66 280 22:33 18.09.2022
1733 Clouds 9 1011 93 10000 5.14 280 21:19 18.09.2022
1734 Rain 10 1010 87 10000 5.14 270 19:33 18.09.2022
1735 Rain 10 1011 87 10000 3.09 270 17:52 18.09.2022
1736 Rain 10 1010 93 10000 5.14 250 16:47 18.09.2022
1737 Rain 10 1011 93 10000 3.6 280 14:44 18.09.2022
1738 Rain 10 1012 87 10000 6.69 280 13:34 18.09.2022
1739 Rain 12 1012 82 10000 4.63 270 11:55 18.09.2022
1740 Rain 10 1012 93 10000 3.6 280 07:46 18.09.2022
1741 Clouds 10 1012 81 10000 3.6 290 01:43 18.09.2022
1742 Clouds 10 1012 81 10000 4.63 290 01:19 18.09.2022
1743 Clouds 10 1011 81 10000 5.14 280 22:56 17.09.2022
1744 Clouds 10 1011 81 10000 4.12 270 20:53 17.09.2022
1745 Rain 12 1010 76 10000 5.66 270 19:36 17.09.2022
1746 Clouds 11 1010 76 10000 8.23 280 17:44 17.09.2022
1747 Rain 14 1010 62 10000 6.69 280 14:22 17.09.2022
1748 Clouds 14 1011 58 10000 7.72 290 12:46 17.09.2022
1749 Clouds 12 1010 76 10000 6.69 290 10:48 17.09.2022
1750 Clouds 11 1009 87 10000 6.17 290 06:35 17.09.2022
1751 Clouds 11 1009 93 9000 5.14 290 04:35 17.09.2022
1752 Clouds 11 1008 71 10000 5.66 270 23:39 16.09.2022
1753 Clouds 10 1009 72 10000 5.87 280 21:57 16.09.2022
1754 Clouds 12 1008 62 10000 4.12 280 20:44 16.09.2022
1755 Clear 15 1007 51 10000 6.69 280 18:43 16.09.2022
1756 Clouds 16 1007 51 10000 6.17 290 16:22 16.09.2022
1757 Clouds 16 1008 47 10000 6.17 290 14:50 16.09.2022
1758 Clouds 14 1008 67 10000 6.17 280 12:51 16.09.2022
1759 Clouds 12 1008 87 10000 4.63 260 09:39 16.09.2022
1760 Clouds 11 1008 87 10000 2.57 260 07:22 16.09.2022
1761 Clouds 10 1008 93 10000 3.09 250 06:48 16.09.2022
1762 Clouds 10 1008 93 10000 2.57 270 05:55 16.09.2022
1763 Clouds 13 1009 82 10000 3.6 270 01:31 16.09.2022
1764 Clouds 14 1008 82 10000 3.09 270 21:31 15.09.2022
1765 Clouds 13 1007 94 10000 3.6 280 20:29 15.09.2022
1766 Clouds 16 1007 63 10000 6.17 270 18:57 15.09.2022
1767 Clouds 17 1007 59 10000 5.14 270 17:38 15.09.2022
1768 Clouds 18 1007 55 10000 6.17 270 17:20 15.09.2022
1769 Clouds 17 1007 59 10000 6.17 260 15:37 15.09.2022
1770 Clouds 16 1007 77 10000 4.63 280 12:49 15.09.2022
1771 Clouds 15 1007 88 10000 4.63 280 11:47 15.09.2022
1772 Clouds 14 1006 88 9000 3.09 260 09:43 15.09.2022
1773 Clouds 13 1006 96 10000 1 295 05:37 15.09.2022
1774 Clouds 13 1006 95 10000 1.2 297 02:58 15.09.2022
1775 Clouds 14 1005 97 10000 0.79 319 22:51 14.09.2022
1776 Rain 14 1004 100 9000 1.03 0 20:24 14.09.2022
1777 Rain 15 1004 94 10000 2.06 320 19:32 14.09.2022
1778 Drizzle 15 1005 94 5000 2.06 340 17:28 14.09.2022
1779 Drizzle 15 1005 94 4600 4.12 340 16:36 14.09.2022
1780 Rain 15 1005 94 4600 4.12 340 16:36 14.09.2022
1781 Rain 14 1005 100 7000 2.57 330 14:47 14.09.2022
1782 Rain 15 1006 94 8000 2.57 330 12:33 14.09.2022
1783 Drizzle 14 1006 100 10000 1.03 350 09:50 14.09.2022
1784 Drizzle 15 1006 94 10000 1.03 0 07:55 14.09.2022
1785 Rain 16 1006 97 4343 0.14 290 06:48 14.09.2022
1786 Rain 15 1006 97 8237 0.63 359 06:23 14.09.2022
1787 Rain 17 1008 95 10000 1.19 202 01:55 14.09.2022
1788 Rain 18 1008 95 10000 1.19 202 01:30 14.09.2022
1789 Clouds 17 1008 94 10000 1.43 203 00:52 14.09.2022
1790 Clouds 17 1009 93 10000 1.41 208 23:54 13.09.2022
1791 Clouds 18 1009 93 10000 1.4 209 23:36 13.09.2022
1792 Clouds 19 1009 90 10000 0.53 223 23:18 13.09.2022
1793 Clouds 18 1009 89 10000 0.61 0 22:22 13.09.2022
1794 Clear 21 1009 73 10000 2.57 320 20:29 13.09.2022
1795 Clear 25 1008 53 10000 4.63 320 18:21 13.09.2022
1796 Clouds 25 1009 50 10000 4.63 300 15:56 13.09.2022
1797 Clouds 24 1009 46 10000 4.63 250 14:47 13.09.2022
1798 Clear 22 1010 53 10000 3.09 0 13:20 13.09.2022
1799 Clear 16 1010 82 10000 2.06 120 09:49 13.09.2022
1800 Clouds 16 1011 74 10000 2.38 184 07:21 13.09.2022
1801 Clouds 16 1013 77 10000 2.42 173 00:30 13.09.2022
1802 Clear 15 1014 77 10000 2.57 160 22:51 12.09.2022
1803 Clear 16 1014 77 10000 2.57 160 22:22 12.09.2022
1804 Clear 18 1014 67 10000 2.06 180 20:42 12.09.2022
1805 Clear 22 1015 52 10000 3.09 160 18:52 12.09.2022
1806 Clear 23 1015 46 10000 3.6 140 17:25 12.09.2022
1807 Clouds 21 1016 56 10000 2.57 190 14:54 12.09.2022
1808 Clouds 17 1018 77 10000 3.6 130 11:51 12.09.2022
1809 Fog 11 1018 100 500 2.06 130 09:57 12.09.2022
1810 Clouds 9 1018 90 10000 1.36 180 04:57 12.09.2022
1811 Clouds 12 1018 88 10000 1.22 182 04:27 12.09.2022
1812 Clouds 13 1019 79 10000 0.77 179 23:47 11.09.2022
1813 Clouds 13 1019 77 10000 0.48 205 22:43 11.09.2022
1814 Clear 16 1019 82 10000 0.51 0 20:51 11.09.2022
1815 Clear 17 1019 77 10000 1.54 340 20:18 11.09.2022
1816 Clouds 19 1018 68 10000 3.09 330 19:25 11.09.2022
1817 Clouds 19 1019 68 10000 3.09 330 18:37 11.09.2022
1818 Clouds 19 1019 72 10000 2.57 350 16:56 11.09.2022
1819 Clouds 18 1020 82 10000 3.09 340 14:56 11.09.2022
1820 Clouds 16 1019 88 10000 4.12 290 12:53 11.09.2022
1821 Clouds 15 1018 94 7000 2.06 310 09:28 11.09.2022
1822 Clouds 13 1017 95 10000 1.82 318 07:21 11.09.2022
1823 Clouds 14 1014 96 10000 1.46 331 01:18 11.09.2022
1824 Clouds 14 1013 96 10000 0.57 176 23:20 10.09.2022
1825 Clouds 16 1013 88 10000 1.54 120 21:33 10.09.2022
1826 Rain 16 1012 88 10000 1.03 120 19:49 10.09.2022
1827 Clouds 16 1012 88 10000 1.03 0 19:29 10.09.2022
1828 Clouds 16 1012 77 10000 3.09 210 18:58 10.09.2022
1829 Clouds 18 1012 72 10000 2.57 230 16:57 10.09.2022
1830 Rain 19 1012 63 10000 4.63 210 14:45 10.09.2022
1831 Clouds 18 1012 72 10000 3.6 210 12:53 10.09.2022
1832 Clouds 17 1013 82 10000 4.12 190 11:35 10.09.2022
1833 Drizzle 15 1012 88 10000 2.57 190 09:51 10.09.2022
1834 Clouds 15 1012 88 10000 2.57 140 08:37 10.09.2022
1835 Clouds 14 1012 94 10000 3.6 140 07:49 10.09.2022
1836 Clouds 14 1012 94 10000 3.43 199 00:51 10.09.2022
1837 Clear 16 1011 82 10000 3.09 160 23:33 09.09.2022
1838 Clouds 16 1011 82 10000 2.06 160 22:19 09.09.2022
1839 Clouds 16 1011 82 9000 4.12 200 20:47 09.09.2022
1840 Clouds 20 1010 55 10000 5.66 180 19:25 09.09.2022
1841 Clouds 21 1010 56 10000 5.66 190 18:53 09.09.2022
1842 Clouds 22 1010 49 10000 6.17 190 16:28 09.09.2022
1843 Rain 20 1010 60 10000 6.69 170 13:50 09.09.2022
1844 Clouds 21 1010 60 10000 5.66 180 12:47 09.09.2022
1845 Clouds 17 1011 82 10000 3.6 160 09:57 09.09.2022
1846 Clear 15 1010 94 10000 2.57 160 05:38 09.09.2022
1847 Clouds 14 1010 90 10000 2.7 174 03:21 09.09.2022
1848 Rain 16 1010 77 10000 2.57 190 21:53 08.09.2022
1849 Clear 16 1010 77 10000 2.57 210 20:56 08.09.2022
1850 Clear 16 1010 77 10000 2.57 210 20:32 08.09.2022
1851 Clouds 18 1009 68 10000 4.12 210 19:57 08.09.2022
1852 Rain 20 1009 60 10000 2.57 240 18:26 08.09.2022
1853 Clouds 19 1009 82 10000 3.6 280 16:21 08.09.2022
1854 Clouds 19 1009 82 10000 4.63 260 14:40 08.09.2022
1855 Clouds 17 1009 94 6000 3.09 240 13:27 08.09.2022
1856 Rain 16 1009 94 10000 0.51 0 12:24 08.09.2022
1857 Rain 16 1009 100 6000 0.51 0 10:57 08.09.2022
1858 Drizzle 16 1009 94 10000 1.54 160 08:51 08.09.2022
1859 Rain 15 1009 93 10000 2.07 184 06:42 08.09.2022
1860 Clouds 15 1010 86 10000 1.35 76 02:37 08.09.2022
1861 Clouds 16 1011 79 10000 0.69 87 02:18 08.09.2022
1862 Clouds 16 1011 79 10000 0.69 87 01:38 08.09.2022
1863 Clouds 19 1012 74 10000 1.13 65 22:54 07.09.2022
1864 Clear 19 1013 88 10000 1.54 240 21:42 07.09.2022
1865 Clouds 20 1012 77 10000 2.57 250 20:49 07.09.2022
1866 Clouds 22 1012 68 10000 6.69 330 19:42 07.09.2022
1867 Clouds 24 1012 68 10000 1.03 0 18:27 07.09.2022
1868 Clouds 27 1013 47 10000 1.54 0 14:26 07.09.2022
1869 Clear 22 1014 68 10000 2.57 150 10:48 07.09.2022
1870 Clear 18 1013 82 10000 1.03 0 09:19 07.09.2022
1871 Clouds 18 1014 93 10000 1.62 181 07:23 07.09.2022
1872 Clouds 17 1014 73 10000 1.4 158 03:19 07.09.2022
1873 Clouds 20 1014 62 10000 1.63 111 23:38 06.09.2022
1874 Clear 24 1015 53 10000 3.09 130 21:42 06.09.2022
1875 Clear 26 1015 47 10000 3.09 100 20:45 06.09.2022
1876 Clouds 29 1015 34 10000 1.54 0 18:45 06.09.2022
1877 Clouds 28 1015 36 10000 2.57 120 18:22 06.09.2022
1878 Clear 29 1015 32 10000 2.57 150 17:22 06.09.2022
1879 Clear 30 1015 32 10000 3.09 110 16:37 06.09.2022
1880 Clear 29 1016 36 10000 1.03 0 15:22 06.09.2022
1881 Clear 27 1017 44 10000 1.54 0 13:45 06.09.2022
1882 Clear 26 1017 44 10000 2.57 120 13:22 06.09.2022
1883 Clear 23 1017 60 10000 3.09 130 11:57 06.09.2022
1884 Clear 22 1017 64 10000 2.57 100 10:41 06.09.2022
1885 Clear 18 1018 77 10000 2.57 110 08:50 06.09.2022
1886 Clear 18 1017 82 10000 2.06 90 07:37 06.09.2022
1887 Clouds 16 1019 86 10000 1.33 110 02:43 06.09.2022
1888 Clear 23 1019 53 10000 4.12 110 23:23 05.09.2022
1889 Clear 24 1019 46 10000 3.6 120 21:53 05.09.2022
1890 Clear 26 1019 41 10000 4.12 120 20:33 05.09.2022
1891 Clear 28 1019 34 10000 2.06 120 19:19 05.09.2022
1892 Clear 28 1019 32 10000 0.51 0 18:45 05.09.2022
1893 Clear 28 1019 32 10000 3.09 100 18:21 05.09.2022
1894 Clear 29 1020 30 10000 2.06 120 16:35 05.09.2022
1895 Clear 29 1020 30 10000 2.06 110 15:46 05.09.2022
1896 Clear 27 1021 36 10000 3.6 120 13:25 05.09.2022
1897 Clear 26 1022 47 10000 4.12 110 12:27 05.09.2022
1898 Clear 19 1022 63 10000 2.06 120 09:44 05.09.2022
1899 Clouds 13 1021 76 10000 0.92 92 06:40 05.09.2022
1900 Clouds 14 1022 68 10000 1.13 107 01:56 05.09.2022
1901 Clouds 19 1021 63 10000 1.31 118 22:59 04.09.2022
1902 Clouds 20 1021 62 10000 1.54 123 22:27 04.09.2022
1903 Clear 23 1020 49 10000 2.06 110 20:50 04.09.2022
1904 Clear 26 1020 41 10000 1.54 140 19:32 04.09.2022
1905 Clear 27 1019 36 10000 2.06 140 17:55 04.09.2022
1906 Clear 27 1019 38 10000 2.57 140 16:42 04.09.2022
1907 Clouds 26 1019 44 10000 3.6 130 14:29 04.09.2022
1908 Clouds 24 1019 53 10000 3.09 120 13:28 04.09.2022
1909 Clear 22 1020 56 10000 2.06 150 11:54 04.09.2022
1910 Clear 20 1019 59 10000 3.6 130 10:28 04.09.2022
1911 Clouds 16 1018 68 10000 1.13 137 07:29 04.09.2022
1912 Clouds 10 1017 64 10000 1.04 119 04:44 04.09.2022
1913 Clouds 15 1016 66 10000 0.93 82 00:42 04.09.2022
1914 Clouds 18 1015 59 10000 1.19 80 22:21 03.09.2022
1915 Clear 20 1015 52 10000 3.09 110 21:23 03.09.2022
1916 Clear 22 1014 35 10000 3.09 140 18:59 03.09.2022
1917 Rain 23 1014 37 10000 4.63 120 17:26 03.09.2022
1918 Clear 24 1014 35 10000 4.63 100 16:27 03.09.2022
1919 Clear 23 1014 37 10000 5.66 120 14:44 03.09.2022
1920 Clear 23 1014 35 10000 5.66 130 13:55 03.09.2022
1921 Clear 21 1015 42 10000 3.6 120 11:51 03.09.2022
1922 Clear 17 1015 51 10000 4.63 110 09:56 03.09.2022
1923 Clear 14 1015 62 10000 3.6 110 08:27 03.09.2022
1924 Clouds 9 1015 77 10000 1.81 81 06:53 03.09.2022
1925 Clouds 14 1015 75 10000 1.93 85 04:31 03.09.2022
1926 Clouds 17 1016 56 10000 2.81 100 23:54 02.09.2022
1927 Clear 18 1016 45 10000 4.63 100 22:45 02.09.2022
1928 Clear 20 1015 37 10000 4.12 100 20:59 02.09.2022
1929 Clear 21 1015 37 10000 5.14 100 20:27 02.09.2022
1930 Clear 23 1015 33 10000 5.66 90 19:00 02.09.2022
1931 Clear 23 1015 33 10000 5.66 90 18:28 02.09.2022
1932 Clear 23 1016 33 10000 4.63 110 17:36 02.09.2022
1933 Clear 23 1016 33 10000 5.66 120 16:46 02.09.2022
1934 Clear 23 1018 33 10000 4.12 130 13:55 02.09.2022
1935 Clear 21 1018 45 10000 3.09 100 12:24 02.09.2022
1936 Clear 17 1019 59 10000 2.57 100 09:50 02.09.2022
1937 Clear 15 1019 62 10000 2.06 120 08:56 02.09.2022
1938 Clouds 12 1019 75 10000 1.79 81 07:24 02.09.2022
1939 Clouds 11 1019 75 10000 1.79 81 06:35 02.09.2022
1940 Clouds 12 1021 67 10000 1.39 83 02:37 02.09.2022
1941 Clear 17 1020 44 10000 2.06 100 22:30 01.09.2022
1942 Clear 17 1020 42 10000 2.06 90 21:43 01.09.2022
1943 Clear 19 1020 42 10000 2.57 70 21:23 01.09.2022
1944 Clear 20 1020 39 10000 2.57 80 20:37 01.09.2022
1945 Clear 22 1020 35 10000 5.66 80 18:49 01.09.2022
1946 Clear 23 1020 35 10000 6.17 50 17:21 01.09.2022
1947 Clear 23 1021 35 10000 6.17 90 15:47 01.09.2022
1948 Clouds 22 1021 40 10000 5.14 80 13:55 01.09.2022
1949 Clouds 22 1022 40 10000 6.17 110 12:57 01.09.2022
1950 Clear 20 1022 45 10000 5.14 90 11:52 01.09.2022
1951 Clear 20 1022 52 10000 2.57 80 11:30 01.09.2022
1952 Clouds 17 1022 59 10000 1.03 0 10:19 01.09.2022
1953 Clouds 10 1022 87 10000 1.03 0 07:51 01.09.2022
1954 Clear 10 1022 74 10000 1.77 55 06:21 01.09.2022
1955 Clouds 13 1022 73 10000 2.24 56 01:31 01.09.2022
1956 Clouds 16 1022 56 10000 1.96 68 23:19 31.08.2022
1957 Clear 19 1022 55 10000 2.06 50 21:20 31.08.2022
1958 Clouds 22 1021 46 10000 2.57 80 19:23 31.08.2022
1959 Clouds 22 1022 49 10000 4.63 80 17:25 31.08.2022
1960 Clouds 22 1022 49 10000 4.12 50 15:39 31.08.2022
1961 Clouds 21 1022 52 10000 4.63 70 13:56 31.08.2022
1962 Clouds 19 1023 68 10000 5.14 70 12:19 31.08.2022
1963 Clear 16 1022 82 10000 2.06 20 09:39 31.08.2022
1964 Clear 14 1022 94 10000 2.06 320 08:32 31.08.2022
1965 Clouds 15 1021 93 10000 2.05 41 03:41 31.08.2022
1966 Clouds 19 1021 79 10000 1.69 33 22:44 30.08.2022
1967 Clear 18 1021 59 10000 1.54 10 21:33 30.08.2022
1968 Clear 20 1020 55 10000 3.09 40 20:38 30.08.2022
1969 Clear 24 1020 43 10000 3.09 30 17:25 30.08.2022
1970 Clear 24 1021 46 10000 2.57 0 14:41 30.08.2022
1971 Clear 24 1021 53 10000 2.06 0 12:54 30.08.2022
1972 Clear 19 1022 72 10000 1.54 0 11:20 30.08.2022
1973 Clear 17 1022 82 10000 2.06 350 10:20 30.08.2022
1974 Clouds 11 1021 90 10000 1.37 69 06:49 30.08.2022
1975 Clouds 13 1020 82 10000 1.07 58 01:44 30.08.2022
1976 Clear 16 1021 72 10000 0.51 0 22:44 29.08.2022
1977 Clear 18 1021 63 10000 0.51 30 21:55 29.08.2022
1978 Clear 19 1020 63 10000 1.03 0 21:23 29.08.2022
1979 Clear 19 1020 63 10000 1.03 0 21:23 29.08.2022
1980 Clouds 22 1020 52 10000 2.06 10 19:41 29.08.2022
1981 Clouds 24 1020 40 10000 1.54 0 17:39 29.08.2022
1982 Clouds 23 1020 43 10000 2.06 330 17:18 29.08.2022
1983 Clear 23 1021 43 10000 4.12 360 15:38 29.08.2022
1984 Clear 21 1022 49 10000 1.54 0 13:58 29.08.2022
1985 Clear 19 1022 55 10000 1.54 80 12:32 29.08.2022
1986 Clear 16 1022 63 10000 2.06 360 10:49 29.08.2022
1987 Clear 14 1022 76 10000 1.03 0 09:20 29.08.2022
1988 Clear 9 1021 93 10000 0.51 0 07:20 29.08.2022
1989 Clear 12 1021 83 10000 1 350 02:33 29.08.2022
1990 Clear 13 1020 62 10000 1.81 349 23:37 28.08.2022
1991 Clear 17 1020 55 10000 2.06 340 21:49 28.08.2022
1992 Clear 17 1019 55 10000 2.06 330 21:29 28.08.2022
1993 Clear 20 1019 45 10000 4.12 340 20:23 28.08.2022
1994 Clear 22 1019 43 10000 5.66 320 18:36 28.08.2022
1995 Clear 23 1019 40 10000 5.66 330 18:18 28.08.2022
1996 Clear 22 1019 43 10000 4.63 330 16:49 28.08.2022
1997 Clear 22 1019 43 10000 5.66 340 15:34 28.08.2022
1998 Clouds 20 1019 52 10000 5.14 320 13:32 28.08.2022
1999 Clouds 19 1019 55 10000 5.66 320 11:59 28.08.2022
2000 Clouds 17 1019 72 10000 4.12 360 10:22 28.08.2022
2001 Clouds 16 1019 72 10000 3.6 320 09:24 28.08.2022
2002 Clouds 15 1019 82 10000 3.6 310 07:56 28.08.2022
2003 Clouds 14 1018 95 10000 1.76 327 07:26 28.08.2022
2004 Clouds 17 1017 90 10000 2.29 344 00:37 28.08.2022
2005 Clouds 19 1016 80 10000 0.79 326 23:20 27.08.2022
2006 Clouds 19 1016 79 10000 0.73 19 22:27 27.08.2022
2007 Clouds 19 1017 72 10000 5.14 320 20:35 27.08.2022
2008 Clouds 20 1016 72 10000 4.63 320 19:26 27.08.2022
2009 Clouds 19 1016 77 10000 7.2 320 16:29 27.08.2022
2010 Clouds 21 1016 68 10000 4.12 320 15:31 27.08.2022
2011 Clouds 21 1016 73 10000 4.12 300 13:22 27.08.2022
2012 Clouds 19 1016 82 10000 3.6 320 12:20 27.08.2022
2013 Clouds 18 1015 88 9000 4.63 320 10:30 27.08.2022
2014 Clouds 18 1015 94 9000 5.14 320 09:33 27.08.2022
2015 Clouds 19 1014 93 10000 2.97 331 06:52 27.08.2022
2016 Clouds 21 1014 96 10000 2.46 316 01:21 27.08.2022
2017 Drizzle 21 1014 77 10000 5.14 320 23:46 26.08.2022
2018 Clouds 23 1014 68 10000 6.17 300 21:49 26.08.2022
2019 Clouds 25 1013 64 10000 8.23 300 20:20 26.08.2022
2020 Clouds 27 1012 50 10000 8.23 280 17:59 26.08.2022
2021 Clear 28 1012 44 10000 6.69 310 16:32 26.08.2022
2022 Clear 29 1013 44 10000 6.69 290 15:24 26.08.2022
2023 Clear 29 1013 47 10000 3.09 340 13:18 26.08.2022
2024 Clear 27 1014 53 10000 2.57 360 11:48 26.08.2022
2025 Clear 25 1014 64 10000 1.54 360 11:22 26.08.2022
2026 Clear 19 1014 82 10000 0.51 0 08:55 26.08.2022
2027 Clouds 19 1014 79 10000 1.15 71 03:59 26.08.2022
2028 Clouds 21 1014 81 10000 1.08 90 00:39 26.08.2022
2029 Clear 24 1015 60 10000 0.51 170 22:39 25.08.2022
2030 Clear 27 1015 50 10000 2.57 100 20:55 25.08.2022
2031 Clear 29 1015 44 10000 3.6 110 19:35 25.08.2022
2032 Clear 30 1015 39 10000 2.57 180 18:29 25.08.2022
2033 Clear 30 1015 39 10000 1.03 0 17:32 25.08.2022
2034 Clear 29 1016 42 10000 4.12 110 16:45 25.08.2022
2035 Clouds 29 1016 44 10000 5.14 90 15:30 25.08.2022
2036 Clouds 28 1017 47 10000 4.12 90 13:58 25.08.2022
2037 Clear 26 1019 57 10000 5.14 100 11:21 25.08.2022
2038 Clear 24 1019 60 10000 4.63 110 10:42 25.08.2022
2039 Clear 16 1019 77 10000 2.06 20 07:35 25.08.2022
2040 Clear 16 1019 77 10000 1.34 81 02:51 25.08.2022
2041 Clouds 19 1020 62 10000 1.65 96 23:36 24.08.2022
2042 Clouds 20 1020 57 10000 2.05 97 22:55 24.08.2022
2043 Clear 24 1020 43 10000 1.54 100 21:53 24.08.2022
2044 Clear 25 1019 43 10000 1.54 90 21:28 24.08.2022
2045 Clear 29 1019 34 10000 2.57 60 19:52 24.08.2022
2046 Clear 31 1019 28 10000 4.12 90 16:58 24.08.2022
2047 Clear 31 1019 28 10000 1.54 0 15:54 24.08.2022
2048 Clear 31 1019 28 10000 3.6 110 15:18 24.08.2022
2049 Clear 28 1020 36 10000 3.09 0 12:48 24.08.2022
2050 Clear 26 1020 44 10000 3.6 110 11:18 24.08.2022
2051 Clear 18 1020 68 10000 2.57 120 08:45 24.08.2022
2052 Clear 17 1019 72 10000 0.51 0 05:26 24.08.2022
2053 Clouds 18 1019 61 10000 1.3 127 00:41 24.08.2022
2054 Clouds 21 1018 44 10000 2.11 133 22:38 23.08.2022
2055 Clear 23 1018 43 10000 3.09 130 21:55 23.08.2022
2056 Clear 26 1017 38 10000 3.6 110 20:43 23.08.2022
2057 Clear 29 1016 30 10000 3.6 90 18:58 23.08.2022
2058 Clear 29 1017 30 10000 3.6 90 17:59 23.08.2022
2059 Clear 30 1017 28 10000 2.57 80 17:22 23.08.2022
2060 Clear 29 1017 30 10000 4.63 120 16:24 23.08.2022
2061 Clear 29 1017 32 10000 2.57 80 14:30 23.08.2022
2062 Clear 27 1018 36 10000 3.09 110 12:46 23.08.2022
2063 Clear 23 1018 49 10000 4.12 120 10:57 23.08.2022
2064 Clear 23 1018 49 10000 4.12 120 10:33 23.08.2022
2065 Clear 19 1017 63 10000 3.09 110 08:58 23.08.2022
2066 Clear 19 1017 63 10000 3.09 110 08:38 23.08.2022
2067 Clear 18 1017 63 10000 2.57 110 08:18 23.08.2022
2068 Clouds 17 1017 62 10000 1.21 110 07:31 23.08.2022
2069 Clouds 15 1017 77 10000 1.66 119 06:22 23.08.2022
2070 Clouds 21 1017 70 10000 1.15 126 01:45 23.08.2022
2071 Clouds 19 1016 63 10000 1.78 133 00:27 23.08.2022
2072 Clouds 17 1016 63 10000 1.78 133 23:32 22.08.2022
2073 Clear 23 1015 43 10000 2.06 90 22:24 22.08.2022
2074 Clear 25 1014 38 10000 2.06 90 20:29 22.08.2022
2075 Clear 26 1014 36 10000 2.57 90 19:41 22.08.2022
2076 Clear 27 1014 31 10000 3.09 90 18:37 22.08.2022
2077 Clear 28 1015 29 10000 2.06 60 15:46 22.08.2022
2078 Clear 27 1016 36 10000 1.54 0 15:18 22.08.2022
2079 Clear 23 1017 53 10000 1.03 0 11:39 22.08.2022
2080 Clear 16 1017 82 10000 0.51 0 09:24 22.08.2022
2081 Clouds 12 1016 66 10000 0.69 359 05:51 22.08.2022
2082 Clouds 15 1016 60 10000 1.17 4 00:56 22.08.2022
2083 Clouds 15 1016 60 10000 1.17 4 00:36 22.08.2022
2084 Clear 18 1016 67 10000 1.03 270 23:21 21.08.2022
2085 Clear 20 1016 55 10000 2.06 330 21:55 21.08.2022
2086 Clear 21 1016 52 10000 3.09 310 21:18 21.08.2022
2087 Clear 24 1015 40 10000 4.12 320 19:58 21.08.2022
2088 Clear 26 1015 38 10000 5.14 330 18:36 21.08.2022
2089 Clear 26 1016 33 10000 3.09 360 16:48 21.08.2022
2090 Clear 26 1016 36 10000 3.6 310 15:52 21.08.2022
2091 Clear 25 1016 38 10000 3.09 300 14:41 21.08.2022
2092 Clouds 24 1016 40 10000 2.06 280 13:48 21.08.2022
2093 Clouds 23 1017 49 10000 2.06 0 12:55 21.08.2022
2094 Clear 20 1017 63 10000 2.06 290 10:36 21.08.2022
2095 Clear 17 1018 88 10000 0.51 0 08:57 21.08.2022
2096 Clear 17 1018 88 10000 0.51 0 08:39 21.08.2022
2097 Fog 14 1017 94 10000 1.03 190 07:53 21.08.2022
2098 Clear 14 1017 94 10000 0.51 0 05:39 21.08.2022
2099 Clouds 17 1017 86 10000 0.54 232 01:47 21.08.2022
2100 Clouds 19 1017 84 10000 0.67 218 23:32 20.08.2022
2101 Clouds 19 1017 82 10000 1.54 310 21:51 20.08.2022
2102 Clouds 21 1017 73 10000 4.63 290 20:50 20.08.2022
2103 Clouds 23 1017 68 10000 3.6 310 19:42 20.08.2022
2104 Clouds 23 1016 64 10000 3.09 20 18:45 20.08.2022
2105 Clouds 24 1016 64 10000 4.12 20 18:25 20.08.2022
2106 Clouds 24 1016 64 10000 3.09 320 17:20 20.08.2022
2107 Clouds 22 1016 83 10000 4.12 280 15:52 20.08.2022
2108 Clouds 23 1016 73 10000 4.12 320 13:48 20.08.2022
2109 Clouds 21 1016 83 10000 3.09 300 11:54 20.08.2022
2110 Clouds 21 1016 83 10000 4.63 260 11:24 20.08.2022
2111 Clouds 18 1016 94 10000 2.57 270 09:20 20.08.2022
2112 Clouds 17 1015 94 10000 0.85 250 07:18 20.08.2022
2113 Clouds 16 1015 95 10000 1.09 269 04:42 20.08.2022
2114 Clouds 19 1014 66 10000 1.32 289 00:55 20.08.2022
2115 Clear 22 1014 56 10000 3.09 260 23:25 19.08.2022
2116 Clear 22 1014 53 10000 2.57 260 22:36 19.08.2022
2117 Clear 24 1013 49 10000 3.09 320 20:41 19.08.2022
2118 Clear 27 1013 41 10000 5.14 330 18:55 19.08.2022
2119 Clouds 26 1013 44 10000 5.66 330 15:55 19.08.2022
2120 Clouds 26 1013 44 10000 5.66 330 15:55 19.08.2022
2121 Clouds 26 1013 44 10000 5.66 330 15:55 19.08.2022
2122 Clouds 25 1014 53 10000 4.63 310 13:41 19.08.2022
2123 Clouds 22 1014 64 10000 5.14 320 11:46 19.08.2022
2124 Clouds 22 1014 68 10000 4.12 310 10:31 19.08.2022
2125 Clear 19 1013 82 10000 3.6 310 07:39 19.08.2022
2126 Clouds 20 1013 95 10000 1.57 358 03:19 19.08.2022
2127 Clouds 18 1014 92 10000 1.6 355 00:36 19.08.2022
2128 Clouds 19 1013 86 10000 1.92 344 23:48 18.08.2022
2129 Clear 21 1012 73 10000 2.57 300 22:53 18.08.2022
2130 Clear 21 1013 73 10000 2.06 320 22:18 18.08.2022
2131 Clouds 22 1012 68 10000 2.57 270 21:40 18.08.2022
2132 Clear 22 1012 73 10000 5.14 280 20:32 18.08.2022
2133 Clear 23 1012 64 10000 3.09 300 19:32 18.08.2022
2134 Clouds 23 1012 64 10000 4.63 310 18:29 18.08.2022
2135 Clouds 24 1012 60 10000 4.12 320 17:29 18.08.2022
2136 Clouds 23 1013 64 10000 3.6 320 15:27 18.08.2022
2137 Clouds 23 1013 64 9000 4.12 310 14:20 18.08.2022
2138 Rain 23 1014 64 8000 3.09 290 13:40 18.08.2022
2139 Rain 21 1014 77 7000 3.09 290 12:27 18.08.2022
2140 Mist 20 1013 82 3900 3.6 310 10:25 18.08.2022
2141 Mist 20 1013 88 3600 2.57 300 09:42 18.08.2022
2142 Rain 17 1013 88 10000 0.7 243 07:24 18.08.2022
2143 Clouds 17 1012 93 10000 1.64 338 04:47 18.08.2022
2144 Clouds 19 1012 75 10000 1.74 285 00:22 18.08.2022
2145 Clear 22 1011 56 10000 1.03 170 22:20 17.08.2022
2146 Clear 28 1011 39 10000 2.57 160 20:20 17.08.2022
2147 Clear 28 1010 39 10000 4.63 150 19:33 17.08.2022
2148 Clear 28 1010 39 10000 4.63 150 19:33 17.08.2022
2149 Clear 29 1010 36 10000 3.6 150 18:21 17.08.2022
2150 Clear 30 1011 37 10000 2.57 170 16:50 17.08.2022
2151 Rain 29 1012 39 10000 4.63 200 15:31 17.08.2022
2152 Rain 29 1011 34 10000 2.57 0 14:18 17.08.2022
2153 Clear 28 1012 39 10000 2.57 80 11:45 17.08.2022
2154 Clear 23 1012 60 10000 1.03 0 10:25 17.08.2022
2155 Clear 19 1012 77 10000 0.51 0 08:25 17.08.2022
2156 Clouds 17 1011 80 10000 0.77 147 04:20 17.08.2022
2157 Clouds 18 1012 73 10000 1.5 168 00:40 17.08.2022
2158 Clouds 20 1011 69 10000 1.51 168 22:50 16.08.2022
2159 Clear 25 1010 44 10000 1.54 240 20:59 16.08.2022
2160 Clear 28 1010 36 10000 1.54 240 19:54 16.08.2022
2161 Clear 28 1010 39 10000 2.57 250 19:19 16.08.2022
2162 Clear 27 1010 47 10000 3.09 240 17:54 16.08.2022
2163 Clear 27 1010 47 10000 3.09 240 17:54 16.08.2022
2164 Clouds 25 1010 60 10000 3.09 240 16:18 16.08.2022
2165 Clouds 26 1010 47 10000 4.63 280 15:39 16.08.2022
2166 Clouds 28 1010 41 10000 2.06 120 14:43 16.08.2022
2167 Clouds 28 1010 41 10000 2.06 120 14:43 16.08.2022
2168 Clouds 27 1010 44 10000 2.06 0 14:25 16.08.2022
2169 Clear 25 1010 50 10000 3.6 200 11:39 16.08.2022
2170 Clear 21 1009 73 10000 2.57 150 09:58 16.08.2022
2171 Clear 19 1009 82 10000 2.06 160 08:48 16.08.2022
2172 Clear 18 1009 82 10000 2.06 120 08:19 16.08.2022
2173 Clear 17 1008 93 10000 2.43 184 05:28 16.08.2022
2174 Clear 20 1007 90 10000 1.5 191 23:18 15.08.2022
2175 Clouds 22 1006 60 10000 2.06 270 22:18 15.08.2022
2176 Clouds 23 1006 60 10000 2.06 270 21:41 15.08.2022
2177 Clear 25 1005 57 10000 2.57 220 20:30 15.08.2022
2178 Clear 26 1005 50 10000 2.57 230 18:56 15.08.2022
2179 Clear 25 1005 50 10000 2.57 240 17:56 15.08.2022
2180 Clear 26 1005 50 10000 4.12 220 16:23 15.08.2022
2181 Clouds 24 1006 53 10000 3.6 240 14:40 15.08.2022
2182 Clouds 23 1006 64 10000 1.03 0 13:19 15.08.2022
2183 Clear 24 1005 47 10000 4.63 230 10:36 15.08.2022
2184 Clear 23 1004 56 10000 2.06 140 08:53 15.08.2022
2185 Clouds 17 1005 80 10000 2.12 174 06:39 15.08.2022
2186 Clouds 19 1005 77 10000 0.76 193 03:56 15.08.2022
2187 Clouds 24 1006 68 10000 0.44 97 23:38 14.08.2022
2188 Clear 27 1007 44 10000 2.06 80 21:48 14.08.2022
2189 Clear 29 1007 36 10000 3.6 120 20:41 14.08.2022
2190 Clear 30 1007 37 10000 5.66 90 19:45 14.08.2022
2191 Clear 30 1007 37 10000 4.63 110 18:32 14.08.2022
2192 Clear 31 1008 35 10000 3.6 120 17:37 14.08.2022
2193 Clear 30 1009 39 10000 4.63 120 16:23 14.08.2022
2194 Clear 30 1009 39 10000 5.14 130 15:34 14.08.2022
2195 Clear 29 1010 42 10000 5.66 120 13:51 14.08.2022
2196 Clear 28 1010 44 10000 5.66 120 13:31 14.08.2022
2197 Clouds 28 1011 47 10000 5.14 100 12:42 14.08.2022
2198 Clear 26 1012 53 10000 3.6 120 11:23 14.08.2022
2199 Clear 22 1012 68 10000 3.09 130 09:34 14.08.2022
2200 Clear 15 1012 84 10000 1.3 76 06:53 14.08.2022
2201 Clear 17 1013 82 10000 0.51 0 05:45 14.08.2022
2202 Clouds 18 1015 84 10000 1.13 78 01:43 14.08.2022
2203 Clouds 22 1015 74 10000 1.63 75 23:22 13.08.2022
2204 Clouds 22 1015 70 10000 1.94 82 22:28 13.08.2022
2205 Clear 27 1015 41 10000 4.12 90 20:51 13.08.2022
2206 Clear 28 1015 39 10000 5.66 90 19:49 13.08.2022
2207 Clear 29 1015 36 10000 6.17 90 19:19 13.08.2022
2208 Clear 31 1016 28 10000 5.14 100 17:22 13.08.2022
2209 Clear 30 1017 28 10000 5.14 100 15:18 13.08.2022
2210 Clear 29 1017 30 10000 3.6 80 14:24 13.08.2022
2211 Clear 29 1018 30 10000 4.63 100 13:36 13.08.2022
2212 Clear 27 1018 36 10000 2.57 0 11:49 13.08.2022
2213 Clear 21 1019 52 10000 1.03 0 09:27 13.08.2022
2214 Clear 16 1019 67 10000 0.51 0 07:48 13.08.2022
2215 Clear 15 1020 59 10000 0.88 77 01:56 13.08.2022
2216 Clear 20 1019 42 10000 1.03 130 23:36 12.08.2022
2217 Clear 24 1019 35 10000 3.09 80 21:40 12.08.2022
2218 Clear 28 1018 26 10000 6.17 70 19:50 12.08.2022
2219 Clear 29 1018 24 10000 5.66 110 19:24 12.08.2022
2220 Clear 29 1019 23 10000 6.17 110 18:31 12.08.2022
2221 Clear 29 1019 24 10000 6.17 100 16:27 12.08.2022
2222 Clear 29 1019 23 10000 5.66 110 15:23 12.08.2022
2223 Clear 28 1020 24 10000 7.2 90 13:56 12.08.2022
2224 Clear 28 1021 28 10000 5.66 70 12:50 12.08.2022
2225 Clear 21 1022 52 10000 2.06 110 09:28 12.08.2022
2226 Clear 15 1021 67 10000 0.51 0 07:47 12.08.2022
2227 Clear 15 1021 53 10000 1.44 67 06:25 12.08.2022
2228 Clouds 19 1021 52 10000 1.51 72 01:22 12.08.2022
2229 Clouds 18 1021 50 10000 1.72 63 00:18 12.08.2022
2230 Clear 21 1021 48 10000 1.77 60 23:27 11.08.2022
2231 Clear 24 1021 35 10000 2.06 90 21:55 11.08.2022
2232 Clear 24 1021 35 10000 2.06 90 21:34 11.08.2022
2233 Clear 29 1020 28 10000 3.09 90 20:31 11.08.2022
2234 Clear 30 1020 24 10000 4.12 80 19:41 11.08.2022
2235 Clear 30 1020 24 10000 4.12 50 19:21 11.08.2022
2236 Clear 31 1021 21 10000 4.12 100 17:23 11.08.2022
2237 Clouds 30 1020 21 10000 2.99 96 15:51 11.08.2022
2238 Clear 30 1022 26 10000 3.09 0 15:20 11.08.2022
2239 Clear 29 1023 26 10000 4.12 50 12:35 11.08.2022
2240 Clear 20 1024 48 10000 1.03 0 09:24 11.08.2022
2241 Clear 12 1024 60 10000 0.91 85 06:58 11.08.2022
2242 Clear 16 1024 59 10000 1.22 60 03:23 11.08.2022
2243 Clear 19 1024 54 10000 1.78 61 00:28 11.08.2022
2244 Clear 23 1024 35 10000 2.06 80 22:18 10.08.2022
2245 Clear 25 1024 31 10000 2.06 80 21:20 10.08.2022
2246 Clear 26 1024 29 10000 3.09 80 20:43 10.08.2022
2247 Clear 29 1024 24 10000 4.63 100 18:53 10.08.2022
2248 Clear 29 1024 26 10000 3.09 90 17:31 10.08.2022
2249 Clear 28 1025 29 10000 3.6 110 15:53 10.08.2022
2250 Clear 28 1026 34 10000 4.12 80 13:34 10.08.2022
2251 Clear 26 1027 36 10000 4.12 90 12:24 10.08.2022
2252 Clear 17 1027 67 10000 1.03 0 08:45 10.08.2022
2253 Clear 15 1027 77 10000 0.51 0 07:44 10.08.2022
2254 Clear 14 1027 72 10000 1.38 40 05:53 10.08.2022
2255 Clear 16 1027 69 10000 1.14 64 02:44 10.08.2022
2256 Clear 19 1027 55 10000 1.03 20 23:33 09.08.2022
2257 Clear 21 1027 49 10000 1.03 0 22:55 09.08.2022
2258 Clear 23 1026 43 10000 3.09 30 21:34 09.08.2022
2259 Clear 27 1026 34 10000 3.09 10 19:34 09.08.2022
2260 Clear 28 1026 29 10000 4.63 40 18:23 09.08.2022
2261 Clear 28 1026 32 10000 3.6 10 17:26 09.08.2022
2262 Clear 28 1026 29 10000 3.09 0 16:40 09.08.2022
2263 Clear 26 1027 33 10000 4.12 80 15:31 09.08.2022
2264 Clear 25 1027 38 10000 2.57 70 12:25 09.08.2022
2265 Clear 18 1027 67 10000 1.54 330 09:22 09.08.2022
2266 Clear 16 1027 77 10000 1.03 0 08:26 09.08.2022
2267 Clear 14 1027 82 10000 1.54 260 07:18 09.08.2022
2268 Clear 14 1026 82 10000 1.57 31 03:32 09.08.2022
2269 Clouds 18 1025 60 10000 2.19 27 23:27 08.08.2022
2270 Clouds 21 1025 60 10000 2.19 27 22:53 08.08.2022
2271 Clear 21 1025 45 10000 3.09 340 21:48 08.08.2022
2272 Clear 25 1024 53 10000 2.86 18 20:52 08.08.2022
2273 Clear 26 1024 33 10000 5.14 350 19:50 08.08.2022
2274 Clear 27 1024 29 10000 3.6 350 18:35 08.08.2022
2275 Clear 27 1024 27 10000 1.54 280 16:34 08.08.2022
2276 Clear 27 1024 27 10000 1.54 0 15:38 08.08.2022
2277 Clear 25 1025 33 10000 2.06 0 12:50 08.08.2022
2278 Clear 24 1025 35 10000 1.54 0 11:48 08.08.2022
2279 Clear 17 1025 63 10000 1.54 340 09:29 08.08.2022
2280 Clear 11 1024 81 10000 2.06 210 05:35 08.08.2022
2281 Clouds 14 1023 66 10000 1.03 66 01:56 08.08.2022
2282 Clear 19 1023 48 10000 1.03 0 21:51 07.08.2022
2283 Clear 19 1023 48 10000 1.03 0 21:32 07.08.2022
2284 Clear 24 1022 31 10000 2.06 10 20:25 07.08.2022
2285 Clear 24 1022 31 10000 1.54 340 19:53 07.08.2022
2286 Clear 24 1022 31 10000 2.06 30 19:29 07.08.2022
2287 Clear 25 1022 31 10000 2.06 0 18:21 07.08.2022
2288 Clear 25 1023 31 10000 2.57 330 16:53 07.08.2022
2289 Clear 25 1023 31 10000 1.54 0 15:49 07.08.2022
2290 Clear 24 1024 31 10000 3.09 80 14:34 07.08.2022
2291 Clear 22 1025 35 10000 3.6 110 12:51 07.08.2022
2292 Clear 22 1025 35 10000 3.6 110 12:50 07.08.2022
2293 Clear 19 1026 48 10000 1.03 0 10:54 07.08.2022
2294 Clear 18 1026 55 10000 1.03 0 10:21 07.08.2022
2295 Clear 9 1026 87 10000 1.54 220 04:42 07.08.2022
2296 Clear 11 1026 71 10000 0.92 60 02:37 07.08.2022
2297 Clear 15 1027 58 10000 1.03 0 22:57 06.08.2022
2298 Clear 17 1027 48 10000 1.03 340 22:19 06.08.2022
2299 Clear 20 1026 34 10000 3.09 330 20:19 06.08.2022
2300 Clear 21 1026 34 10000 3.6 320 19:38 06.08.2022
2301 Clear 22 1026 35 10000 5.14 10 17:52 06.08.2022
2302 Clear 21 1027 37 10000 3.6 320 16:30 06.08.2022
2303 Clouds 20 1027 45 10000 2.06 0 13:52 06.08.2022
2304 Clouds 19 1027 48 10000 3.09 330 12:50 06.08.2022
2305 Clouds 18 1027 59 10000 3.09 360 11:21 06.08.2022
2306 Clouds 15 1027 72 10000 1.54 300 09:49 06.08.2022
2307 Clear 12 1026 87 10000 0.51 0 07:36 06.08.2022
2308 Clouds 11 1024 77 10000 1.43 358 02:22 06.08.2022
2309 Clear 17 1022 59 10000 4.63 310 22:40 05.08.2022
2310 Clouds 18 1021 77 10000 2.06 270 21:36 05.08.2022
2311 Clouds 21 1020 60 10000 4.63 340 19:22 05.08.2022
2312 Clouds 20 1019 59 10000 6.17 320 18:44 05.08.2022
2313 Clouds 19 1019 72 10000 6.69 320 16:55 05.08.2022
2314 Clouds 19 1019 72 10000 6.69 320 16:37 05.08.2022
2315 Clouds 18 1018 88 10000 6.69 320 15:19 05.08.2022
2316 Clouds 22 1015 94 6000 7.72 280 13:39 05.08.2022
2317 Clouds 26 1014 69 10000 4.63 210 13:20 05.08.2022
2318 Clouds 24 1015 78 10000 3.6 170 12:23 05.08.2022
2319 Clouds 21 1014 88 10000 1.54 140 10:25 05.08.2022
2320 Clouds 20 1015 94 10000 1.03 0 07:58 05.08.2022
2321 Clouds 20 1013 88 9000 5.66 100 05:25 05.08.2022
2322 Clouds 24 1013 73 10000 2.06 330 23:50 04.08.2022
2323 Clouds 24 1013 73 10000 2.06 330 23:50 04.08.2022
2324 Clear 27 1013 57 10000 4.12 320 21:58 04.08.2022
2325 Clear 28 1013 54 10000 5.66 330 21:25 04.08.2022
2326 Clear 30 1013 45 10000 6.17 320 20:41 04.08.2022
2327 Clear 34 1012 27 10000 5.66 310 19:21 04.08.2022
2328 Clear 34 1012 25 10000 6.69 300 18:34 04.08.2022
2329 Clear 35 1012 24 10000 4.12 210 17:28 04.08.2022
2330 Clear 34 1013 29 10000 1.54 0 13:35 04.08.2022
2331 Clear 30 1014 37 10000 3.09 150 11:46 04.08.2022
2332 Clear 27 1014 44 10000 3.6 140 10:27 04.08.2022
2333 Clear 20 1014 73 10000 1.54 100 07:51 04.08.2022
2334 Clear 20 1014 70 10000 1.01 110 04:28 04.08.2022
2335 Clouds 20 1015 64 10000 1 94 01:58 04.08.2022
2336 Clouds 23 1015 61 10000 0.77 86 23:42 03.08.2022
2337 Clear 27 1015 44 10000 1.54 270 21:39 03.08.2022
2338 Clear 32 1015 30 10000 2.06 140 20:22 03.08.2022
2339 Clear 32 1015 33 10000 1.54 260 19:28 03.08.2022
2340 Clear 33 1015 29 10000 3.6 0 17:41 03.08.2022
2341 Clear 33 1016 27 10000 3.09 260 16:24 03.08.2022
2342 Clear 32 1016 30 10000 3.6 0 14:25 03.08.2022
2343 Clear 30 1017 34 10000 3.6 180 11:53 03.08.2022
2344 Clear 19 1017 77 10000 1.54 100 08:20 03.08.2022
2345 Clouds 14 1017 70 10000 1.6 166 04:46 03.08.2022
2346 Clouds 19 1017 67 10000 1.58 171 03:27 03.08.2022
2347 Clouds 18 1017 62 10000 1.73 169 01:18 03.08.2022
2348 Clouds 18 1017 62 10000 1.73 169 01:18 03.08.2022
2349 Clouds 20 1017 59 10000 1.23 145 22:59 02.08.2022
2350 Clear 24 1017 50 10000 1.03 180 21:53 02.08.2022
2351 Clear 27 1017 39 10000 1.54 230 20:58 02.08.2022
2352 Clear 29 1017 36 10000 2.57 240 18:48 02.08.2022
2353 Clear 28 1018 36 10000 3.09 0 16:21 02.08.2022
2354 Clouds 23 1019 49 10000 3.09 200 11:45 02.08.2022
2355 Fog 18 1020 82 10000 2.06 100 09:34 02.08.2022
2356 Fog 14 1019 94 10000 0.51 0 07:54 02.08.2022
2357 Clouds 12 1019 88 10000 0.52 187 06:43 02.08.2022
2358 Clouds 13 1019 92 10000 0.31 101 04:54 02.08.2022
2359 Clouds 17 1019 88 10000 0.55 91 23:51 01.08.2022
2360 Clouds 17 1019 85 10000 1.64 11 22:25 01.08.2022
2361 Clouds 21 1018 68 10000 3.09 310 20:52 01.08.2022
2362 Clouds 22 1018 68 10000 4.63 330 19:25 01.08.2022
2363 Clouds 22 1018 68 10000 5.66 330 18:40 01.08.2022
2364 Clouds 23 1017 64 10000 6.17 340 16:53 01.08.2022
2365 Clouds 22 1017 73 10000 4.63 350 15:52 01.08.2022
2366 Clouds 22 1017 68 10000 6.69 310 15:30 01.08.2022
2367 Clouds 24 1017 60 10000 5.14 290 14:43 01.08.2022
2368 Clouds 21 1017 77 10000 4.12 290 11:59 01.08.2022
2369 Rain 19 1017 88 10000 3.09 290 09:43 01.08.2022
2370 Clouds 19 1016 88 10000 3.09 280 08:30 01.08.2022
2371 Clouds 19 1015 94 10000 3.6 260 04:54 01.08.2022
2372 Clouds 18 1015 96 10000 1.97 235 03:49 01.08.2022
2373 Clouds 19 1015 96 10000 1.98 238 00:36 01.08.2022
2374 Rain 22 1015 60 10000 1.54 240 22:39 31.07.2022
2375 Rain 23 1015 56 10000 0.51 0 21:29 31.07.2022
2376 Clear 24 1015 53 10000 1.54 30 19:53 31.07.2022
2377 Clouds 24 1015 56 10000 6.69 310 17:57 31.07.2022
2378 Clear 26 1016 41 10000 4.63 210 15:39 31.07.2022
2379 Clear 26 1016 44 10000 3.6 190 13:43 31.07.2022
2380 Clear 24 1017 46 10000 4.12 200 11:58 31.07.2022
2381 Clear 21 1018 68 10000 2.06 130 09:55 31.07.2022
2382 Clear 17 1018 82 10000 0.51 0 07:59 31.07.2022
2383 Clouds 16 1019 73 10000 0.95 241 02:58 31.07.2022
2384 Clouds 16 1019 56 10000 1.44 237 23:40 30.07.2022
2385 Clear 19 1019 72 10000 1.54 180 22:19 30.07.2022
2386 Clear 20 1019 72 10000 1.54 180 21:49 30.07.2022
2387 Clear 23 1018 56 10000 1.54 20 20:57 30.07.2022
2388 Clear 24 1018 53 10000 2.57 40 19:59 30.07.2022
2389 Clear 24 1018 53 10000 4.12 30 18:53 30.07.2022
2390 Clouds 24 1018 53 10000 2.57 10 17:44 30.07.2022
2391 Clouds 23 1018 56 10000 3.6 20 15:54 30.07.2022
2392 Clouds 23 1018 53 10000 3.6 340 15:24 30.07.2022
2393 Clouds 22 1018 60 10000 2.57 310 13:18 30.07.2022
2394 Clouds 21 1018 68 10000 2.06 270 12:19 30.07.2022
2395 Clouds 18 1018 88 10000 1.54 180 10:31 30.07.2022
2396 Clouds 18 1018 88 10000 1.54 180 10:31 30.07.2022
2397 Clouds 19 1018 82 10000 0.51 0 10:31 30.07.2022
2398 Clouds 17 1018 94 10000 1.54 200 09:54 30.07.2022
2399 Clouds 16 1018 94 10000 0 0 07:55 30.07.2022
2400 Clouds 15 1017 90 10000 1.13 266 02:57 30.07.2022
2401 Clouds 16 1017 89 10000 1.08 254 02:24 30.07.2022
2402 Rain 18 1017 88 10000 3.6 130 22:41 29.07.2022
2403 Rain 20 1016 72 10000 6.69 230 21:24 29.07.2022
2404 Rain 24 1015 43 10000 1.54 350 20:35 29.07.2022
2405 Clear 28 1014 32 10000 4.63 50 18:18 29.07.2022
2406 Clear 26 1016 38 10000 3.09 360 15:35 29.07.2022
2407 Clouds 22 1016 43 10000 2.57 70 13:19 29.07.2022
2408 Clouds 18 1017 63 10000 2.57 90 11:22 29.07.2022
2409 Rain 17 1016 55 10000 2.06 60 08:50 29.07.2022
2410 Clear 16 1017 59 10000 1.03 0 07:54 29.07.2022
2411 Clouds 18 1017 49 10000 2.06 67 01:52 29.07.2022
2412 Clouds 21 1017 47 10000 2.03 74 22:49 28.07.2022
2413 Clear 22 1016 37 10000 3.09 50 21:20 28.07.2022
2414 Clear 24 1016 33 10000 3.6 80 20:31 28.07.2022
2415 Clear 25 1016 29 10000 4.63 80 19:43 28.07.2022
2416 Clear 26 1016 27 10000 3.09 90 19:23 28.07.2022
2417 Clear 25 1017 31 10000 2.57 70 17:43 28.07.2022
2418 Clear 25 1017 31 10000 3.09 0 16:55 28.07.2022
2419 Clear 25 1018 33 10000 3.6 0 15:32 28.07.2022
2420 Clear 23 1018 37 10000 2.57 130 13:29 28.07.2022
2421 Clear 18 1019 55 10000 4.12 80 10:37 28.07.2022
2422 Clouds 9 1020 78 10000 1.48 47 06:45 28.07.2022
2423 Clear 9 1020 93 10000 1.03 0 05:31 28.07.2022
2424 Clouds 12 1020 80 10000 1.23 46 01:23 28.07.2022
2425 Clear 14 1020 74 10000 1.77 22 22:41 27.07.2022
2426 Clear 18 1019 48 10000 2.57 310 21:29 27.07.2022
2427 Clear 20 1019 37 10000 4.63 310 19:43 27.07.2022
2428 Clear 21 1019 34 10000 5.14 310 17:50 27.07.2022
2429 Clear 20 1019 39 10000 3.09 0 15:52 27.07.2022
2430 Clouds 20 1019 39 10000 5.14 330 14:58 27.07.2022
2431 Clouds 20 1019 39 10000 5.14 330 14:35 27.07.2022
2432 Clouds 18 1019 51 10000 4.12 340 12:50 27.07.2022
2433 Clouds 13 1019 82 10000 3.09 320 07:54 27.07.2022
2434 Clouds 14 1019 77 10000 1.58 317 06:56 27.07.2022
2435 Clouds 15 1018 80 10000 2.03 340 01:59 27.07.2022
2436 Clouds 16 1017 75 10000 2.23 358 22:29 26.07.2022
2437 Clear 18 1017 67 10000 3.6 340 21:21 26.07.2022
2438 Clouds 19 1017 68 10000 5.14 320 20:31 26.07.2022
2439 Clouds 21 1016 64 10000 7.72 310 18:44 26.07.2022
2440 Clouds 21 1016 64 10000 6.69 310 17:59 26.07.2022
2441 Clouds 22 1016 56 10000 6.17 300 16:31 26.07.2022
2442 Clouds 20 1016 68 10000 5.66 310 15:30 26.07.2022
2443 Clouds 21 1016 60 10000 5.66 300 13:46 26.07.2022
2444 Clouds 20 1015 68 10000 4.63 250 11:38 26.07.2022
2445 Clouds 20 1014 63 10000 4.63 260 08:57 26.07.2022
2446 Clouds 19 1014 89 10000 2.14 201 06:26 26.07.2022
2447 Clouds 20 1013 85 10000 1.78 294 00:44 26.07.2022
2448 Clouds 18 1011 86 10000 1.53 265 23:32 25.07.2022
2449 Clear 23 1011 56 10000 8.23 290 22:26 25.07.2022
2450 Clouds 24 1011 60 10000 6.69 300 21:43 25.07.2022
2451 Clear 26 1009 53 10000 7.2 300 20:42 25.07.2022
2452 Rain 26 1009 61 10000 2.06 210 19:46 25.07.2022
2453 Clouds 30 1008 42 10000 2.57 200 18:21 25.07.2022
2454 Rain 29 1009 57 10000 2.06 200 17:27 25.07.2022
2455 Thunderstorm 32 1009 33 10000 5.14 220 15:20 25.07.2022
2456 Clear 32 1010 33 10000 4.63 210 12:22 25.07.2022
2457 Clear 26 1011 44 10000 3.6 150 09:58 25.07.2022
2458 Clouds 15 1013 66 10000 1.99 159 04:38 25.07.2022
2459 Clouds 20 1015 57 10000 1.48 133 23:54 24.07.2022
2460 Clouds 21 1016 55 10000 1.48 130 23:18 24.07.2022
2461 Clouds 21 1016 55 10000 1.47 130 22:34 24.07.2022
2462 Clear 28 1016 36 10000 2.06 180 21:25 24.07.2022
2463 Clear 29 1016 34 10000 2.06 160 20:51 24.07.2022
2464 Clear 30 1016 32 10000 3.6 150 20:26 24.07.2022
2465 Clear 31 1016 30 10000 2.57 0 18:48 24.07.2022
2466 Clear 31 1018 30 10000 3.09 0 16:32 24.07.2022
2467 Clear 30 1018 30 10000 3.09 150 15:50 24.07.2022
2468 Clear 29 1019 34 10000 2.06 0 14:38 24.07.2022
2469 Clear 27 1020 38 10000 2.06 200 12:55 24.07.2022
2470 Clear 25 1020 41 10000 2.57 150 11:40 24.07.2022
2471 Clear 24 1020 41 10000 2.57 0 11:18 24.07.2022
2472 Clear 17 1021 72 10000 1.54 90 08:48 24.07.2022
2473 Clear 15 1021 82 10000 1.03 0 07:52 24.07.2022
2474 Clouds 14 1021 85 10000 1.52 168 06:27 24.07.2022
2475 Clouds 15 1021 83 10000 1.02 147 01:50 24.07.2022
2476 Clear 20 1020 59 10000 2.06 310 22:25 23.07.2022
2477 Clear 24 1019 46 10000 5.14 320 20:31 23.07.2022
2478 Clear 24 1019 43 10000 4.63 300 18:51 23.07.2022
2479 Clear 25 1019 41 10000 6.17 290 17:41 23.07.2022
2480 Clear 25 1019 41 10000 6.17 290 17:41 23.07.2022
2481 Clear 25 1019 43 10000 6.69 330 17:23 23.07.2022
2482 Clouds 24 1019 49 10000 5.66 290 15:42 23.07.2022
2483 Clouds 24 1019 49 10000 4.63 300 14:59 23.07.2022
2484 Clouds 24 1019 49 10000 4.63 300 14:35 23.07.2022
2485 Clouds 23 1019 56 10000 4.63 300 13:39 23.07.2022
2486 Clouds 19 1019 63 10000 4.12 320 11:18 23.07.2022
2487 Clouds 20 1019 63 10000 3.6 340 10:23 23.07.2022
2488 Clouds 17 1018 88 10000 1.54 340 08:55 23.07.2022
2489 Rain 16 1018 98 10000 0.49 2 03:40 23.07.2022
2490 Clouds 17 1018 98 10000 1.19 359 01:58 23.07.2022
2491 Clear 17 1018 82 10000 1.03 330 23:19 22.07.2022
2492 Clear 19 1018 77 10000 4.63 320 20:57 22.07.2022
2493 Clouds 20 1018 72 10000 5.14 330 19:46 22.07.2022
2494 Clouds 23 1017 45 10000 1.9 351 18:29 22.07.2022
2495 Clouds 23 1019 60 10000 3.6 10 17:28 22.07.2022
2496 Clouds 22 1020 68 10000 2.57 0 14:57 22.07.2022
2497 Clouds 18 1020 82 10000 3.09 280 11:49 22.07.2022
2498 Clouds 17 1021 88 10000 2.57 260 09:27 22.07.2022
2499 Clouds 17 1020 88 10000 3.09 270 08:43 22.07.2022
2500 Clouds 17 1020 94 10000 2.54 295 07:20 22.07.2022
2501 Clouds 18 1020 95 10000 3.6 277 03:43 22.07.2022
2502 Clouds 18 1019 91 10000 3.27 246 22:45 21.07.2022
2503 Clouds 20 1019 82 10000 2.57 250 21:34 21.07.2022
2504 Rain 19 1019 94 10000 2.57 230 19:28 21.07.2022
2505 Clouds 24 1019 56 10000 5.14 260 17:41 21.07.2022
2506 Clouds 24 1019 56 10000 5.14 260 17:19 21.07.2022
2507 Clouds 24 1019 56 10000 5.14 220 15:22 21.07.2022
2508 Clouds 23 1019 64 10000 4.12 210 14:37 21.07.2022
2509 Clouds 23 1019 64 10000 5.66 200 12:28 21.07.2022
2510 Clouds 22 1019 64 10000 5.66 210 11:19 21.07.2022
2511 Clouds 21 1019 77 10000 1.54 200 09:38 21.07.2022
2512 Clouds 20 1018 88 10000 2.06 90 08:52 21.07.2022
2513 Clouds 18 1019 94 10000 1.54 360 07:50 21.07.2022
2514 Clear 18 1018 100 10000 1.03 0 05:47 21.07.2022
2515 Clouds 20 1016 85 10000 7.66 291 00:43 21.07.2022
2516 Clear 29 1015 44 10000 6.69 290 22:22 20.07.2022
2517 Clear 32 1015 35 10000 6.69 290 20:55 20.07.2022
2518 Clear 35 1014 27 10000 6.69 300 19:53 20.07.2022
2519 Clear 35 1014 26 10000 5.66 320 19:24 20.07.2022
2520 Clear 36 1015 24 10000 6.69 310 18:34 20.07.2022
2521 Clear 37 1015 21 10000 5.14 310 18:00 20.07.2022
2522 Clear 37 1015 21 10000 5.66 300 16:45 20.07.2022
2523 Clear 37 1016 17 10000 1.54 0 15:31 20.07.2022
2524 Clear 37 1017 16 10000 3.09 160 14:20 20.07.2022
2525 Clear 37 1017 16 10000 3.09 160 14:20 20.07.2022
2526 Clear 37 1017 16 10000 3.09 160 14:20 20.07.2022
2527 Clear 33 1017 25 10000 4.12 150 11:34 20.07.2022
2528 Clear 27 1017 32 10000 4.63 150 08:50 20.07.2022
2529 Clear 15 1017 50 10000 1.74 134 03:47 20.07.2022
2530 Clouds 20 1017 44 10000 1.54 138 00:49 20.07.2022
2531 Clouds 20 1017 42 10000 1.66 143 23:41 19.07.2022
2532 Clear 23 1017 41 10000 1.63 140 22:33 19.07.2022
2533 Clear 33 1017 23 10000 1.03 0 21:31 19.07.2022
2534 Clear 36 1017 16 10000 4.63 110 20:28 19.07.2022
2535 Clear 37 1017 14 10000 4.63 120 18:44 19.07.2022
2536 Clear 37 1018 15 10000 3.6 130 17:58 19.07.2022
2537 Clear 36 1018 16 10000 2.57 0 16:37 19.07.2022
2538 Clear 35 1019 16 10000 3.6 160 14:53 19.07.2022
2539 Clear 31 1021 27 10000 2.06 80 11:43 19.07.2022
2540 Clear 28 1021 34 10000 1.54 0 10:52 19.07.2022
2541 Clear 22 1021 49 10000 1.03 0 09:23 19.07.2022
2542 Clear 20 1021 56 10000 1.03 0 08:38 19.07.2022
2543 Clear 17 1021 63 10000 1.03 290 07:19 19.07.2022
2544 Clear 14 1021 62 10000 1.67 175 05:28 19.07.2022
2545 Clear 11 1021 62 10000 1.67 175 04:53 19.07.2022
2546 Clear 17 1021 54 10000 1.43 168 00:38 19.07.2022
2547 Clouds 19 1021 52 10000 1.41 164 23:36 18.07.2022
2548 Clouds 24 1021 50 10000 1.52 163 23:18 18.07.2022
2549 Clear 28 1021 29 10000 1.03 0 21:58 18.07.2022
2550 Clear 32 1020 22 10000 3.09 170 20:51 18.07.2022
2551 Clear 33 1021 20 10000 2.57 0 19:33 18.07.2022
2552 Clear 33 1022 19 10000 2.57 0 17:31 18.07.2022
2553 Clear 32 1023 20 10000 3.09 0 15:52 18.07.2022
2554 Clear 31 1023 22 10000 2.06 0 14:34 18.07.2022
2555 Clear 29 1024 24 10000 3.09 180 12:58 18.07.2022
2556 Clear 26 1024 33 10000 2.06 130 11:30 18.07.2022
2557 Clear 17 1025 51 10000 1.54 100 08:57 18.07.2022
2558 Clear 15 1025 58 10000 0 0 07:38 18.07.2022
2559 Clouds 14 1026 63 10000 0.91 117 01:24 18.07.2022
2560 Clouds 17 1027 56 10000 1.54 10 22:46 17.07.2022
2561 Clouds 19 1026 52 10000 1.54 33 22:22 17.07.2022
2562 Clear 23 1025 33 10000 1.03 0 21:23 17.07.2022
2563 Clear 23 1025 30 10000 1.54 20 20:44 17.07.2022
2564 Clear 25 1025 27 10000 3.09 30 19:34 17.07.2022
2565 Clear 25 1026 27 10000 3.09 30 18:54 17.07.2022
2566 Clear 26 1026 25 10000 2.57 0 17:38 17.07.2022
2567 Clear 26 1026 23 10000 3.09 30 16:51 17.07.2022
2568 Clear 25 1027 25 10000 3.09 350 16:26 17.07.2022
2569 Clear 25 1027 22 10000 2.57 0 14:58 17.07.2022
2570 Clear 23 1027 33 10000 2.57 350 13:31 17.07.2022
2571 Clear 21 1027 40 10000 1.54 0 11:41 17.07.2022
2572 Clear 15 1028 62 10000 1.03 0 09:30 17.07.2022
2573 Clear 8 1027 87 10000 0.51 0 05:25 17.07.2022
2574 Clear 9 1028 85 10000 0.83 28 02:33 17.07.2022
2575 Clouds 12 1026 70 10000 1.74 338 23:20 16.07.2022
2576 Clear 17 1025 51 10000 3.09 340 21:32 16.07.2022
2577 Clear 21 1024 37 10000 4.63 350 19:40 16.07.2022
2578 Clear 22 1024 32 10000 6.69 320 18:32 16.07.2022
2579 Clear 23 1023 33 10000 7.2 300 16:53 16.07.2022
2580 Clouds 21 1022 42 10000 7.72 310 13:56 16.07.2022
2581 Clouds 19 1022 59 10000 6.69 300 11:38 16.07.2022
2582 Clouds 18 1020 55 10000 6.17 270 09:35 16.07.2022
2583 Clouds 16 1020 59 10000 4.63 260 08:47 16.07.2022
2584 Clear 17 1020 59 10000 4.12 250 08:29 16.07.2022
2585 Clear 11 1021 83 10000 2.12 207 04:24 16.07.2022
2586 Clear 11 1021 80 10000 2.01 201 03:22 16.07.2022
2587 Clear 13 1021 62 10000 2.06 220 23:34 15.07.2022
2588 Clear 15 1021 55 10000 2.06 240 22:41 15.07.2022
2589 Clear 19 1021 45 10000 3.6 300 21:29 15.07.2022
2590 Clear 19 1021 45 10000 4.12 310 20:30 15.07.2022
2591 Clear 21 1021 40 10000 4.63 290 18:42 15.07.2022
2592 Clear 20 1022 42 10000 3.6 300 17:38 15.07.2022
2593 Clouds 19 1022 48 10000 3.6 340 14:54 15.07.2022
2594 Clouds 18 1022 45 10000 4.63 270 13:18 15.07.2022
2595 Clouds 17 1022 48 10000 5.14 300 11:44 15.07.2022
2596 Clouds 16 1022 55 10000 3.6 330 10:23 15.07.2022
2597 Clouds 11 1023 90 10000 1.08 287 06:30 15.07.2022
2598 Clear 13 1020 76 10000 1.54 0 00:58 15.07.2022
2599 Clouds 13 1021 74 10000 1.82 327 00:21 15.07.2022
2600 Clear 16 1020 63 10000 2.57 320 22:50 14.07.2022
2601 Clear 18 1019 51 10000 5.66 330 21:47 14.07.2022
2602 Clear 20 1019 42 10000 5.14 320 21:29 14.07.2022
2603 Clear 21 1018 40 10000 5.66 320 20:45 14.07.2022
2604 Clear 22 1018 40 10000 6.69 330 20:21 14.07.2022
2605 Clear 23 1018 37 10000 6.69 330 19:18 14.07.2022
2606 Clouds 25 1018 29 10000 6.69 310 16:23 14.07.2022
2607 Clear 25 1018 33 10000 6.17 290 15:34 14.07.2022
2608 Clouds 23 1018 46 10000 4.63 310 13:59 14.07.2022
2609 Clouds 22 1018 56 10000 4.12 300 12:58 14.07.2022
2610 Clouds 20 1019 68 10000 2.57 320 11:54 14.07.2022
2611 Clouds 19 1019 72 10000 3.6 330 11:23 14.07.2022
2612 Clouds 19 1019 72 10000 2.57 350 10:24 14.07.2022
2613 Rain 17 1019 82 10000 2.57 340 07:50 14.07.2022
2614 Clouds 19 1020 85 10000 1.48 359 01:26 14.07.2022
2615 Clouds 20 1020 85 10000 1.48 359 00:53 14.07.2022
2616 Clouds 23 1019 76 10000 2.32 341 22:57 13.07.2022
2617 Clouds 23 1019 65 10000 1.62 303 22:22 13.07.2022
2618 Clear 26 1019 36 10000 7.72 280 21:19 13.07.2022
2619 Rain 25 1019 43 10000 5.66 270 19:58 13.07.2022
2620 Clear 29 1019 36 10000 8.23 290 17:52 13.07.2022
2621 Clear 29 1019 34 10000 7.2 270 16:46 13.07.2022
2622 Clear 30 1019 32 10000 5.66 230 15:26 13.07.2022
2623 Clear 28 1020 39 10000 4.12 210 12:56 13.07.2022
2624 Clear 24 1021 53 10000 2.57 150 10:46 13.07.2022
2625 Clear 24 1021 53 10000 3.09 150 10:25 13.07.2022
2626 Rain 22 1021 60 10000 2.57 130 09:26 13.07.2022
2627 Clear 17 1022 77 10000 1.03 0 07:52 13.07.2022
2628 Clouds 15 1023 71 10000 1.72 186 03:19 13.07.2022
2629 Clouds 16 1024 70 10000 1.19 193 23:52 12.07.2022
2630 Clear 22 1024 56 10000 1.03 300 22:18 12.07.2022
2631 Clear 25 1024 46 10000 2.57 290 21:35 12.07.2022
2632 Clear 25 1024 43 10000 3.6 290 20:42 12.07.2022
2633 Clear 27 1024 38 10000 5.14 300 19:36 12.07.2022
2634 Clear 28 1024 29 10000 4.63 320 17:55 12.07.2022
2635 Clear 27 1024 36 10000 1.54 0 16:20 12.07.2022
2636 Clouds 25 1025 38 10000 2.06 0 14:31 12.07.2022
2637 Clear 23 1025 49 10000 3.09 300 13:21 12.07.2022
2638 Clouds 21 1026 60 10000 1.54 0 11:42 12.07.2022
2639 Clouds 18 1025 72 10000 1.54 290 10:18 12.07.2022
2640 Clouds 16 1025 94 10000 0.51 0 08:26 12.07.2022
2641 Clouds 14 1025 100 10000 1.54 290 07:38 12.07.2022
2642 Clouds 13 1024 94 10000 0.82 354 05:42 12.07.2022
2643 Clouds 15 1024 88 10000 0.83 309 03:29 12.07.2022
2644 Clouds 16 1024 91 10000 1.12 298 23:42 11.07.2022
2645 Clouds 17 1024 88 10000 1.54 250 22:36 11.07.2022
2646 Clouds 18 1024 82 10000 3.09 310 20:54 11.07.2022
2647 Clouds 18 1024 82 10000 3.09 290 20:25 11.07.2022
2648 Clouds 17 1024 94 10000 3.09 290 18:38 11.07.2022
2649 Clouds 17 1024 88 10000 4.12 290 17:55 11.07.2022
2650 Clouds 17 1024 88 10000 2.06 350 16:22 11.07.2022
2651 Clouds 17 1024 88 9000 2.06 10 14:49 11.07.2022
2652 Drizzle 15 1023 94 5000 4.12 360 12:18 11.07.2022
2653 Clouds 14 1023 100 6000 1.54 0 10:42 11.07.2022
2654 Drizzle 14 1023 100 2500 0.51 0 09:54 11.07.2022
2655 Mist 14 1023 94 4100 1.54 270 08:35 11.07.2022
2656 Clouds 14 1022 94 10000 1.54 260 07:24 11.07.2022
2657 Clouds 14 1023 91 10000 1.36 254 00:24 11.07.2022
2658 Clouds 15 1023 91 10000 1.36 254 23:32 10.07.2022
2659 Clouds 15 1023 94 10000 2.06 340 22:21 10.07.2022
2660 Rain 15 1023 88 9000 4.63 290 20:54 10.07.2022
2661 Clouds 16 1023 88 10000 3.09 300 19:50 10.07.2022
2662 Clouds 15 1023 94 9000 4.63 290 18:53 10.07.2022
2663 Clouds 16 1024 82 10000 5.14 280 17:41 10.07.2022
2664 Clouds 16 1024 72 10000 7.72 290 16:59 10.07.2022
2665 Clouds 17 1024 67 10000 7.2 300 16:20 10.07.2022
2666 Clouds 19 1023 48 10000 6.17 310 14:35 10.07.2022
2667 Clouds 16 1024 63 10000 8.23 300 12:38 10.07.2022
2668 Clouds 16 1024 63 10000 6.69 300 11:34 10.07.2022
2669 Clouds 14 1024 71 10000 7.72 310 09:28 10.07.2022
2670 Clouds 14 1024 76 10000 7.72 300 08:38 10.07.2022
2671 Clouds 13 1023 76 10000 5.66 290 05:36 10.07.2022
2672 Clouds 16 1025 88 10000 2.4 319 23:35 09.07.2022
2673 Clouds 17 1024 67 10000 7.2 330 22:26 09.07.2022
2674 Clouds 18 1023 63 10000 6.69 330 21:40 09.07.2022
2675 Clouds 22 1023 52 10000 3.6 340 19:19 09.07.2022
2676 Clouds 20 1023 68 10000 3.09 360 18:23 09.07.2022
2677 Clouds 20 1024 64 10000 3.6 260 16:59 09.07.2022
2678 Clouds 19 1024 82 10000 5.14 260 15:54 09.07.2022
2679 Rain 20 1025 63 10000 5.66 310 15:35 09.07.2022
2680 Clouds 21 1025 64 10000 5.66 300 13:54 09.07.2022
2681 Rain 20 1025 63 10000 5.14 300 13:27 09.07.2022
2682 Clouds 20 1026 63 10000 6.69 290 11:33 09.07.2022
2683 Clouds 19 1026 72 10000 7.2 310 10:24 09.07.2022
2684 Clouds 17 1026 82 10000 3.09 270 08:25 09.07.2022
2685 Clouds 13 1026 93 10000 1.09 231 06:59 09.07.2022
2686 Clouds 12 1027 97 10000 1.16 221 04:34 09.07.2022
2687 Clouds 18 1028 77 10000 2.57 240 23:22 08.07.2022
2688 Clouds 20 1028 68 10000 1.54 260 21:59 08.07.2022
2689 Clouds 20 1028 63 10000 3.6 290 21:18 08.07.2022
2690 Clouds 21 1028 60 10000 5.14 310 20:30 08.07.2022
2691 Clouds 21 1029 56 10000 5.14 320 18:33 08.07.2022
2692 Clouds 22 1029 52 10000 6.17 320 17:33 08.07.2022
2693 Clouds 21 1029 56 10000 7.2 290 17:33 08.07.2022
2694 Clouds 20 1029 55 10000 6.69 290 15:30 08.07.2022
2695 Clouds 21 1029 52 10000 6.17 310 14:49 08.07.2022
2696 Clouds 18 1030 55 10000 5.66 300 12:28 08.07.2022
2697 Clouds 16 1030 58 10000 5.66 300 10:45 08.07.2022
2698 Clouds 14 1029 71 10000 4.63 310 08:55 08.07.2022
2699 Clouds 14 1029 91 10000 1.88 300 06:55 08.07.2022
2700 Clear 13 1028 93 10000 4.21 317 03:22 08.07.2022
2701 Clouds 15 1026 67 10000 6.17 300 23:45 07.07.2022
2702 Clouds 15 1025 72 10000 5.66 300 22:45 07.07.2022
2703 Clouds 16 1023 72 10000 6.69 310 20:59 07.07.2022
2704 Rain 16 1022 94 5000 9.26 300 18:42 07.07.2022
2705 Clouds 18 1021 72 10000 9.26 290 17:41 07.07.2022
2706 Clouds 18 1020 77 10000 6.17 300 15:34 07.07.2022
2707 Clouds 17 1019 82 9000 7.72 290 13:30 07.07.2022
2708 Clouds 17 1018 94 10000 7.2 300 12:40 07.07.2022
2709 Clouds 17 1018 94 10000 7.2 300 12:20 07.07.2022
2710 Rain 16 1018 94 9000 4.63 270 11:31 07.07.2022
2711 Clouds 16 1018 88 10000 4.63 280 10:44 07.07.2022
2712 Clouds 16 1018 88 5000 5.14 250 10:25 07.07.2022
2713 Rain 15 1018 82 10000 4.12 210 07:58 07.07.2022
2714 Clouds 14 1019 72 10000 3.02 221 04:44 07.07.2022
2715 Rain 14 1021 63 10000 2.37 209 23:37 06.07.2022
2716 Rain 15 1022 63 10000 2.09 220 23:19 06.07.2022
2717 Clouds 15 1022 63 10000 2.09 220 22:57 06.07.2022
2718 Clouds 15 1022 61 10000 2.06 221 22:38 06.07.2022
2719 Clear 18 1022 51 10000 2.57 280 21:46 06.07.2022
2720 Clear 19 1022 45 10000 5.14 290 19:39 06.07.2022
2721 Clear 20 1023 39 10000 6.17 300 18:32 06.07.2022
2722 Clouds 19 1024 45 10000 3.6 310 16:27 06.07.2022
2723 Clouds 18 1024 45 10000 5.14 300 14:58 06.07.2022
2724 Clouds 18 1025 45 10000 6.17 290 12:42 06.07.2022
2725 Clouds 18 1025 45 10000 5.14 310 11:49 06.07.2022
2726 Clouds 16 1024 63 10000 5.14 300 10:20 06.07.2022
2727 Clouds 14 1024 76 10000 4.63 290 08:26 06.07.2022
2728 Clouds 14 1024 76 10000 3.09 280 07:23 06.07.2022
2729 Clouds 13 1023 82 10000 3.6 280 05:28 06.07.2022
2730 Clouds 19 1023 78 10000 2.26 334 22:48 05.07.2022
2731 Clear 21 1021 42 10000 3.6 300 21:59 05.07.2022
2732 Clear 21 1021 42 10000 2.57 320 20:41 05.07.2022
2733 Clear 22 1021 40 10000 5.66 320 19:43 05.07.2022
2734 Clear 23 1021 37 10000 5.14 310 19:22 05.07.2022
2735 Clear 24 1021 35 10000 6.17 290 17:48 05.07.2022
2736 Clear 24 1021 33 10000 4.63 300 16:55 05.07.2022
2737 Clouds 23 1021 37 10000 5.14 320 15:31 05.07.2022
2738 Clouds 23 1021 40 10000 4.12 300 14:28 05.07.2022
2739 Clouds 21 1022 49 10000 3.09 0 12:43 05.07.2022
2740 Clear 21 1022 52 10000 3.6 290 11:33 05.07.2022
2741 Clear 20 1022 52 10000 3.6 320 10:40 05.07.2022
2742 Clear 17 1022 67 10000 2.06 320 09:22 05.07.2022
2743 Clear 14 1021 77 10000 2.06 310 07:45 05.07.2022
2744 Clear 11 1021 85 10000 0.35 239 04:49 05.07.2022
2745 Clear 13 1021 84 10000 0.49 292 04:23 05.07.2022
2746 Clear 16 1020 77 10000 0.78 334 23:56 04.07.2022
2747 Clear 16 1020 71 10000 1.53 327 23:26 04.07.2022
2748 Clear 21 1019 42 10000 2.06 320 22:25 04.07.2022
2749 Clear 23 1019 37 10000 2.06 300 21:30 04.07.2022
2750 Clear 22 1019 40 10000 3.09 310 20:52 04.07.2022
2751 Clear 22 1019 40 10000 3.09 310 20:33 04.07.2022
2752 Clear 23 1019 37 10000 5.14 300 19:52 04.07.2022
2753 Clear 23 1019 37 10000 5.14 300 19:34 04.07.2022
2754 Clear 24 1019 35 10000 4.12 310 17:57 04.07.2022
2755 Clear 24 1020 35 10000 3.6 0 15:50 04.07.2022
2756 Clear 23 1020 35 10000 4.12 300 14:54 04.07.2022
2757 Clouds 22 1020 40 10000 4.12 290 13:29 04.07.2022
2758 Clouds 20 1020 48 10000 4.12 290 12:20 04.07.2022
2759 Clear 19 1021 59 10000 5.66 290 10:33 04.07.2022
2760 Clear 18 1021 67 10000 4.63 280 09:40 04.07.2022
2761 Clear 15 1020 82 10000 1.54 240 06:53 04.07.2022
2762 Clear 16 1020 91 10000 1.06 268 03:30 04.07.2022
2763 Clouds 14 1019 84 10000 1.31 312 00:30 04.07.2022
2764 Clear 20 1018 63 10000 3.6 300 22:58 03.07.2022
2765 Clouds 25 1017 41 10000 7.72 300 20:47 03.07.2022
2766 Clouds 26 1016 38 10000 4.63 280 20:21 03.07.2022
2767 Clear 26 1016 36 10000 3.6 320 19:26 03.07.2022
2768 Clear 27 1016 36 10000 6.69 300 18:32 03.07.2022
2769 Clear 29 1016 32 10000 6.69 310 17:43 03.07.2022
2770 Clouds 27 1017 36 10000 2.57 350 15:29 03.07.2022
2771 Clouds 27 1017 36 10000 3.09 0 14:58 03.07.2022
2772 Clouds 27 1017 36 10000 2.57 300 13:59 03.07.2022
2773 Clear 28 1017 36 10000 3.09 290 13:27 03.07.2022
2774 Clear 26 1018 36 10000 2.57 350 12:22 03.07.2022
2775 Clear 25 1018 41 10000 2.57 300 10:55 03.07.2022
2776 Clear 25 1018 41 10000 2.57 300 10:36 03.07.2022
2777 Clear 20 1017 52 10000 2.57 140 08:48 03.07.2022
2778 Clear 18 1017 59 10000 2.06 120 07:34 03.07.2022
2779 Clear 15 1019 69 10000 1.7 169 01:32 03.07.2022
2780 Clear 16 1019 67 10000 1.57 141 23:38 02.07.2022
2781 Clear 19 1019 62 10000 1.75 149 22:31 02.07.2022
2782 Clear 26 1019 33 10000 4.12 180 20:37 02.07.2022
2783 Clear 27 1019 29 10000 4.63 180 19:50 02.07.2022
2784 Clear 28 1019 26 10000 2.57 0 18:48 02.07.2022
2785 Clear 27 1020 31 10000 4.12 160 17:40 02.07.2022
2786 Clear 27 1021 34 10000 4.63 200 16:35 02.07.2022
2787 Clear 24 1022 31 10000 3.6 180 13:51 02.07.2022
2788 Clear 23 1023 38 10000 3.09 190 11:51 02.07.2022
2789 Clouds 21 1024 49 10000 3.09 140 10:52 02.07.2022
2790 Clear 21 1024 52 10000 3.6 140 10:28 02.07.2022
2791 Clear 16 1024 72 10000 2.57 140 08:39 02.07.2022
2792 Clear 15 1024 77 10000 2.57 130 08:19 02.07.2022
2793 Clear 11 1023 87 10000 1.03 100 05:51 02.07.2022
2794 Clear 11 1023 89 10000 1.59 175 00:34 02.07.2022
2795 Clouds 16 1022 67 10000 1.54 220 23:31 01.07.2022
2796 Clouds 17 1021 55 10000 2.06 260 22:35 01.07.2022
2797 Clear 19 1020 52 10000 1.54 250 21:39 01.07.2022
2798 Clear 20 1020 49 10000 1.54 240 20:59 01.07.2022
2799 Clear 20 1020 49 10000 1.54 240 20:37 01.07.2022
2800 Clouds 20 1019 48 10000 4.12 270 19:40 01.07.2022
2801 Clouds 20 1019 48 10000 3.6 250 17:39 01.07.2022
2802 Rain 18 1018 67 10000 4.12 260 15:21 01.07.2022
2803 Rain 17 1018 72 10000 2.06 280 13:54 01.07.2022
2804 Clouds 18 1018 63 10000 5.14 290 11:48 01.07.2022
2805 Clouds 16 1017 77 10000 3.6 270 10:19 01.07.2022
2806 Clouds 16 1017 77 10000 3.6 270 10:19 01.07.2022
2807 Rain 15 1016 82 10000 4.12 290 07:40 01.07.2022
2808 Clouds 17 1015 95 10000 3.06 280 02:49 01.07.2022
2809 Clouds 21 1012 93 6731 4.63 303 00:25 01.07.2022
2810 Clouds 25 1009 60 10000 1.54 140 22:54 30.06.2022
2811 Clouds 25 1009 60 10000 1.54 140 22:32 30.06.2022
2812 Clear 27 1009 53 10000 3.6 120 21:55 30.06.2022
2813 Clear 27 1009 53 10000 3.6 120 21:34 30.06.2022
2814 Clear 29 1009 47 10000 4.12 80 20:22 30.06.2022
2815 Clear 30 1009 45 10000 4.12 70 19:53 30.06.2022
2816 Clear 30 1009 45 10000 4.12 70 19:18 30.06.2022
2817 Clear 30 1010 45 10000 4.12 10 18:34 30.06.2022
2818 Clear 29 1010 51 10000 3.6 10 17:37 30.06.2022
2819 Clouds 30 1010 42 10000 2.57 0 16:48 30.06.2022
2820 Clouds 28 1011 54 10000 4.63 80 14:47 30.06.2022
2821 Clouds 29 1012 51 10000 2.57 70 13:30 30.06.2022
2822 Rain 27 1012 57 10000 2.06 60 12:34 30.06.2022
2823 Clear 26 1012 61 10000 1.54 130 11:28 30.06.2022
2824 Clear 23 1013 73 10000 2.06 120 09:53 30.06.2022
2825 Clear 23 1013 73 10000 2.06 120 09:31 30.06.2022
2826 Clear 19 1013 82 10000 2.06 130 07:41 30.06.2022
2827 Clear 16 1013 97 10000 0.92 100 05:47 30.06.2022
2828 Clouds 18 1014 93 10000 1.2 54 00:31 30.06.2022
2829 Clouds 22 1013 91 10000 1.43 48 23:19 29.06.2022
2830 Clouds 22 1013 91 10000 1.43 48 22:38 29.06.2022
2831 Clear 23 1013 68 10000 3.09 80 21:34 29.06.2022
2832 Clouds 25 1013 60 10000 5.14 90 20:33 29.06.2022
2833 Clouds 25 1013 57 10000 5.14 90 19:36 29.06.2022
2834 Clear 27 1013 50 10000 4.63 90 17:42 29.06.2022
2835 Clear 28 1014 44 10000 3.6 60 16:36 29.06.2022
2836 Clear 26 1015 44 10000 6.17 90 14:56 29.06.2022
2837 Clear 25 1015 50 10000 6.69 90 12:39 29.06.2022
2838 Clear 22 1016 56 10000 4.63 100 10:37 29.06.2022
2839 Clear 22 1016 52 10000 2.57 60 09:32 29.06.2022
2840 Clear 16 1016 72 10000 0.51 0 07:36 29.06.2022
2841 Clouds 13 1017 65 10000 1.55 61 04:50 29.06.2022
2842 Clouds 15 1018 63 10000 2.36 43 00:56 29.06.2022
2843 Clouds 15 1018 63 10000 2.35 43 00:35 29.06.2022
2844 Clouds 17 1019 62 10000 2.24 46 22:53 28.06.2022
2845 Clouds 18 1019 63 10000 2.19 44 22:24 28.06.2022
2846 Clear 22 1018 43 10000 2.06 50 21:54 28.06.2022
2847 Clear 22 1018 43 10000 2.06 50 21:32 28.06.2022
2848 Clear 24 1019 38 10000 3.09 60 20:34 28.06.2022
2849 Clear 25 1019 33 10000 2.57 0 19:33 28.06.2022
2850 Clear 25 1019 33 10000 2.57 0 19:33 28.06.2022
2851 Clear 25 1019 33 10000 3.09 60 18:45 28.06.2022
2852 Clear 25 1019 33 10000 3.09 60 18:45 28.06.2022
2853 Clear 25 1020 31 10000 2.06 0 17:39 28.06.2022
2854 Clear 24 1021 35 10000 3.6 10 15:57 28.06.2022
2855 Clouds 24 1021 35 10000 3.09 300 15:21 28.06.2022
2856 Clouds 23 1022 40 10000 2.06 80 14:20 28.06.2022
2857 Clouds 23 1022 37 10000 2.57 40 13:50 28.06.2022
2858 Clouds 23 1022 43 10000 1.54 0 12:54 28.06.2022
2859 Clear 20 1023 48 10000 2.57 310 10:57 28.06.2022
2860 Clear 18 1023 59 10000 2.06 0 09:25 28.06.2022
2861 Clear 16 1023 72 10000 1.54 240 08:43 28.06.2022
2862 Clear 14 1023 92 10000 1.19 216 07:26 28.06.2022
2863 Clear 11 1023 97 10000 1.17 224 04:59 28.06.2022
2864 Rain 18 1021 87 10000 2.4 292 23:59 27.06.2022
2865 Rain 18 1021 87 10000 2.4 292 23:36 27.06.2022
2866 Clouds 18 1019 77 10000 4.12 300 22:51 27.06.2022
2867 Clouds 20 1018 82 9000 2.57 330 21:33 27.06.2022
2868 Clouds 20 1018 82 9000 3.09 310 20:44 27.06.2022
2869 Clouds 21 1017 83 10000 4.12 330 18:58 27.06.2022
2870 Clouds 22 1017 78 9000 4.12 310 18:19 27.06.2022
2871 Clouds 22 1016 73 10000 7.72 290 16:19 27.06.2022
2872 Clouds 25 1015 64 10000 1.03 0 14:44 27.06.2022
2873 Clouds 24 1015 64 10000 1.03 0 13:25 27.06.2022
2874 Clouds 23 1015 68 10000 1.54 0 12:52 27.06.2022
2875 Clouds 21 1015 77 10000 2.57 290 10:22 27.06.2022
2876 Clear 19 1014 82 10000 3.09 280 08:47 27.06.2022
2877 Clear 18 1013 82 10000 1.03 0 07:59 27.06.2022
2878 Clear 18 1013 82 10000 1.54 160 06:38 27.06.2022
2879 Clouds 19 1015 98 10000 1.8 348 01:55 27.06.2022
2880 Clouds 20 1014 96 10000 2.34 33 23:49 26.06.2022
2881 Clear 22 1015 68 10000 3.6 300 21:58 26.06.2022
2882 Clear 23 1015 64 10000 4.63 290 20:34 26.06.2022
2883 Clear 25 1015 57 10000 5.66 320 19:23 26.06.2022
2884 Clear 26 1015 53 10000 6.17 300 18:24 26.06.2022
2885 Clouds 27 1016 47 10000 1.03 0 15:53 26.06.2022
2886 Clear 26 1016 50 10000 2.57 340 14:34 26.06.2022
2887 Clear 25 1016 57 10000 3.09 320 13:30 26.06.2022
2888 Clear 24 1016 60 10000 3.09 310 12:52 26.06.2022
2889 Clear 24 1015 53 10000 1.54 0 11:21 26.06.2022
2890 Clear 22 1015 60 10000 2.57 330 10:23 26.06.2022
2891 Clear 20 1014 68 10000 0.51 0 08:45 26.06.2022
2892 Clouds 20 1014 79 10000 1.59 168 07:23 26.06.2022
2893 Clouds 17 1013 63 10000 0.8 153 00:48 26.06.2022
2894 Clouds 18 1013 64 10000 0.74 124 00:20 26.06.2022
2895 Clouds 18 1013 64 10000 0.74 124 00:20 26.06.2022
2896 Clouds 19 1013 64 10000 0.75 124 23:33 25.06.2022
2897 Clouds 19 1013 63 10000 0.67 94 23:33 25.06.2022
2898 Clear 21 1013 60 10000 1.54 170 22:51 25.06.2022
2899 Clear 22 1013 60 10000 1.54 170 22:25 25.06.2022
2900 Clear 25 1012 50 10000 2.06 140 21:22 25.06.2022
2901 Clear 25 1012 46 10000 2.57 160 20:54 25.06.2022
2902 Clear 26 1012 41 10000 3.6 150 20:25 25.06.2022
2903 Clear 27 1012 38 10000 3.09 210 18:42 25.06.2022
2904 Clouds 27 1013 41 10000 4.12 170 17:27 25.06.2022
2905 Clouds 27 1013 41 10000 2.06 0 16:29 25.06.2022
2906 Clouds 25 1013 50 10000 4.12 180 14:47 25.06.2022
2907 Clouds 24 1013 53 10000 2.57 270 12:51 25.06.2022
2908 Clouds 24 1013 60 10000 3.09 0 12:32 25.06.2022
2909 Clouds 22 1013 64 10000 1.54 260 09:40 25.06.2022
2910 Clouds 20 1013 77 10000 2.57 190 08:55 25.06.2022
2911 Clouds 19 1013 88 10000 2.57 160 08:25 25.06.2022
2912 Clouds 16 1013 98 10000 2.21 193 06:36 25.06.2022
2913 Clouds 17 1012 97 10000 2.73 192 01:53 25.06.2022
2914 Clouds 20 1010 77 10000 5.66 230 00:20 25.06.2022
2915 Clouds 21 1009 77 6000 1.03 200 22:29 24.06.2022
2916 Clear 21 1008 77 10000 1.54 200 21:28 24.06.2022
2917 Clouds 21 1008 77 10000 2.57 50 20:24 24.06.2022
2918 Clouds 20 1008 88 10000 2.57 340 19:39 24.06.2022
2919 Clouds 22 1007 73 10000 4.12 300 19:18 24.06.2022
2920 Clouds 24 1007 60 10000 3.09 230 18:44 24.06.2022
2921 Clouds 25 1007 60 10000 3.6 230 18:24 24.06.2022
2922 Clouds 23 1007 73 10000 4.63 210 16:48 24.06.2022
2923 Clouds 23 1007 56 10000 5.14 200 14:57 24.06.2022
2924 Clouds 23 1007 60 10000 4.63 190 14:24 24.06.2022
2925 Clouds 24 1008 60 10000 5.14 170 13:46 24.06.2022
2926 Clouds 22 1008 68 10000 5.14 180 11:42 24.06.2022
2927 Clouds 21 1008 73 10000 5.66 180 10:39 24.06.2022
2928 Rain 21 1008 73 10000 4.12 130 09:42 24.06.2022
2929 Rain 21 1008 73 10000 4.12 130 09:42 24.06.2022
2930 Clouds 21 1008 73 10000 3.09 170 08:54 24.06.2022
2931 Clear 22 1008 60 10000 3.6 210 08:19 24.06.2022
2932 Clouds 20 1009 96 10000 2.56 177 06:44 24.06.2022
2933 Clouds 17 1009 98 10000 2.79 163 06:25 24.06.2022
2934 Clear 20 1008 56 10000 3.6 140 04:50 24.06.2022
2935 Clear 23 1010 38 10000 3.09 120 23:32 23.06.2022
2936 Clear 24 1011 38 10000 2.06 100 22:43 23.06.2022
2937 Clear 29 1010 36 10000 2.57 80 20:59 23.06.2022
2938 Clear 29 1010 36 10000 2.57 80 20:36 23.06.2022
2939 Clear 30 1010 32 10000 3.09 80 19:53 23.06.2022
2940 Clear 31 1011 28 10000 3.09 90 18:27 23.06.2022
2941 Clear 31 1011 28 10000 2.57 90 17:34 23.06.2022
2942 Clear 31 1012 26 10000 2.57 0 16:26 23.06.2022
2943 Clear 30 1013 23 10000 4.63 130 15:26 23.06.2022
2944 Clear 30 1013 23 10000 4.63 130 15:26 23.06.2022
2945 Clear 30 1013 20 10000 3.6 100 14:34 23.06.2022
2946 Clear 27 1014 34 10000 3.09 110 11:41 23.06.2022
2947 Clear 25 1014 41 10000 2.06 120 10:40 23.06.2022
2948 Clear 20 1014 60 10000 1.54 90 09:19 23.06.2022
2949 Clouds 12 1014 82 10000 1.19 77 04:43 23.06.2022
2950 Clouds 16 1013 74 10000 1.22 82 00:27 23.06.2022
2951 Clouds 15 1013 74 10000 1.22 82 23:49 22.06.2022
2952 Clear 16 1013 73 10000 1.69 62 22:50 22.06.2022
2953 Clear 23 1012 49 10000 2.06 10 21:28 22.06.2022
2954 Clear 25 1012 43 10000 2.57 10 20:48 22.06.2022
2955 Clear 26 1012 38 10000 2.06 30 20:18 22.06.2022
2956 Clear 26 1012 36 10000 2.06 30 18:57 22.06.2022
2957 Clear 27 1012 31 10000 1.54 0 17:31 22.06.2022
2958 Clear 26 1012 36 10000 2.57 0 16:40 22.06.2022
2959 Clear 26 1012 38 10000 3.09 10 15:28 22.06.2022
2960 Clear 26 1013 38 10000 2.06 0 14:40 22.06.2022
2961 Clear 25 1013 35 10000 2.06 0 13:45 22.06.2022
2962 Clear 24 1013 40 10000 2.57 0 13:23 22.06.2022
2963 Clear 23 1013 40 10000 2.06 90 11:50 22.06.2022
2964 Clear 20 1013 59 10000 2.06 340 10:58 22.06.2022
2965 Clear 20 1013 59 10000 2.06 340 10:58 22.06.2022
2966 Clear 19 1013 59 10000 2.06 10 10:20 22.06.2022
2967 Clear 17 1013 67 10000 1.54 350 08:48 22.06.2022
2968 Clear 12 1012 87 10000 1.54 220 05:59 22.06.2022
2969 Clouds 14 1013 61 10000 1.69 31 01:49 22.06.2022
2970 Clouds 15 1014 67 10000 1.38 43 00:39 22.06.2022
2971 Clouds 17 1013 68 10000 1.68 58 22:37 21.06.2022
2972 Clear 22 1012 46 10000 2.06 10 20:39 21.06.2022
2973 Clear 22 1013 40 10000 2.06 0 18:53 21.06.2022
2974 Clear 23 1013 38 10000 2.06 340 17:42 21.06.2022
2975 Clear 22 1015 40 10000 3.09 110 15:21 21.06.2022
2976 Clouds 18 1016 55 10000 1.54 0 11:55 21.06.2022
2977 Clouds 15 1017 67 10000 2.06 30 10:20 21.06.2022
2978 Clear 13 1017 82 10000 1.03 0 08:51 21.06.2022
2979 Clear 11 1017 87 10000 1.03 0 07:35 21.06.2022
2980 Clear 8 1017 93 10000 1.13 223 03:21 21.06.2022
2981 Clear 14 1016 67 10000 3.09 280 23:27 20.06.2022
2982 Clear 16 1015 58 10000 4.12 300 21:58 20.06.2022
2983 Clear 16 1015 58 10000 4.12 300 21:32 20.06.2022
2984 Clear 18 1015 51 10000 6.69 310 19:57 20.06.2022
2985 Clouds 19 1014 42 10000 7.2 290 18:54 20.06.2022
2986 Clouds 19 1014 48 10000 7.2 290 18:24 20.06.2022
2987 Clouds 19 1014 48 10000 6.17 310 17:41 20.06.2022
2988 Clouds 17 1015 67 10000 3.6 290 16:21 20.06.2022
2989 Rain 14 1015 82 10000 4.12 280 14:29 20.06.2022
2990 Rain 12 1014 93 10000 4.63 300 11:46 20.06.2022
2991 Rain 13 1013 94 10000 3.6 330 09:55 20.06.2022
2992 Rain 13 1011 94 9000 4.63 330 08:45 20.06.2022
2993 Rain 14 1011 94 8000 2.57 260 07:35 20.06.2022
2994 Clouds 14 1012 98 10000 1.73 9 03:52 20.06.2022
2995 Clouds 14 1013 97 10000 2.24 0 01:32 20.06.2022
2996 Clouds 17 1013 67 10000 5.14 340 23:48 19.06.2022
2997 Clear 20 1011 59 10000 3.6 340 22:19 19.06.2022
2998 Clear 20 1011 59 10000 3.6 340 21:42 19.06.2022
2999 Clear 21 1011 56 10000 4.12 350 20:48 19.06.2022
3000 Clear 23 1011 53 10000 7.2 340 19:49 19.06.2022
3001 Clear 24 1011 49 10000 7.72 330 19:24 19.06.2022
3002 Clear 25 1010 50 10000 7.2 330 18:32 19.06.2022
3003 Clear 25 1010 50 10000 8.75 330 17:42 19.06.2022
3004 Clear 27 1009 47 10000 6.17 310 16:47 19.06.2022
3005 Clear 26 1009 50 10000 4.12 320 16:23 19.06.2022
3006 Clear 25 1008 50 10000 2.06 60 15:29 19.06.2022
3007 Clear 24 1008 53 10000 2.57 350 14:41 19.06.2022
3008 Clear 25 1010 50 10000 8.75 330 13:52 19.06.2022
3009 Clear 28 1009 53 10000 8.23 310 12:19 19.06.2022
3010 Clear 27 1007 57 10000 7.2 300 10:52 19.06.2022
3011 Clear 27 1007 36 10000 6.17 170 08:55 19.06.2022
3012 Clear 28 1007 39 10000 5.14 160 08:30 19.06.2022
3013 Clouds 16 1007 72 10000 2.86 165 06:54 19.06.2022
3014 Clouds 16 1009 74 10000 2.62 167 03:38 19.06.2022
3015 Clouds 21 1012 78 10000 1.21 120 00:28 19.06.2022
3016 Clouds 21 1012 78 10000 1.21 120 23:59 18.06.2022
3017 Clouds 21 1012 78 10000 1.21 120 23:34 18.06.2022
3018 Clear 25 1013 73 10000 1.57 64 22:23 18.06.2022
3019 Clear 30 1014 45 10000 2.06 330 20:51 18.06.2022
3020 Clear 32 1014 37 10000 2.06 330 20:18 18.06.2022
3021 Clear 33 1014 35 10000 4.12 340 18:57 18.06.2022
3022 Clear 33 1014 35 10000 4.12 340 18:38 18.06.2022
3023 Clear 35 1015 24 10000 4.63 0 17:29 18.06.2022
3024 Clear 34 1016 27 10000 1.54 0 15:57 18.06.2022
3025 Clear 33 1016 31 10000 2.57 0 14:54 18.06.2022
3026 Clear 33 1016 31 10000 2.57 0 14:35 18.06.2022
3027 Clear 30 1018 37 10000 3.09 210 12:30 18.06.2022
3028 Clear 28 1018 41 10000 2.57 200 11:20 18.06.2022
3029 Clear 25 1018 47 10000 2.06 160 09:46 18.06.2022
3030 Clear 22 1019 53 10000 3.09 210 08:46 18.06.2022
3031 Clear 20 1019 56 10000 3.6 210 07:34 18.06.2022
3032 Clear 17 1019 67 10000 1.03 0 05:20 18.06.2022
3033 Clouds 14 1021 66 10000 2.84 179 02:51 18.06.2022
3034 Clouds 16 1022 60 10000 2.55 182 01:21 18.06.2022
3035 Clouds 17 1022 60 10000 2.55 182 00:32 18.06.2022
3036 Clear 20 1021 49 10000 1.54 190 23:37 17.06.2022
3037 Clouds 19 1022 58 10000 2.19 172 22:33 17.06.2022
3038 Clear 26 1022 33 10000 2.57 190 20:29 17.06.2022
3039 Clear 27 1022 31 10000 4.12 140 19:24 17.06.2022
3040 Clear 27 1023 31 10000 3.09 150 18:19 17.06.2022
3041 Clear 26 1023 31 10000 4.12 150 16:50 17.06.2022
3042 Rain 26 1023 31 10000 4.12 150 16:25 17.06.2022
3043 Clear 27 1024 31 10000 2.57 0 15:40 17.06.2022
3044 Clear 26 1024 31 10000 3.09 220 14:24 17.06.2022
3045 Clear 25 1025 35 10000 3.09 270 13:59 17.06.2022
3046 Clear 25 1025 35 10000 3.09 270 13:39 17.06.2022
3047 Clear 23 1025 43 10000 1.54 0 12:29 17.06.2022
3048 Clear 23 1025 43 10000 2.06 0 11:55 17.06.2022
3049 Clear 23 1025 43 10000 2.06 0 11:34 17.06.2022
3050 Clear 18 1026 59 10000 1.03 0 09:36 17.06.2022
3051 Clear 15 1025 77 10000 1.03 0 08:26 17.06.2022
3052 Clear 11 1025 81 10000 0.51 0 06:45 17.06.2022
3053 Clouds 11 1025 88 10000 0.21 152 03:59 17.06.2022
3054 Clouds 13 1025 84 10000 0.3 341 01:56 17.06.2022
3055 Clear 16 1024 59 10000 1.54 300 23:47 16.06.2022
3056 Clear 17 1024 59 10000 2.57 310 22:42 16.06.2022
3057 Clear 20 1022 48 10000 3.09 330 21:22 16.06.2022
3058 Clear 21 1022 42 10000 4.63 330 20:52 16.06.2022
3059 Clear 21 1022 42 10000 4.63 330 20:33 16.06.2022
3060 Clear 22 1022 40 10000 5.66 330 19:32 16.06.2022
3061 Clear 23 1022 35 10000 6.69 310 18:24 16.06.2022
3062 Clear 23 1022 33 10000 5.14 350 17:42 16.06.2022
3063 Clear 23 1021 33 10000 6.69 320 16:33 16.06.2022
3064 Clear 23 1022 43 10000 5.14 320 15:22 16.06.2022
3065 Clouds 22 1021 46 10000 5.66 320 14:30 16.06.2022
3066 Clouds 22 1021 49 10000 5.14 350 13:19 16.06.2022
3067 Clear 22 1021 52 10000 4.63 310 12:35 16.06.2022
3068 Clear 20 1020 59 10000 2.57 360 11:49 16.06.2022
3069 Clear 19 1020 59 10000 5.14 320 10:54 16.06.2022
3070 Clouds 17 1020 63 10000 4.63 320 09:43 16.06.2022
3071 Clouds 15 1019 67 10000 4.63 320 09:20 16.06.2022
3072 Clouds 14 1019 71 10000 3.6 300 07:57 16.06.2022
3073 Clouds 14 1019 83 10000 1.78 346 07:24 16.06.2022
3074 Clouds 15 1018 89 10000 2.22 353 04:33 16.06.2022
3075 Clouds 17 1018 90 10000 2.27 4 01:54 16.06.2022
3076 Clouds 17 1018 90 10000 2.27 4 01:34 16.06.2022
3077 Clouds 17 1018 90 10000 2.27 4 01:34 16.06.2022
3078 Clouds 18 1018 90 10000 2.34 6 00:38 16.06.2022
3079 Clouds 17 1017 88 10000 1.97 10 23:25 15.06.2022
3080 Clouds 19 1017 84 10000 2.17 359 22:28 15.06.2022
3081 Clear 24 1017 43 10000 3.6 330 21:21 15.06.2022
3082 Clear 25 1017 41 10000 3.6 340 20:38 15.06.2022
3083 Clear 26 1016 38 10000 3.09 350 20:19 15.06.2022
3084 Clear 28 1017 29 10000 1.54 20 19:19 15.06.2022
3085 Clear 27 1017 31 10000 2.06 330 17:55 15.06.2022
3086 Clear 28 1017 32 10000 2.06 0 16:40 15.06.2022
3087 Clear 27 1017 31 10000 2.06 0 15:35 15.06.2022
3088 Clear 26 1018 36 10000 2.06 0 13:43 15.06.2022
3089 Clear 25 1019 35 10000 1.54 0 12:53 15.06.2022
3090 Clear 23 1019 46 10000 1.54 0 11:48 15.06.2022
3091 Clear 19 1019 55 10000 1.54 0 10:23 15.06.2022
3092 Clear 18 1019 59 10000 1.03 0 09:38 15.06.2022
3093 Clear 14 1019 76 10000 0.51 0 08:30 15.06.2022
3094 Clear 11 1019 89 10000 0.9 72 06:33 15.06.2022
3095 Clear 10 1020 91 10000 1.21 80 03:45 15.06.2022
3096 Clouds 12 1021 86 10000 1.4 66 01:53 15.06.2022
3097 Clouds 13 1021 86 10000 1.36 62 00:50 15.06.2022
3098 Clear 14 1021 85 10000 1.39 73 23:39 14.06.2022
3099 Clear 17 1021 85 10000 1.69 55 22:56 14.06.2022
3100 Clear 18 1020 59 10000 2.06 20 22:18 14.06.2022
3101 Clear 20 1020 52 10000 2.06 10 21:28 14.06.2022
3102 Clear 21 1020 45 10000 2.57 20 20:48 14.06.2022
3103 Clear 21 1020 42 10000 2.57 20 20:28 14.06.2022
3104 Clear 22 1020 40 10000 2.06 70 18:54 14.06.2022
3105 Clear 22 1021 40 10000 2.57 320 17:39 14.06.2022
3106 Clear 21 1021 42 10000 3.09 70 16:43 14.06.2022
3107 Clear 21 1022 42 10000 3.6 20 15:50 14.06.2022
3108 Clouds 20 1022 42 10000 2.57 290 14:57 14.06.2022
3109 Clouds 20 1022 42 10000 2.57 290 14:57 14.06.2022
3110 Clouds 20 1022 45 10000 1.54 0 14:30 14.06.2022
3111 Clouds 20 1023 42 10000 3.09 0 13:40 14.06.2022
3112 Clouds 17 1023 55 10000 3.6 320 12:30 14.06.2022
3113 Clouds 18 1023 55 10000 1.03 0 11:28 14.06.2022
3114 Clouds 17 1023 59 10000 1.54 0 10:44 14.06.2022
3115 Clouds 14 1023 71 10000 1.03 0 09:48 14.06.2022
3116 Clear 12 1023 82 10000 1.03 0 08:45 14.06.2022
3117 Clouds 10 1024 87 10000 0.75 238 07:26 14.06.2022
3118 Clouds 6 1024 93 10000 0.82 220 04:44 14.06.2022
3119 Clouds 8 1024 91 10000 1.01 292 02:45 14.06.2022
3120 Clouds 10 1024 88 10000 0.97 307 00:28 14.06.2022
3121 Clouds 12 1023 87 10000 0.92 339 23:21 13.06.2022
3122 Clouds 13 1023 84 10000 1.79 346 22:25 13.06.2022
3123 Clear 16 1022 55 10000 2.57 310 21:48 13.06.2022
3124 Clear 18 1021 42 10000 4.63 310 20:23 13.06.2022
3125 Clear 19 1021 45 10000 4.12 300 19:34 13.06.2022
3126 Clouds 17 1022 59 10000 3.09 320 17:57 13.06.2022
3127 Clouds 17 1022 59 10000 3.09 320 17:36 13.06.2022
3128 Clouds 17 1021 72 10000 3.09 330 16:40 13.06.2022
3129 Clouds 16 1021 72 10000 6.17 360 15:37 13.06.2022
3130 Clouds 17 1021 48 10000 4.12 270 14:42 13.06.2022
3131 Clouds 19 1021 48 10000 5.66 290 13:46 13.06.2022
3132 Clouds 17 1021 63 10000 2.57 260 12:47 13.06.2022
3133 Rain 15 1021 63 10000 4.12 280 11:26 13.06.2022
3134 Clouds 15 1020 67 10000 1.03 0 10:26 13.06.2022
3135 Clouds 14 1020 76 10000 4.12 310 09:31 13.06.2022
3136 Clouds 13 1020 82 10000 1.54 270 07:38 13.06.2022
3137 Clouds 12 1019 82 10000 1.03 0 05:49 13.06.2022
3138 Clouds 15 1020 91 10000 1.53 312 02:55 13.06.2022
3139 Clouds 16 1020 84 10000 1.4 304 01:37 13.06.2022
3140 Clouds 16 1020 86 10000 1.57 306 00:21 13.06.2022
3141 Clouds 17 1019 85 10000 1.72 313 23:25 12.06.2022
3142 Clouds 14 1019 78 10000 2.11 324 22:22 12.06.2022
3143 Clear 20 1019 48 10000 3.09 310 21:22 12.06.2022
3144 Clear 22 1019 40 10000 3.6 320 20:29 12.06.2022
3145 Clear 24 1019 35 10000 6.17 310 19:30 12.06.2022
3146 Clear 24 1020 40 10000 5.14 330 17:53 12.06.2022
3147 Clear 24 1020 43 10000 6.17 320 16:24 12.06.2022
3148 Clear 24 1021 38 10000 3.6 310 14:58 12.06.2022
3149 Clouds 24 1021 35 10000 3.09 310 14:23 12.06.2022
3150 Clouds 24 1021 40 10000 4.12 320 13:55 12.06.2022
3151 Clouds 24 1021 40 10000 3.6 270 12:40 12.06.2022
3152 Clouds 22 1022 49 10000 2.06 280 11:40 12.06.2022
3153 Clouds 21 1022 52 10000 2.57 310 10:38 12.06.2022
3154 Clear 19 1022 68 10000 2.57 300 09:19 12.06.2022
3155 Clear 19 1022 68 10000 2.57 290 08:45 12.06.2022
3156 Clouds 18 1022 88 10000 0.88 296 07:33 12.06.2022
3157 Clear 16 1022 88 10000 1.54 240 04:52 12.06.2022
3158 Clouds 16 1022 89 10000 1.21 308 03:29 12.06.2022
3159 Clear 17 1022 91 10000 0.51 263 01:42 12.06.2022
3160 Clear 17 1023 90 10000 0.65 207 00:58 12.06.2022
3161 Clear 17 1023 90 10000 1.01 129 00:21 12.06.2022
3162 Clear 17 1023 90 10000 1.01 128 23:44 11.06.2022
3163 Clear 21 1022 68 10000 2.06 330 22:39 11.06.2022
3164 Clouds 21 1022 68 10000 2.57 320 21:53 11.06.2022
3165 Clear 24 1022 53 10000 2.06 330 20:38 11.06.2022
3166 Clouds 23 1022 56 10000 2.57 340 19:46 11.06.2022
3167 Clouds 24 1022 49 10000 2.06 330 19:26 11.06.2022
3168 Clear 25 1022 50 10000 2.57 340 18:34 11.06.2022
3169 Rain 24 1022 49 10000 2.57 20 17:51 11.06.2022
3170 Clouds 25 1022 46 10000 1.03 0 17:27 11.06.2022
3171 Clouds 25 1022 46 10000 1.54 0 16:56 11.06.2022
3172 Clear 24 1022 53 10000 2.57 80 16:29 11.06.2022
3173 Clear 24 1023 53 10000 2.57 70 15:42 11.06.2022
3174 Clouds 23 1023 53 10000 3.6 290 13:53 11.06.2022
3175 Clouds 23 1023 53 10000 1.54 0 12:51 11.06.2022
3176 Clear 20 1023 60 10000 2.06 240 10:48 11.06.2022
3177 Clouds 18 1023 72 10000 1.03 0 09:51 11.06.2022
3178 Clouds 18 1023 77 10000 1.03 0 09:19 11.06.2022
3179 Clear 16 1022 77 10000 1.03 0 07:41 11.06.2022
3180 Clouds 16 1022 84 10000 2.07 175 06:30 11.06.2022
3181 Clouds 16 1022 82 10000 2.08 176 04:30 11.06.2022
3182 Clouds 12 1022 88 10000 1.74 168 01:53 11.06.2022
3183 Clouds 12 1022 88 10000 1.74 169 01:32 11.06.2022
3184 Clear 16 1022 72 10000 1.54 170 23:49 10.06.2022
3185 Clear 20 1022 59 10000 1.54 150 22:31 10.06.2022
3186 Clear 20 1022 59 10000 1.03 180 21:52 10.06.2022
3187 Clear 22 1022 52 10000 2.06 210 20:41 10.06.2022
3188 Clear 22 1022 52 10000 2.57 220 20:22 10.06.2022
3189 Clear 22 1022 49 10000 3.6 210 19:20 10.06.2022
3190 Clear 22 1022 49 10000 2.57 210 18:56 10.06.2022
3191 Clear 22 1022 49 10000 4.12 230 17:58 10.06.2022
3192 Clear 22 1022 49 10000 4.12 230 17:35 10.06.2022
3193 Clear 22 1022 49 10000 3.6 230 16:50 10.06.2022
3194 Clear 22 1022 46 10000 2.57 300 15:44 10.06.2022
3195 Clear 21 1022 52 10000 3.6 220 14:51 10.06.2022
3196 Clouds 23 1023 43 10000 4.12 200 13:26 10.06.2022
3197 Clouds 21 1023 52 10000 4.63 210 11:59 10.06.2022
3198 Clouds 21 1023 52 10000 4.63 200 11:25 10.06.2022
3199 Clouds 20 1023 55 10000 5.14 210 10:35 10.06.2022
3200 Clear 17 1023 72 10000 3.09 130 09:26 10.06.2022
3201 Clear 12 1023 94 10000 2.06 110 07:57 10.06.2022
3202 Clear 10 1023 93 10000 1.57 191 06:49 10.06.2022
3203 Clear 8 1023 94 10000 1.62 184 06:30 10.06.2022
3204 Clear 10 1022 93 10000 1.03 140 05:31 10.06.2022
3205 Clear 10 1022 93 10000 1.13 191 02:46 10.06.2022
3206 Clear 11 1022 93 10000 0.82 222 01:37 10.06.2022
3207 Clear 13 1021 93 10000 0.88 243 23:58 09.06.2022
3208 Clear 14 1019 77 10000 2.57 250 22:43 09.06.2022
3209 Clear 16 1019 72 10000 4.12 290 21:44 09.06.2022
3210 Clear 17 1018 67 10000 4.12 300 21:25 09.06.2022
3211 Clouds 18 1018 63 10000 3.6 300 20:38 09.06.2022
3212 Clouds 19 1017 55 10000 6.17 320 19:46 09.06.2022
3213 Clouds 20 1016 63 10000 6.69 310 18:41 09.06.2022
3214 Clouds 18 1016 67 10000 7.2 300 17:33 09.06.2022
3215 Clouds 21 1015 52 10000 6.17 290 16:28 09.06.2022
3216 Clouds 21 1014 52 10000 5.14 290 15:22 09.06.2022
3217 Clouds 20 1014 59 10000 6.17 310 14:30 09.06.2022
3218 Clouds 19 1014 63 10000 6.17 300 13:44 09.06.2022
3219 Clouds 18 1014 72 10000 5.14 310 13:19 09.06.2022
3220 Clouds 17 1013 72 10000 3.6 270 11:35 09.06.2022
3221 Clouds 16 1012 82 10000 3.09 240 09:55 09.06.2022
3222 Clouds 16 1012 82 10000 3.09 240 09:55 09.06.2022
3223 Clouds 15 1011 88 10000 3.6 240 09:37 09.06.2022
3224 Clouds 15 1011 88 10000 2.06 210 08:38 09.06.2022
3225 Clouds 14 1011 96 10000 2.53 207 07:29 09.06.2022
3226 Clouds 14 1010 98 10000 2.77 205 04:30 09.06.2022
3227 Clouds 14 1009 98 10000 1.69 201 00:35 09.06.2022
3228 Rain 15 1008 97 10000 1.51 194 23:18 08.06.2022
3229 Rain 15 1008 97 10000 1.51 194 22:43 08.06.2022
3230 Clouds 15 1007 88 10000 2.57 160 22:23 08.06.2022
3231 Clouds 16 1007 88 10000 3.6 160 21:33 08.06.2022
3232 Drizzle 17 1007 82 10000 2.57 160 20:25 08.06.2022
3233 Rain 17 1007 77 10000 2.57 170 19:42 08.06.2022
3234 Rain 17 1007 77 10000 3.09 240 18:48 08.06.2022
3235 Clouds 17 1007 77 10000 6.69 240 17:41 08.06.2022
3236 Clouds 22 1007 49 10000 4.12 190 15:54 08.06.2022
3237 Clouds 22 1008 52 10000 3.6 180 14:38 08.06.2022
3238 Clouds 21 1008 56 10000 3.09 180 12:55 08.06.2022
3239 Clouds 21 1008 56 10000 3.09 180 12:55 08.06.2022
3240 Clouds 21 1008 56 10000 3.09 180 12:55 08.06.2022
3241 Clouds 21 1008 56 10000 3.09 180 12:55 08.06.2022
3242 Clouds 21 1009 64 10000 2.57 0 11:36 08.06.2022
3243 Clouds 18 1010 72 10000 2.06 190 10:51 08.06.2022
3244 Clouds 16 1010 77 10000 3.6 210 09:28 08.06.2022
3245 Clouds 16 1011 77 10000 1.54 0 08:54 08.06.2022
3246 Clear 15 1010 94 10000 2.57 150 07:21 08.06.2022
3247 Clouds 14 1011 94 10000 1.54 130 04:47 08.06.2022
3248 Clouds 14 1012 97 10000 2.16 187 01:25 08.06.2022
3249 Rain 13 1013 96 10000 1.97 184 23:32 07.06.2022
3250 Clouds 16 1013 96 10000 1.96 184 22:54 07.06.2022
3251 Clouds 13 1013 96 10000 1.96 184 22:34 07.06.2022
3252 Clouds 17 1013 88 10000 1.54 340 21:39 07.06.2022
3253 Clouds 17 1012 82 10000 1.54 250 21:20 07.06.2022
3254 Clouds 17 1012 88 10000 2.06 320 20:40 07.06.2022
3255 Clouds 19 1012 72 10000 3.09 220 19:51 07.06.2022
3256 Clouds 17 1012 82 10000 4.63 240 18:25 07.06.2022
3257 Rain 20 1012 59 10000 4.63 220 17:31 07.06.2022
3258 Clouds 21 1012 60 10000 2.57 260 16:44 07.06.2022
3259 Rain 21 1012 52 10000 3.6 270 15:58 07.06.2022
3260 Clouds 21 1012 52 10000 3.6 270 15:36 07.06.2022
3261 Rain 22 1012 49 10000 4.12 290 15:18 07.06.2022
3262 Clouds 22 1013 49 10000 3.6 0 14:42 07.06.2022
3263 Clouds 20 1013 52 10000 4.63 220 13:34 07.06.2022
3264 Clouds 20 1013 48 10000 4.63 240 12:54 07.06.2022
3265 Clouds 20 1013 48 10000 4.63 210 11:51 07.06.2022
3266 Clouds 19 1013 55 10000 6.17 210 10:48 07.06.2022
3267 Clear 17 1014 63 10000 4.63 210 08:53 07.06.2022
3268 Clear 13 1014 87 10000 2.57 110 07:47 07.06.2022
3269 Clouds 11 1015 87 10000 2.68 187 06:41 07.06.2022
3270 Clouds 9 1015 94 10000 2.22 181 04:41 07.06.2022
3271 Clouds 14 1016 88 10000 1.74 199 01:27 07.06.2022
3272 Clouds 13 1016 87 10000 1.57 210 23:53 06.06.2022
3273 Clouds 12 1015 82 10000 1.84 227 22:54 06.06.2022
3274 Clear 16 1014 72 10000 2.57 220 22:29 06.06.2022
3275 Clear 19 1014 59 10000 4.12 220 20:54 06.06.2022
3276 Clouds 20 1014 55 10000 4.12 210 19:29 06.06.2022
3277 Clouds 20 1014 63 10000 3.6 210 18:49 06.06.2022
3278 Clear 19 1015 68 10000 3.09 210 18:21 06.06.2022
3279 Clear 17 1015 77 10000 1.54 240 17:26 06.06.2022
3280 Clouds 18 1015 72 10000 4.12 280 16:18 06.06.2022
3281 Clouds 23 1014 46 10000 5.14 180 15:23 06.06.2022
3282 Clouds 22 1015 56 10000 5.14 160 14:30 06.06.2022
3283 Clouds 20 1015 55 10000 5.14 210 13:22 06.06.2022
3284 Clouds 19 1015 55 10000 5.14 210 12:36 06.06.2022
3285 Clouds 20 1015 63 10000 4.63 220 11:53 06.06.2022
3286 Clouds 20 1015 63 10000 5.66 200 10:21 06.06.2022
3287 Clouds 18 1015 68 10000 4.63 200 09:24 06.06.2022
3288 Clouds 18 1015 77 10000 3.6 210 08:31 06.06.2022
3289 Clouds 17 1015 91 10000 3.67 223 07:28 06.06.2022
3290 Clouds 15 1013 100 10000 1.54 120 04:43 06.06.2022
3291 Clouds 16 1015 96 10000 3.68 200 02:42 06.06.2022
3292 Clouds 16 1014 97 10000 2.99 184 00:57 06.06.2022
3293 Clouds 16 1014 97 10000 2.99 184 00:35 06.06.2022
3294 Clouds 19 1014 95 10000 4.82 214 23:28 05.06.2022
3295 Clouds 19 1013 95 10000 4.43 221 22:33 05.06.2022
3296 Clouds 19 1012 94 10000 2.06 160 20:40 05.06.2022
3297 Clouds 19 1013 94 10000 3.09 140 19:26 05.06.2022
3298 Rain 21 1012 83 10000 3.6 140 18:26 05.06.2022
3299 Rain 21 1013 73 10000 5.66 140 17:50 05.06.2022
3300 Rain 22 1013 73 10000 3.09 140 17:23 05.06.2022
3301 Clear 22 1013 73 10000 4.12 100 16:49 05.06.2022
3302 Clear 22 1014 68 10000 1.54 70 15:50 05.06.2022
3303 Rain 21 1015 73 10000 2.06 130 14:22 05.06.2022
3304 Rain 22 1015 60 10000 5.66 90 12:43 05.06.2022
3305 Rain 22 1015 56 10000 6.17 90 11:35 05.06.2022
3306 Clear 20 1017 63 10000 5.14 100 10:25 05.06.2022
3307 Clear 19 1017 63 10000 5.66 110 09:58 05.06.2022
3308 Clear 18 1018 63 10000 3.6 80 08:26 05.06.2022
3309 Clouds 13 1017 86 10000 2.5 82 06:54 05.06.2022
3310 Clear 13 1019 87 10000 1.03 0 05:20 05.06.2022
3311 Clouds 13 1019 92 10000 1.68 61 03:38 05.06.2022
3312 Clouds 15 1020 92 10000 1.85 72 01:31 05.06.2022
3313 Clear 16 1021 67 10000 0.51 0 23:58 04.06.2022
3314 Clear 20 1020 55 10000 2.06 40 21:49 04.06.2022
3315 Clear 23 1020 49 10000 3.6 60 20:21 04.06.2022
3316 Clear 24 1020 43 10000 2.57 60 17:59 04.06.2022
3317 Clear 24 1020 43 10000 4.12 60 16:42 04.06.2022
3318 Clear 24 1020 43 10000 3.6 50 16:18 04.06.2022
3319 Clear 23 1020 49 10000 3.6 20 14:37 04.06.2022
3320 Clear 20 1020 63 10000 3.09 320 11:51 04.06.2022
3321 Clear 19 1019 63 10000 3.09 330 10:57 04.06.2022
3322 Clear 19 1019 68 10000 2.06 350 10:22 04.06.2022
3323 Clear 17 1019 72 10000 2.06 330 09:41 04.06.2022
3324 Clear 16 1019 72 10000 2.06 330 08:40 04.06.2022
3325 Clouds 15 1019 94 10000 1.37 37 07:39 04.06.2022
3326 Clouds 14 1018 96 10000 1.93 26 04:33 04.06.2022
3327 Clouds 16 1018 95 10000 1.59 20 00:56 04.06.2022
3328 Clouds 18 1017 72 10000 2.06 30 23:35 03.06.2022
3329 Clear 20 1017 59 10000 2.06 10 22:30 03.06.2022
3330 Clear 21 1016 60 10000 1.54 10 21:21 03.06.2022
3331 Clear 22 1016 52 10000 1.54 10 20:33 03.06.2022
3332 Clear 25 1017 38 10000 3.6 60 17:58 03.06.2022
3333 Clear 24 1017 40 10000 3.6 80 16:47 03.06.2022
3334 Clear 24 1017 38 10000 4.12 80 15:18 03.06.2022
3335 Clear 22 1018 40 10000 3.6 60 12:56 03.06.2022
3336 Clear 19 1019 45 10000 4.12 90 10:54 03.06.2022
3337 Clear 17 1019 51 10000 2.57 70 09:38 03.06.2022
3338 Clear 13 1020 76 10000 1.03 0 08:32 03.06.2022
3339 Clear 11 1020 83 10000 1.6 58 07:26 03.06.2022
3340 Clear 7 1020 83 10000 1.6 58 06:32 03.06.2022
3341 Clear 8 1021 81 10000 1.03 340 05:19 03.06.2022
3342 Clouds 10 1022 87 10000 1.69 66 00:28 03.06.2022
3343 Clear 13 1021 66 10000 2.57 350 22:41 02.06.2022
3344 Clear 13 1021 66 10000 2.57 350 22:41 02.06.2022
3345 Clear 17 1021 51 10000 2.06 20 21:38 02.06.2022
3346 Clear 19 1021 42 10000 1.54 0 20:22 02.06.2022
3347 Clear 19 1021 39 10000 1.03 0 19:43 02.06.2022
3348 Clear 19 1021 39 10000 2.06 0 19:23 02.06.2022
3349 Clear 19 1021 45 10000 1.54 0 16:47 02.06.2022
3350 Clear 18 1021 48 10000 2.06 350 16:27 02.06.2022
3351 Clouds 18 1022 51 10000 2.57 20 13:56 02.06.2022
3352 Clouds 15 1022 58 10000 3.09 350 13:29 02.06.2022
3353 Clouds 15 1022 58 10000 1.54 0 11:24 02.06.2022
3354 Clouds 14 1021 71 10000 1.54 0 10:20 02.06.2022
3355 Clouds 14 1021 71 10000 1.54 0 10:20 02.06.2022
3356 Clouds 12 1021 76 10000 2.06 280 09:27 02.06.2022
3357 Clear 11 1021 81 10000 1.03 0 08:26 02.06.2022
3358 Clear 8 1021 92 10000 1.11 228 07:21 02.06.2022
3359 Clear 4 1021 95 10000 1.45 215 04:49 02.06.2022
3360 Clear 6 1020 93 10000 1.29 219 02:37 02.06.2022
3361 Clouds 9 1018 92 10000 1.51 244 23:43 01.06.2022
3362 Clouds 9 1018 92 10000 1.5 244 23:43 01.06.2022
3363 Clouds 9 1018 92 10000 1.51 244 23:43 01.06.2022
3364 Clouds 9 1018 92 10000 1.51 244 23:43 01.06.2022
3365 Clear 12 1017 82 10000 2.06 300 22:31 01.06.2022
3366 Clear 12 1016 87 10000 2.06 240 21:32 01.06.2022
3367 Clear 12 1016 82 10000 2.06 270 20:40 01.06.2022
3368 Clouds 12 1016 76 10000 3.09 300 19:59 01.06.2022
3369 Rain 14 1016 71 10000 4.63 320 19:19 01.06.2022
3370 Clouds 17 1014 48 10000 4.12 270 17:44 01.06.2022
3371 Clouds 17 1014 48 10000 3.09 250 16:34 01.06.2022
3372 Clouds 17 1014 51 10000 4.63 260 14:52 01.06.2022
3373 Clouds 17 1014 51 10000 3.6 290 13:45 01.06.2022
3374 Clouds 16 1014 55 10000 3.6 300 12:26 01.06.2022
3375 Clouds 14 1014 71 10000 3.09 290 09:40 01.06.2022
3376 Clear 13 1013 71 10000 2.06 240 08:38 01.06.2022
3377 Clouds 10 1015 93 10000 1.6 201 07:22 01.06.2022
3378 Rain 9 1013 100 10000 2.06 170 05:22 01.06.2022
3379 Clouds 9 1014 90 10000 1.62 210 00:20 01.06.2022
3380 Clouds 10 1014 89 10000 1.49 188 22:59 31.05.2022
3381 Clouds 10 1014 89 10000 1.48 188 22:33 31.05.2022
3382 Clear 11 1013 87 10000 2.06 190 21:45 31.05.2022
3383 Clear 13 1013 76 10000 2.57 170 20:45 31.05.2022
3384 Clear 13 1013 76 10000 2.57 170 20:45 31.05.2022
3385 Clear 14 1012 77 10000 3.09 110 19:53 31.05.2022
3386 Rain 14 1013 67 10000 2.06 330 18:45 31.05.2022
3387 Clouds 16 1012 63 10000 2.57 20 17:49 31.05.2022
3388 Clouds 16 1012 63 10000 2.57 20 17:49 31.05.2022
3389 Clouds 16 1012 67 10000 4.63 340 16:48 31.05.2022
3390 Clouds 15 1012 54 10000 9.77 270 15:40 31.05.2022
3391 Clear 19 1012 36 10000 3.09 0 13:38 31.05.2022
3392 Clear 17 1013 41 10000 3.6 130 12:19 31.05.2022
3393 Clear 14 1014 58 10000 2.06 80 10:52 31.05.2022
3394 Clear 9 1014 81 10000 1.03 0 08:41 31.05.2022
3395 Clouds 5 1016 78 10000 0.71 98 06:57 31.05.2022
3396 Clear 5 1015 93 10000 0.51 0 04:46 31.05.2022
3397 Clouds 7 1016 84 10000 0.87 95 23:53 30.05.2022
3398 Clouds 8 1016 83 10000 0.32 90 23:25 30.05.2022
3399 Clear 9 1015 76 10000 1.54 200 22:48 30.05.2022
3400 Clear 11 1014 66 10000 1.03 0 21:51 30.05.2022
3401 Clear 11 1014 66 10000 1.03 0 21:32 30.05.2022
3402 Clouds 14 1014 50 10000 2.57 340 19:51 30.05.2022
3403 Clouds 14 1014 54 10000 3.09 340 18:34 30.05.2022
3404 Clouds 13 1014 58 10000 2.57 330 17:23 30.05.2022
3405 Clouds 13 1014 58 10000 4.12 300 16:39 30.05.2022
3406 Clouds 12 1013 58 10000 1.03 0 13:44 30.05.2022
3407 Clouds 11 1013 66 10000 2.57 350 12:19 30.05.2022
3408 Clouds 10 1013 76 10000 2.06 280 10:26 30.05.2022
3409 Clouds 10 1012 76 10000 2.57 350 09:19 30.05.2022
3410 Clouds 7 1013 96 10000 0.57 288 06:28 30.05.2022
3411 Clouds 8 1011 93 10000 2.06 300 05:47 30.05.2022
3412 Clouds 8 1013 96 10000 0.9 299 01:32 30.05.2022
3413 Clouds 9 1012 87 10000 2.06 270 22:49 29.05.2022
3414 Clouds 10 1012 81 10000 2.57 280 22:31 29.05.2022
3415 Clouds 11 1012 76 10000 4.63 300 20:51 29.05.2022
3416 Clouds 12 1012 76 10000 2.06 310 19:30 29.05.2022
3417 Clouds 12 1012 71 10000 3.09 310 18:35 29.05.2022
3418 Clouds 11 1012 81 10000 5.14 310 16:51 29.05.2022
3419 Clouds 11 1012 81 10000 3.09 340 15:47 29.05.2022
3420 Clouds 13 1012 62 10000 6.17 280 14:56 29.05.2022
3421 Clouds 12 1013 66 10000 5.14 290 13:46 29.05.2022
3422 Clouds 11 1013 71 10000 5.14 300 11:34 29.05.2022
3423 Clouds 11 1013 71 10000 5.66 310 10:37 29.05.2022
3424 Clouds 9 1014 81 10000 3.6 260 08:39 29.05.2022
3425 Clouds 7 1014 87 10000 2.57 250 05:22 29.05.2022
3426 Clouds 5 1014 93 10000 2.57 240 04:41 29.05.2022
3427 Clear 6 1017 93 10000 1.38 250 02:24 29.05.2022
3428 Clear 8 1018 90 10000 1.12 280 23:48 28.05.2022
3429 Clear 8 1018 89 10000 1.55 303 23:25 28.05.2022
3430 Clear 10 1017 86 10000 2.08 311 22:21 28.05.2022
3431 Clouds 13 1017 58 10000 4.12 310 21:31 28.05.2022
3432 Clouds 14 1017 58 10000 5.66 310 19:21 28.05.2022
3433 Clouds 13 1017 58 10000 7.2 310 18:45 28.05.2022
3434 Clouds 15 1017 51 10000 6.69 280 17:34 28.05.2022
3435 Clouds 13 1018 58 10000 8.75 320 16:22 28.05.2022
3436 Clouds 15 1018 51 10000 8.23 280 15:38 28.05.2022
3437 Clouds 14 1018 54 10000 7.72 270 13:42 28.05.2022
3438 Clouds 14 1018 58 10000 8.23 300 12:43 28.05.2022
3439 Clouds 13 1019 62 10000 8.75 290 11:54 28.05.2022
3440 Clouds 12 1019 66 10000 8.75 290 10:43 28.05.2022
3441 Clouds 11 1019 66 10000 7.2 290 09:56 28.05.2022
3442 Clouds 10 1019 76 10000 7.2 290 08:39 28.05.2022
3443 Clouds 9 1018 81 10000 8.23 290 06:53 28.05.2022
3444 Clouds 10 1017 76 10000 5.14 270 05:24 28.05.2022
3445 Clear 9 1019 78 10000 5.39 288 02:33 28.05.2022
3446 Clear 11 1020 62 10000 5.66 270 00:18 28.05.2022
3447 Clear 12 1020 58 10000 6.17 290 22:49 27.05.2022
3448 Clear 13 1019 54 10000 7.2 290 21:35 27.05.2022
3449 Clear 15 1019 47 10000 9.26 300 20:46 27.05.2022
3450 Clear 16 1018 47 10000 9.26 300 20:21 27.05.2022
3451 Clear 17 1018 41 10000 7.72 290 19:38 27.05.2022
3452 Clear 16 1018 44 10000 10.29 290 19:20 27.05.2022
3453 Clear 18 1018 42 10000 10.8 280 17:24 27.05.2022
3454 Clouds 18 1018 45 10000 11.32 290 15:57 27.05.2022
3455 Clouds 17 1018 51 10000 11.83 290 14:58 27.05.2022
3456 Clouds 18 1018 51 10000 9.26 270 13:41 27.05.2022
3457 Clouds 17 1018 59 10000 8.23 270 12:20 27.05.2022
3458 Clouds 15 1019 77 10000 5.66 270 11:31 27.05.2022
3459 Clouds 14 1018 82 10000 5.66 260 10:43 27.05.2022
3460 Clouds 13 1019 87 10000 3.6 250 09:59 27.05.2022
3461 Clouds 13 1019 87 10000 3.6 250 09:30 27.05.2022
3462 Rain 13 1018 94 9000 9.26 290 07:39 27.05.2022
3463 Clouds 14 1018 94 9000 4.63 250 04:58 27.05.2022
3464 Clouds 17 1018 84 10000 4.96 234 01:38 27.05.2022
3465 Clouds 18 1020 76 10000 4.16 244 23:23 26.05.2022
3466 Clouds 18 1019 59 10000 3.6 240 22:22 26.05.2022
3467 Clear 18 1019 59 10000 3.09 240 21:27 26.05.2022
3468 Clear 19 1019 55 10000 5.14 250 19:35 26.05.2022
3469 Clouds 20 1020 48 10000 5.14 270 18:51 26.05.2022
3470 Clouds 19 1020 52 10000 6.69 250 17:36 26.05.2022
3471 Clouds 19 1020 52 10000 5.66 270 16:30 26.05.2022
3472 Clouds 19 1021 48 10000 6.69 270 15:28 26.05.2022
3473 Clouds 19 1021 52 10000 7.2 260 14:19 26.05.2022
3474 Clouds 16 1021 63 10000 5.66 250 12:18 26.05.2022
3475 Clouds 16 1020 72 10000 4.63 240 11:20 26.05.2022
3476 Clouds 16 1019 72 10000 3.6 230 09:39 26.05.2022
3477 Clouds 15 1019 72 10000 5.14 240 08:48 26.05.2022
3478 Clouds 15 1019 72 10000 5.14 240 08:48 26.05.2022
3479 Clouds 14 1018 76 10000 3.6 240 06:47 26.05.2022
3480 Clouds 15 1017 64 10000 5.26 244 02:51 26.05.2022
3481 Clear 16 1017 51 10000 3.6 240 23:58 25.05.2022
3482 Clouds 15 1018 69 10000 2.38 221 22:53 25.05.2022
3483 Clear 17 1016 48 10000 3.09 240 21:42 25.05.2022
3484 Clear 18 1016 45 10000 3.6 240 20:50 25.05.2022
3485 Clear 18 1015 45 10000 3.6 250 19:56 25.05.2022
3486 Clear 19 1015 36 10000 5.14 250 18:48 25.05.2022
3487 Clear 20 1015 37 10000 5.66 250 17:26 25.05.2022
3488 Clear 19 1015 39 10000 5.14 270 16:34 25.05.2022
3489 Clear 19 1015 42 10000 5.66 230 15:36 25.05.2022
3490 Clear 18 1015 42 10000 5.14 260 14:50 25.05.2022
3491 Clouds 18 1015 45 10000 4.63 250 14:32 25.05.2022
3492 Clouds 18 1015 51 10000 4.12 240 13:23 25.05.2022
3493 Clear 18 1015 48 10000 4.16 229 11:50 25.05.2022
3494 Clouds 16 1015 63 10000 3.09 220 10:42 25.05.2022
3495 Clouds 15 1015 67 10000 2.06 240 09:45 25.05.2022
3496 Clouds 13 1015 83 10000 1.88 208 07:42 25.05.2022
3497 Clear 9 1013 93 10000 1.54 130 05:57 25.05.2022
3498 Clouds 9 1013 91 10000 1.58 216 02:44 25.05.2022
3499 Clouds 10 1013 87 10000 1.37 212 23:50 24.05.2022
3500 Clouds 11 1012 86 10000 0.84 247 22:59 24.05.2022
3501 Clear 13 1011 87 10000 1.54 130 21:58 24.05.2022
3502 Clear 13 1011 87 10000 1.54 130 21:37 24.05.2022
3503 Clear 14 1010 76 10000 0.51 0 21:19 24.05.2022
3504 Clouds 18 1009 48 10000 4.12 230 19:27 24.05.2022
3505 Clouds 18 1008 55 10000 3.6 190 18:29 24.05.2022
3506 Clear 19 1008 48 10000 4.63 270 16:40 24.05.2022
3507 Clouds 18 1007 55 10000 5.66 250 15:52 24.05.2022
3508 Clouds 18 1007 55 10000 5.66 240 14:41 24.05.2022
3509 Clouds 17 1007 63 10000 5.14 250 13:47 24.05.2022
3510 Clouds 14 1006 88 10000 3.09 240 12:31 24.05.2022
3511 Rain 16 1004 77 10000 4.63 180 09:52 24.05.2022
3512 Rain 15 1003 82 10000 5.14 190 08:57 24.05.2022
3513 Clouds 16 1003 82 10000 5.14 190 08:38 24.05.2022
3514 Clouds 15 1002 82 10000 2.06 170 06:41 24.05.2022
3515 Clouds 14 1003 95 10000 3.33 228 03:48 24.05.2022
3516 Clouds 16 1002 92 10000 5.37 269 01:47 24.05.2022
3517 Rain 16 1001 95 10000 6.13 247 00:53 24.05.2022
3518 Rain 17 999 94 10000 5.66 190 22:25 23.05.2022
3519 Thunderstorm 17 998 77 5000 8.23 200 21:53 23.05.2022
3520 Clear 21 998 68 10000 5.14 120 20:53 23.05.2022
3521 Clear 22 999 60 10000 6.17 130 19:56 23.05.2022
3522 Clouds 22 999 60 10000 5.14 130 19:30 23.05.2022
3523 Clouds 22 1000 60 10000 5.14 120 18:41 23.05.2022
3524 Clouds 22 1000 60 10000 5.66 140 18:22 23.05.2022
3525 Clear 22 1002 52 10000 5.14 130 16:46 23.05.2022
3526 Clear 21 1004 52 10000 6.69 140 14:44 23.05.2022
3527 Rain 19 1005 59 10000 4.12 110 11:58 23.05.2022
3528 Clear 19 1006 59 10000 3.6 100 11:20 23.05.2022
3529 Clear 16 1007 67 10000 4.63 120 09:48 23.05.2022
3530 Clear 15 1007 72 10000 3.09 120 08:50 23.05.2022
3531 Clear 13 1008 76 10000 2.57 130 07:41 23.05.2022
3532 Clouds 11 1008 84 10000 1.36 92 06:41 23.05.2022
3533 Clear 12 1010 82 10000 1.54 150 04:43 23.05.2022
3534 Clouds 11 1011 90 10000 1.69 82 02:19 23.05.2022
3535 Clouds 11 1011 90 10000 1.68 82 01:34 23.05.2022
3536 Clouds 13 1013 86 10000 1.88 98 23:42 22.05.2022
3537 Clouds 15 1013 87 10000 1.56 102 22:34 22.05.2022
3538 Clear 17 1013 63 10000 2.57 70 21:54 22.05.2022
3539 Clear 19 1013 55 10000 2.06 60 20:51 22.05.2022
3540 Clear 20 1013 48 10000 2.06 70 20:23 22.05.2022
3541 Clear 20 1013 45 10000 2.06 80 19:54 22.05.2022
3542 Clouds 20 1014 48 10000 1.54 40 18:53 22.05.2022
3543 Clouds 21 1014 45 10000 1.54 0 18:24 22.05.2022
3544 Clouds 20 1014 45 10000 2.06 0 17:28 22.05.2022
3545 Clouds 20 1015 52 10000 2.06 0 15:59 22.05.2022
3546 Clouds 19 1016 48 10000 1.54 20 14:48 22.05.2022
3547 Clouds 18 1016 55 10000 3.09 350 13:27 22.05.2022
3548 Clouds 18 1017 59 10000 3.09 340 12:50 22.05.2022
3549 Clouds 17 1017 63 10000 3.6 320 11:37 22.05.2022
3550 Clouds 14 1018 76 10000 1.54 40 09:42 22.05.2022
3551 Clouds 12 1018 87 10000 1.03 0 08:31 22.05.2022
3552 Clouds 10 1019 89 10000 0.41 233 07:21 22.05.2022
3553 Clouds 9 1018 93 10000 0.51 180 05:22 22.05.2022
3554 Clouds 11 1020 91 10000 0.56 264 01:26 22.05.2022
3555 Clouds 11 1020 91 10000 0.56 264 00:43 22.05.2022
3556 Clouds 12 1020 90 10000 0.7 268 23:52 21.05.2022
3557 Clouds 13 1021 90 10000 1.05 305 22:28 21.05.2022
3558 Clear 15 1020 72 10000 2.06 280 21:42 21.05.2022
3559 Clear 16 1020 67 10000 2.57 300 20:51 21.05.2022
3560 Clear 17 1019 59 10000 3.6 300 20:21 21.05.2022
3561 Clouds 17 1020 59 10000 5.14 290 19:25 21.05.2022
3562 Clouds 18 1020 51 10000 5.66 270 17:47 21.05.2022
3563 Clouds 18 1021 55 10000 6.69 280 15:54 21.05.2022
3564 Clouds 17 1021 55 10000 6.69 260 14:37 21.05.2022
3565 Clouds 16 1021 58 10000 7.72 270 13:42 21.05.2022
3566 Clouds 16 1021 63 10000 7.2 260 12:49 21.05.2022
3567 Clouds 16 1020 63 10000 6.69 260 11:58 21.05.2022
3568 Clouds 13 1020 76 10000 5.14 260 10:23 21.05.2022
3569 Clouds 13 1020 76 10000 3.6 250 09:41 21.05.2022
3570 Clouds 13 1020 76 10000 3.6 220 08:52 21.05.2022
3571 Clouds 13 1019 76 10000 3.6 210 07:53 21.05.2022
3572 Clouds 13 1020 91 10000 3.52 264 03:48 21.05.2022
3573 Clouds 16 1015 88 10000 6.69 280 23:50 20.05.2022
3574 Clouds 18 1014 82 10000 8.23 270 22:42 20.05.2022
3575 Clouds 19 1014 82 10000 5.14 260 22:23 20.05.2022
3576 Clouds 19 1013 88 10000 4.12 280 21:40 20.05.2022
3577 Thunderstorm 18 1013 94 8000 8.75 280 20:54 20.05.2022
3578 Clouds 20 1012 88 10000 2.06 150 19:57 20.05.2022
3579 Thunderstorm 19 1013 88 8000 7.72 280 19:24 20.05.2022
3580 Rain 22 1014 78 9000 4.12 220 18:36 20.05.2022
3581 Rain 24 1015 68 10000 4.12 160 16:53 20.05.2022
3582 Rain 24 1016 64 10000 4.12 150 15:58 20.05.2022
3583 Clouds 24 1016 64 10000 4.12 150 15:40 20.05.2022
3584 Clouds 23 1018 68 10000 2.57 0 14:29 20.05.2022
3585 Clouds 23 1018 68 10000 2.06 160 13:54 20.05.2022
3586 Clouds 19 1021 77 10000 1.54 130 11:22 20.05.2022
3587 Clouds 17 1021 88 6000 2.57 10 09:51 20.05.2022
3588 Clouds 16 1022 94 7000 1.03 0 08:43 20.05.2022
3589 Clouds 14 1022 95 10000 0.87 327 06:47 20.05.2022
3590 Clouds 14 1022 97 10000 0.68 318 06:24 20.05.2022
3591 Clouds 14 1021 96 10000 1.17 256 04:22 20.05.2022
3592 Clouds 15 1021 98 10000 2 217 00:24 20.05.2022
3593 Clear 17 1020 82 10000 4.12 200 22:44 19.05.2022
3594 Clouds 18 1020 88 10000 4.12 240 21:53 19.05.2022
3595 Clouds 18 1019 94 10000 1.03 0 21:24 19.05.2022
3596 Clouds 18 1019 94 10000 1.03 0 20:58 19.05.2022
3597 Thunderstorm 18 1020 94 10000 1.03 0 20:21 19.05.2022
3598 Thunderstorm 20 1020 77 10000 6.17 300 19:34 19.05.2022
3599 Clouds 28 1017 41 10000 5.66 200 17:52 19.05.2022
3600 Clear 28 1018 36 10000 6.17 180 16:29 19.05.2022
3601 Clear 27 1018 32 10000 5.14 180 14:52 19.05.2022
3602 Clear 27 1019 36 10000 3.09 180 14:21 19.05.2022
3603 Clear 25 1020 41 10000 6.17 150 12:23 19.05.2022
3604 Clear 23 1020 49 10000 5.14 160 10:40 19.05.2022
3605 Clear 19 1021 59 10000 3.09 150 08:57 19.05.2022
3606 Clear 18 1021 63 10000 3.09 160 07:41 19.05.2022
3607 Clouds 13 1021 83 10000 2.32 153 04:44 19.05.2022
3608 Clouds 15 1021 87 10000 2 158 01:57 19.05.2022
3609 Clouds 17 1022 87 10000 2.09 156 23:49 18.05.2022
3610 Clouds 19 1022 86 10000 1.99 146 22:46 18.05.2022
3611 Clear 22 1021 64 10000 2.57 160 21:47 18.05.2022
3612 Clear 23 1021 60 10000 2.57 160 21:24 18.05.2022
3613 Clear 25 1021 50 10000 2.57 170 20:23 18.05.2022
3614 Clear 27 1022 44 10000 4.12 160 19:32 18.05.2022
3615 Clear 28 1022 41 10000 4.12 170 18:20 18.05.2022
3616 Clear 28 1022 41 10000 4.12 160 17:41 18.05.2022
3617 Clear 28 1022 41 10000 3.09 180 17:23 18.05.2022
3618 Clear 27 1022 41 10000 4.12 200 15:59 18.05.2022
3619 Clear 27 1022 41 10000 4.12 200 15:59 18.05.2022
3620 Clear 27 1022 41 10000 4.12 200 15:38 18.05.2022
3621 Clear 27 1023 44 10000 3.6 200 14:30 18.05.2022
3622 Clear 27 1023 44 10000 3.6 200 14:30 18.05.2022
3623 Clear 24 1023 53 10000 3.09 210 12:59 18.05.2022
3624 Clear 24 1023 53 10000 3.09 210 12:39 18.05.2022
3625 Clear 23 1023 60 10000 4.63 140 11:33 18.05.2022
3626 Clear 22 1023 60 10000 4.63 140 10:49 18.05.2022
3627 Clear 19 1023 77 10000 2.57 120 08:29 18.05.2022
3628 Clouds 17 1023 90 10000 1.63 147 07:28 18.05.2022
3629 Clouds 15 1022 89 10000 1.37 156 04:33 18.05.2022
3630 Clouds 16 1022 90 10000 1.28 137 00:52 18.05.2022
3631 Clouds 16 1022 89 10000 1.13 125 00:18 18.05.2022
3632 Clear 19 1021 72 10000 0.51 0 21:24 17.05.2022
3633 Clear 20 1021 68 10000 1.54 290 20:57 17.05.2022
3634 Clouds 20 1021 68 10000 2.57 310 19:45 17.05.2022
3635 Clear 21 1021 60 10000 3.09 320 19:25 17.05.2022
3636 Clouds 21 1021 56 10000 5.66 300 17:49 17.05.2022
3637 Clouds 22 1021 56 10000 5.14 310 16:58 17.05.2022
3638 Clouds 22 1021 56 10000 4.12 310 16:29 17.05.2022
3639 Clouds 22 1021 56 10000 3.09 340 15:18 17.05.2022
3640 Clouds 23 1021 53 10000 4.12 300 14:29 17.05.2022
3641 Clouds 22 1022 60 10000 2.06 0 13:31 17.05.2022
3642 Clouds 19 1022 72 10000 2.57 290 10:50 17.05.2022
3643 Clear 17 1021 82 10000 3.09 250 08:55 17.05.2022
3644 Clear 14 1021 88 10000 1.03 0 07:57 17.05.2022
3645 Clouds 13 1021 94 10000 1.2 222 06:27 17.05.2022
3646 Clouds 14 1020 96 10000 1.57 254 01:59 17.05.2022
3647 Clouds 17 1020 96 10000 1.51 267 00:28 17.05.2022
3648 Clear 16 1019 94 10000 4.12 290 22:41 16.05.2022
3649 Rain 17 1018 88 10000 7.72 280 21:33 16.05.2022
3650 Drizzle 17 1017 82 10000 6.17 260 20:44 16.05.2022
3651 Rain 20 1016 60 10000 2.57 250 19:19 16.05.2022
3652 Clear 23 1016 49 10000 2.57 300 17:34 16.05.2022
3653 Clear 22 1016 56 10000 1.54 210 15:42 16.05.2022
3654 Clear 23 1016 49 10000 3.09 180 13:48 16.05.2022
3655 Clear 21 1016 52 10000 4.12 150 12:46 16.05.2022
3656 Clear 20 1016 49 10000 4.63 130 10:47 16.05.2022
3657 Clear 16 1016 59 10000 2.57 110 08:37 16.05.2022
3658 Clear 13 1016 71 10000 1.54 150 06:33 16.05.2022
3659 Clear 13 1016 71 10000 1.54 150 06:33 16.05.2022
3660 Clouds 12 1017 91 10000 1.69 83 02:33 16.05.2022
3661 Clear 18 1018 51 10000 1.03 0 22:52 15.05.2022
3662 Clear 18 1018 51 10000 2.06 120 22:28 15.05.2022
3663 Clear 19 1018 48 10000 2.06 90 21:38 15.05.2022
3664 Clear 21 1018 42 10000 2.57 70 20:53 15.05.2022
3665 Clear 24 1018 35 10000 4.12 80 18:53 15.05.2022
3666 Clear 24 1018 35 10000 2.57 60 17:45 15.05.2022
3667 Clear 23 1020 37 10000 2.06 0 15:26 15.05.2022
3668 Clear 22 1021 40 10000 2.57 50 13:49 15.05.2022
3669 Clear 20 1021 45 10000 2.57 90 12:22 15.05.2022
3670 Clouds 20 1021 45 10000 3.09 80 11:38 15.05.2022
3671 Clear 17 1022 55 10000 1.54 110 10:20 15.05.2022
3672 Clear 9 1022 93 10000 1.03 0 07:36 15.05.2022
3673 Clouds 7 1022 88 10000 1.1 66 06:57 15.05.2022
3674 Clear 8 1022 92 10000 0.98 72 04:26 15.05.2022
3675 Clouds 11 1022 92 10000 1.45 60 00:47 15.05.2022
3676 Clouds 12 1022 91 10000 1.62 49 23:38 14.05.2022
3677 Clouds 14 1022 89 10000 1.52 42 22:45 14.05.2022
3678 Clear 17 1020 59 10000 2.06 360 21:27 14.05.2022
3679 Clear 20 1020 45 10000 4.12 320 20:32 14.05.2022
3680 Clear 20 1020 45 10000 5.14 320 19:21 14.05.2022
3681 Clear 21 1020 45 10000 5.14 330 18:59 14.05.2022
3682 Clear 21 1020 42 10000 5.14 330 17:54 14.05.2022
3683 Clear 21 1020 45 10000 5.14 340 16:32 14.05.2022
3684 Clouds 21 1021 45 10000 4.12 330 14:56 14.05.2022
3685 Clouds 21 1021 45 10000 4.12 280 14:30 14.05.2022
3686 Clouds 18 1021 55 10000 2.57 0 12:18 14.05.2022
3687 Clear 17 1021 63 10000 2.57 240 10:53 14.05.2022
3688 Clear 15 1021 63 10000 4.12 260 10:20 14.05.2022
3689 Clear 15 1021 67 10000 2.57 280 09:46 14.05.2022
3690 Clouds 12 1021 82 10000 1.03 0 08:22 14.05.2022
3691 Clear 8 1020 87 10000 2.06 240 05:26 14.05.2022
3692 Clouds 8 1021 89 10000 0.93 234 01:57 14.05.2022
3693 Clear 11 1020 76 10000 2.06 220 23:31 13.05.2022
3694 Clear 12 1020 71 10000 2.57 200 22:56 13.05.2022
3695 Clear 13 1020 71 10000 2.06 200 22:22 13.05.2022
3696 Clear 16 1020 58 10000 1.03 320 21:24 13.05.2022
3697 Clear 17 1020 55 10000 2.06 320 20:43 13.05.2022
3698 Clear 17 1020 55 10000 2.06 320 20:43 13.05.2022
3699 Clear 17 1020 55 10000 2.57 310 20:22 13.05.2022
3700 Clouds 18 1020 45 10000 4.63 280 19:19 13.05.2022
3701 Clear 18 1019 45 10000 5.14 280 17:50 13.05.2022
3702 Clear 18 1019 45 10000 4.63 260 17:24 13.05.2022
3703 Clear 19 1019 42 10000 6.69 270 15:53 13.05.2022
3704 Clouds 17 1019 41 10000 7.2 280 14:47 13.05.2022
3705 Clouds 16 1019 51 10000 6.17 280 12:55 13.05.2022
3706 Clouds 15 1019 51 10000 7.72 280 12:25 13.05.2022
3707 Clouds 15 1019 54 10000 6.69 270 10:23 13.05.2022
3708 Clouds 15 1018 67 10000 3.09 240 09:29 13.05.2022
3709 Clouds 11 1018 76 10000 0.51 0 07:59 13.05.2022
3710 Clouds 10 1017 81 10000 1.03 0 07:30 13.05.2022
3711 Clear 8 1018 81 10000 1.54 230 05:46 13.05.2022
3712 Clouds 9 1019 85 10000 1.99 207 01:37 13.05.2022
3713 Clouds 14 1018 80 10000 0.76 237 23:34 12.05.2022
3714 Clear 15 1018 62 10000 1.54 250 22:35 12.05.2022
3715 Clear 16 1018 58 10000 1.03 300 21:35 12.05.2022
3716 Clear 18 1017 51 10000 5.14 320 19:55 12.05.2022
3717 Clear 19 1017 42 10000 3.09 320 18:30 12.05.2022
3718 Clear 20 1018 42 10000 4.63 300 16:48 12.05.2022
3719 Clear 19 1018 42 10000 4.12 320 15:22 12.05.2022
3720 Clouds 18 1019 48 10000 5.14 300 13:58 12.05.2022
3721 Clouds 16 1019 51 10000 3.6 280 12:46 12.05.2022
3722 Clouds 16 1019 55 10000 6.17 270 10:34 12.05.2022
3723 Clouds 14 1017 67 10000 5.66 290 08:58 12.05.2022
3724 Clouds 14 1017 67 10000 5.66 290 08:35 12.05.2022
3725 Clouds 13 1016 91 10000 4.48 298 07:25 12.05.2022
3726 Clouds 17 1013 91 10000 5.42 264 04:45 12.05.2022
3727 Clouds 16 1011 92 10000 4.84 256 01:55 12.05.2022
3728 Clouds 21 1011 93 10000 2.49 219 23:42 11.05.2022
3729 Clear 22 1010 56 10000 1.54 260 22:22 11.05.2022
3730 Clear 23 1009 53 10000 2.06 300 21:27 11.05.2022
3731 Clear 25 1009 35 10000 3.6 230 20:45 11.05.2022
3732 Clear 28 1008 32 10000 8.23 210 17:43 11.05.2022
3733 Clear 27 1009 34 10000 8.23 220 16:39 11.05.2022
3734 Clear 27 1010 34 10000 9.26 220 14:49 11.05.2022
3735 Clear 25 1010 43 10000 5.66 210 14:25 11.05.2022
3736 Clear 26 1011 44 10000 6.69 210 13:37 11.05.2022
3737 Clouds 24 1012 49 10000 6.17 210 11:48 11.05.2022
3738 Clear 21 1012 56 10000 5.66 210 09:34 11.05.2022
3739 Clouds 15 1013 94 10000 2.79 182 06:59 11.05.2022
3740 Clouds 16 1014 93 10000 2.35 179 03:38 11.05.2022
3741 Clouds 16 1016 79 10000 2.27 204 23:45 10.05.2022
3742 Clouds 15 1016 84 10000 2.79 197 22:30 10.05.2022
3743 Clear 21 1015 52 10000 3.6 190 21:41 10.05.2022
3744 Clear 22 1015 49 10000 3.6 180 20:47 10.05.2022
3745 Rain 23 1015 49 10000 4.12 180 19:18 10.05.2022
3746 Clear 24 1016 38 10000 6.17 190 17:43 10.05.2022
3747 Clear 24 1016 38 10000 5.66 200 16:38 10.05.2022
3748 Clear 24 1018 43 10000 6.17 180 13:37 10.05.2022
3749 Clear 22 1020 49 10000 4.63 210 11:54 10.05.2022
3750 Clear 22 1020 49 10000 4.63 210 11:34 10.05.2022
3751 Clear 20 1020 52 10000 3.09 180 10:56 10.05.2022
3752 Clear 17 1020 63 10000 3.09 140 09:52 10.05.2022
3753 Clear 14 1021 76 10000 2.57 140 08:22 10.05.2022
3754 Clear 11 1021 87 10000 1.54 90 06:20 10.05.2022
3755 Clouds 11 1023 85 10000 1.94 157 02:23 10.05.2022
3756 Clouds 12 1024 87 10000 1.66 132 23:53 09.05.2022
3757 Clear 16 1023 63 10000 1.54 140 22:36 09.05.2022
3758 Clear 18 1023 55 10000 1.03 0 21:42 09.05.2022
3759 Clear 22 1023 40 10000 1.54 0 20:21 09.05.2022
3760 Clear 23 1023 35 10000 1.54 60 18:26 09.05.2022
3761 Clear 24 1024 35 10000 3.09 0 17:26 09.05.2022
3762 Clear 22 1025 40 10000 2.06 0 16:19 09.05.2022
3763 Clear 22 1025 37 10000 1.54 350 15:47 09.05.2022
3764 Clear 22 1025 37 10000 3.09 70 14:37 09.05.2022
3765 Clear 21 1026 42 10000 1.54 0 13:59 09.05.2022
3766 Clear 21 1026 42 10000 2.57 80 13:22 09.05.2022
3767 Clear 19 1027 37 10000 2.57 80 11:53 09.05.2022
3768 Clear 17 1027 39 10000 1.54 0 10:48 09.05.2022
3769 Clear 16 1027 41 10000 2.06 110 10:26 09.05.2022
3770 Clear 8 1027 81 10000 0 0 07:57 09.05.2022
3771 Clear 6 1027 87 10000 0.51 0 05:53 09.05.2022
3772 Clear 11 1028 83 10000 1.34 51 00:59 09.05.2022
3773 Clear 10 1027 76 10000 1.92 32 23:28 08.05.2022
3774 Clear 11 1027 76 10000 1.91 32 22:32 08.05.2022
3775 Clear 14 1026 58 10000 3.6 350 21:20 08.05.2022
3776 Clear 17 1025 51 10000 4.63 350 20:23 08.05.2022
3777 Clear 18 1025 48 10000 4.12 330 19:33 08.05.2022
3778 Clear 18 1025 45 10000 5.14 340 18:38 08.05.2022
3779 Clear 19 1025 42 10000 4.12 330 17:39 08.05.2022
3780 Clear 18 1026 45 10000 5.14 340 15:46 08.05.2022
3781 Clear 18 1026 45 10000 5.14 340 15:22 08.05.2022
3782 Clear 16 1027 55 10000 3.6 350 12:46 08.05.2022
3783 Clouds 13 1026 71 10000 3.09 330 10:59 08.05.2022
3784 Clouds 11 1026 76 10000 3.6 330 10:22 08.05.2022
3785 Clouds 11 1026 76 10000 3.6 340 09:51 08.05.2022
3786 Clouds 10 1026 87 10000 3.6 350 07:43 08.05.2022
3787 Clouds 10 1025 93 10000 4.12 350 05:57 08.05.2022
3788 Clouds 10 1024 97 10000 2.46 5 03:21 08.05.2022
3789 Clouds 12 1024 95 10000 1.96 12 00:42 08.05.2022
3790 Clouds 13 1024 94 10000 1.79 358 23:55 07.05.2022
3791 Clouds 14 1024 93 10000 1.93 354 22:59 07.05.2022
3792 Clouds 14 1024 93 10000 1.93 354 22:35 07.05.2022
3793 Clear 16 1023 63 10000 1.03 350 21:55 07.05.2022
3794 Clear 17 1023 63 10000 2.06 310 21:20 07.05.2022
3795 Clouds 19 1022 55 10000 6.17 350 19:59 07.05.2022
3796 Clear 21 1021 45 10000 4.12 330 18:41 07.05.2022
3797 Clouds 21 1022 42 10000 3.09 340 16:19 07.05.2022
3798 Clouds 20 1022 48 10000 3.6 350 14:46 07.05.2022
3799 Clear 19 1023 52 10000 1.03 0 11:21 07.05.2022
3800 Clear 14 1023 67 10000 2.06 90 09:39 07.05.2022
3801 Clear 11 1023 81 10000 1.03 0 08:28 07.05.2022
3802 Clouds 5 1023 76 10000 1.15 191 06:44 07.05.2022
3803 Clear 7 1023 87 10000 1.03 160 05:41 07.05.2022
3804 Clouds 7 1023 71 10000 1.56 181 03:54 07.05.2022
3805 Clear 12 1023 71 10000 2.57 230 23:41 06.05.2022
3806 Clouds 12 1024 71 10000 0.59 147 22:34 06.05.2022
3807 Clear 15 1023 55 10000 0.51 0 21:47 06.05.2022
3808 Clear 18 1023 48 10000 1.54 320 20:39 06.05.2022
3809 Clear 19 1023 39 10000 3.09 320 19:43 06.05.2022
3810 Clear 20 1023 37 10000 2.57 340 19:19 06.05.2022
3811 Clear 20 1023 37 10000 2.57 330 18:24 06.05.2022
3812 Clear 20 1024 37 10000 3.09 350 16:57 06.05.2022
3813 Clear 20 1024 37 10000 3.09 310 15:47 06.05.2022
3814 Clear 19 1024 39 10000 2.06 0 14:58 06.05.2022
3815 Clouds 19 1025 36 10000 1.54 0 13:31 06.05.2022
3816 Clouds 18 1025 39 10000 3.6 330 12:41 06.05.2022
3817 Clouds 17 1025 41 10000 2.57 330 11:49 06.05.2022
3818 Clear 16 1025 51 10000 1.03 0 10:34 06.05.2022
3819 Clear 13 1025 66 10000 1.03 0 09:46 06.05.2022
3820 Clear 10 1025 81 10000 1.03 0 08:52 06.05.2022
3821 Clear 6 1025 93 10000 1.54 240 07:26 06.05.2022
3822 Clear 6 1024 81 10000 1.03 0 05:48 06.05.2022
3823 Clouds 7 1024 88 10000 1.02 357 02:51 06.05.2022
3824 Clouds 9 1025 87 10000 1.24 5 01:31 06.05.2022
3825 Clear 13 1023 54 10000 2.06 340 22:32 05.05.2022
3826 Clear 15 1022 47 10000 2.06 330 21:31 05.05.2022
3827 Clear 17 1022 41 10000 3.6 330 20:26 05.05.2022
3828 Clear 17 1021 41 10000 5.66 340 18:35 05.05.2022
3829 Clouds 17 1021 41 10000 3.09 340 16:35 05.05.2022
3830 Clouds 17 1021 44 10000 3.09 0 14:51 05.05.2022
3831 Clouds 16 1021 51 10000 2.57 310 13:24 05.05.2022
3832 Clouds 16 1022 51 10000 3.09 340 12:49 05.05.2022
3833 Clear 14 1021 67 10000 1.54 330 10:48 05.05.2022
3834 Clear 12 1021 76 10000 0.51 0 09:40 05.05.2022
3835 Clear 8 1020 93 10000 0.51 0 07:36 05.05.2022
3836 Clear 7 1019 93 10000 0.51 210 05:19 05.05.2022
3837 Clear 7 1019 93 10000 0.51 210 05:19 05.05.2022
3838 Clouds 10 1019 95 10000 1.7 345 01:59 05.05.2022
3839 Clouds 9 1019 94 10000 1.66 348 01:29 05.05.2022
3840 Clouds 12 1019 93 10000 1.3 6 23:52 04.05.2022
3841 Clouds 12 1018 94 10000 1.43 34 22:42 04.05.2022
3842 Clear 13 1017 71 10000 2.06 20 21:50 04.05.2022
3843 Clouds 14 1017 67 10000 2.57 320 21:29 04.05.2022
3844 Clouds 16 1016 63 10000 3.6 320 20:27 04.05.2022
3845 Clear 17 1016 55 10000 3.6 340 19:53 04.05.2022
3846 Clear 17 1016 59 10000 3.6 320 19:18 04.05.2022
3847 Clear 17 1016 55 10000 1.54 350 18:22 04.05.2022
3848 Clear 18 1016 51 10000 2.06 20 17:51 04.05.2022
3849 Clouds 15 1017 67 10000 2.06 360 15:42 04.05.2022
3850 Clouds 15 1017 67 10000 2.06 330 15:23 04.05.2022
3851 Clouds 14 1017 71 10000 2.57 320 14:21 04.05.2022
3852 Rain 13 1018 71 10000 1.54 310 13:35 04.05.2022
3853 Clear 13 1018 66 10000 1.03 0 12:33 04.05.2022
3854 Clear 13 1018 71 10000 1.03 0 10:41 04.05.2022
3855 Clear 10 1018 81 10000 1.54 350 09:44 04.05.2022
3856 Clouds 9 1018 87 10000 2.06 320 08:47 04.05.2022
3857 Clouds 9 1018 87 10000 2.06 320 08:47 04.05.2022
3858 Clouds 8 1018 89 10000 1.01 41 06:47 04.05.2022
3859 Clouds 8 1018 95 10000 1.51 20 02:59 04.05.2022
3860 Clouds 9 1019 94 10000 1.4 20 00:47 04.05.2022
3861 Clouds 13 1019 93 10000 2 27 22:40 03.05.2022
3862 Clear 12 1017 71 10000 3.6 350 21:46 03.05.2022
3863 Clear 15 1016 54 10000 3.6 330 20:56 03.05.2022
3864 Clear 16 1016 51 10000 3.6 320 20:30 03.05.2022
3865 Clear 18 1016 42 10000 5.14 330 18:54 03.05.2022
3866 Clear 18 1016 42 10000 4.63 320 18:21 03.05.2022
3867 Clear 18 1016 42 10000 4.12 330 16:44 03.05.2022
3868 Clear 17 1017 44 10000 3.09 280 15:38 03.05.2022
3869 Clear 16 1018 44 10000 4.63 340 12:47 03.05.2022
3870 Clear 15 1018 51 10000 3.6 320 12:27 03.05.2022
3871 Clear 12 1018 62 10000 2.06 320 10:57 03.05.2022
3872 Clear 11 1018 71 10000 2.06 320 09:35 03.05.2022
3873 Clear 9 1017 87 10000 2.06 290 07:33 03.05.2022
3874 Clouds 9 1017 91 10000 1.75 14 06:45 03.05.2022
3875 Clouds 12 1018 92 10000 1.52 18 01:47 03.05.2022
3876 Clear 14 1017 67 10000 3.09 340 22:44 02.05.2022
3877 Clear 14 1016 67 10000 1.54 330 21:55 02.05.2022
3878 Clear 14 1016 67 10000 2.06 340 21:23 02.05.2022
3879 Clear 18 1016 45 10000 1.03 0 18:46 02.05.2022
3880 Clear 20 1016 45 10000 2.06 30 18:25 02.05.2022
3881 Clear 19 1016 42 10000 2.06 20 17:37 02.05.2022
3882 Clear 19 1017 45 10000 1.54 0 16:23 02.05.2022
3883 Clear 19 1017 42 10000 2.06 60 15:37 02.05.2022
3884 Clear 18 1018 45 10000 2.06 40 13:58 02.05.2022
3885 Clear 16 1019 51 10000 2.57 100 12:27 02.05.2022
3886 Clear 14 1019 58 10000 3.09 90 10:51 02.05.2022
3887 Clear 12 1019 66 10000 2.06 50 09:30 02.05.2022
3888 Clear 8 1019 87 10000 0.51 0 07:52 02.05.2022
3889 Clear 9 1020 87 10000 1.03 0 04:44 02.05.2022
3890 Clouds 9 1022 82 10000 1.89 28 00:25 02.05.2022
3891 Clouds 11 1022 82 10000 1.89 28 23:52 01.05.2022
3892 Clouds 11 1022 83 10000 1.78 32 22:40 01.05.2022
3893 Clouds 12 1021 66 10000 3.09 350 21:26 01.05.2022
3894 Clouds 13 1021 66 10000 3.09 350 20:19 01.05.2022
3895 Clouds 14 1021 58 10000 4.12 350 18:59 01.05.2022
3896 Clouds 14 1021 58 10000 4.12 350 18:39 01.05.2022
3897 Clouds 14 1021 58 10000 4.63 330 17:38 01.05.2022
3898 Clouds 14 1021 62 10000 4.12 340 16:24 01.05.2022
3899 Clouds 14 1022 58 10000 4.63 340 15:38 01.05.2022
3900 Clouds 12 1023 71 10000 4.12 330 13:52 01.05.2022
3901 Clouds 9 1023 87 10000 2.06 340 11:28 01.05.2022
3902 Clouds 8 1023 87 10000 2.57 330 09:32 01.05.2022
3903 Clouds 8 1023 87 10000 2.06 320 08:42 01.05.2022
3904 Clouds 8 1023 93 10000 1.73 1 03:44 01.05.2022
3905 Clouds 9 1024 81 10000 1.95 355 00:34 01.05.2022
3906 Clouds 9 1024 80 10000 1.82 352 21:51 30.04.2022
3907 Clear 10 1023 81 10000 2.06 300 21:19 30.04.2022
3908 Clear 10 1023 76 10000 2.57 330 19:45 30.04.2022
3909 Clouds 10 1023 71 10000 2.57 340 18:28 30.04.2022
3910 Clouds 10 1024 76 10000 4.63 340 16:54 30.04.2022
3911 Clouds 9 1024 81 10000 4.63 320 15:48 30.04.2022
3912 Clouds 9 1024 81 10000 6.17 320 14:53 30.04.2022
3913 Clouds 9 1025 81 10000 4.12 320 13:20 30.04.2022
3914 Clouds 8 1025 87 10000 4.63 340 11:34 30.04.2022
3915 Clouds 8 1025 87 10000 4.12 340 10:49 30.04.2022
3916 Clouds 7 1025 93 9000 4.63 330 09:48 30.04.2022
3917 Clouds 7 1025 96 10000 2.31 354 06:48 30.04.2022
3918 Clouds 8 1025 98 10000 2.72 358 03:34 30.04.2022
3919 Clear 11 1026 71 10000 3.6 330 23:53 29.04.2022
3920 Clear 12 1025 71 10000 4.12 320 22:34 29.04.2022
3921 Clear 12 1025 71 10000 3.6 320 21:54 29.04.2022
3922 Clear 13 1024 71 10000 4.12 310 20:51 29.04.2022
3923 Clear 15 1024 67 10000 3.6 310 19:47 29.04.2022
3924 Clear 17 1024 51 10000 2.57 320 18:36 29.04.2022
3925 Clouds 18 1025 48 10000 2.06 340 17:25 29.04.2022
3926 Clouds 18 1026 45 10000 1.54 50 15:50 29.04.2022
3927 Clear 17 1027 48 10000 1.54 90 14:23 29.04.2022
3928 Clear 15 1027 62 10000 1.03 0 13:22 29.04.2022
3929 Clear 12 1028 66 10000 1.54 20 11:50 29.04.2022
3930 Clear 8 1028 87 10000 1.03 0 09:23 29.04.2022
3931 Clouds 6 1029 89 10000 0.95 45 07:28 29.04.2022
3932 Clouds 4 1029 89 10000 0.95 45 06:46 29.04.2022
3933 Clear 5 1028 87 10000 0.51 0 05:44 29.04.2022
3934 Clouds 9 1031 88 10000 1.67 34 00:46 29.04.2022
3935 Clouds 8 1031 86 10000 1.6 30 23:34 28.04.2022
3936 Clouds 10 1031 85 10000 1.42 33 22:44 28.04.2022
3937 Clear 13 1030 87 10000 1.83 34 21:47 28.04.2022
3938 Clear 9 1030 84 10000 2.45 23 21:22 28.04.2022
3939 Clear 13 1028 62 10000 2.57 340 20:35 28.04.2022
3940 Clear 16 1028 47 10000 3.6 360 19:46 28.04.2022
3941 Clear 17 1028 44 10000 3.6 360 19:23 28.04.2022
3942 Clear 17 1028 44 10000 3.6 330 18:36 28.04.2022
3943 Clouds 17 1028 44 10000 4.63 350 17:26 28.04.2022
3944 Clouds 17 1028 44 10000 4.12 330 16:41 28.04.2022
3945 Clouds 17 1028 44 10000 4.12 350 16:19 28.04.2022
3946 Clouds 16 1028 47 10000 3.6 310 15:29 28.04.2022
3947 Clouds 16 1029 44 10000 3.09 290 14:36 28.04.2022
3948 Clouds 14 1029 54 10000 2.06 10 12:55 28.04.2022
3949 Clouds 13 1029 66 10000 2.57 330 11:59 28.04.2022
3950 Clear 11 1029 71 10000 1.54 330 10:47 28.04.2022
3951 Clear 10 1029 71 10000 1.03 0 10:26 28.04.2022
3952 Clear 7 1028 87 10000 2.06 330 08:44 28.04.2022
3953 Clouds 6 1028 93 9000 1.03 0 07:36 28.04.2022
3954 Clouds 5 1028 93 10000 1.35 17 05:56 28.04.2022
3955 Clouds 5 1027 93 8000 1.54 280 05:38 28.04.2022
3956 Clouds 5 1028 92 10000 1.32 16 04:40 28.04.2022
3957 Clouds 8 1028 90 10000 1.17 32 00:30 28.04.2022
3958 Clear 11 1026 71 10000 2.57 330 22:40 27.04.2022
3959 Clear 11 1026 76 10000 3.09 320 21:56 27.04.2022
3960 Clear 12 1025 71 10000 3.6 300 21:26 27.04.2022
3961 Clouds 15 1025 54 10000 4.12 320 20:38 27.04.2022
3962 Clouds 15 1024 54 10000 4.12 330 19:38 27.04.2022
3963 Clouds 16 1024 51 10000 3.6 330 19:18 27.04.2022
3964 Clouds 16 1024 47 10000 3.6 320 18:22 27.04.2022
3965 Clouds 16 1024 47 10000 3.6 320 18:22 27.04.2022
3966 Clouds 17 1024 48 10000 4.12 350 17:24 27.04.2022
3967 Clouds 16 1024 51 10000 3.6 340 15:21 27.04.2022
3968 Clouds 12 1025 71 10000 2.06 320 12:27 27.04.2022
3969 Clear 11 1025 71 10000 2.57 340 11:21 27.04.2022
3970 Clear 8 1024 87 10000 2.57 340 09:45 27.04.2022
3971 Clear 5 1023 93 10000 2.57 310 07:19 27.04.2022
3972 Clouds 7 1023 97 10000 1.63 349 05:37 27.04.2022
3973 Clouds 7 1021 96 10000 2.33 351 01:35 27.04.2022
3974 Clouds 7 1021 94 10000 2.28 351 00:38 27.04.2022
3975 Clouds 8 1020 92 10000 2.08 352 00:38 27.04.2022
3976 Clear 9 1019 81 10000 2.57 310 23:40 26.04.2022
3977 Clear 9 1019 87 10000 2.57 290 23:22 26.04.2022
3978 Clear 10 1019 81 10000 2.06 310 22:41 26.04.2022
3979 Clear 10 1018 81 10000 2.06 300 21:37 26.04.2022
3980 Clouds 11 1018 81 10000 2.57 320 20:52 26.04.2022
3981 Clouds 11 1017 76 10000 2.57 350 20:30 26.04.2022
3982 Clouds 13 1017 62 10000 5.14 340 19:32 26.04.2022
3983 Clouds 13 1017 66 10000 4.63 300 18:45 26.04.2022
3984 Clouds 13 1016 62 10000 2.57 290 17:59 26.04.2022
3985 Clouds 12 1016 66 10000 2.57 280 16:58 26.04.2022
3986 Clouds 14 1016 58 10000 3.6 120 14:27 26.04.2022
3987 Clouds 14 1015 62 10000 3.09 130 13:33 26.04.2022
3988 Clouds 12 1015 62 10000 3.09 100 11:55 26.04.2022
3989 Clouds 11 1015 76 9000 1.54 50 10:37 26.04.2022
3990 Clouds 9 1014 87 7000 2.06 30 09:25 26.04.2022
3991 Clouds 6 1015 92 10000 1.66 43 07:22 26.04.2022
3992 Clouds 5 1015 94 10000 1.54 56 04:23 26.04.2022
3993 Clouds 8 1015 91 10000 1.45 65 01:25 26.04.2022
3994 Clouds 6 1014 90 10000 1.25 96 00:26 26.04.2022
3995 Clear 10 1013 81 10000 3.09 130 22:36 25.04.2022
3996 Clear 10 1013 81 10000 2.06 130 21:40 25.04.2022
3997 Clouds 11 1012 81 10000 2.57 30 20:39 25.04.2022
3998 Clouds 11 1012 87 10000 2.57 10 18:58 25.04.2022
3999 Clouds 11 1012 87 10000 4.12 20 17:54 25.04.2022
4000 Clouds 12 1012 76 10000 1.54 40 16:55 25.04.2022
4001 Clouds 11 1012 76 10000 1.03 0 15:29 25.04.2022
4002 Clouds 10 1012 87 10000 1.54 150 14:42 25.04.2022
4003 Drizzle 10 1011 87 10000 2.57 140 13:33 25.04.2022
4004 Rain 9 1011 93 10000 1.54 130 11:38 25.04.2022
4005 Rain 9 1010 87 10000 0.51 0 10:26 25.04.2022
4006 Rain 8 1009 93 6000 1.54 330 08:39 25.04.2022
4007 Rain 7 1009 96 10000 1.27 62 06:39 25.04.2022
4008 Clouds 9 1007 94 10000 1.6 349 03:47 25.04.2022
4009 Clouds 8 1006 90 10000 1.38 347 00:43 25.04.2022
4010 Clouds 10 1006 87 10000 2.06 280 23:51 24.04.2022
4011 Clouds 10 1006 87 10000 1.54 260 22:41 24.04.2022
4012 Rain 9 1005 89 10000 0.91 327 22:20 24.04.2022
4013 Rain 9 1005 88 10000 0.65 353 21:26 24.04.2022
4014 Rain 10 1004 87 10000 2.57 300 20:48 24.04.2022
4015 Rain 10 1004 93 10000 2.06 300 20:29 24.04.2022
4016 Rain 11 1004 81 10000 1.03 270 19:45 24.04.2022
4017 Rain 12 1004 66 10000 3.6 110 18:20 24.04.2022
4018 Rain 13 1003 54 10000 5.66 50 17:28 24.04.2022
4019 Clouds 13 1002 54 10000 5.14 40 16:58 24.04.2022
4020 Clouds 14 1002 54 10000 3.6 40 16:32 24.04.2022
4021 Clouds 14 1002 44 10000 4.63 70 15:54 24.04.2022
4022 Clear 15 1002 41 10000 5.66 70 14:58 24.04.2022
4023 Clouds 15 1001 47 10000 6.17 50 13:51 24.04.2022
4024 Clear 15 1001 47 10000 5.14 50 13:24 24.04.2022
4025 Clear 14 1002 50 10000 5.14 60 11:56 24.04.2022
4026 Clear 14 1002 50 10000 5.14 60 11:27 24.04.2022
4027 Clear 12 1002 58 10000 5.14 60 09:55 24.04.2022
4028 Clear 9 1002 66 10000 1.03 0 08:51 24.04.2022
4029 Clear 7 1002 70 10000 3.6 40 06:18 24.04.2022
4030 Clouds 9 1003 80 10000 3.29 47 03:37 24.04.2022
4031 Clouds 9 1003 80 10000 3.29 47 03:37 24.04.2022
4032 Clouds 11 1004 76 10000 4.58 54 01:37 24.04.2022
4033 Clear 12 1004 54 10000 3.6 80 23:57 23.04.2022
4034 Clear 12 1004 54 10000 3.09 80 23:26 23.04.2022
4035 Clouds 13 1005 68 10000 4.58 75 22:46 23.04.2022
4036 Clouds 13 1005 66 10000 5.28 77 21:49 23.04.2022
4037 Clouds 13 1005 66 10000 5.28 77 21:31 23.04.2022
4038 Clear 15 1004 41 10000 6.17 80 20:33 23.04.2022
4039 Clear 15 1004 41 10000 7.2 90 19:41 23.04.2022
4040 Clear 16 1004 38 10000 7.2 80 19:18 23.04.2022
4041 Clear 16 1004 36 10000 7.2 90 18:46 23.04.2022
4042 Clear 17 1005 36 10000 8.23 80 17:48 23.04.2022
4043 Clear 17 1005 33 10000 8.23 80 16:47 23.04.2022
4044 Clear 16 1006 38 10000 7.72 100 15:54 23.04.2022
4045 Clouds 16 1007 44 10000 7.2 90 14:27 23.04.2022
4046 Clouds 12 1007 66 10000 7.72 80 11:59 23.04.2022
4047 Clouds 11 1007 71 10000 7.2 80 10:40 23.04.2022
4048 Clouds 10 1007 81 10000 5.14 90 08:30 23.04.2022
4049 Clouds 10 1007 81 10000 4.63 80 05:27 23.04.2022
4050 Clouds 11 1007 85 10000 5.16 84 03:54 23.04.2022
4051 Clouds 11 1007 81 10000 3.09 80 00:18 23.04.2022
4052 Clouds 11 1007 81 10000 5.14 90 23:25 22.04.2022
4053 Clouds 12 1007 90 10000 3.58 92 21:59 22.04.2022
4054 Clouds 12 1007 90 10000 3.58 92 21:40 22.04.2022
4055 Clouds 13 1006 58 10000 5.14 60 20:37 22.04.2022
4056 Clouds 14 1006 58 10000 5.66 70 19:39 22.04.2022
4057 Clouds 14 1006 58 10000 6.17 70 19:18 22.04.2022
4058 Clouds 14 1006 58 10000 6.17 60 18:28 22.04.2022
4059 Clouds 14 1006 54 10000 6.69 70 17:24 22.04.2022
4060 Clouds 15 1006 58 10000 6.69 60 15:59 22.04.2022
4061 Clouds 14 1006 58 10000 6.17 60 15:30 22.04.2022
4062 Clouds 13 1006 66 10000 6.69 50 14:38 22.04.2022
4063 Clouds 14 1006 62 10000 5.66 50 13:41 22.04.2022
4064 Clouds 11 1007 76 10000 4.63 50 12:47 22.04.2022
4065 Clouds 11 1007 76 10000 6.17 80 11:23 22.04.2022
4066 Clouds 11 1007 76 10000 6.69 90 10:56 22.04.2022
4067 Clouds 11 1007 76 10000 5.66 90 10:34 22.04.2022
4068 Drizzle 10 1007 81 10000 4.63 80 09:59 22.04.2022
4069 Clouds 10 1008 81 10000 4.63 80 09:22 22.04.2022
4070 Clouds 10 1008 81 10000 4.63 70 08:48 22.04.2022
4071 Clouds 9 1008 86 10000 4.63 68 06:42 22.04.2022
4072 Clouds 8 1011 91 10000 3.47 72 01:24 22.04.2022
4073 Clouds 10 1011 90 10000 3.57 68 23:33 21.04.2022
4074 Clouds 10 1012 89 10000 3.35 67 22:43 21.04.2022
4075 Clouds 10 1011 71 10000 4.63 70 21:42 21.04.2022
4076 Clouds 12 1011 66 10000 5.66 70 20:31 21.04.2022
4077 Clouds 12 1011 66 10000 4.12 60 18:49 21.04.2022
4078 Clouds 13 1011 62 10000 4.12 70 18:28 21.04.2022
4079 Clouds 14 1011 58 10000 4.12 70 17:19 21.04.2022
4080 Clouds 13 1012 58 10000 4.12 80 15:25 21.04.2022
4081 Clouds 13 1012 62 10000 4.63 50 14:52 21.04.2022
4082 Clouds 12 1012 62 10000 3.6 50 14:18 21.04.2022
4083 Clouds 11 1013 66 10000 1.03 0 13:21 21.04.2022
4084 Clear 10 1013 71 10000 1.03 0 12:22 21.04.2022
4085 Clouds 6 1013 81 10000 1.03 340 09:33 21.04.2022
4086 Clear 5 1013 87 10000 2.06 320 08:46 21.04.2022
4087 Clouds 3 1014 94 10000 1.63 22 06:44 21.04.2022
4088 Clouds 4 1014 94 10000 1.78 13 03:41 21.04.2022
4089 Clouds 6 1014 93 10000 1.98 9 03:22 21.04.2022
4090 Clouds 5 1014 93 10000 1.98 9 02:44 21.04.2022
4091 Clouds 5 1014 93 10000 1.98 9 02:44 21.04.2022
4092 Clouds 6 1015 91 10000 1.83 5 00:34 21.04.2022
4093 Clouds 7 1015 88 10000 0.69 25 23:25 20.04.2022
4094 Clouds 10 1015 88 10000 0.69 25 22:59 20.04.2022
4095 Clouds 10 1015 88 10000 0.69 25 22:34 20.04.2022
4096 Clouds 11 1015 87 10000 1.09 44 21:36 20.04.2022
4097 Clear 12 1014 58 10000 3.09 60 20:44 20.04.2022
4098 Clear 12 1014 58 10000 3.09 60 20:44 20.04.2022
4099 Clear 12 1014 58 10000 3.09 60 20:44 20.04.2022
4100 Clear 12 1014 58 10000 3.09 60 20:21 20.04.2022
4101 Clouds 13 1014 54 10000 4.63 60 19:44 20.04.2022
4102 Clouds 14 1014 50 10000 5.66 60 18:46 20.04.2022
4103 Clouds 15 1014 44 10000 5.14 60 17:49 20.04.2022
4104 Clouds 15 1015 47 10000 4.12 60 16:39 20.04.2022
4105 Clear 14 1015 44 10000 4.12 30 14:58 20.04.2022
4106 Clear 13 1017 47 10000 2.06 0 12:22 20.04.2022
4107 Clear 12 1017 50 10000 1.54 340 11:40 20.04.2022
4108 Clear 10 1017 57 10000 1.54 300 10:39 20.04.2022
4109 Clear 6 1017 75 10000 1.54 360 09:28 20.04.2022
4110 Clear 5 1017 81 10000 0.51 0 08:27 20.04.2022
4111 Clear 3 1017 80 10000 0.51 290 07:44 20.04.2022
4112 Clouds 2 1017 87 10000 1.41 57 05:29 20.04.2022
4113 Clouds 5 1018 84 10000 1.22 68 01:35 20.04.2022
4114 Clear 6 1018 81 10000 1.39 70 00:21 20.04.2022
4115 Clear 7 1017 79 10000 1.61 68 22:44 19.04.2022
4116 Clear 8 1017 78 10000 1.7 67 22:23 19.04.2022
4117 Clear 11 1017 78 10000 1.7 67 21:46 19.04.2022
4118 Clear 13 1014 37 10000 4.63 50 20:57 19.04.2022
4119 Clear 13 1014 37 10000 4.63 50 20:37 19.04.2022
4120 Clear 14 1014 35 10000 4.63 50 19:32 19.04.2022
4121 Clear 15 1013 38 10000 4.63 30 18:27 19.04.2022
4122 Clear 16 1013 29 10000 4.63 10 16:50 19.04.2022
4123 Clear 16 1013 31 10000 4.12 10 16:25 19.04.2022
4124 Clear 15 1014 30 10000 4.12 40 15:57 19.04.2022
4125 Clear 15 1014 30 10000 3.6 10 14:44 19.04.2022
4126 Clear 14 1014 38 10000 3.09 10 12:53 19.04.2022
4127 Clear 13 1014 43 10000 3.6 20 12:31 19.04.2022
4128 Clear 12 1014 54 10000 1.03 0 11:27 19.04.2022
4129 Clear 8 1015 70 10000 1.54 260 09:35 19.04.2022
4130 Clear 3 1014 81 10000 1.54 260 07:43 19.04.2022
4131 Clear 3 1014 81 10000 1.54 260 07:43 19.04.2022
4132 Clouds 4 1015 78 10000 0.95 28 04:25 19.04.2022
4133 Clouds 5 1016 78 10000 1 60 01:41 19.04.2022
4134 Clouds 7 1017 76 10000 1.05 86 23:49 18.04.2022
4135 Clear 10 1016 46 10000 1.54 20 22:46 18.04.2022
4136 Clear 12 1016 46 10000 2.57 40 21:25 18.04.2022
4137 Clear 13 1016 43 10000 3.09 60 20:39 18.04.2022
4138 Clear 16 1016 38 10000 2.06 20 19:59 18.04.2022
4139 Clear 16 1016 38 10000 2.06 20 19:33 18.04.2022
4140 Clear 17 1016 27 10000 2.06 360 18:45 18.04.2022
4141 Clear 17 1017 27 10000 1.54 0 17:49 18.04.2022
4142 Clear 17 1017 29 10000 2.06 0 17:19 18.04.2022
4143 Clear 16 1017 31 10000 2.06 20 16:38 18.04.2022
4144 Clear 16 1018 33 10000 1.54 80 15:32 18.04.2022
4145 Clear 15 1019 35 10000 2.57 70 14:27 18.04.2022
4146 Clear 15 1020 38 10000 2.57 100 12:56 18.04.2022
4147 Clear 14 1020 35 10000 3.09 120 12:24 18.04.2022
4148 Clear 11 1021 43 10000 3.09 0 10:46 18.04.2022
4149 Clear 10 1021 53 10000 3.09 90 09:32 18.04.2022
4150 Clear 5 1021 81 10000 1.54 90 08:46 18.04.2022
4151 Clear 3 1022 83 10000 0.82 112 07:25 18.04.2022
4152 Clear 3 1023 84 10000 1.43 92 02:45 18.04.2022
4153 Clear 7 1024 56 10000 2.06 130 23:23 17.04.2022
4154 Clear 8 1024 46 10000 2.57 140 22:37 17.04.2022
4155 Clear 10 1024 43 10000 3.09 120 21:34 17.04.2022
4156 Clear 11 1024 37 10000 4.12 100 20:52 17.04.2022
4157 Clear 13 1024 30 10000 4.12 100 20:19 17.04.2022
4158 Clear 15 1024 23 10000 5.14 80 18:58 17.04.2022
4159 Clear 15 1025 21 10000 4.63 110 17:31 17.04.2022
4160 Clear 15 1027 21 10000 4.63 90 15:37 17.04.2022
4161 Clear 15 1027 26 10000 3.09 80 14:46 17.04.2022
4162 Clear 13 1028 37 10000 2.06 100 13:37 17.04.2022
4163 Clear 12 1029 40 10000 2.57 0 12:49 17.04.2022
4164 Clear 9 1030 49 10000 3.6 90 10:59 17.04.2022
4165 Clear 9 1030 53 10000 1.54 120 10:29 17.04.2022
4166 Clear 7 1030 57 10000 2.57 90 09:55 17.04.2022
4167 Clear 6 1030 70 10000 2.06 80 09:21 17.04.2022
4168 Clear 4 1030 70 10000 1.54 120 08:41 17.04.2022
4169 Clear 2 1032 83 10000 1.06 91 06:29 17.04.2022
4170 Clear 2 1033 79 10000 1.2 97 02:26 17.04.2022
4171 Clear 2 1034 77 10000 1.1 91 00:42 17.04.2022
4172 Clear 5 1033 60 10000 1.03 0 23:38 16.04.2022
4173 Clear 7 1032 53 10000 3.09 80 21:49 16.04.2022
4174 Clear 9 1032 46 10000 3.09 80 20:54 16.04.2022
4175 Clear 13 1032 32 10000 4.63 80 19:28 16.04.2022
4176 Clear 13 1032 32 10000 4.63 80 18:44 16.04.2022
4177 Clear 13 1032 32 10000 4.12 80 17:21 16.04.2022
4178 Clear 13 1032 32 10000 5.14 90 16:19 16.04.2022
4179 Clear 13 1033 30 10000 6.17 70 14:59 16.04.2022
4180 Clear 13 1033 30 10000 6.17 70 14:41 16.04.2022
4181 Clear 11 1033 35 10000 6.69 70 13:50 16.04.2022
4182 Clear 11 1033 34 10000 6.69 100 13:18 16.04.2022
4183 Clear 9 1033 36 10000 6.17 90 11:50 16.04.2022
4184 Clouds 7 1033 45 10000 5.66 110 10:35 16.04.2022
4185 Clouds 8 1032 65 10000 4.63 70 09:37 16.04.2022
4186 Clouds 7 1032 81 10000 4.63 50 08:52 16.04.2022
4187 Clouds 5 1032 91 10000 3.13 69 07:22 16.04.2022
4188 Clouds 8 1030 87 10000 4.12 50 05:38 16.04.2022
4189 Clouds 9 1030 95 10000 2.42 24 01:49 16.04.2022
4190 Clouds 10 1030 93 10000 1.98 11 23:52 15.04.2022
4191 Clouds 10 1029 81 10000 2.06 30 22:51 15.04.2022
4192 Clouds 10 1029 81 10000 3.09 30 22:29 15.04.2022
4193 Clouds 9 1029 87 10000 2.13 18 21:25 15.04.2022
4194 Clouds 11 1027 76 10000 2.57 330 20:38 15.04.2022
4195 Clouds 12 1027 66 10000 3.6 340 19:46 15.04.2022
4196 Clouds 12 1027 66 10000 3.09 350 19:23 15.04.2022
4197 Clouds 12 1027 66 10000 3.09 320 18:42 15.04.2022
4198 Clouds 11 1027 71 10000 3.09 320 18:22 15.04.2022
4199 Clouds 11 1027 71 10000 3.6 350 17:27 15.04.2022
4200 Clouds 11 1027 66 10000 4.12 350 16:25 15.04.2022
4201 Clouds 11 1027 71 10000 4.12 340 15:46 15.04.2022
4202 Clouds 9 1026 76 10000 3.6 300 14:18 15.04.2022
4203 Clouds 8 1027 81 10000 3.6 320 12:52 15.04.2022
4204 Clouds 8 1026 81 10000 4.63 320 12:26 15.04.2022
4205 Clouds 8 1026 81 10000 6.17 310 11:52 15.04.2022
4206 Clouds 8 1025 81 10000 6.69 330 10:48 15.04.2022
4207 Clouds 8 1025 87 10000 6.69 330 10:21 15.04.2022
4208 Clouds 9 1025 81 10000 4.12 320 09:23 15.04.2022
4209 Clouds 8 1024 81 10000 4.12 320 08:49 15.04.2022
4210 Clouds 5 1025 96 10000 2.11 322 06:51 15.04.2022
4211 Clear 7 1024 97 10000 1.66 306 04:49 15.04.2022
4212 Clouds 11 1023 93 10000 1.74 302 00:51 15.04.2022
4213 Clear 13 1022 76 10000 3.09 260 23:28 14.04.2022
4214 Clear 13 1022 71 10000 3.09 260 22:46 14.04.2022
4215 Clear 13 1022 71 10000 3.6 270 22:27 14.04.2022
4216 Clear 14 1021 76 10000 3.6 290 21:50 14.04.2022
4217 Clouds 16 1020 67 10000 3.6 320 19:51 14.04.2022
4218 Clouds 18 1020 55 10000 5.66 300 19:22 14.04.2022
4219 Clouds 17 1020 51 10000 2.06 280 17:46 14.04.2022
4220 Clouds 17 1020 55 10000 3.6 300 17:18 14.04.2022
4221 Clouds 17 1020 67 10000 1.03 0 16:21 14.04.2022
4222 Clouds 14 1021 82 10000 1.54 240 13:54 14.04.2022
4223 Clouds 14 1021 88 10000 1.03 0 13:25 14.04.2022
4224 Clouds 13 1021 87 10000 1.03 0 12:33 14.04.2022
4225 Rain 12 1021 93 7000 1.03 0 11:47 14.04.2022
4226 Rain 12 1021 93 7000 1.54 270 11:20 14.04.2022
4227 Rain 12 1021 93 7000 2.57 280 10:33 14.04.2022
4228 Rain 12 1020 93 7000 3.6 300 09:50 14.04.2022
4229 Clouds 12 1020 93 10000 3.09 300 08:35 14.04.2022
4230 Clouds 13 1018 99 10000 1.44 349 05:58 14.04.2022
4231 Clouds 14 1018 97 10000 2.21 342 01:23 14.04.2022
4232 Clouds 16 1018 94 10000 1.74 307 22:41 13.04.2022
4233 Clear 16 1017 63 10000 3.6 290 21:44 13.04.2022
4234 Clear 17 1017 63 10000 4.12 290 20:47 13.04.2022
4235 Clear 20 1016 52 10000 2.06 310 19:54 13.04.2022
4236 Clear 21 1016 49 10000 1.54 340 18:43 13.04.2022
4237 Clear 23 1016 37 10000 2.06 40 17:52 13.04.2022
4238 Clear 23 1016 37 10000 2.06 20 17:23 13.04.2022
4239 Clear 22 1016 37 10000 2.06 50 16:18 13.04.2022
4240 Clear 22 1016 37 10000 1.54 20 15:31 13.04.2022
4241 Clear 21 1016 35 10000 1.03 0 14:43 13.04.2022
4242 Clear 20 1016 39 10000 1.03 0 13:55 13.04.2022
4243 Clear 19 1016 45 10000 2.06 80 12:57 13.04.2022
4244 Clear 18 1016 45 10000 1.54 70 12:19 13.04.2022
4245 Clear 15 1016 44 10000 3.09 130 10:41 13.04.2022
4246 Clear 10 1015 71 10000 1.54 130 08:49 13.04.2022
4247 Clear 10 1014 61 10000 0.51 0 08:24 13.04.2022
4248 Clouds 7 1015 78 10000 1.99 170 06:50 13.04.2022
4249 Clouds 9 1014 75 10000 1.95 164 06:24 13.04.2022
4250 Clouds 8 1014 71 10000 1.66 138 02:27 13.04.2022
4251 Clouds 10 1015 70 10000 1.56 140 00:20 13.04.2022
4252 Clouds 10 1014 70 10000 1.57 132 22:45 12.04.2022
4253 Clouds 12 1014 70 10000 1.65 137 21:56 12.04.2022
4254 Clear 17 1012 41 10000 4.12 120 20:49 12.04.2022
4255 Clear 17 1012 41 10000 4.12 120 20:49 12.04.2022
4256 Clear 17 1012 41 10000 4.12 120 20:22 12.04.2022
4257 Clear 19 1012 34 10000 4.63 130 19:40 12.04.2022
4258 Clear 19 1012 34 10000 6.17 120 19:19 12.04.2022
4259 Clear 21 1012 30 10000 4.63 130 17:49 12.04.2022
4260 Clear 21 1012 32 10000 6.17 110 16:50 12.04.2022
4261 Clear 20 1013 32 10000 5.14 120 15:39 12.04.2022
4262 Clear 20 1013 32 10000 4.63 130 15:20 12.04.2022
4263 Clear 18 1013 36 10000 4.12 110 13:53 12.04.2022
4264 Clear 17 1013 41 10000 4.12 130 13:27 12.04.2022
4265 Clear 17 1013 41 10000 4.12 130 13:27 12.04.2022
4266 Clear 15 1014 41 10000 5.14 120 12:26 12.04.2022
4267 Clear 13 1015 47 10000 5.66 110 11:39 12.04.2022
4268 Clear 10 1015 57 10000 3.09 90 09:59 12.04.2022
4269 Clear 7 1014 65 10000 3.6 110 08:53 12.04.2022
4270 Clouds 4 1016 73 10000 1.76 128 07:21 12.04.2022
4271 Clouds 2 1016 72 10000 1.6 121 05:47 12.04.2022
4272 Clouds 4 1016 71 10000 1.51 106 02:53 12.04.2022
4273 Clouds 6 1018 71 10000 1.57 121 23:25 11.04.2022
4274 Clear 7 1016 61 10000 2.57 140 22:44 11.04.2022
4275 Clear 9 1016 57 10000 1.03 0 21:36 11.04.2022
4276 Clear 11 1015 46 10000 1.54 120 20:49 11.04.2022
4277 Clear 12 1015 46 10000 1.03 80 20:28 11.04.2022
4278 Clear 14 1015 35 10000 2.06 100 19:29 11.04.2022
4279 Clear 14 1016 35 10000 2.57 160 18:59 11.04.2022
4280 Clear 14 1016 35 10000 2.57 160 18:33 11.04.2022
4281 Clear 14 1016 33 10000 2.06 150 17:43 11.04.2022
4282 Clear 14 1016 33 10000 2.57 140 16:36 11.04.2022
4283 Clear 13 1017 40 10000 3.09 130 15:21 11.04.2022
4284 Clear 12 1018 37 10000 2.57 0 13:37 11.04.2022
4285 Clear 11 1019 43 10000 3.09 210 12:41 11.04.2022
4286 Clear 11 1019 46 10000 3.09 210 12:22 11.04.2022
4287 Clear 7 1019 61 10000 2.57 140 10:47 11.04.2022
4288 Clear 4 1020 75 10000 1.54 110 09:58 11.04.2022
4289 Clear 1 1020 86 10000 2.06 100 08:22 11.04.2022
4290 Clear 0 1020 93 10000 1.03 0 04:56 11.04.2022
4291 Clouds 1 1022 87 10000 1.54 186 00:30 11.04.2022
4292 Clear 3 1020 87 10000 2.06 210 22:27 10.04.2022
4293 Clear 3 1020 87 10000 2.06 210 22:27 10.04.2022
4294 Clear 4 1020 81 10000 1.03 200 21:53 10.04.2022
4295 Clear 6 1020 70 10000 1.54 240 20:55 10.04.2022
4296 Clouds 6 1020 75 10000 1.54 300 20:18 10.04.2022
4297 Clouds 7 1020 65 10000 3.09 330 19:36 10.04.2022
4298 Clouds 7 1019 65 10000 3.09 10 18:50 10.04.2022
4299 Clouds 6 1019 75 10000 6.17 350 18:26 10.04.2022
4300 Clouds 9 1019 53 10000 6.69 310 17:44 10.04.2022
4301 Clouds 8 1019 61 10000 8.23 300 16:57 10.04.2022
4302 Clouds 8 1018 57 10000 8.75 290 15:38 10.04.2022
4303 Clouds 5 1019 87 10000 4.12 270 14:41 10.04.2022
4304 Rain 7 1018 56 10000 9.26 290 13:28 10.04.2022
4305 Clouds 7 1018 56 10000 9.26 290 12:27 10.04.2022
4306 Clouds 7 1018 56 10000 7.72 290 11:38 10.04.2022
4307 Rain 5 1018 70 10000 7.2 290 10:59 10.04.2022
4308 Clouds 5 1018 75 10000 6.17 290 10:27 10.04.2022
4309 Clouds 5 1018 81 10000 6.17 280 09:41 10.04.2022
4310 Clouds 3 1017 87 10000 4.63 270 08:26 10.04.2022
4311 Clouds 3 1017 87 10000 4.63 280 07:53 10.04.2022
4312 Clouds 3 1018 93 10000 3.35 270 06:59 10.04.2022
4313 Clouds 3 1017 95 10000 2.61 236 03:36 10.04.2022
4314 Clouds 3 1017 95 10000 2.61 236 03:36 10.04.2022
4315 Clouds 3 1017 95 10000 2.61 236 03:36 10.04.2022
4316 Clouds 3 1014 80 10000 4.12 280 01:30 10.04.2022
4317 Clouds 2 1014 93 10000 2.57 240 23:53 09.04.2022
4318 Clouds 2 1015 92 10000 2.9 265 22:52 09.04.2022
4319 Clouds 3 1015 89 10000 3.67 278 22:24 09.04.2022
4320 Clouds 4 1012 81 10000 5.14 280 21:18 09.04.2022
4321 Clouds 4 1012 87 10000 5.66 280 20:27 09.04.2022
4322 Clouds 4 1012 87 10000 9.26 300 19:49 09.04.2022
4323 Clouds 7 1011 65 10000 8.75 280 19:30 09.04.2022
4324 Rain 7 1010 65 10000 9.26 290 18:23 09.04.2022
4325 Clouds 7 1010 65 10000 10.29 290 17:43 09.04.2022
4326 Clouds 6 1010 81 10000 9.26 270 16:55 09.04.2022
4327 Clouds 8 1009 65 10000 9.77 270 16:29 09.04.2022
4328 Clouds 8 1009 65 10000 12.35 290 15:48 09.04.2022
4329 Clouds 8 1009 65 10000 12.35 290 15:48 09.04.2022
4330 Clouds 7 1009 70 10000 10.8 280 15:25 09.04.2022
4331 Clouds 4 1009 81 9000 14.4 300 14:25 09.04.2022
4332 Clouds 6 1008 81 10000 7.72 300 13:24 09.04.2022
4333 Clouds 6 1008 87 10000 5.14 270 12:53 09.04.2022
4334 Clouds 5 1007 87 9000 6.17 290 11:44 09.04.2022
4335 Clouds 5 1007 81 10000 7.72 280 10:22 09.04.2022
4336 Clouds 5 1006 87 10000 6.69 290 09:53 09.04.2022
4337 Clouds 4 1005 87 10000 5.66 280 08:59 09.04.2022
4338 Clouds 4 1004 87 10000 6.17 280 07:44 09.04.2022
4339 Clouds 4 1000 90 10000 4.74 302 03:22 09.04.2022
4340 Clouds 4 998 80 10000 2.3 305 00:32 09.04.2022
4341 Clear 5 996 60 10000 1.03 250 22:58 08.04.2022
4342 Clear 5 996 65 10000 2.06 260 21:35 08.04.2022
4343 Clear 5 996 75 10000 2.57 300 20:41 08.04.2022
4344 Clouds 7 996 61 10000 4.63 310 19:41 08.04.2022
4345 Clouds 7 995 53 10000 4.63 300 18:38 08.04.2022
4346 Clouds 7 995 53 10000 4.63 280 17:59 08.04.2022
4347 Clouds 8 995 53 10000 3.6 250 17:27 08.04.2022
4348 Clouds 8 995 53 10000 4.12 230 16:52 08.04.2022
4349 Clouds 8 995 53 10000 4.12 250 16:22 08.04.2022
4350 Clouds 8 996 53 10000 4.63 250 15:28 08.04.2022
4351 Clouds 8 996 57 10000 4.63 230 14:44 08.04.2022
4352 Clouds 8 997 61 10000 3.6 240 13:55 08.04.2022
4353 Clouds 8 997 57 10000 3.6 230 13:30 08.04.2022
4354 Clouds 8 997 61 10000 4.63 240 12:42 08.04.2022
4355 Clouds 6 999 65 10000 5.66 250 10:56 08.04.2022
4356 Clouds 6 998 65 10000 4.12 270 09:41 08.04.2022
4357 Clouds 5 998 75 10000 5.66 270 08:59 08.04.2022
4358 Clouds 5 997 75 10000 6.69 270 07:42 08.04.2022
4359 Clouds 5 999 82 10000 6.68 273 06:44 08.04.2022
4360 Clouds 7 993 78 10000 10.75 265 02:29 08.04.2022
4361 Clouds 6 990 66 10000 11.81 250 00:28 08.04.2022
4362 Clouds 6 990 66 10000 11.81 250 23:42 07.04.2022
4363 Clouds 6 990 67 10000 11.07 249 22:41 07.04.2022
4364 Clouds 6 989 65 10000 10.59 247 22:22 07.04.2022
4365 Clouds 5 989 65 10000 10.59 247 21:58 07.04.2022
4366 Clouds 7 989 65 10000 10.36 250 21:28 07.04.2022
4367 Clouds 6 986 75 10000 11.83 240 20:42 07.04.2022
4368 Clouds 9 986 71 10000 9.26 240 19:25 07.04.2022
4369 Clouds 9 984 71 10000 11.83 290 17:28 07.04.2022
4370 Clouds 12 983 54 10000 9.26 260 16:51 07.04.2022
4371 Clouds 12 983 54 10000 9.26 260 16:33 07.04.2022
4372 Clouds 12 983 58 10000 9.26 260 15:40 07.04.2022
4373 Clouds 11 981 82 9000 11.83 190 13:52 07.04.2022
4374 Clouds 11 981 87 9000 10.8 200 13:23 07.04.2022
4375 Clouds 11 984 81 10000 10.8 190 11:52 07.04.2022
4376 Drizzle 10 985 76 10000 11.83 200 10:46 07.04.2022
4377 Clouds 10 989 76 10000 8.75 190 08:43 07.04.2022
4378 Clouds 8 992 87 10000 8.51 218 06:59 07.04.2022
4379 Clouds 8 994 84 10000 8.26 217 05:21 07.04.2022
4380 Clouds 8 995 82 10000 8.13 225 02:34 07.04.2022
4381 Clouds 10 997 80 10000 8.27 228 00:43 07.04.2022
4382 Clouds 10 998 78 10000 7.46 224 23:28 06.04.2022
4383 Clouds 10 998 78 10000 7.46 224 22:44 06.04.2022
4384 Clouds 10 998 78 10000 7.31 222 22:19 06.04.2022
4385 Clear 11 998 62 10000 6.17 200 20:47 06.04.2022
4386 Clear 10 998 62 10000 6.69 200 19:59 06.04.2022
4387 Clear 11 998 62 10000 7.2 200 19:24 06.04.2022
4388 Clouds 11 999 62 10000 7.2 210 18:48 06.04.2022
4389 Clouds 12 999 58 10000 6.17 230 17:36 06.04.2022
4390 Clouds 12 1000 58 10000 7.2 220 16:56 06.04.2022
4391 Clouds 12 1000 58 10000 7.2 220 16:32 06.04.2022
4392 Clouds 12 1000 58 10000 7.72 220 15:43 06.04.2022
4393 Clouds 10 1002 66 10000 7.2 240 13:34 06.04.2022
4394 Clouds 10 1002 66 10000 5.66 230 12:30 06.04.2022
4395 Clouds 9 1002 71 10000 5.66 240 10:57 06.04.2022
4396 Clouds 9 1002 71 10000 5.66 240 10:33 06.04.2022
4397 Clouds 9 1003 76 10000 6.17 220 09:46 06.04.2022
4398 Clouds 9 1002 81 10000 5.66 220 08:59 06.04.2022
4399 Clouds 9 1002 81 10000 6.17 220 07:59 06.04.2022
4400 Clouds 9 1004 91 10000 6.02 233 05:45 06.04.2022
4401 Clouds 9 1005 97 7776 4.21 225 00:45 06.04.2022
4402 Clouds 10 1006 97 7546 4.57 225 23:48 05.04.2022
4403 Clouds 10 1006 95 10000 5.27 254 21:50 05.04.2022
4404 Clouds 10 1005 94 10000 6.22 260 20:59 05.04.2022
4405 Clouds 11 1003 81 10000 5.66 260 20:23 05.04.2022
4406 Clouds 12 1003 76 10000 5.66 270 18:31 05.04.2022
4407 Clouds 11 1003 87 10000 3.6 270 17:21 05.04.2022
4408 Clouds 11 1004 87 6000 4.63 280 16:42 05.04.2022
4409 Clouds 11 1004 87 10000 4.63 270 15:51 05.04.2022
4410 Clouds 11 1004 87 10000 4.12 280 15:30 05.04.2022
4411 Mist 9 1004 93 2900 1.03 0 13:46 05.04.2022
4412 Mist 8 1004 93 4100 1.03 0 12:33 05.04.2022
4413 Clouds 8 1004 93 10000 3.09 240 11:43 05.04.2022
4414 Clouds 7 1004 93 10000 3.6 240 11:24 05.04.2022
4415 Drizzle 7 1004 93 10000 2.57 270 09:31 05.04.2022
4416 Drizzle 7 1004 93 10000 3.09 250 08:33 05.04.2022
4417 Clouds 5 1003 97 3933 3.53 261 03:50 05.04.2022
4418 Clouds 4 1005 95 7992 7.13 235 23:42 04.04.2022
4419 Clouds 5 1005 96 6615 7.59 236 22:37 04.04.2022
4420 Clouds 4 1005 96 7078 7.95 238 21:48 04.04.2022
4421 Clouds 4 1005 96 5135 8.64 240 21:19 04.04.2022
4422 Clouds 5 1003 81 10000 8.75 230 20:47 04.04.2022
4423 Clouds 4 1003 87 10000 9.77 230 19:28 04.04.2022
4424 Clouds 5 1003 81 10000 9.77 230 18:44 04.04.2022
4425 Clouds 5 1004 75 10000 9.26 220 17:21 04.04.2022
4426 Clouds 5 1005 75 10000 8.23 220 16:34 04.04.2022
4427 Clouds 4 1005 75 10000 9.26 220 15:34 04.04.2022
4428 Clouds 6 1006 60 10000 9.77 220 14:46 04.04.2022
4429 Clouds 5 1007 75 10000 8.75 220 14:28 04.04.2022
4430 Clouds 6 1008 52 10000 8.75 210 12:59 04.04.2022
4431 Clear 4 1010 60 10000 7.2 210 11:29 04.04.2022
4432 Clear 3 1011 65 10000 7.2 210 10:29 04.04.2022
4433 Clear 1 1014 80 10000 4.63 210 06:58 04.04.2022
4434 Clouds 1 1019 95 10000 2.7 198 03:18 04.04.2022
4435 Clouds 3 1021 95 10000 2.21 215 23:47 03.04.2022
4436 Clouds 2 1021 92 10000 2.01 234 22:24 03.04.2022
4437 Clouds 2 1021 92 10000 2.01 234 21:32 03.04.2022
4438 Clouds 3 1019 70 10000 4.12 280 20:35 03.04.2022
4439 Clouds 5 1018 60 10000 4.12 290 18:51 03.04.2022
4440 Clouds 5 1019 60 10000 6.69 290 17:57 03.04.2022
4441 Clouds 5 1019 60 10000 6.69 290 17:37 03.04.2022
4442 Clouds 6 1019 52 10000 6.69 280 16:50 03.04.2022
4443 Clouds 4 1019 56 10000 5.66 290 15:57 03.04.2022
4444 Clouds 5 1020 48 10000 4.63 280 14:27 03.04.2022
4445 Clouds 3 1020 52 10000 5.14 290 13:34 03.04.2022
4446 Clear 3 1021 51 10000 3.6 280 11:51 03.04.2022
4447 Clouds 1 1021 64 10000 2.06 280 09:59 03.04.2022
4448 Clouds -2 1020 64 10000 0.51 0 09:18 03.04.2022
4449 Clouds -4 1023 95 10000 0.34 307 06:41 03.04.2022
4450 Clouds 0 1022 94 10000 1.71 348 02:56 03.04.2022
4451 Clouds 0 1021 90 10000 2.2 358 23:50 02.04.2022
4452 Clouds 1 1020 83 10000 3.15 19 22:51 02.04.2022
4453 Clouds 2 1019 81 10000 4.19 17 21:56 02.04.2022
4454 Clouds 2 1019 81 10000 4.19 17 21:56 02.04.2022
4455 Clouds 2 1018 90 10000 2.27 349 21:21 02.04.2022
4456 Clouds 3 1016 60 10000 2.06 20 20:39 02.04.2022
4457 Clouds 4 1015 52 10000 3.09 10 18:49 02.04.2022
4458 Clouds 4 1015 56 10000 4.63 30 18:20 02.04.2022
4459 Clouds 4 1015 56 10000 2.57 350 17:42 02.04.2022
4460 Clouds 3 1014 64 10000 3.09 10 15:58 02.04.2022
4461 Clouds 2 1014 64 10000 5.14 20 15:20 02.04.2022
4462 Clouds 2 1014 69 10000 5.66 10 14:32 02.04.2022
4463 Clouds 2 1014 69 10000 5.14 10 13:34 02.04.2022
4464 Clouds 2 1014 64 10000 6.69 40 12:32 02.04.2022
4465 Clouds 1 1013 69 10000 6.17 40 10:46 02.04.2022
4466 Clouds 0 1011 74 10000 3.6 10 08:33 02.04.2022
4467 Clouds -1 1012 91 10000 5.33 21 05:58 02.04.2022
4468 Clouds 0 1011 91 10000 5.02 20 03:28 02.04.2022
4469 Snow 0 1011 95 1112 5.8 27 23:55 01.04.2022
4470 Snow 0 1011 94 981 6.39 28 22:51 01.04.2022
4471 Clouds 0 1009 84 10000 6.51 26 21:27 01.04.2022
4472 Clouds 1 1006 69 10000 7.2 60 20:49 01.04.2022
4473 Clouds 2 1006 60 10000 6.69 50 19:50 01.04.2022
4474 Clouds 2 1006 64 10000 7.2 60 19:26 01.04.2022
4475 Clouds 1 1006 69 10000 8.23 50 18:42 01.04.2022
4476 Snow 1 1005 60 10000 7.72 50 17:45 01.04.2022
4477 Snow 1 1005 75 10000 5.14 30 16:33 01.04.2022
4478 Mist 0 1005 100 1800 3.6 10 15:18 01.04.2022
4479 Mist -1 1005 100 2500 5.14 20 14:18 01.04.2022
4480 Mist 0 1004 86 3300 6.17 30 13:32 01.04.2022
4481 Snow 0 1004 86 5000 6.17 30 12:30 01.04.2022
4482 Snow 0 1003 93 6000 4.63 20 10:54 01.04.2022
4483 Mist 0 1003 93 4500 4.63 30 09:53 01.04.2022
4484 Snow 0 1001 100 6000 4.12 20 07:50 01.04.2022
4485 Snow 0 1003 96 188 5.7 52 06:30 01.04.2022
4486 Snow 1 1002 96 214 5.8 53 04:44 01.04.2022
4487 Snow 1 1001 98 112 5.48 55 03:21 01.04.2022
4488 Snow 1 1001 98 37 5.01 60 01:52 01.04.2022
4489 Clouds 1 1001 99 29 3.53 60 22:37 31.03.2022
4490 Clouds 1 1000 99 30 3.51 63 21:49 31.03.2022
4491 Clouds 2 1000 98 33 3.8 69 21:21 31.03.2022
4492 Clouds 2 999 93 5000 3.6 40 20:28 31.03.2022
4493 Clouds 3 999 87 8000 4.12 50 19:44 31.03.2022
4494 Clouds 3 998 87 10000 6.17 80 18:35 31.03.2022
4495 Clouds 4 998 81 10000 5.66 90 17:25 31.03.2022
4496 Clouds 5 998 75 10000 7.2 100 15:58 31.03.2022
4497 Clouds 5 998 75 10000 6.69 70 15:29 31.03.2022
4498 Clouds 5 998 70 10000 6.69 90 14:52 31.03.2022
4499 Clouds 5 998 70 10000 5.66 90 14:19 31.03.2022
4500 Clouds 5 999 75 8000 5.14 100 11:31 31.03.2022
4501 Clouds 5 999 75 8000 6.17 100 10:41 31.03.2022
4502 Clouds 5 999 75 8000 5.14 90 09:43 31.03.2022
4503 Clouds 4 999 87 8000 2.06 80 07:49 31.03.2022
4504 Clouds 1 1002 94 10000 1.39 89 03:48 31.03.2022
4505 Clouds 5 1003 86 10000 1.16 124 23:27 30.03.2022
4506 Clouds 5 1003 85 10000 1.46 101 22:20 30.03.2022
4507 Clouds 6 1003 85 10000 1.46 100 21:32 30.03.2022
4508 Clouds 7 1001 57 10000 3.09 70 20:44 30.03.2022
4509 Clouds 9 1001 49 10000 3.09 80 19:54 30.03.2022
4510 Clouds 10 1001 49 10000 2.57 50 18:50 30.03.2022
4511 Clouds 11 1001 50 10000 3.09 10 17:52 30.03.2022
4512 Clouds 11 1001 50 10000 3.6 60 17:29 30.03.2022
4513 Clouds 11 1001 46 10000 2.06 0 16:41 30.03.2022
4514 Clouds 11 1001 43 10000 1.03 0 16:18 30.03.2022
4515 Clouds 11 1002 53 10000 1.03 0 14:42 30.03.2022
4516 Clouds 10 1003 57 10000 2.06 0 13:23 30.03.2022
4517 Clouds 8 1003 66 10000 1.54 360 12:32 30.03.2022
4518 Clear 6 1004 81 10000 1.03 0 10:48 30.03.2022
4519 Clouds 5 1004 81 9000 0.51 0 09:58 30.03.2022
4520 Clouds 4 1004 87 9000 1.54 30 08:27 30.03.2022
4521 Clouds 3 1006 82 10000 1.79 29 07:28 30.03.2022
4522 Clouds 5 1006 80 10000 1.74 30 05:40 30.03.2022
4523 Clouds 4 1007 79 10000 1.78 35 02:32 30.03.2022
4524 Clouds 8 1009 80 10000 1.88 34 22:43 29.03.2022
4525 Clouds 8 1009 80 10000 2.22 43 21:52 29.03.2022
4526 Clouds 8 1009 80 10000 2.22 43 21:34 29.03.2022
4527 Clear 9 1008 61 10000 3.09 340 20:26 29.03.2022
4528 Clear 11 1008 62 10000 2.06 340 19:32 29.03.2022
4529 Clear 12 1008 54 10000 3.09 360 18:53 29.03.2022
4530 Clear 12 1009 46 10000 3.09 340 17:52 29.03.2022
4531 Clear 13 1009 43 10000 3.6 330 17:18 29.03.2022
4532 Clear 12 1009 50 10000 4.12 330 16:52 29.03.2022
4533 Clear 12 1010 54 10000 3.09 340 15:29 29.03.2022
4534 Clear 11 1011 62 10000 2.57 330 14:43 29.03.2022
4535 Clouds 10 1012 71 9000 1.54 330 13:34 29.03.2022
4536 Clouds 8 1013 76 8000 1.54 240 12:21 29.03.2022
4537 Clouds 6 1013 87 6000 2.57 300 10:59 29.03.2022
4538 Mist 5 1013 100 4000 2.57 310 09:51 29.03.2022
4539 Mist 6 1013 93 2500 3.09 310 08:43 29.03.2022
4540 Clouds 5 1015 97 10000 1.5 349 06:21 29.03.2022
4541 Clouds 6 1017 95 10000 0.9 326 02:19 29.03.2022
4542 Clouds 8 1018 94 10000 1.64 344 23:26 28.03.2022
4543 Clouds 8 1018 94 10000 1.64 344 23:26 28.03.2022
4544 Clouds 10 1018 94 10000 1.64 344 22:56 28.03.2022
4545 Clouds 9 1018 94 10000 1.64 344 22:31 28.03.2022
4546 Clear 11 1017 71 10000 4.63 290 21:38 28.03.2022
4547 Clear 12 1017 66 10000 4.12 310 20:32 28.03.2022
4548 Clear 15 1017 47 10000 4.12 310 19:47 28.03.2022
4549 Clear 16 1017 41 10000 5.66 320 19:29 28.03.2022
4550 Clear 17 1017 39 10000 6.17 310 18:40 28.03.2022
4551 Clear 18 1017 45 10000 6.69 310 17:40 28.03.2022
4552 Clouds 18 1018 45 10000 5.66 310 16:38 28.03.2022
4553 Clouds 18 1020 55 10000 1.54 0 14:53 28.03.2022
4554 Clouds 18 1020 55 10000 1.03 0 14:23 28.03.2022
4555 Clear 15 1022 63 10000 2.06 100 12:51 28.03.2022
4556 Clear 13 1022 67 10000 1.54 90 11:42 28.03.2022
4557 Clear 8 1023 87 9000 1.03 0 09:47 28.03.2022
4558 Clear 6 1024 93 9000 2.06 130 09:20 28.03.2022
4559 Fog 3 1024 93 8000 0.51 140 08:23 28.03.2022
4560 Fog 3 1024 93 8000 0.51 0 07:56 28.03.2022
4561 Clear 2 1026 92 10000 0.81 156 05:55 28.03.2022
4562 Clear 8 1029 84 10000 0.82 45 23:53 27.03.2022
4563 Clear 8 1029 78 10000 1.42 32 22:25 27.03.2022
4564 Clear 9 1029 78 10000 1.42 31 22:25 27.03.2022
4565 Clear 8 1029 78 10000 1.42 32 22:25 27.03.2022
4566 Clear 8 1029 78 10000 1.42 31 21:42 27.03.2022
4567 Clear 10 1029 75 10000 1.56 15 20:58 27.03.2022
4568 Clear 16 1028 58 10000 1.03 40 19:53 27.03.2022
4569 Clear 16 1028 58 10000 1.03 40 19:34 27.03.2022
4570 Clear 17 1028 51 10000 1.03 0 18:29 27.03.2022
4571 Clouds 16 1028 55 10000 1.03 0 17:42 27.03.2022
4572 Clouds 17 1029 55 10000 1.54 90 17:23 27.03.2022
4573 Clouds 16 1029 55 10000 1.54 0 15:39 27.03.2022
4574 Clouds 13 1031 71 10000 1.54 330 13:57 27.03.2022
4575 Clouds 12 1031 76 9000 1.54 350 12:50 27.03.2022
4576 Clouds 10 1031 87 9000 1.03 0 11:30 27.03.2022
4577 Clouds 8 1031 93 9000 1.54 280 09:32 27.03.2022
4578 Clouds 4 1031 98 10000 0.95 7 06:44 27.03.2022
4579 Clouds 10 1031 98 10000 0.71 6 01:41 27.03.2022
4580 Clouds 6 1032 97 10000 1.5 11 00:24 27.03.2022
4581 Clouds 10 1032 96 10000 1.9 10 22:43 26.03.2022
4582 Clouds 10 1032 94 10000 1.99 7 21:46 26.03.2022
4583 Clouds 9 1032 89 10000 2.17 3 21:25 26.03.2022
4584 Clear 13 1029 62 10000 3.6 310 19:31 26.03.2022
4585 Clear 16 1029 44 10000 4.12 330 17:54 26.03.2022
4586 Clear 17 1029 44 10000 4.12 330 17:33 26.03.2022
4587 Clear 17 1029 39 10000 6.17 320 16:27 26.03.2022
4588 Clear 17 1030 39 10000 6.17 340 15:23 26.03.2022
4589 Clear 17 1030 41 10000 4.63 310 13:54 26.03.2022
4590 Clear 16 1031 51 10000 3.09 340 13:18 26.03.2022
4591 Clear 14 1031 50 10000 3.09 330 11:41 26.03.2022
4592 Clear 14 1031 50 10000 3.09 330 11:41 26.03.2022
4593 Clear 14 1031 50 10000 3.09 330 11:41 26.03.2022
4594 Clear 10 1031 66 9000 1.03 0 10:29 26.03.2022
4595 Clear 6 1031 70 9000 1.54 260 08:44 26.03.2022
4596 Clear 4 1031 87 10000 1.4 355 06:25 26.03.2022
4597 Clear 4 1031 85 10000 0.8 357 05:22 26.03.2022
4598 Clear 5 1031 75 10000 1.06 20 00:28 26.03.2022
4599 Clear 5 1031 74 10000 1.1 64 21:51 25.03.2022
4600 Clear 9 1029 53 10000 2.06 40 20:46 25.03.2022
4601 Clear 12 1029 46 10000 2.06 30 19:38 25.03.2022
4602 Clear 14 1028 41 10000 2.06 30 18:47 25.03.2022
4603 Clear 16 1028 33 10000 2.06 50 17:47 25.03.2022
4604 Clear 17 1028 31 10000 2.57 70 17:27 25.03.2022
4605 Clear 17 1029 27 10000 3.09 80 16:18 25.03.2022
4606 Clear 16 1029 23 10000 3.6 80 14:26 25.03.2022
4607 Clear 15 1030 30 10000 2.06 70 12:57 25.03.2022
4608 Clear 9 1030 61 10000 1.54 0 10:22 25.03.2022
4609 Clear 6 1029 75 10000 0.51 0 09:28 25.03.2022
4610 Clear 2 1029 80 10000 0 0 07:54 25.03.2022
4611 Clear 2 1029 86 10000 1.03 220 07:27 25.03.2022
4612 Clear 2 1029 76 10000 1.38 22 05:55 25.03.2022
4613 Clear 5 1029 66 10000 1.17 28 00:46 25.03.2022
4614 Clear 7 1029 63 10000 1.37 38 22:39 24.03.2022
4615 Clear 7 1029 62 10000 1.67 38 21:42 24.03.2022
4616 Clear 12 1027 37 10000 2.06 30 19:51 24.03.2022
4617 Clear 12 1027 43 10000 3.09 350 19:33 24.03.2022
4618 Clear 16 1027 31 10000 3.6 360 17:46 24.03.2022
4619 Clear 17 1027 29 10000 4.12 350 17:19 24.03.2022
4620 Clear 18 1028 27 10000 3.09 340 15:21 24.03.2022
4621 Clear 18 1028 25 10000 2.05 334 14:43 24.03.2022
4622 Clear 18 1028 25 10000 1.54 0 14:18 24.03.2022
4623 Clear 16 1029 29 10000 2.06 350 12:47 24.03.2022
4624 Clear 13 1029 38 10000 1.03 0 11:44 24.03.2022
4625 Clear 7 1029 57 10000 1.03 0 09:53 24.03.2022
4626 Clear 6 1029 56 10000 0.51 0 08:41 24.03.2022
4627 Clear -2 1029 73 10000 0.4 93 06:49 24.03.2022
4628 Clear 4 1029 67 10000 0.73 52 02:24 24.03.2022
4629 Clear 8 1031 63 10000 0.87 74 23:20 23.03.2022
4630 Clear 10 1029 40 10000 1.03 0 21:27 23.03.2022
4631 Clear 9 1029 46 10000 1.03 0 20:59 23.03.2022
4632 Clear 11 1029 32 10000 1.54 50 19:45 23.03.2022
4633 Clear 15 1029 26 10000 0.51 10 18:36 23.03.2022
4634 Clear 18 1029 22 10000 1.54 320 17:36 23.03.2022
4635 Clear 18 1029 19 10000 2.57 40 16:21 23.03.2022
4636 Clear 18 1030 22 10000 2.06 30 14:51 23.03.2022
4637 Clear 17 1030 20 10000 2.57 20 14:24 23.03.2022
4638 Clear 16 1031 23 10000 1.03 0 12:45 23.03.2022
4639 Clear 8 1031 53 10000 1.03 0 09:38 23.03.2022
4640 Clear -3 1032 63 10000 0.38 150 06:41 23.03.2022
4641 Clear 4 1031 61 10000 0.29 152 04:31 23.03.2022
4642 Clear 5 1032 52 10000 0.46 91 00:29 23.03.2022
4643 Clear 8 1032 51 10000 0.67 85 22:33 22.03.2022
4644 Clear 8 1032 47 10000 1.24 81 21:29 22.03.2022
4645 Clear 9 1031 40 10000 1.54 60 20:39 22.03.2022
4646 Clear 11 1030 35 10000 1.03 0 19:39 22.03.2022
4647 Clear 13 1030 35 10000 2.06 10 19:18 22.03.2022
4648 Clear 18 1030 23 10000 2.06 110 17:58 22.03.2022
4649 Clear 18 1030 23 10000 2.57 90 17:29 22.03.2022
4650 Clear 17 1031 23 10000 1.54 60 15:59 22.03.2022
4651 Clear 17 1031 23 10000 2.57 130 15:22 22.03.2022
4652 Clear 17 1031 23 10000 2.57 90 14:46 22.03.2022
4653 Clear 17 1031 25 10000 1.54 0 14:26 22.03.2022
4654 Clear 15 1032 24 10000 3.09 100 12:55 22.03.2022
4655 Clear 13 1033 26 10000 3.09 110 11:48 22.03.2022
4656 Clear 11 1033 35 10000 1.54 120 10:35 22.03.2022
4657 Clear 5 1033 65 10000 0.51 0 08:24 22.03.2022
4658 Clear 3 1034 74 10000 1.27 152 05:21 22.03.2022
4659 Clear -1 1033 75 10000 1.35 154 03:46 22.03.2022
4660 Clear 4 1034 70 10000 1.26 154 23:59 21.03.2022
4661 Clear 7 1034 69 10000 1.44 141 22:29 21.03.2022
4662 Clear 10 1032 46 10000 4.12 120 20:54 21.03.2022
4663 Clear 10 1032 46 10000 4.12 120 20:33 21.03.2022
4664 Clear 10 1031 46 10000 3.09 130 19:58 21.03.2022
4665 Clear 12 1031 43 10000 2.57 130 19:25 21.03.2022
4666 Clear 15 1031 35 10000 3.6 100 18:18 21.03.2022
4667 Clear 16 1031 29 10000 3.09 120 17:18 21.03.2022
4668 Clear 17 1031 29 10000 3.6 120 16:42 21.03.2022
4669 Clear 17 1031 29 10000 3.09 140 15:48 21.03.2022
4670 Clear 16 1031 29 10000 4.12 130 14:56 21.03.2022
4671 Clear 15 1032 26 10000 2.06 120 13:58 21.03.2022
4672 Clear 14 1032 28 10000 2.06 150 12:35 21.03.2022
4673 Clear 12 1032 35 10000 1.03 0 11:45 21.03.2022
4674 Clear 10 1033 37 10000 2.06 140 10:36 21.03.2022
4675 Clear 4 1032 65 10000 2.57 90 08:30 21.03.2022
4676 Clear -2 1034 70 10000 1.75 147 06:38 21.03.2022
4677 Clear 1 1033 70 10000 1.55 131 02:51 21.03.2022
4678 Clear 3 1033 65 10000 1.57 119 23:43 20.03.2022
4679 Clear 5 1033 63 10000 2.05 117 22:44 20.03.2022
4680 Clear 5 1032 61 10000 2.38 122 21:52 20.03.2022
4681 Clear 7 1032 59 10000 2.36 131 21:23 20.03.2022
4682 Clear 9 1030 46 10000 3.09 100 20:43 20.03.2022
4683 Clear 9 1030 46 10000 3.09 100 19:59 20.03.2022
4684 Clear 12 1030 40 10000 5.14 130 19:31 20.03.2022
4685 Clear 14 1029 38 10000 6.17 120 18:22 20.03.2022
4686 Clear 15 1029 35 10000 7.72 120 17:33 20.03.2022
4687 Clear 15 1029 33 10000 7.72 120 16:57 20.03.2022
4688 Clear 15 1029 33 10000 6.69 130 15:34 20.03.2022
4689 Clear 13 1029 37 10000 7.2 120 14:35 20.03.2022
4690 Clear 11 1030 37 10000 8.23 120 12:35 20.03.2022
4691 Clear 9 1030 42 10000 7.2 120 11:23 20.03.2022
4692 Clear 5 1030 48 10000 7.72 100 09:26 20.03.2022
4693 Clouds 3 1033 64 10000 6.38 100 07:28 20.03.2022
4694 Clouds 2 1033 63 10000 6.29 97 05:40 20.03.2022
4695 Clouds 4 1034 55 10000 6.08 84 01:50 20.03.2022
4696 Clear 4 1035 54 10000 6.14 84 00:45 20.03.2022
4697 Clear 6 1036 51 10000 6.38 83 23:19 19.03.2022
4698 Clouds 5 1037 62 10000 6.63 78 21:27 19.03.2022
4699 Clouds 7 1036 53 10000 8.75 90 20:49 19.03.2022
4700 Clouds 8 1036 49 10000 5.66 70 18:58 19.03.2022
4701 Clouds 9 1036 46 10000 8.23 70 18:23 19.03.2022
4702 Clouds 9 1036 46 10000 8.75 70 17:35 19.03.2022
4703 Clouds 7 1037 56 10000 10.29 60 15:44 19.03.2022
4704 Clouds 10 1038 37 10000 8.23 80 14:44 19.03.2022
4705 Clouds 11 1040 37 10000 8.23 70 13:19 19.03.2022
4706 Clouds 11 1040 37 10000 8.23 70 13:19 19.03.2022
4707 Clouds 10 1040 43 10000 8.23 70 12:40 19.03.2022
4708 Clear 10 1041 40 10000 4.12 70 11:54 19.03.2022
4709 Clear 10 1041 40 10000 4.12 70 11:54 19.03.2022
4710 Clear 8 1042 49 10000 3.6 60 10:47 19.03.2022
4711 Clear 3 1043 87 10000 2.06 70 07:33 19.03.2022
4712 Clear 0 1044 94 10000 2.52 35 03:49 19.03.2022
4713 Clear 3 1044 90 10000 2.39 41 02:29 19.03.2022
4714 Clear 5 1044 75 10000 1.54 10 23:45 18.03.2022
4715 Clear 6 1044 70 10000 0.51 0 22:28 18.03.2022
4716 Clear 6 1045 73 10000 2.08 52 21:45 18.03.2022
4717 Clear 8 1043 61 10000 4.12 30 19:52 18.03.2022
4718 Clear 8 1043 61 10000 4.12 30 19:52 18.03.2022
4719 Clear 9 1043 57 10000 3.6 40 19:21 18.03.2022
4720 Clear 12 1042 40 10000 4.63 50 17:52 18.03.2022
4721 Clear 13 1042 35 10000 5.14 20 16:49 18.03.2022
4722 Clear 13 1042 32 10000 4.12 360 15:26 18.03.2022
4723 Clear 12 1042 37 10000 3.6 20 14:22 18.03.2022
4724 Clear 10 1043 57 10000 4.63 350 12:36 18.03.2022
4725 Clouds 5 1042 93 10000 2.06 350 10:53 18.03.2022
4726 Fog 0 1042 100 100 1.54 350 09:30 18.03.2022
4727 Clouds 0 1041 100 10000 1.03 0 08:32 18.03.2022
4728 Clear 0 1042 93 10000 2.14 8 06:35 18.03.2022
4729 Clear 1 1039 94 10000 1.91 13 02:57 18.03.2022
4730 Clouds 2 1038 91 10000 2.04 358 00:23 18.03.2022
4731 Clouds 3 1037 90 10000 1.88 358 23:24 17.03.2022
4732 Clouds 3 1037 88 10000 1.75 7 22:24 17.03.2022
4733 Clouds 5 1037 88 10000 1.75 7 21:48 17.03.2022
4734 Clouds 4 1036 85 10000 1.79 19 21:23 17.03.2022
4735 Clear 5 1034 87 10000 3.09 320 20:44 17.03.2022
4736 Clear 6 1033 81 10000 4.12 330 19:48 17.03.2022
4737 Clouds 7 1032 81 10000 5.66 330 18:59 17.03.2022
4738 Clouds 7 1032 81 10000 5.66 330 18:39 17.03.2022
4739 Clouds 8 1030 81 10000 4.63 330 16:49 17.03.2022
4740 Clouds 8 1030 87 10000 4.12 310 15:44 17.03.2022
4741 Clouds 8 1029 87 10000 5.66 310 15:25 17.03.2022
4742 Drizzle 8 1029 93 8000 6.69 300 14:29 17.03.2022
4743 Clouds 8 1028 87 6000 3.09 260 12:54 17.03.2022
4744 Clouds 8 1027 87 7000 1.54 240 12:23 17.03.2022
4745 Clouds 9 1026 71 10000 3.6 210 11:27 17.03.2022
4746 Drizzle 10 1025 61 10000 1.54 190 10:29 17.03.2022
4747 Clouds 10 1024 61 10000 4.12 170 08:34 17.03.2022
4748 Clear 9 1024 66 10000 4.63 160 07:33 17.03.2022
4749 Clouds 4 1024 86 10000 2.27 144 05:47 17.03.2022
4750 Clouds 8 1025 86 10000 1.84 134 01:23 17.03.2022
4751 Clouds 7 1025 85 10000 1.73 126 23:46 16.03.2022
4752 Clouds 7 1025 82 10000 2.31 109 22:45 16.03.2022
4753 Clouds 8 1025 83 10000 2.59 108 22:21 16.03.2022
4754 Clouds 6 1025 82 10000 2.59 108 21:39 16.03.2022
4755 Clear 9 1024 71 10000 4.12 100 19:41 16.03.2022
4756 Clear 10 1024 71 10000 4.63 100 19:20 16.03.2022
4757 Clear 10 1024 66 10000 5.14 120 18:36 16.03.2022
4758 Clouds 12 1024 62 10000 4.63 100 17:41 16.03.2022
4759 Clouds 13 1024 54 10000 5.14 130 17:19 16.03.2022
4760 Clear 14 1025 50 10000 6.69 110 15:55 16.03.2022
4761 Clouds 12 1025 50 10000 6.69 130 14:25 16.03.2022
4762 Clouds 12 1026 54 10000 4.63 130 13:27 16.03.2022
4763 Clear 8 1026 81 10000 3.09 100 11:54 16.03.2022
4764 Fog 6 1027 93 9000 3.6 90 11:20 16.03.2022
4765 Fog 6 1027 93 9000 2.06 110 10:22 16.03.2022
4766 Fog 3 1027 100 250 2.06 180 08:52 16.03.2022
4767 Clouds 1 1027 92 10000 1.26 126 05:58 16.03.2022
4768 Clouds 2 1026 91 10000 0.4 144 01:35 16.03.2022
4769 Clouds 4 1025 93 10000 0.93 1 22:38 15.03.2022
4770 Clouds 5 1025 91 10000 1.51 6 21:52 15.03.2022
4771 Clouds 7 1023 93 10000 1.03 0 20:18 15.03.2022
4772 Drizzle 8 1023 87 10000 1.03 0 18:54 15.03.2022
4773 Clouds 9 1022 71 10000 2.06 80 16:55 15.03.2022
4774 Clouds 10 1022 66 10000 2.06 90 16:20 15.03.2022
4775 Clouds 9 1023 66 10000 3.6 100 14:57 15.03.2022
4776 Clouds 9 1023 66 10000 3.6 100 14:34 15.03.2022
4777 Clear 9 1025 81 10000 1.54 50 13:27 15.03.2022
4778 Clear 8 1026 81 10000 2.57 100 11:57 15.03.2022
4779 Clear 7 1026 76 10000 2.06 90 11:19 15.03.2022
4780 Clear 5 1027 87 10000 1.54 100 09:39 15.03.2022
4781 Clear 3 1028 100 10000 0.51 0 08:32 15.03.2022
4782 Clear 2 1028 93 10000 1.03 0 07:50 15.03.2022
4783 Clear 3 1028 93 10000 1.03 110 06:51 15.03.2022
4784 Clouds 0 1030 91 10000 1.65 170 02:38 15.03.2022
4785 Clouds 2 1031 89 10000 1.51 181 23:38 14.03.2022
4786 Clouds 6 1030 85 10000 1.69 197 23:20 14.03.2022
4787 Clouds 3 1030 84 10000 1.62 194 21:59 14.03.2022
4788 Clouds 6 1030 85 10000 1.24 214 21:20 14.03.2022
4789 Clouds 8 1028 81 10000 1.03 0 20:34 14.03.2022
4790 Clouds 8 1028 81 10000 2.57 220 19:47 14.03.2022
4791 Clouds 10 1027 76 10000 2.06 210 18:23 14.03.2022
4792 Clouds 10 1027 76 10000 2.57 230 17:43 14.03.2022
4793 Clouds 10 1026 81 10000 3.6 250 16:54 14.03.2022
4794 Clouds 10 1026 87 10000 2.57 230 15:20 14.03.2022
4795 Clouds 8 1025 87 10000 4.12 250 14:00 14.03.2022
4796 Clouds 7 1024 93 7000 2.57 130 11:36 14.03.2022
4797 Clouds 6 1023 87 10000 1.54 150 10:23 14.03.2022
4798 Clouds 6 1023 81 10000 1.03 0 09:38 14.03.2022
4799 Clouds 5 1023 75 10000 1.54 120 09:18 14.03.2022
4800 Clouds 6 1022 61 10000 0.51 0 08:46 14.03.2022
4801 Clouds 5 1022 60 10000 1.03 0 07:21 14.03.2022
4802 Clouds 6 1021 56 10000 1.43 150 04:22 14.03.2022
4803 Clouds 0 1019 55 10000 1.35 153 01:46 14.03.2022
4804 Clouds 1 1019 51 10000 1.31 114 00:35 14.03.2022
4805 Clouds 3 1019 51 10000 1.65 131 21:55 13.03.2022
4806 Clouds 4 1018 52 10000 1.46 129 21:26 13.03.2022
4807 Clear 7 1017 34 10000 2.06 170 20:46 13.03.2022
4808 Clear 9 1017 34 10000 2.06 170 20:23 13.03.2022
4809 Clear 9 1016 29 10000 2.06 140 19:42 13.03.2022
4810 Clear 10 1016 34 10000 3.09 120 19:23 13.03.2022
4811 Clear 10 1016 34 10000 3.09 120 19:23 13.03.2022
4812 Clear 11 1016 30 10000 3.09 120 18:45 13.03.2022
4813 Clear 13 1015 30 10000 3.6 100 18:26 13.03.2022
4814 Clear 14 1015 26 10000 5.14 120 17:39 13.03.2022
4815 Clear 15 1015 23 10000 4.63 130 16:46 13.03.2022
4816 Clear 15 1016 23 10000 3.6 130 16:25 13.03.2022
4817 Clear 14 1016 22 10000 4.12 120 15:42 13.03.2022
4818 Clear 14 1016 24 10000 4.12 140 14:41 13.03.2022
4819 Clear 12 1017 24 10000 4.12 140 13:29 13.03.2022
4820 Clear 11 1017 23 10000 5.14 140 12:23 13.03.2022
4821 Clear 9 1017 23 10000 5.14 140 11:39 13.03.2022
4822 Clear 7 1017 31 10000 4.63 130 10:50 13.03.2022
4823 Clear 7 1018 31 10000 5.14 140 10:28 13.03.2022
4824 Clear 5 1018 36 10000 4.12 110 09:42 13.03.2022
4825 Clear 3 1017 44 10000 4.12 120 08:50 13.03.2022
4826 Clear 3 1017 48 10000 3.09 130 08:29 13.03.2022
4827 Clear -3 1019 59 10000 1.76 129 06:41 13.03.2022
4828 Clear -2 1019 59 10000 1.58 137 04:51 13.03.2022
4829 Clear -1 1019 55 10000 1.52 116 01:47 13.03.2022
4830 Clouds 3 1020 55 10000 1.51 126 23:26 12.03.2022
4831 Clouds 5 1020 55 10000 1.54 130 21:32 12.03.2022
4832 Clear 7 1019 45 10000 2.06 130 20:19 12.03.2022
4833 Clear 8 1019 42 10000 2.57 120 19:44 12.03.2022
4834 Clear 10 1019 40 10000 3.09 120 18:38 12.03.2022
4835 Clear 13 1019 37 10000 3.09 140 17:49 12.03.2022
4836 Clear 14 1019 33 10000 3.09 160 16:28 12.03.2022
4837 Clear 14 1019 33 10000 3.09 150 15:48 12.03.2022
4838 Clear 14 1019 33 10000 4.63 160 15:19 12.03.2022
4839 Clear 12 1020 37 10000 4.12 160 13:53 12.03.2022
4840 Clear 10 1020 29 10000 5.14 140 12:27 12.03.2022
4841 Clear 9 1020 27 10000 5.66 140 11:52 12.03.2022
4842 Clear 9 1020 27 10000 5.66 140 11:32 12.03.2022
4843 Clear 5 1021 28 10000 4.63 140 10:18 12.03.2022
4844 Clear 4 1021 30 10000 5.66 140 09:41 12.03.2022
4845 Clear 2 1020 32 10000 2.06 140 07:52 12.03.2022
4846 Clouds -1 1022 51 10000 2.28 143 05:46 12.03.2022
4847 Clouds 2 1021 55 10000 2.09 114 00:31 12.03.2022
4848 Clouds 0 1022 57 10000 1.66 116 23:38 11.03.2022
4849 Clear 3 1021 57 10000 1.72 108 22:29 11.03.2022
4850 Clouds 4 1021 56 10000 1.78 123 21:23 11.03.2022
4851 Clear 7 1018 33 10000 3.6 130 20:42 11.03.2022
4852 Clear 7 1018 33 10000 3.6 130 20:22 11.03.2022
4853 Clear 8 1018 31 10000 5.14 110 19:29 11.03.2022
4854 Clear 12 1017 22 10000 6.69 120 17:50 11.03.2022
4855 Clear 12 1017 22 10000 7.72 120 17:21 11.03.2022
4856 Clear 12 1018 22 10000 8.75 130 15:57 11.03.2022
4857 Clear 12 1018 22 10000 8.75 130 15:29 11.03.2022
4858 Clear 10 1019 23 10000 7.72 120 13:27 11.03.2022
4859 Clear 8 1020 26 10000 8.23 120 12:30 11.03.2022
4860 Clear 7 1020 28 10000 8.23 120 11:57 11.03.2022
4861 Clear 5 1021 35 10000 5.66 120 10:24 11.03.2022
4862 Clear 3 1021 51 10000 4.12 110 09:32 11.03.2022
4863 Clear 2 1022 60 10000 3.6 100 08:25 11.03.2022
4864 Clear 0 1022 64 10000 3.6 90 07:46 11.03.2022
4865 Clear 0 1024 85 10000 1.48 92 06:22 11.03.2022
4866 Clear 1 1024 87 10000 1.61 94 04:24 11.03.2022
4867 Clear 4 1025 85 10000 1.52 97 00:21 11.03.2022
4868 Clear 5 1025 82 10000 1.59 97 22:31 10.03.2022
4869 Clear 6 1025 77 10000 2.06 98 21:52 10.03.2022
4870 Clear 6 1025 70 10000 2.92 103 21:24 10.03.2022
4871 Clear 8 1024 42 10000 2.57 100 19:54 10.03.2022
4872 Clear 10 1024 40 10000 4.12 90 18:56 10.03.2022
4873 Clear 13 1024 30 10000 5.66 90 17:36 10.03.2022
4874 Clear 14 1024 26 10000 5.66 100 16:37 10.03.2022
4875 Clear 15 1025 26 10000 3.09 110 15:26 10.03.2022
4876 Clear 13 1026 32 10000 4.63 140 13:30 10.03.2022
4877 Clear 12 1026 32 10000 4.12 140 12:34 10.03.2022
4878 Clear 10 1026 40 10000 4.12 110 11:23 10.03.2022
4879 Clear 5 1027 56 10000 3.09 100 09:27 10.03.2022
4880 Clear 2 1026 64 10000 1.03 120 07:43 10.03.2022
4881 Clear 0 1027 72 10000 1.4 120 04:59 10.03.2022
4882 Clear 0 1027 68 10000 1.29 125 01:53 10.03.2022
4883 Clear 0 1027 66 10000 1.47 131 23:29 09.03.2022
4884 Clear 1 1027 66 10000 1.39 131 21:54 09.03.2022
4885 Clear 1 1027 66 10000 1.39 131 21:34 09.03.2022
4886 Clear 5 1024 49 10000 1.54 130 19:55 09.03.2022
4887 Clear 9 1023 39 10000 1.03 100 18:34 09.03.2022
4888 Clear 12 1023 28 10000 3.6 130 17:27 09.03.2022
4889 Clear 13 1023 26 10000 2.57 150 16:31 09.03.2022
4890 Clear 12 1023 28 10000 3.6 160 15:31 09.03.2022
4891 Clear 12 1024 28 10000 4.63 140 13:54 09.03.2022
4892 Clear 10 1024 34 10000 4.63 130 12:48 09.03.2022
4893 Clear 9 1024 36 10000 3.6 140 11:54 09.03.2022
4894 Clear 9 1024 36 10000 3.6 140 11:35 09.03.2022
4895 Clear 6 1025 45 10000 4.12 140 10:34 09.03.2022
4896 Clear 3 1024 64 10000 2.57 110 08:57 09.03.2022
4897 Clear -2 1024 80 10000 2.06 150 07:54 09.03.2022
4898 Clear -2 1025 71 10000 1.6 163 02:57 09.03.2022
4899 Clear -1 1026 72 10000 1.38 123 00:43 09.03.2022
4900 Clear -1 1026 70 10000 1.45 104 22:47 08.03.2022
4901 Clear 0 1025 69 10000 1.43 101 22:26 08.03.2022
4902 Clear 1 1025 68 10000 1.45 99 21:23 08.03.2022
4903 Clear 3 1023 56 10000 0.51 0 20:35 08.03.2022
4904 Clear 3 1022 56 10000 2.06 100 19:35 08.03.2022
4905 Clear 5 1022 52 10000 3.09 110 18:44 08.03.2022
4906 Clear 8 1022 36 10000 5.66 110 17:30 08.03.2022
4907 Clear 10 1022 27 10000 7.2 110 15:45 08.03.2022
4908 Clear 9 1022 34 10000 6.17 100 14:19 08.03.2022
4909 Clear 8 1023 45 10000 3.6 120 12:43 08.03.2022
4910 Clear 7 1024 49 10000 3.09 110 11:45 08.03.2022
4911 Clear 4 1024 60 10000 3.6 110 10:44 08.03.2022
4912 Clear 3 1024 64 10000 2.57 140 09:43 08.03.2022
4913 Clear -4 1026 85 10000 1.04 104 06:43 08.03.2022
4914 Clear -4 1026 85 10000 1 80 04:47 08.03.2022
4915 Clear -2 1028 80 10000 1.15 74 23:50 07.03.2022
4916 Clear -1 1028 78 10000 0.81 87 21:54 07.03.2022
4917 Clear -1 1028 78 10000 0.81 87 21:31 07.03.2022
4918 Clear 1 1025 60 10000 1.03 150 20:44 07.03.2022
4919 Clear 1 1025 60 10000 1.03 120 19:55 07.03.2022
4920 Clear 3 1025 56 10000 1.54 80 19:29 07.03.2022
4921 Clear 3 1024 56 10000 3.09 70 18:40 07.03.2022
4922 Clear 5 1024 45 10000 3.09 90 17:41 07.03.2022
4923 Clear 6 1024 42 10000 4.63 70 16:55 07.03.2022
4924 Clouds 6 1025 45 10000 2.57 50 15:27 07.03.2022
4925 Clouds 4 1026 52 10000 4.12 80 12:54 07.03.2022
4926 Clouds 5 1026 52 10000 4.63 100 12:21 07.03.2022
4927 Clouds 2 1027 60 10000 1.03 0 10:36 07.03.2022
4928 Clouds 0 1026 69 10000 0.51 0 08:39 07.03.2022
4929 Clear -1 1027 77 10000 1.58 26 02:58 07.03.2022
4930 Clouds 0 1027 74 10000 1.6 28 00:22 07.03.2022
4931 Clouds 0 1027 74 10000 1.79 28 23:29 06.03.2022
4932 Clouds 0 1027 74 10000 1.79 28 22:32 06.03.2022
4933 Clouds 0 1027 73 10000 2.06 26 21:45 06.03.2022
4934 Clouds 0 1025 64 10000 3.6 60 20:30 06.03.2022
4935 Clouds 0 1025 64 10000 3.6 60 19:50 06.03.2022
4936 Clouds 1 1024 64 10000 4.12 40 18:51 06.03.2022
4937 Clouds 2 1024 60 10000 4.12 20 17:53 06.03.2022
4938 Clouds 2 1024 60 10000 4.63 30 17:20 06.03.2022
4939 Clouds 2 1024 60 10000 5.14 40 16:40 06.03.2022
4940 Clouds 2 1024 60 10000 5.14 40 16:40 06.03.2022
4941 Clouds 2 1024 64 10000 3.6 20 15:37 06.03.2022
4942 Clouds 3 1024 60 10000 4.63 10 14:49 06.03.2022
4943 Clouds 3 1024 60 10000 5.14 350 14:28 06.03.2022
4944 Clouds 3 1024 64 10000 3.09 340 12:43 06.03.2022
4945 Clouds 3 1024 75 10000 1.54 340 11:56 06.03.2022
4946 Clouds 1 1024 74 10000 1.54 340 10:43 06.03.2022
4947 Clear 0 1024 80 10000 1.03 300 09:25 06.03.2022
4948 Clear -1 1025 75 10000 1.23 33 08:28 06.03.2022
4949 Clear -3 1023 93 10000 1.54 240 07:33 06.03.2022
4950 Clear -3 1025 81 10000 1.32 40 03:58 06.03.2022
4951 Clear -1 1025 78 10000 1.32 50 00:42 06.03.2022
4952 Clear -1 1024 77 10000 1.3 64 00:23 06.03.2022
4953 Clear 1 1024 75 10000 1.21 67 23:19 05.03.2022
4954 Clear 1 1024 75 10000 1.21 67 22:38 05.03.2022
4955 Clear 1 1024 72 10000 1.42 90 21:31 05.03.2022
4956 Clear 1 1022 69 10000 1.03 130 20:39 05.03.2022
4957 Clear 1 1021 64 10000 2.06 100 19:23 05.03.2022
4958 Clear 3 1021 60 10000 2.57 80 18:48 05.03.2022
4959 Clear 5 1021 52 10000 3.6 90 17:35 05.03.2022
4960 Clouds 6 1021 45 10000 3.09 90 16:19 05.03.2022
4961 Clouds 6 1021 42 10000 3.6 90 15:20 05.03.2022
4962 Clouds 6 1021 48 10000 2.06 70 14:36 05.03.2022
4963 Clouds 6 1022 48 10000 4.12 100 13:44 05.03.2022
4964 Clouds 5 1022 56 10000 3.09 100 12:45 05.03.2022
4965 Clear 3 1022 75 10000 2.57 120 11:21 05.03.2022
4966 Clear 3 1022 69 10000 3.09 120 10:53 05.03.2022
4967 Clear 1 1022 80 10000 2.06 110 09:37 05.03.2022
4968 Clear -2 1022 93 10000 1.54 140 08:31 05.03.2022
4969 Clear -2 1023 92 10000 1.27 99 07:22 05.03.2022
4970 Clear -4 1023 89 10000 1.46 88 05:39 05.03.2022
4971 Clear -3 1024 86 10000 1.57 73 00:49 05.03.2022
4972 Clear -2 1024 84 10000 1.3 88 22:58 04.03.2022
4973 Clear -2 1024 84 10000 1.3 88 22:38 04.03.2022
4974 Clear -1 1024 84 10000 1.42 98 21:43 04.03.2022
4975 Clouds 1 1022 69 10000 5.14 100 20:45 04.03.2022
4976 Clouds 1 1022 69 10000 5.66 110 19:38 04.03.2022
4977 Clouds 1 1022 69 10000 5.14 100 18:58 04.03.2022
4978 Clouds 2 1022 69 10000 5.14 100 18:35 04.03.2022
4979 Clouds 3 1022 69 10000 5.66 100 17:29 04.03.2022
4980 Clouds 4 1022 69 10000 5.66 70 15:58 04.03.2022
4981 Clouds 4 1022 65 10000 4.63 70 15:25 04.03.2022
4982 Clouds 4 1022 69 10000 3.09 110 13:36 04.03.2022
4983 Clouds 3 1022 69 10000 4.12 80 12:47 04.03.2022
4984 Clouds 2 1023 74 10000 3.09 80 11:37 04.03.2022
4985 Clouds 2 1023 74 10000 3.09 80 11:37 04.03.2022
4986 Clouds 1 1022 86 10000 3.6 110 10:25 04.03.2022
4987 Clouds -1 1022 86 10000 3.6 110 09:27 04.03.2022
4988 Clouds -2 1022 93 9000 2.57 110 07:48 04.03.2022
4989 Clear -2 1023 91 10000 1.22 59 06:21 04.03.2022
4990 Clear -2 1022 88 10000 1.19 63 01:46 04.03.2022
4991 Clear -2 1023 86 10000 1.33 62 23:35 03.03.2022
4992 Clear 0 1022 82 10000 1.42 73 22:18 03.03.2022
4993 Clear 1 1022 79 10000 1.69 73 21:36 03.03.2022
4994 Clear 2 1019 56 10000 1.03 0 20:44 03.03.2022
4995 Clear 4 1019 52 10000 3.09 20 19:22 03.03.2022
4996 Clear 6 1018 49 10000 3.09 60 18:25 03.03.2022
4997 Clear 8 1018 39 10000 3.09 50 17:31 03.03.2022
4998 Clear 9 1018 36 10000 4.12 50 16:41 03.03.2022
4999 Clear 10 1018 31 10000 4.12 50 15:44 03.03.2022
5000 Clear 9 1018 34 10000 3.6 70 14:44 03.03.2022
5001 Clear 10 1019 37 10000 1.54 60 14:26 03.03.2022
5002 Clear 8 1019 36 10000 2.06 30 12:33 03.03.2022
5003 Clear 5 1020 70 10000 1.03 0 11:26 03.03.2022
5004 Clear 3 1020 69 10000 1.03 0 10:38 03.03.2022
5005 Clear -1 1020 86 10000 1.03 0 08:42 03.03.2022
5006 Clouds -3 1021 65 10000 0.77 77 06:57 03.03.2022
5007 Clouds -3 1021 64 10000 0.75 69 05:37 03.03.2022
5008 Clear -1 1023 63 10000 0.96 84 23:57 02.03.2022
5009 Clear -1 1023 63 10000 0.82 89 23:00 02.03.2022
5010 Clear -1 1023 63 10000 0.82 89 22:40 02.03.2022
5011 Clear 0 1023 63 10000 1.08 97 21:22 02.03.2022
5012 Clear 2 1022 60 10000 1.54 130 20:26 02.03.2022
5013 Clear 3 1022 60 10000 2.57 140 19:41 02.03.2022
5014 Clear 4 1022 52 10000 1.54 110 19:23 02.03.2022
5015 Clear 4 1021 52 10000 1.54 100 18:37 02.03.2022
5016 Clear 8 1021 36 10000 1.03 0 17:45 02.03.2022
5017 Clear 9 1022 31 10000 1.03 0 16:53 02.03.2022
5018 Clear 10 1022 29 10000 1.54 50 16:18 02.03.2022
5019 Clear 10 1023 29 10000 3.09 90 14:32 02.03.2022
5020 Clear 8 1024 36 10000 2.06 70 12:58 02.03.2022
5021 Clear 8 1024 36 10000 2.06 70 12:35 02.03.2022
5022 Clear 5 1024 52 10000 2.06 110 11:28 02.03.2022
5023 Clear 5 1024 56 10000 2.57 70 10:50 02.03.2022
5024 Clear 2 1024 60 10000 2.06 140 09:40 02.03.2022
5025 Clear 1 1025 69 10000 1.54 120 08:44 02.03.2022
5026 Clouds -1 1026 56 10000 0.92 113 07:24 02.03.2022
5027 Clouds 0 1026 54 10000 0.55 110 05:42 02.03.2022
5028 Clouds 0 1029 57 10000 1.26 154 00:42 02.03.2022
5029 Clouds 0 1029 56 10000 1.22 155 23:35 01.03.2022
5030 Clouds 1 1029 57 10000 1.14 151 22:40 01.03.2022
5031 Clouds 1 1029 56 10000 1.84 159 21:53 01.03.2022
5032 Clear 3 1027 56 10000 1.03 150 20:41 01.03.2022
5033 Clear 3 1027 56 10000 1.03 150 20:20 01.03.2022
5034 Clear 4 1027 48 10000 2.06 130 18:58 01.03.2022
5035 Clear 5 1028 42 10000 1.54 170 18:25 01.03.2022
5036 Clear 6 1028 36 10000 2.06 150 17:54 01.03.2022
5037 Clear 7 1028 39 10000 2.06 150 16:39 01.03.2022
5038 Clear 8 1028 33 10000 3.6 220 15:49 01.03.2022
5039 Clear 7 1028 39 10000 4.12 140 14:54 01.03.2022
5040 Clear 7 1028 42 10000 4.12 150 14:31 01.03.2022
5041 Clear 6 1029 42 10000 4.12 170 13:26 01.03.2022
5042 Clear 6 1030 45 10000 4.12 160 12:38 01.03.2022
5043 Clear 4 1030 48 10000 4.63 150 11:44 01.03.2022
5044 Clear 2 1030 55 10000 5.66 140 09:53 01.03.2022
5045 Clear -1 1030 69 10000 4.12 140 08:31 01.03.2022
5046 Clouds -3 1032 65 10000 2.01 167 07:32 01.03.2022
5047 Clear -2 1032 67 10000 2.28 158 03:27 01.03.2022
5048 Clear -1 1032 63 10000 1.86 145 00:49 01.03.2022
5049 Clear 0 1033 63 10000 1.76 132 23:47 28.02.2022
5050 Clear 1 1033 63 10000 1.73 117 22:43 28.02.2022
5051 Clear 2 1031 75 10000 5.66 110 21:48 28.02.2022
5052 Clear 3 1031 65 10000 3.09 120 20:55 28.02.2022
5053 Clear 3 1031 60 10000 3.6 120 19:51 28.02.2022
5054 Clear 4 1031 48 10000 4.63 110 18:57 28.02.2022
5055 Clear 7 1031 45 10000 5.14 100 17:57 28.02.2022
5056 Clear 8 1031 42 10000 4.12 100 17:23 28.02.2022
5057 Clear 9 1031 37 10000 4.12 90 16:32 28.02.2022
5058 Clear 9 1031 34 10000 4.63 120 15:19 28.02.2022
5059 Clear 9 1032 39 10000 3.09 130 14:29 28.02.2022
5060 Clear 9 1032 46 10000 3.6 120 13:24 28.02.2022
5061 Clear 7 1033 52 10000 3.6 150 12:29 28.02.2022
5062 Clear 5 1033 60 10000 3.6 150 11:20 28.02.2022
5063 Clear 3 1033 69 10000 4.12 120 10:23 28.02.2022
5064 Clear 2 1033 69 10000 4.12 130 09:51 28.02.2022
5065 Clear 2 1033 75 10000 2.57 120 09:24 28.02.2022
5066 Clear 2 1033 75 10000 2.57 120 09:24 28.02.2022
5067 Clear 0 1032 80 10000 1.54 110 08:22 28.02.2022
5068 Clear -3 1034 74 10000 0.94 132 06:44 28.02.2022
5069 Clear -2 1034 74 10000 1.33 119 04:31 28.02.2022
5070 Clear -1 1034 74 10000 1.36 116 01:42 28.02.2022
5071 Clear -1 1034 76 10000 1.63 109 22:57 27.02.2022
5072 Clear 0 1034 76 10000 1.83 105 22:32 27.02.2022
5073 Clear 0 1034 76 10000 1.82 105 21:42 27.02.2022
5074 Clear 1 1034 75 10000 2.04 109 20:51 27.02.2022
5075 Clear 2 1033 69 10000 1.54 100 20:22 27.02.2022
5076 Clear 3 1033 65 10000 3.09 100 19:50 27.02.2022
5077 Clear 4 1033 60 10000 2.57 90 19:24 27.02.2022
5078 Clear 4 1032 70 10000 3.09 100 18:37 27.02.2022
5079 Clear 7 1032 52 10000 3.6 100 17:53 27.02.2022
5080 Clouds 8 1032 49 10000 4.63 120 16:31 27.02.2022
5081 Clouds 8 1033 45 10000 5.14 90 15:39 27.02.2022
5082 Clouds 7 1034 49 10000 5.66 140 12:43 27.02.2022
5083 Clouds 7 1034 56 10000 3.6 140 12:25 27.02.2022
5084 Clear 4 1034 75 10000 4.12 120 10:37 27.02.2022
5085 Clear 3 1034 80 10000 3.09 110 09:58 27.02.2022
5086 Clear 2 1034 80 10000 3.09 110 09:24 27.02.2022
5087 Clear 0 1034 86 10000 3.09 120 08:51 27.02.2022
5088 Clear -2 1035 85 10000 1.52 92 06:42 27.02.2022
5089 Clear -1 1035 87 10000 1.54 83 04:26 27.02.2022
5090 Clear -1 1035 91 10000 1.56 91 00:34 27.02.2022
5091 Clear 0 1036 90 10000 1.41 80 22:50 26.02.2022
5092 Clear 1 1035 89 10000 1.28 67 21:34 26.02.2022
5093 Clouds 2 1033 75 10000 0.51 0 20:43 26.02.2022
5094 Clouds 2 1033 80 10000 1.54 190 19:59 26.02.2022
5095 Clouds 2 1033 80 10000 1.54 190 19:34 26.02.2022
5096 Clouds 4 1033 70 10000 2.57 290 18:46 26.02.2022
5097 Clouds 7 1033 61 10000 2.57 330 17:40 26.02.2022
5098 Clouds 7 1033 61 10000 3.09 320 16:48 26.02.2022
5099 Clouds 7 1033 65 10000 3.09 320 15:45 26.02.2022
5100 Clouds 7 1033 61 10000 3.09 320 15:20 26.02.2022
5101 Clouds 7 1033 65 10000 2.57 330 14:51 26.02.2022
5102 Clouds 6 1034 70 10000 3.09 330 14:24 26.02.2022
5103 Clouds 5 1034 75 10000 3.09 330 12:59 26.02.2022
5104 Clouds 5 1034 70 10000 4.63 310 11:54 26.02.2022
5105 Clouds 5 1034 81 10000 4.63 330 11:27 26.02.2022
5106 Clouds 4 1034 87 10000 5.14 320 10:31 26.02.2022
5107 Clouds 1 1033 93 10000 4.63 290 08:45 26.02.2022
5108 Clouds 1 1033 95 10000 2.02 314 06:46 26.02.2022
5109 Clouds 2 1030 94 10000 4.4 307 00:38 26.02.2022
5110 Clouds 3 1028 93 10000 4.29 305 22:45 25.02.2022
5111 Clouds 3 1026 93 10000 3.6 270 21:37 25.02.2022
5112 Clouds 3 1025 87 10000 5.14 270 21:18 25.02.2022
5113 Clouds 3 1024 93 10000 3.6 290 20:31 25.02.2022
5114 Clouds 4 1022 87 10000 5.14 290 18:35 25.02.2022
5115 Clouds 4 1021 87 10000 8.23 280 17:21 25.02.2022
5116 Clouds 4 1020 93 10000 3.6 230 16:20 25.02.2022
5117 Clouds 5 1021 77 10000 6.67 276 15:42 25.02.2022
5118 Clouds 5 1019 75 10000 7.72 260 15:18 25.02.2022
5119 Clouds 6 1019 75 10000 6.17 260 14:39 25.02.2022
5120 Clouds 4 1019 81 10000 6.69 250 13:36 25.02.2022
5121 Clouds 3 1019 93 10000 5.66 230 12:42 25.02.2022
5122 Clouds 5 1018 70 10000 6.17 220 11:23 25.02.2022
5123 Clouds 4 1018 70 10000 5.66 220 10:28 25.02.2022
5124 Clouds 3 1017 75 10000 5.14 210 09:52 25.02.2022
5125 Clouds 2 1017 75 10000 4.63 190 08:44 25.02.2022
5126 Clouds 1 1017 75 10000 5.14 210 07:36 25.02.2022
5127 Clear 1 1018 81 10000 5.13 240 05:47 25.02.2022
5128 Clouds 2 1017 81 10000 5.35 255 02:58 25.02.2022
5129 Clouds 3 1014 82 10000 5.47 255 22:56 24.02.2022
5130 Clouds 3 1013 77 10000 6.23 270 21:54 24.02.2022
5131 Clouds 3 1013 77 10000 6.23 270 21:31 24.02.2022
5132 Clouds 3 1012 82 10000 6.16 277 20:57 24.02.2022
5133 Clouds 5 1008 75 10000 10.8 270 19:38 24.02.2022
5134 Clouds 8 1006 61 10000 14.4 280 18:37 24.02.2022
5135 Clouds 10 1004 57 10000 8.75 210 18:18 24.02.2022
5136 Clouds 10 1004 57 10000 7.2 210 17:33 24.02.2022
5137 Clouds 10 1004 57 10000 7.2 210 17:33 24.02.2022
5138 Clouds 11 1005 62 10000 6.69 200 16:29 24.02.2022
5139 Clouds 10 1006 66 10000 7.72 200 15:47 24.02.2022
5140 Clouds 10 1007 66 10000 6.17 190 14:53 24.02.2022
5141 Clouds 10 1008 66 10000 6.69 190 14:24 24.02.2022
5142 Clouds 10 1008 62 10000 6.17 180 13:39 24.02.2022
5143 Clouds 10 1009 61 10000 5.66 170 12:33 24.02.2022
5144 Clouds 8 1011 66 10000 4.63 180 10:40 24.02.2022
5145 Clouds 7 1013 70 10000 3.09 170 08:58 24.02.2022
5146 Clouds 7 1013 70 10000 3.09 170 08:39 24.02.2022
5147 Clouds 6 1016 89 10000 3.19 189 05:52 24.02.2022
5148 Clouds 4 1019 79 10000 3.41 190 01:56 24.02.2022
5149 Clouds 3 1022 82 10000 2.74 174 22:38 23.02.2022
5150 Clouds 3 1022 82 10000 2.74 174 22:38 23.02.2022
5151 Clouds 3 1022 81 10000 2.62 174 21:37 23.02.2022
5152 Clear 6 1021 65 10000 2.57 170 20:31 23.02.2022
5153 Clear 6 1022 61 10000 4.12 180 19:46 23.02.2022
5154 Clear 8 1022 57 10000 3.6 190 18:32 23.02.2022
5155 Clear 9 1023 49 10000 4.12 200 17:36 23.02.2022
5156 Clouds 11 1024 50 10000 4.63 240 14:42 23.02.2022
5157 Clouds 10 1025 49 10000 6.17 260 12:42 23.02.2022
5158 Clouds 8 1025 61 10000 4.63 260 11:34 23.02.2022
5159 Clouds 7 1025 75 10000 4.12 240 10:31 23.02.2022
5160 Clouds 5 1024 81 10000 3.09 250 08:59 23.02.2022
5161 Clouds 4 1024 81 10000 4.63 270 07:58 23.02.2022
5162 Clouds 5 1022 76 10000 7.36 293 03:49 23.02.2022
5163 Clouds 6 1018 85 10000 6.54 291 00:28 23.02.2022
5164 Clouds 7 1018 85 10000 6.55 291 23:36 22.02.2022
5165 Clouds 8 1017 84 10000 6.87 297 22:31 22.02.2022
5166 Clouds 7 1015 91 9682 7.24 286 21:49 22.02.2022
5167 Clouds 7 1015 91 9682 7.24 286 21:30 22.02.2022
5168 Clouds 7 1014 89 10000 8.08 246 20:55 22.02.2022
5169 Clouds 7 1012 87 10000 6.17 210 20:29 22.02.2022
5170 Drizzle 7 1012 81 10000 6.69 210 19:42 22.02.2022
5171 Clouds 7 1013 87 10000 6.17 200 19:19 22.02.2022
5172 Drizzle 7 1013 76 10000 9.26 210 17:48 22.02.2022
5173 Drizzle 7 1013 76 10000 8.75 220 17:21 22.02.2022
5174 Clouds 7 1014 81 10000 6.17 210 16:37 22.02.2022
5175 Clouds 8 1015 70 10000 6.69 210 15:40 22.02.2022
5176 Clouds 8 1016 65 10000 6.69 220 14:44 22.02.2022
5177 Clouds 7 1017 65 10000 5.66 270 12:23 22.02.2022
5178 Clouds 6 1017 75 10000 6.69 280 10:50 22.02.2022
5179 Clouds 4 1016 87 10000 6.17 280 08:41 22.02.2022
5180 Clouds 4 1017 78 10000 6.84 298 07:26 22.02.2022
5181 Clouds 3 1015 83 10000 7.59 303 04:31 22.02.2022
5182 Clouds 4 1012 82 10000 9.3 303 01:45 22.02.2022
5183 Clouds 5 1012 82 10000 9.3 303 01:45 22.02.2022
5184 Clouds 4 1012 82 10000 9.3 303 01:45 22.02.2022
5185 Clouds 4 1008 85 10000 8.75 294 22:46 21.02.2022
5186 Clouds 5 1007 95 425 8.05 284 21:33 21.02.2022
5187 Clouds 5 1003 81 10000 10.29 300 20:35 21.02.2022
5188 Clouds 5 998 87 10000 10.29 290 18:46 21.02.2022
5189 Clouds 4 994 87 10000 9.26 220 16:58 21.02.2022
5190 Clouds 4 995 87 10000 9.26 210 15:20 21.02.2022
5191 Clouds 4 996 81 9000 9.26 220 14:21 21.02.2022
5192 Clouds 6 997 56 10000 8.75 220 13:20 21.02.2022
5193 Clouds 6 997 56 10000 10.29 230 12:23 21.02.2022
5194 Clouds 4 998 65 10000 8.75 250 10:58 21.02.2022
5195 Clouds 4 998 70 10000 7.72 260 09:34 21.02.2022
5196 Clouds 5 996 73 10000 10.36 269 04:52 21.02.2022
5197 Clouds 9 995 86 10000 12.52 222 23:41 20.02.2022
5198 Clouds 9 998 88 10000 11.58 219 22:21 20.02.2022
5199 Clouds 9 998 88 10000 11.58 219 21:42 20.02.2022
5200 Clouds 8 1000 88 10000 11.06 220 20:53 20.02.2022
5201 Clouds 8 1000 87 10000 8.75 210 20:33 20.02.2022
5202 Clouds 8 1001 87 10000 8.23 200 19:31 20.02.2022
5203 Clouds 8 1001 87 10000 8.23 200 19:31 20.02.2022
5204 Clouds 8 1001 87 10000 7.72 200 18:50 20.02.2022
5205 Clouds 8 1002 81 10000 7.72 210 18:31 20.02.2022
5206 Clouds 9 1003 81 10000 7.72 210 17:47 20.02.2022
5207 Clouds 9 1005 87 10000 7.72 220 15:31 20.02.2022
5208 Clouds 9 1005 87 10000 7.72 220 14:41 20.02.2022
5209 Clouds 8 1006 81 10000 7.2 210 13:23 20.02.2022
5210 Clouds 8 1006 81 10000 7.72 210 12:22 20.02.2022
5211 Clouds 6 1008 81 10000 6.69 0 10:21 20.02.2022
5212 Clouds 6 1009 81 10000 5.66 200 09:53 20.02.2022
5213 Clouds 5 1010 75 10000 4.63 240 07:45 20.02.2022
5214 Clouds 3 1007 96 185 9.8 228 00:54 20.02.2022
5215 Clouds 3 1008 96 87 10.34 212 00:29 20.02.2022
5216 Clouds 5 1010 71 10000 9.27 204 22:25 19.02.2022
5217 Clouds 5 1010 71 10000 9.27 204 21:57 19.02.2022
5218 Clouds 5 1012 69 10000 7.49 208 20:50 19.02.2022
5219 Clear 6 1011 60 10000 6.69 200 19:42 19.02.2022
5220 Clear 6 1012 65 10000 6.69 210 19:20 19.02.2022
5221 Clear 6 1012 49 10000 5.14 220 18:29 19.02.2022
5222 Clear 6 1012 45 10000 5.66 230 17:33 19.02.2022
5223 Clouds 8 1013 42 10000 7.72 250 16:21 19.02.2022
5224 Clouds 8 1013 42 10000 10.8 250 14:56 19.02.2022
5225 Clouds 8 1012 49 10000 6.69 260 13:59 19.02.2022
5226 Clouds 6 1012 56 10000 8.75 260 11:59 19.02.2022
5227 Clouds 6 1012 56 10000 8.75 260 11:36 19.02.2022
5228 Clouds 5 1010 56 10000 7.2 250 09:34 19.02.2022
5229 Clouds 5 1009 72 10000 9.06 256 06:52 19.02.2022
5230 Clouds 6 1003 63 10000 12.42 251 01:39 19.02.2022
5231 Clouds 7 1001 63 10000 11.68 242 22:54 18.02.2022
5232 Clouds 9 998 64 10000 12.39 248 21:28 18.02.2022
5233 Clouds 9 993 49 10000 17.49 250 20:33 18.02.2022
5234 Clouds 9 992 53 10000 13.89 240 19:51 18.02.2022
5235 Clouds 10 992 57 10000 12.86 230 18:39 18.02.2022
5236 Clouds 10 992 71 10000 15.95 250 18:19 18.02.2022
5237 Clouds 12 991 71 10000 11.32 200 17:21 18.02.2022
5238 Clouds 11 996 81 10000 8.75 190 14:39 18.02.2022
5239 Clouds 9 998 87 10000 8.75 190 13:47 18.02.2022
5240 Clouds 8 1000 87 10000 6.69 200 12:51 18.02.2022
5241 Clouds 7 1001 87 10000 5.66 170 11:57 18.02.2022
5242 Clouds 7 1003 87 10000 4.63 160 10:58 18.02.2022
5243 Clouds 6 1005 81 10000 5.66 200 09:29 18.02.2022
5244 Clouds 6 1009 89 10000 4.18 203 06:50 18.02.2022
5245 Clouds 6 1010 89 10000 3.88 207 05:36 18.02.2022
5246 Clouds 6 1012 63 10000 6.82 268 22:43 17.02.2022
5247 Clouds 6 1011 64 10000 7.57 268 21:42 17.02.2022
5248 Clouds 6 1011 68 10000 7.9 274 20:52 17.02.2022
5249 Clouds 7 1008 61 10000 9.77 280 20:33 17.02.2022
5250 Clouds 7 1008 57 10000 13.38 280 19:42 17.02.2022
5251 Clouds 6 1006 75 10000 6.17 280 18:34 17.02.2022
5252 Clouds 8 1005 61 10000 8.75 270 17:46 17.02.2022
5253 Clouds 9 1004 49 10000 9.77 270 16:19 17.02.2022
5254 Clouds 9 1002 49 10000 15.95 280 14:30 17.02.2022
5255 Clouds 9 1002 49 10000 15.95 280 13:47 17.02.2022
5256 Clouds 7 1000 65 10000 11.32 270 11:55 17.02.2022
5257 Clouds 7 1000 75 10000 12.35 270 11:21 17.02.2022
5258 Clouds 8 995 61 10000 12.86 270 07:57 17.02.2022
5259 Clouds 12 992 83 10000 11.97 249 00:20 17.02.2022
5260 Clouds 12 993 85 10000 11.42 242 22:38 16.02.2022
5261 Clouds 11 994 82 10000 5.66 200 20:24 16.02.2022
5262 Clouds 11 995 82 10000 6.17 200 19:23 16.02.2022
5263 Clouds 11 996 82 10000 5.14 200 18:34 16.02.2022
5264 Drizzle 10 996 87 10000 6.17 210 17:27 16.02.2022
5265 Clouds 10 996 81 10000 6.17 210 15:24 16.02.2022
5266 Clouds 9 997 81 10000 8.23 200 13:47 16.02.2022
5267 Clouds 8 997 81 10000 10.29 200 12:27 16.02.2022
5268 Clouds 8 997 81 10000 10.8 200 11:46 16.02.2022
5269 Clouds 7 997 87 10000 7.72 190 10:35 16.02.2022
5270 Clouds 7 999 87 10000 8.75 190 09:39 16.02.2022
5271 Clouds 5 1003 96 1475 8.93 208 06:44 16.02.2022
5272 Clouds 5 1007 93 10000 8.21 210 02:47 16.02.2022
5273 Clouds 6 1009 75 10000 8.18 206 22:34 15.02.2022
5274 Clouds 6 1010 75 10000 8.26 207 21:51 15.02.2022
5275 Clouds 6 1010 75 10000 8.26 207 21:30 15.02.2022
5276 Clouds 6 1011 76 10000 7.93 207 20:58 15.02.2022
5277 Clear 6 1009 61 10000 8.75 200 20:26 15.02.2022
5278 Clear 6 1009 61 10000 6.17 180 19:45 15.02.2022
5279 Clouds 6 1010 65 10000 5.66 210 18:26 15.02.2022
5280 Clouds 6 1010 65 10000 5.66 210 17:55 15.02.2022
5281 Clouds 7 1010 65 10000 5.66 210 17:37 15.02.2022
5282 Clouds 8 1010 61 10000 6.17 240 15:43 15.02.2022
5283 Clouds 8 1011 70 10000 5.14 240 14:31 15.02.2022
5284 Clouds 8 1011 65 10000 4.63 270 13:25 15.02.2022
5285 Clouds 8 1011 71 10000 5.14 240 11:41 15.02.2022
5286 Clouds 6 1010 81 10000 3.6 240 10:27 15.02.2022
5287 Clouds 5 1009 87 10000 2.57 190 08:48 15.02.2022
5288 Clouds 5 1010 93 10000 3.06 217 06:46 15.02.2022
5289 Clouds 6 1008 92 10000 3.47 215 23:35 14.02.2022
5290 Clouds 6 1007 89 10000 4.2 219 21:57 14.02.2022
5291 Clear 7 1005 76 10000 3.09 200 20:53 14.02.2022
5292 Clouds 8 1005 71 10000 2.57 210 19:49 14.02.2022
5293 Clouds 9 1004 76 10000 3.6 220 19:29 14.02.2022
5294 Clouds 9 1004 76 10000 4.63 210 18:24 14.02.2022
5295 Clouds 10 1003 71 10000 5.66 220 17:28 14.02.2022
5296 Clouds 11 1003 71 10000 5.66 210 16:33 14.02.2022
5297 Clouds 11 1002 66 10000 6.17 190 15:22 14.02.2022
5298 Clouds 11 1002 58 10000 8.75 180 13:34 14.02.2022
5299 Clouds 11 1003 62 10000 7.2 200 12:58 14.02.2022
5300 Clouds 11 1003 62 10000 7.2 200 12:32 14.02.2022
5301 Clear 10 1002 57 10000 10.29 180 11:38 14.02.2022
5302 Clear 9 1002 61 10000 8.75 190 10:18 14.02.2022
5303 Clear 6 1003 61 10000 3.6 160 07:49 14.02.2022
5304 Clouds 5 1005 75 10000 5.31 185 07:24 14.02.2022
5305 Clouds 3 1009 70 10000 5.49 186 22:48 13.02.2022
5306 Clouds 4 1010 76 10000 4.54 180 22:30 13.02.2022
5307 Clouds 4 1010 76 10000 4.57 181 21:57 13.02.2022
5308 Clouds 5 1011 82 10000 4.08 180 21:20 13.02.2022
5309 Clear 6 1009 70 10000 4.63 150 20:27 13.02.2022
5310 Clear 7 1010 65 10000 5.14 160 18:58 13.02.2022
5311 Clear 7 1010 65 10000 5.14 160 18:40 13.02.2022
5312 Clear 8 1011 66 10000 5.14 170 16:53 13.02.2022
5313 Clear 9 1012 61 10000 6.17 180 15:51 13.02.2022
5314 Clear 9 1013 53 10000 5.14 180 14:50 13.02.2022
5315 Clear 8 1015 57 10000 4.63 170 13:27 13.02.2022
5316 Clear 7 1015 52 10000 4.12 160 12:42 13.02.2022
5317 Clear 4 1017 65 10000 2.57 150 10:43 13.02.2022
5318 Clear 3 1017 69 10000 2.06 130 10:23 13.02.2022
5319 Clear 1 1017 80 10000 6.17 200 08:55 13.02.2022
5320 Clouds 0 1023 85 10000 2.64 172 01:26 13.02.2022
5321 Clouds -1 1023 84 10000 2.6 171 00:21 13.02.2022
5322 Clouds -1 1024 83 10000 2.7 168 22:34 12.02.2022
5323 Clear 1 1023 69 10000 5.14 170 22:00 12.02.2022
5324 Clear 1 1023 69 10000 4.12 150 20:55 12.02.2022
5325 Clear 2 1024 69 10000 4.63 150 19:56 12.02.2022
5326 Clear 3 1024 65 10000 4.63 150 18:54 12.02.2022
5327 Clear 3 1024 65 10000 4.63 150 18:36 12.02.2022
5328 Clear 4 1025 60 10000 4.12 160 17:39 12.02.2022
5329 Clear 5 1025 56 10000 5.66 160 16:46 12.02.2022
5330 Clear 6 1026 56 10000 4.12 170 15:53 12.02.2022
5331 Clear 6 1027 52 10000 6.17 180 15:20 12.02.2022
5332 Clear 6 1028 56 10000 6.17 170 14:25 12.02.2022
5333 Clear 3 1030 75 10000 4.63 140 11:33 12.02.2022
5334 Clear 2 1031 86 10000 3.09 140 10:32 12.02.2022
5335 Fog 0 1031 93 10000 2.57 160 09:37 12.02.2022
5336 Clear -1 1031 93 10000 2.57 160 08:47 12.02.2022
5337 Clear -2 1031 93 10000 3.6 170 07:44 12.02.2022
5338 Clear 0 1034 92 10000 1.59 168 04:50 12.02.2022
5339 Clear 0 1035 92 10000 1.52 185 02:19 12.02.2022
5340 Clouds 0 1035 93 10000 1.02 232 23:34 11.02.2022
5341 Clouds 1 1034 91 10000 1.04 247 22:23 11.02.2022
5342 Clouds 2 1034 91 10000 1.04 247 21:34 11.02.2022
5343 Clouds 2 1032 93 10000 4.12 290 20:28 11.02.2022
5344 Clouds 2 1031 93 10000 4.63 330 19:29 11.02.2022
5345 Clouds 3 1031 81 10000 5.14 300 18:41 11.02.2022
5346 Clouds 3 1029 87 10000 7.2 310 17:27 11.02.2022
5347 Clouds 3 1028 87 10000 10.29 310 16:47 11.02.2022
5348 Clouds 4 1025 87 10000 11.83 290 15:22 11.02.2022
5349 Drizzle 4 1025 81 10000 11.32 290 14:38 11.02.2022
5350 Clouds 5 1024 81 10000 12.86 290 14:19 11.02.2022
5351 Drizzle 5 1024 81 10000 11.83 280 13:44 11.02.2022
5352 Clouds 5 1023 81 10000 11.83 280 13:25 11.02.2022
5353 Clouds 4 1021 75 10000 10.8 270 10:59 11.02.2022
5354 Clouds 3 1020 81 10000 8.75 270 09:32 11.02.2022
5355 Clouds 2 1020 87 10000 6.69 250 08:33 11.02.2022
5356 Clouds 2 1019 86 10000 4.12 220 07:45 11.02.2022
5357 Clouds 2 1022 83 10000 4.28 257 06:24 11.02.2022
5358 Rain 3 1021 94 6862 2 294 02:21 11.02.2022
5359 Rain 4 1021 98 42 3.5 304 23:45 10.02.2022
5360 Rain 5 1021 97 197 1.38 279 22:26 10.02.2022
5361 Rain 5 1021 97 197 1.38 279 21:41 10.02.2022
5362 Clouds 5 1021 95 5027 1.58 275 20:50 10.02.2022
5363 Clouds 5 1019 93 10000 1.54 230 19:51 10.02.2022
5364 Clouds 5 1019 93 10000 1.03 250 19:22 10.02.2022
5365 Clouds 5 1019 93 10000 1.03 250 19:22 10.02.2022
5366 Clouds 6 1019 87 10000 1.03 230 18:32 10.02.2022
5367 Rain 6 1019 93 10000 4.12 290 17:21 10.02.2022
5368 Rain 6 1019 93 10000 2.06 280 16:43 10.02.2022
5369 Clouds 7 1018 87 10000 4.12 230 15:40 10.02.2022
5370 Clouds 7 1018 81 10000 4.12 220 15:21 10.02.2022
5371 Clouds 7 1018 76 10000 4.12 220 14:35 10.02.2022
5372 Clouds 7 1018 76 10000 4.12 240 13:40 10.02.2022
5373 Clouds 7 1018 76 10000 3.09 230 13:19 10.02.2022
5374 Clouds 6 1018 81 10000 4.63 220 11:52 10.02.2022
5375 Clouds 6 1018 81 10000 5.14 220 11:30 10.02.2022
5376 Clouds 6 1018 81 10000 4.63 200 10:23 10.02.2022
5377 Clouds 5 1018 81 10000 3.09 180 09:44 10.02.2022
5378 Clear 4 1018 93 10000 2.06 200 08:25 10.02.2022
5379 Clouds 3 1020 96 10000 2.88 183 06:33 10.02.2022
5380 Clouds 5 1022 94 10000 2.43 189 02:43 10.02.2022
5381 Clouds 6 1023 80 10000 2.84 208 00:53 10.02.2022
5382 Clouds 7 1023 80 10000 2.84 208 00:30 10.02.2022
5383 Clouds 7 1023 77 10000 2.56 217 23:58 09.02.2022
5384 Clouds 7 1024 80 10000 2.39 217 22:54 09.02.2022
5385 Clouds 7 1024 80 10000 2.39 217 22:30 09.02.2022
5386 Clouds 8 1024 84 10000 2.43 211 21:46 09.02.2022
5387 Clouds 8 1025 85 10000 2.58 214 21:26 09.02.2022
5388 Clouds 8 1024 71 10000 3.09 220 20:42 09.02.2022
5389 Clouds 9 1024 71 10000 3.09 220 20:21 09.02.2022
5390 Clouds 8 1024 71 10000 3.09 220 19:39 09.02.2022
5391 Clouds 9 1024 71 10000 4.12 220 18:30 09.02.2022
5392 Clouds 9 1024 76 10000 4.12 260 16:54 09.02.2022
5393 Clouds 9 1024 76 10000 5.14 260 15:56 09.02.2022
5394 Clouds 10 1024 71 10000 4.63 270 15:22 09.02.2022
5395 Clouds 10 1024 71 10000 4.63 270 15:22 09.02.2022
5396 Clouds 9 1025 81 10000 5.14 240 12:43 09.02.2022
5397 Clouds 9 1025 76 10000 4.63 210 11:23 09.02.2022
5398 Clouds 9 1025 76 10000 4.12 210 10:33 09.02.2022
5399 Clouds 8 1025 76 10000 5.66 210 09:47 09.02.2022
5400 Clouds 8 1025 81 10000 4.63 210 09:20 09.02.2022
5401 Clouds 8 1025 81 10000 3.6 210 08:43 09.02.2022
5402 Clouds 7 1026 85 10000 3.94 225 05:55 09.02.2022
5403 Clouds 7 1027 85 10000 4.14 229 03:51 09.02.2022
5404 Clouds 8 1028 93 10000 3.79 219 01:55 09.02.2022
5405 Clouds 8 1026 81 10000 3.6 230 23:42 08.02.2022
5406 Clouds 8 1026 81 10000 6.17 240 22:53 08.02.2022
5407 Clouds 8 1028 88 10000 4.42 234 22:27 08.02.2022
5408 Clouds 8 1028 88 10000 4.42 234 21:58 08.02.2022
5409 Clouds 8 1028 88 10000 4.28 237 21:22 08.02.2022
5410 Clouds 8 1028 88 10000 4.28 237 20:56 08.02.2022
5411 Clouds 8 1026 81 10000 6.69 240 20:31 08.02.2022
5412 Clouds 9 1025 76 10000 6.69 240 18:55 08.02.2022
5413 Clouds 9 1025 76 10000 6.17 250 17:50 08.02.2022
5414 Clouds 8 1025 76 10000 6.69 250 16:42 08.02.2022
5415 Clouds 8 1025 76 10000 5.66 230 15:39 08.02.2022
5416 Clouds 8 1025 76 10000 7.2 240 14:57 08.02.2022
5417 Clouds 8 1025 81 10000 5.14 240 13:30 08.02.2022
5418 Clouds 7 1025 81 10000 5.66 210 12:20 08.02.2022
5419 Clouds 6 1025 81 10000 4.63 200 10:45 08.02.2022
5420 Clouds 5 1025 87 10000 5.66 210 09:46 08.02.2022
5421 Clouds 5 1024 81 10000 6.17 210 08:27 08.02.2022
5422 Clouds 4 1026 88 10000 4.59 217 05:45 08.02.2022
5423 Clouds 4 1027 86 10000 4.42 211 04:39 08.02.2022
5424 Clouds 4 1027 85 10000 4.77 212 04:21 08.02.2022
5425 Clouds 4 1027 85 10000 4.77 212 03:36 08.02.2022
5426 Clouds 4 1027 86 10000 4.67 210 03:18 08.02.2022
5427 Clouds 4 1027 86 10000 4.67 210 02:59 08.02.2022
5428 Clouds 3 1027 86 10000 4.67 210 02:36 08.02.2022
5429 Clouds 3 1028 90 10000 4.23 210 02:18 08.02.2022
5430 Clouds 3 1028 90 10000 4.23 210 02:18 08.02.2022
5431 Clouds 3 1028 90 10000 4.23 210 01:44 08.02.2022
5432 Clouds 3 1028 92 10000 3.51 214 01:24 08.02.2022
5433 Clouds 3 1028 92 10000 3.51 214 00:55 08.02.2022
5434 Clouds 2 1028 88 10000 3.12 227 23:58 07.02.2022
5435 Clouds 2 1028 88 10000 3.12 227 23:40 07.02.2022
5436 Clouds 2 1028 88 10000 3.12 227 23:40 07.02.2022
5437 Clouds 2 1028 87 10000 3.29 242 23:18 07.02.2022
5438 Clouds 3 1028 87 10000 3.3 242 22:54 07.02.2022
5439 Clouds 3 1028 87 10000 3.67 255 22:18 07.02.2022
5440 Clouds 4 1028 87 10000 3.67 255 21:44 07.02.2022
5441 Clouds 4 1027 85 10000 4.08 266 21:25 07.02.2022
5442 Clouds 4 1025 75 10000 6.69 280 20:41 07.02.2022
5443 Clouds 4 1024 75 10000 7.72 280 19:56 07.02.2022
5444 Clouds 4 1024 75 10000 7.72 280 19:38 07.02.2022
5445 Clouds 5 1023 70 10000 7.72 280 18:21 07.02.2022
5446 Clouds 5 1022 75 10000 8.75 290 16:53 07.02.2022
5447 Clouds 6 1022 70 10000 8.23 280 16:20 07.02.2022
5448 Clouds 6 1021 65 10000 10.29 290 15:48 07.02.2022
5449 Clouds 7 1020 70 10000 10.8 290 13:36 07.02.2022
5450 Clouds 6 1020 70 10000 9.77 290 13:18 07.02.2022
5451 Clouds 5 1018 81 10000 9.26 290 11:58 07.02.2022
5452 Clouds 5 1018 81 10000 9.26 290 11:36 07.02.2022
5453 Clouds 5 1016 81 10000 8.75 290 10:51 07.02.2022
5454 Clouds 4 1016 87 10000 8.23 290 10:31 07.02.2022
5455 Clouds 4 1015 87 10000 8.23 290 09:53 07.02.2022
5456 Clouds 3 1014 93 10000 8.75 290 09:18 07.02.2022
5457 Rain 3 1013 87 10000 9.77 290 08:38 07.02.2022
5458 Clouds 3 1013 83 10000 8.77 298 07:19 07.02.2022
5459 Clouds 3 1013 84 10000 8.76 298 06:34 07.02.2022
5460 Clouds 2 1006 78 10000 8.08 297 03:27 07.02.2022
5461 Rain 4 1002 90 2652 8.32 295 00:45 07.02.2022
5462 Clouds 4 1000 95 2936 8.22 296 23:48 06.02.2022
5463 Clouds 4 999 91 10000 8.35 282 22:48 06.02.2022
5464 Clouds 4 998 96 1463 5.73 246 21:55 06.02.2022
5465 Clouds 4 998 96 1463 5.73 246 21:35 06.02.2022
5466 Rain 4 998 97 160 5.61 260 20:55 06.02.2022
5467 Rain 5 998 87 10000 6.17 230 20:31 06.02.2022
5468 Clouds 5 998 87 10000 7.2 230 19:38 06.02.2022
5469 Clouds 5 998 81 10000 6.17 240 18:40 06.02.2022
5470 Clouds 5 998 87 10000 4.63 260 17:56 06.02.2022
5471 Clouds 5 998 87 10000 6.17 290 17:19 06.02.2022
5472 Rain 6 998 87 10000 12.35 260 16:38 06.02.2022
5473 Rain 6 994 87 10000 10.8 210 15:49 06.02.2022
5474 Rain 5 995 87 10000 10.8 200 15:26 06.02.2022
5475 Rain 5 996 87 10000 10.8 200 14:36 06.02.2022
5476 Rain 5 996 87 10000 10.8 200 14:36 06.02.2022
5477 Drizzle 6 999 81 10000 11.32 210 13:25 06.02.2022
5478 Clouds 6 1000 75 10000 11.83 210 12:52 06.02.2022
5479 Clouds 6 1002 81 10000 9.77 210 11:32 06.02.2022
5480 Clouds 6 1004 87 10000 7.72 200 10:30 06.02.2022
5481 Clouds 5 1006 81 10000 8.23 210 08:53 06.02.2022
5482 Clouds 5 1006 81 10000 8.75 210 07:51 06.02.2022
5483 Rain 5 1009 86 10000 10.24 225 05:30 06.02.2022
5484 Rain 5 1009 86 10000 10.24 225 05:30 06.02.2022
5485 Rain 5 1009 86 10000 10.24 225 05:30 06.02.2022
5486 Clouds 5 1013 81 10000 9.21 227 02:26 06.02.2022
5487 Clouds 5 1013 81 10000 9.21 227 01:47 06.02.2022
5488 Clouds 5 1015 78 10000 8.52 225 00:26 06.02.2022
5489 Clouds 5 1017 77 10000 8.25 227 22:20 05.02.2022
5490 Clouds 4 1018 77 10000 8.04 227 20:59 05.02.2022
5491 Clear 5 1016 65 10000 7.2 210 20:24 05.02.2022
5492 Clear 5 1016 60 10000 7.72 220 19:45 05.02.2022
5493 Clear 5 1017 65 10000 5.66 220 18:52 05.02.2022
5494 Clouds 5 1017 60 10000 7.2 230 17:38 05.02.2022
5495 Clouds 6 1017 60 10000 7.2 230 16:48 05.02.2022
5496 Clouds 6 1018 65 10000 7.2 240 15:33 05.02.2022
5497 Clouds 6 1018 60 10000 6.69 240 14:47 05.02.2022
5498 Clouds 6 1019 60 10000 6.17 260 12:47 05.02.2022
5499 Clouds 5 1018 60 10000 6.17 250 11:49 05.02.2022
5500 Clouds 5 1018 70 10000 6.17 240 10:47 05.02.2022
5501 Clouds 4 1018 65 10000 5.14 260 09:53 05.02.2022
5502 Clouds 4 1018 65 10000 6.17 270 09:29 05.02.2022
5503 Clouds 4 1016 75 10000 6.17 260 07:38 05.02.2022
5504 Clouds 3 1018 72 10000 6.62 266 06:56 05.02.2022
5505 Clouds 4 1016 71 10000 6.65 264 04:28 05.02.2022
5506 Clouds 3 1015 70 10000 7.93 269 01:19 05.02.2022
5507 Clouds 3 1015 70 10000 8.15 270 00:51 05.02.2022
5508 Clouds 4 1011 81 10000 7.72 280 23:38 04.02.2022
5509 Clouds 4 1011 81 10000 7.72 280 23:20 04.02.2022
5510 Drizzle 3 1009 93 10000 8.75 290 21:37 04.02.2022
5511 Clouds 4 1008 87 10000 9.77 280 21:18 04.02.2022
5512 Clouds 4 1007 93 10000 11.83 290 20:50 04.02.2022
5513 Clouds 6 1004 81 10000 8.75 210 19:33 04.02.2022
5514 Clouds 7 1005 81 10000 6.17 210 17:27 04.02.2022
5515 Clouds 7 1006 87 10000 4.63 200 15:38 04.02.2022
5516 Clouds 7 1007 81 10000 6.17 190 14:51 04.02.2022
5517 Clouds 7 1009 81 10000 6.17 200 12:43 04.02.2022
5518 Drizzle 7 1010 87 10000 4.63 190 11:46 04.02.2022
5519 Clouds 7 1010 81 10000 5.66 190 11:18 04.02.2022
5520 Clouds 6 1010 81 10000 7.2 210 10:30 04.02.2022
5521 Clouds 6 1011 87 10000 5.14 200 08:33 04.02.2022
5522 Clouds 5 1013 89 10000 4.51 222 04:53 04.02.2022
5523 Clouds 5 1013 86 10000 4.22 230 02:38 04.02.2022
5524 Rain 5 1013 90 10000 4.27 233 00:26 04.02.2022
5525 Clouds 6 1013 89 10000 4.12 229 22:55 03.02.2022
5526 Clouds 6 1013 88 10000 4.11 231 22:22 03.02.2022
5527 Clouds 6 1013 88 10000 4.11 231 21:41 03.02.2022
5528 Clouds 6 1012 93 10000 2.06 200 20:22 03.02.2022
5529 Clouds 6 1012 93 10000 1.54 210 19:57 03.02.2022
5530 Drizzle 6 1012 93 10000 1.03 260 19:23 03.02.2022
5531 Clouds 7 1012 93 10000 1.54 250 18:24 03.02.2022
5532 Clouds 7 1013 87 10000 3.6 210 17:26 03.02.2022
5533 Clouds 8 1013 87 10000 3.09 210 15:38 03.02.2022
5534 Clouds 8 1014 81 10000 4.12 200 14:22 03.02.2022
5535 Clouds 8 1015 81 10000 4.63 210 12:32 03.02.2022
5536 Clouds 5 1017 93 10000 1.03 0 08:59 03.02.2022
5537 Clouds 4 1017 100 9000 1.54 130 08:18 03.02.2022
5538 Clouds 1 1022 94 10000 2.45 191 00:59 03.02.2022
5539 Clouds 0 1022 94 10000 2.28 200 00:22 03.02.2022
5540 Clouds 0 1022 94 10000 2.13 203 22:40 02.02.2022
5541 Clouds 1 1022 93 10000 1.96 206 21:52 02.02.2022
5542 Clear 2 1020 87 10000 1.03 230 21:29 02.02.2022
5543 Clouds 3 1020 81 10000 3.09 260 20:27 02.02.2022
5544 Clouds 3 1020 75 10000 4.12 270 19:48 02.02.2022
5545 Clear 4 1019 75 10000 3.09 260 19:00 02.02.2022
5546 Clouds 5 1019 75 10000 3.6 300 18:25 02.02.2022
5547 Clouds 6 1018 75 10000 6.69 310 17:22 02.02.2022
5548 Clouds 6 1018 70 10000 8.23 310 16:58 02.02.2022
5549 Clouds 6 1016 70 10000 10.29 300 15:29 02.02.2022
5550 Clouds 6 1015 81 10000 9.77 300 12:31 02.02.2022
5551 Clouds 6 1014 81 10000 9.77 300 11:49 02.02.2022
5552 Clouds 6 1014 75 10000 9.77 300 11:30 02.02.2022
5553 Clouds 5 1012 81 10000 9.77 310 08:48 02.02.2022
5554 Clouds 5 1011 83 10000 8.94 295 02:44 02.02.2022
5555 Rain 6 1009 83 10000 9.57 306 22:33 01.02.2022
5556 Clouds 7 1008 79 10000 9.41 299 20:55 01.02.2022
5557 Clouds 7 1006 87 7000 13.38 290 19:29 01.02.2022
5558 Rain 6 1006 93 7000 5.66 260 17:34 01.02.2022
5559 Rain 4 1006 93 10000 7.72 240 16:21 01.02.2022
5560 Drizzle 4 1011 81 7000 7.2 220 12:57 01.02.2022
5561 Clouds 4 1012 75 10000 6.69 220 12:21 01.02.2022
5562 Clouds 2 1016 87 10000 3.09 250 08:52 01.02.2022
5563 Clouds 2 1016 96 6836 4.12 297 02:20 01.02.2022
5564 Clouds 2 1016 94 10000 4.7 337 23:37 31.01.2022
5565 Clouds 3 1016 94 10000 4.7 337 22:33 31.01.2022
5566 Clouds 3 1014 96 4699 4.8 341 21:35 31.01.2022
5567 Clouds 3 1014 96 4777 4.79 341 21:35 31.01.2022
5568 Drizzle 3 1009 93 6000 10.8 320 20:34 31.01.2022
5569 Drizzle 4 1008 93 10000 6.69 290 19:57 31.01.2022
5570 Clouds 5 1006 93 10000 7.2 280 18:32 31.01.2022
5571 Clouds 5 1006 87 10000 7.2 290 17:55 31.01.2022
5572 Clouds 5 1005 93 10000 7.2 300 16:58 31.01.2022
5573 Clouds 5 1005 93 8000 6.17 320 16:21 31.01.2022
5574 Drizzle 4 1003 93 4200 6.17 300 14:50 31.01.2022
5575 Drizzle 4 1002 87 10000 4.12 260 13:29 31.01.2022
5576 Clouds 3 1002 93 10000 3.09 250 12:37 31.01.2022
5577 Rain 3 1002 93 10000 5.14 230 10:59 31.01.2022
5578 Clouds 3 1002 93 10000 5.14 230 10:38 31.01.2022
5579 Clouds 2 1003 87 10000 4.63 250 09:36 31.01.2022
5580 Clouds 2 1003 87 10000 7.2 230 08:54 31.01.2022
5581 Snow 2 1003 93 9000 6.17 220 08:20 31.01.2022
5582 Snow 2 1003 93 7000 5.66 220 07:37 31.01.2022
5583 Rain 2 1010 93 2186 5.78 214 05:24 31.01.2022
5584 Clouds 2 1021 86 10000 2.28 214 00:23 31.01.2022
5585 Clouds 2 1022 87 10000 2.26 207 22:33 30.01.2022
5586 Clouds 2 1024 87 10000 2.25 233 21:45 30.01.2022
5587 Clouds 3 1025 87 10000 2.39 242 21:24 30.01.2022
5588 Clouds 3 1025 87 10000 2.39 242 20:51 30.01.2022
5589 Clouds 4 1023 70 10000 4.12 280 20:31 30.01.2022
5590 Clouds 4 1024 70 10000 4.12 280 19:55 30.01.2022
5591 Clouds 4 1024 65 10000 7.2 290 18:51 30.01.2022
5592 Clouds 5 1024 60 10000 6.69 290 18:22 30.01.2022
5593 Clouds 5 1024 65 10000 6.17 290 17:30 30.01.2022
5594 Clouds 5 1024 60 10000 7.2 290 16:42 30.01.2022
5595 Clouds 5 1024 60 10000 9.77 300 16:22 30.01.2022
5596 Clouds 5 1024 65 10000 9.77 300 15:54 30.01.2022
5597 Clouds 5 1024 65 10000 9.77 300 15:54 30.01.2022
5598 Clouds 5 1024 65 10000 9.77 300 15:32 30.01.2022
5599 Clouds 5 1024 65 10000 8.23 300 14:47 30.01.2022
5600 Clouds 5 1024 70 10000 8.75 300 13:44 30.01.2022
5601 Clouds 5 1024 75 10000 8.75 300 12:44 30.01.2022
5602 Drizzle 5 1022 75 9000 12.35 300 10:39 30.01.2022
5603 Clouds 4 1022 81 10000 10.8 300 09:58 30.01.2022
5604 Clouds 4 1021 81 10000 12.35 300 09:21 30.01.2022
5605 Clouds 4 1021 81 10000 12.86 300 07:57 30.01.2022
5606 Clouds 6 1022 75 10000 9.89 298 02:44 30.01.2022
5607 Clear 6 1022 75 10000 9.53 295 01:52 30.01.2022
5608 Clouds 8 1021 69 10000 9.47 287 23:46 29.01.2022
5609 Clouds 8 1020 71 10000 9.41 286 22:48 29.01.2022
5610 Clouds 8 1017 76 10000 14.4 290 21:28 29.01.2022
5611 Clouds 8 1017 87 10000 11.32 290 20:50 29.01.2022
5612 Clouds 8 1018 79 10000 9.53 287 19:47 29.01.2022
5613 Clouds 9 1016 71 10000 12.86 280 19:29 29.01.2022
5614 Clouds 9 1016 76 9000 10.8 260 18:39 29.01.2022
5615 Drizzle 8 1016 87 8000 8.23 250 17:42 29.01.2022
5616 Drizzle 9 1017 76 9000 8.75 260 16:43 29.01.2022
5617 Clouds 8 1018 76 10000 6.69 260 15:20 29.01.2022
5618 Clouds 7 1019 81 10000 6.69 230 13:47 29.01.2022
5619 Clouds 8 1020 81 10000 6.69 240 13:26 29.01.2022
5620 Clouds 7 1021 76 10000 4.63 230 12:42 29.01.2022
5621 Clouds 7 1021 81 10000 6.17 250 11:38 29.01.2022
5622 Clouds 6 1022 81 10000 5.66 210 10:25 29.01.2022
5623 Clouds 5 1022 87 10000 5.66 220 07:57 29.01.2022
5624 Clouds 3 1029 90 10000 5.28 216 01:37 29.01.2022
5625 Clouds 2 1031 89 10000 3.54 197 00:31 29.01.2022
5626 Clouds 2 1032 86 10000 2.96 201 23:22 28.01.2022
5627 Clouds 2 1032 86 10000 2.95 201 22:42 28.01.2022
5628 Clouds 2 1033 85 10000 2.7 206 22:18 28.01.2022
5629 Clouds 3 1032 80 10000 1.03 0 20:40 28.01.2022
5630 Clouds 3 1032 80 10000 1.03 0 20:40 28.01.2022
5631 Clouds 3 1032 75 10000 1.03 220 19:51 28.01.2022
5632 Clouds 3 1032 75 10000 1.54 250 18:49 28.01.2022
5633 Clouds 5 1032 70 10000 5.14 280 17:46 28.01.2022
5634 Clouds 6 1033 76 10000 4.77 298 15:46 28.01.2022
5635 Clouds 5 1031 75 10000 6.69 310 14:20 28.01.2022
5636 Clouds 5 1030 75 10000 7.2 310 12:35 28.01.2022
5637 Clouds 5 1030 75 10000 10.8 310 11:38 28.01.2022
5638 Clouds 4 1030 87 10000 7.2 310 10:22 28.01.2022
5639 Clouds 4 1030 87 10000 7.2 310 10:22 28.01.2022
5640 Clouds 4 1029 81 10000 6.17 290 09:45 28.01.2022
5641 Clouds 4 1027 81 10000 8.23 290 07:40 28.01.2022
5642 Clouds 4 1028 75 10000 8.92 309 05:24 28.01.2022
5643 Clouds 4 1027 80 10000 8.33 304 03:47 28.01.2022
5644 Clouds 4 1025 77 10000 8.27 301 02:23 28.01.2022
5645 Clouds 4 1025 77 10000 8.27 301 01:34 28.01.2022
5646 Clouds 4 1023 82 10000 7.77 295 23:33 27.01.2022
5647 Clouds 5 1022 80 10000 7.55 292 21:54 27.01.2022
5648 Clouds 5 1022 80 10000 7.55 292 21:30 27.01.2022
5649 Clouds 5 1022 80 10000 7.55 292 21:30 27.01.2022
5650 Clouds 5 1022 77 10000 7.92 292 20:53 27.01.2022
5651 Clouds 5 1021 77 10000 7.79 289 19:30 27.01.2022
5652 Clouds 5 1019 93 10000 5.14 240 17:56 27.01.2022
5653 Rain 5 1019 93 5000 5.14 240 15:30 27.01.2022
5654 Mist 4 1020 93 4000 3.09 210 13:39 27.01.2022
5655 Drizzle 3 1020 93 4000 5.66 210 12:46 27.01.2022
5656 Clouds 3 1021 81 8000 4.63 210 10:46 27.01.2022
5657 Clouds 2 1021 80 10000 5.14 220 09:19 27.01.2022
5658 Clouds 2 1022 80 10000 5.14 200 08:37 27.01.2022
5659 Clouds 2 1024 85 10000 6.31 224 07:22 27.01.2022
5660 Clouds 2 1027 84 10000 4.81 233 02:57 27.01.2022
5661 Clouds 2 1028 88 10000 4.49 229 23:33 26.01.2022
5662 Clouds 2 1029 86 10000 4 230 22:25 26.01.2022
5663 Clouds 2 1029 86 10000 4 230 21:36 26.01.2022
5664 Mist 2 1028 93 5000 3.6 250 20:41 26.01.2022
5665 Mist 2 1028 93 5000 3.6 250 20:22 26.01.2022
5666 Clouds 2 1029 86 7000 4.12 270 19:23 26.01.2022
5667 Clouds 2 1029 86 7000 4.12 260 18:45 26.01.2022
5668 Clouds 2 1029 80 7000 5.14 280 17:51 26.01.2022
5669 Clouds 2 1029 80 7000 5.66 290 17:23 26.01.2022
5670 Clouds 2 1029 80 7000 4.12 280 16:33 26.01.2022
5671 Clouds 2 1029 86 5000 3.6 240 15:49 26.01.2022
5672 Mist 2 1030 86 3100 2.57 230 14:20 26.01.2022
5673 Mist 1 1030 86 4800 4.12 270 11:52 26.01.2022
5674 Clouds 1 1030 86 9000 3.09 220 10:28 26.01.2022
5675 Clouds 1 1030 86 9000 2.57 220 09:48 26.01.2022
5676 Clouds 1 1030 93 7000 2.57 250 07:44 26.01.2022
5677 Clouds 1 1032 85 10000 1.03 265 03:31 26.01.2022
5678 Clouds 1 1033 87 10000 0.74 247 23:58 25.01.2022
5679 Clouds 2 1033 87 10000 0.6 247 23:19 25.01.2022
5680 Clouds 2 1034 87 10000 0.62 272 22:21 25.01.2022
5681 Clouds 2 1034 87 10000 0.62 272 21:58 25.01.2022
5682 Clouds 2 1032 86 8000 1.54 260 20:47 25.01.2022
5683 Clouds 2 1032 86 8000 1.54 260 20:28 25.01.2022
5684 Clouds 2 1032 86 8000 1.54 260 20:28 25.01.2022
5685 Clouds 2 1032 86 8000 1.54 260 20:28 25.01.2022
5686 Clouds 2 1032 93 9000 0.51 0 19:52 25.01.2022
5687 Clouds 2 1032 93 9000 2.57 10 18:37 25.01.2022
5688 Clouds 2 1032 93 10000 2.06 310 17:44 25.01.2022
5689 Clouds 2 1032 93 10000 1.03 0 16:35 25.01.2022
5690 Clouds 2 1031 93 9000 1.03 0 15:49 25.01.2022
5691 Clouds 2 1032 93 9000 0.51 0 15:31 25.01.2022
5692 Clouds 2 1032 93 9000 1.03 0 14:57 25.01.2022
5693 Clouds 2 1032 93 9000 1.03 0 13:42 25.01.2022
5694 Clouds 2 1033 93 8000 1.03 0 10:51 25.01.2022
5695 Mist 2 1032 93 3900 2.57 350 08:37 25.01.2022
5696 Clear 2 1034 95 10000 0.33 245 07:29 25.01.2022
5697 Clear 2 1034 94 10000 0.44 247 06:49 25.01.2022
5698 Clear 2 1034 94 10000 0.83 215 05:22 25.01.2022
5699 Clear 3 1034 93 10000 1.05 210 23:37 24.01.2022
5700 Clouds 3 1033 93 10000 2.06 210 23:18 24.01.2022
5701 Clouds 3 1033 93 10000 2.06 210 22:59 24.01.2022
5702 Clouds 3 1033 93 10000 2.06 210 22:41 24.01.2022
5703 Clear 3 1034 92 10000 1.18 212 21:53 24.01.2022
5704 Clear 3 1034 92 10000 1.18 212 21:53 24.01.2022
5705 Clear 4 1034 91 10000 1.18 214 21:28 24.01.2022
5706 Clouds 4 1033 87 10000 2.06 200 20:30 24.01.2022
5707 Clouds 4 1033 87 10000 2.57 190 19:44 24.01.2022
5708 Clouds 4 1033 87 10000 2.06 230 19:24 24.01.2022
5709 Clouds 4 1033 93 10000 3.09 160 17:59 24.01.2022
5710 Clouds 4 1033 93 10000 3.09 180 17:23 24.01.2022
5711 Clouds 4 1033 93 10000 3.09 170 16:41 24.01.2022
5712 Clouds 4 1033 93 10000 3.6 180 16:18 24.01.2022
5713 Clouds 5 1033 87 10000 3.09 190 14:35 24.01.2022
5714 Clouds 5 1034 87 10000 4.12 170 12:40 24.01.2022
5715 Clouds 5 1034 87 10000 3.6 190 12:22 24.01.2022
5716 Clouds 5 1034 87 10000 3.6 170 10:27 24.01.2022
5717 Clouds 4 1034 87 10000 2.06 150 09:48 24.01.2022
5718 Clouds 4 1034 87 10000 1.54 150 08:30 24.01.2022
5719 Clear 4 1035 94 10000 0.6 119 04:50 24.01.2022
5720 Clear 4 1035 93 10000 0.64 111 01:30 24.01.2022
5721 Clouds 4 1035 92 10000 0.91 158 00:35 24.01.2022
5722 Clouds 4 1035 91 10000 0.95 145 23:49 23.01.2022
5723 Clouds 4 1035 91 10000 0.95 145 23:49 23.01.2022
5724 Clouds 5 1036 91 10000 0.57 91 22:28 23.01.2022
5725 Clouds 5 1036 91 10000 0.57 90 21:46 23.01.2022
5726 Clouds 5 1036 92 10000 0.72 33 21:24 23.01.2022
5727 Clouds 5 1035 93 10000 1.54 330 20:44 23.01.2022
5728 Clouds 5 1035 93 10000 2.06 320 19:43 23.01.2022
5729 Clouds 5 1035 93 10000 1.54 330 18:50 23.01.2022
5730 Clouds 5 1034 93 10000 1.54 310 17:34 23.01.2022
5731 Clouds 6 1034 87 10000 2.57 300 16:45 23.01.2022
5732 Clouds 6 1034 87 10000 3.6 310 14:59 23.01.2022
5733 Clouds 6 1034 87 10000 2.57 280 14:21 23.01.2022
5734 Clouds 5 1035 81 10000 3.6 300 12:51 23.01.2022
5735 Clouds 5 1035 81 10000 4.12 270 12:22 23.01.2022
5736 Clouds 5 1035 93 10000 2.57 300 11:51 23.01.2022
5737 Clouds 5 1035 87 10000 1.54 320 11:18 23.01.2022
5738 Clouds 4 1035 93 10000 2.06 280 10:27 23.01.2022
5739 Clouds 4 1034 93 10000 2.06 230 09:40 23.01.2022
5740 Clouds 3 1034 93 10000 2.57 290 08:51 23.01.2022
5741 Clouds 3 1034 96 10000 0.95 298 05:55 23.01.2022
5742 Clouds 4 1033 95 10000 2.4 304 01:49 23.01.2022
5743 Clouds 4 1033 96 10000 2.52 301 01:25 23.01.2022
5744 Clouds 4 1033 95 10000 2.82 297 00:23 23.01.2022
5745 Clouds 5 1033 95 10000 2.82 297 23:44 22.01.2022
5746 Clouds 5 1033 94 10000 3.03 294 22:40 22.01.2022
5747 Clouds 5 1033 93 10000 3.22 290 21:28 22.01.2022
5748 Drizzle 5 1031 100 9000 4.12 310 19:51 22.01.2022
5749 Clouds 5 1031 100 10000 5.14 290 18:49 22.01.2022
5750 Clouds 5 1031 87 10000 5.66 290 17:59 22.01.2022
5751 Clouds 5 1031 87 10000 5.66 290 17:35 22.01.2022
5752 Clouds 6 1030 87 10000 7.2 290 16:55 22.01.2022
5753 Clouds 6 1030 93 10000 7.2 290 15:49 22.01.2022
5754 Clouds 6 1030 93 10000 4.12 290 14:57 22.01.2022
5755 Drizzle 6 1030 93 2800 6.17 290 13:42 22.01.2022
5756 Drizzle 6 1030 93 7000 6.17 300 12:50 22.01.2022
5757 Drizzle 6 1030 93 5000 5.66 300 12:28 22.01.2022
5758 Mist 6 1029 93 5000 6.17 290 10:56 22.01.2022
5759 Drizzle 6 1029 93 8000 6.17 290 10:29 22.01.2022
5760 Drizzle 5 1029 100 6000 6.69 290 09:58 22.01.2022
5761 Drizzle 5 1028 100 6000 7.72 290 08:51 22.01.2022
5762 Drizzle 5 1028 93 8000 7.2 290 07:34 22.01.2022
5763 Clouds 5 1028 98 507 5.7 305 04:52 22.01.2022
5764 Clouds 5 1028 97 116 6.36 296 01:34 22.01.2022
5765 Rain 4 1028 98 194 6.25 294 23:38 21.01.2022
5766 Rain 4 1028 98 194 6.25 294 23:38 21.01.2022
5767 Clouds 4 1028 93 10000 7.2 280 22:28 21.01.2022
5768 Drizzle 3 1028 93 3900 5.14 270 20:22 21.01.2022
5769 Drizzle 3 1028 93 4200 3.09 270 18:39 21.01.2022
5770 Clouds 2 1029 83 10000 5.38 310 17:28 21.01.2022
5771 Clouds 3 1029 93 9000 5.66 290 15:30 21.01.2022
5772 Clouds 2 1029 87 10000 7.72 300 13:29 21.01.2022
5773 Clouds 2 1029 93 10000 8.23 300 12:38 21.01.2022
5774 Clouds 1 1029 93 10000 9.26 280 11:27 21.01.2022
5775 Snow 1 1029 93 10000 8.23 280 10:19 21.01.2022
5776 Clouds 1 1028 86 10000 7.2 280 08:24 21.01.2022
5777 Clouds 0 1030 95 10000 3.38 299 04:49 21.01.2022
5778 Snow 0 1029 96 703 3.56 311 23:35 20.01.2022
5779 Snow 1 1028 94 1534 4.68 319 22:24 20.01.2022
5780 Snow 1 1028 94 1592 4.67 319 21:43 20.01.2022
5781 Snow 1 1024 86 10000 10.29 300 20:43 20.01.2022
5782 Snow 1 1023 86 10000 7.2 290 19:20 20.01.2022
5783 Snow 1 1023 80 10000 11.83 300 18:44 20.01.2022
5784 Snow 1 1022 93 10000 6.17 280 17:29 20.01.2022
5785 Snow 2 1022 80 10000 9.26 290 15:43 20.01.2022
5786 Snow 1 1022 80 8000 9.77 290 15:19 20.01.2022
5787 Snow 2 1022 80 2600 8.75 300 13:41 20.01.2022
5788 Snow 2 1022 80 6000 8.23 290 12:35 20.01.2022
5789 Snow 2 1022 80 10000 8.75 300 11:50 20.01.2022
5790 Clouds 2 1022 80 10000 9.26 300 10:40 20.01.2022
5791 Snow 2 1021 86 10000 7.2 310 09:37 20.01.2022
5792 Clouds 2 1020 86 10000 7.2 310 08:32 20.01.2022
5793 Clouds 3 1019 97 132 6.89 272 05:32 20.01.2022
5794 Rain 3 1019 96 7247 5.72 271 23:28 19.01.2022
5795 Clouds 3 1019 97 775 5.84 260 22:24 19.01.2022
5796 Clouds 3 1019 97 128 5.47 252 21:23 19.01.2022
5797 Clouds 3 1017 93 8000 5.14 220 20:49 19.01.2022
5798 Clouds 3 1018 87 9000 4.63 230 19:45 19.01.2022
5799 Clouds 3 1018 81 10000 4.63 220 18:40 19.01.2022
5800 Clouds 3 1019 87 10000 4.12 240 17:45 19.01.2022
5801 Clouds 3 1019 75 10000 4.12 270 16:48 19.01.2022
5802 Clouds 4 1020 75 10000 4.12 210 14:42 19.01.2022
5803 Clouds 4 1023 75 10000 5.66 200 12:43 19.01.2022
5804 Clouds 4 1024 81 10000 4.63 210 11:41 19.01.2022
5805 Clouds 3 1025 87 10000 5.66 200 10:35 19.01.2022
5806 Clouds 3 1025 87 10000 4.63 170 09:34 19.01.2022
5807 Clouds 3 1029 95 10000 1.99 185 06:56 19.01.2022
5808 Clouds 3 1033 93 10000 1.9 155 02:41 19.01.2022
5809 Clouds 4 1035 90 10000 1.25 153 23:20 18.01.2022
5810 Clouds 4 1035 90 10000 1.25 153 22:34 18.01.2022
5811 -273 0 0 0 0 0 21:01 18.01.2022
5812 Clouds 5 1036 81 10000 1.54 250 19:55 18.01.2022
5813 Clouds 5 1036 81 10000 1.54 250 19:36 18.01.2022
5814 Clouds 6 1036 87 10000 2.06 250 18:51 18.01.2022
5815 Clouds 6 1036 81 10000 1.54 300 17:58 18.01.2022
5816 Clouds 6 1036 81 10000 2.06 300 16:58 18.01.2022
5817 Clouds 7 1036 87 10000 2.57 290 15:47 18.01.2022
5818 Clouds 7 1036 87 10000 4.12 300 15:22 18.01.2022
5819 Clouds 6 1037 93 10000 3.09 290 12:47 18.01.2022
5820 Clouds 6 1037 93 9000 3.6 290 10:47 18.01.2022
5821 Clouds 5 1036 100 7000 3.09 300 09:21 18.01.2022
5822 Clouds 4 1036 93 9000 3.09 260 07:55 18.01.2022
5823 Clouds 4 1036 86 10000 2.38 327 02:35 18.01.2022
5824 Clouds 4 1036 93 10000 2.21 319 23:46 17.01.2022
5825 Clouds 5 1035 92 10000 3.59 315 22:27 17.01.2022
5826 Clouds 5 1035 92 10000 3.59 315 21:35 17.01.2022
5827 Clouds 6 1032 81 10000 7.2 320 20:24 17.01.2022
5828 Clouds 6 1029 87 10000 7.2 320 18:30 17.01.2022
5829 Drizzle 7 1029 87 10000 7.72 290 17:44 17.01.2022
5830 Clouds 7 1028 87 10000 9.26 290 16:40 17.01.2022
5831 Mist 6 1027 93 4000 10.29 290 15:19 17.01.2022
5832 Mist 6 1027 93 4500 9.77 290 14:55 17.01.2022
5833 Drizzle 6 1027 93 9000 10.29 280 13:26 17.01.2022
5834 Drizzle 6 1027 93 10000 9.77 280 12:55 17.01.2022
5835 Drizzle 6 1027 87 4800 9.77 280 11:49 17.01.2022
5836 Clouds 5 1026 87 10000 11.32 280 10:21 17.01.2022
5837 Clouds 5 1027 75 10000 11.32 290 09:34 17.01.2022
5838 Clouds 5 1028 80 10000 6.75 286 07:24 17.01.2022
5839 Clouds 4 1028 81 10000 6.97 280 02:59 17.01.2022
5840 Clouds 4 1028 97 6198 5.54 262 00:55 17.01.2022
5841 Clouds 4 1027 95 7093 5.76 262 22:29 16.01.2022
5842 Clouds 4 1024 87 10000 2.06 230 20:36 16.01.2022
5843 Clouds 4 1024 81 10000 3.6 260 18:51 16.01.2022
5844 Clouds 4 1023 81 10000 4.63 250 17:59 16.01.2022
5845 Clouds 4 1023 81 10000 5.14 250 16:59 16.01.2022
5846 Clouds 4 1023 81 10000 5.14 250 16:33 16.01.2022
5847 Clouds 4 1022 87 9000 3.6 250 14:31 16.01.2022
5848 Clouds 3 1022 93 9000 4.12 240 13:46 16.01.2022
5849 Clouds 2 1022 93 10000 3.6 210 12:46 16.01.2022
5850 Clouds 2 1022 93 10000 4.12 200 11:41 16.01.2022
5851 Clouds 2 1022 93 10000 4.63 210 10:53 16.01.2022
5852 Clouds 1 1022 93 10000 4.63 220 09:59 16.01.2022
5853 Clouds 1 1022 93 10000 4.63 220 09:40 16.01.2022
5854 Clouds 2 1022 93 10000 3.09 210 09:22 16.01.2022
5855 Clouds 1 1023 97 10000 2.42 191 07:25 16.01.2022
5856 Clouds 1 1025 95 10000 2.23 181 00:38 16.01.2022
5857 Clouds 1 1025 95 10000 2.16 180 23:34 15.01.2022
5858 Clouds 2 1026 95 10000 2.12 172 21:23 15.01.2022
5859 Clouds 2 1026 95 10000 2.12 172 20:56 15.01.2022
5860 Clouds 2 1025 93 10000 2.06 200 20:38 15.01.2022
5861 Clouds 3 1025 93 10000 4.63 180 19:28 15.01.2022
5862 Clouds 3 1026 93 10000 4.12 170 18:31 15.01.2022
5863 Clouds 3 1026 93 10000 4.12 190 16:52 15.01.2022
5864 Clouds 4 1027 93 10000 3.09 170 15:38 15.01.2022
5865 Clouds 4 1028 93 10000 3.6 170 13:35 15.01.2022
5866 Clouds 4 1029 93 8000 3.09 170 11:46 15.01.2022
5867 Fog 3 1029 100 900 1.54 150 09:49 15.01.2022
5868 Clouds 3 1031 95 10000 0.51 211 05:26 15.01.2022
5869 Clouds 3 1033 95 10000 0.56 244 23:40 14.01.2022
5870 Mist 3 1033 100 1400 2.57 260 21:29 14.01.2022
5871 Drizzle 3 1033 100 900 2.06 260 20:37 14.01.2022
5872 Fog 3 1033 100 700 3.09 270 19:56 14.01.2022
5873 Mist 3 1033 100 1600 2.06 270 18:43 14.01.2022
5874 Mist 3 1033 100 3400 3.09 280 17:52 14.01.2022
5875 Mist 3 1033 100 4700 2.06 280 16:43 14.01.2022
5876 Mist 3 1033 100 4700 2.06 280 16:43 14.01.2022
5877 Clouds 3 1033 100 8000 2.57 270 15:33 14.01.2022
5878 Mist 2 1034 100 5000 2.57 280 14:29 14.01.2022
5879 Mist 2 1034 100 4200 3.09 270 12:59 14.01.2022
5880 Clouds 1 1034 100 6000 1.54 250 11:53 14.01.2022
5881 Fog 0 1034 100 800 2.06 180 10:40 14.01.2022
5882 Mist 0 1033 100 4000 0.51 0 08:53 14.01.2022
5883 Clear 1 1035 91 10000 1.8 208 07:32 14.01.2022
5884 Clear 0 1037 92 10000 2 205 02:27 14.01.2022
5885 Clear 1 1038 93 10000 2.16 201 00:22 14.01.2022
5886 Clear 1 1038 93 10000 2.12 197 21:52 13.01.2022
5887 Clear 1 1039 93 10000 2.11 200 21:29 13.01.2022
5888 Fog 1 1037 100 3000 2.57 160 19:58 13.01.2022
5889 Mist 1 1037 100 4300 1.03 0 19:29 13.01.2022
5890 Mist 1 1037 100 5000 1.54 120 18:40 13.01.2022
5891 Clouds 2 1037 93 8000 3.09 150 16:53 13.01.2022
5892 Clouds 2 1037 93 6000 2.57 140 15:39 13.01.2022
5893 Clouds 3 1037 93 9000 2.57 150 15:21 13.01.2022
5894 Clouds 2 1039 93 10000 2.06 160 13:29 13.01.2022
5895 Clouds 1 1040 100 7000 1.54 170 11:18 13.01.2022
5896 Mist 0 1039 100 5000 1.03 140 09:23 13.01.2022
5897 Clear 1 1040 92 10000 1.8 203 08:29 13.01.2022
5898 Clear 1 1040 92 10000 1.8 203 07:58 13.01.2022
5899 Clouds 0 1040 93 10000 1.69 203 07:19 13.01.2022
5900 Clouds 1 1040 92 10000 1.5 211 05:21 13.01.2022
5901 Clouds 1 1040 89 10000 0.98 225 03:48 13.01.2022
5902 Clouds 1 1041 90 10000 1 226 01:38 13.01.2022
5903 Clouds 1 1041 93 10000 1.07 229 23:53 12.01.2022
5904 Clouds 2 1041 93 10000 1.07 229 23:34 12.01.2022
5905 Clouds 2 1041 93 10000 0.76 247 22:32 12.01.2022
5906 Clouds 2 1041 92 10000 0.69 252 21:43 12.01.2022
5907 Clouds 2 1041 91 10000 0.96 265 21:19 12.01.2022
5908 Clouds 2 1039 93 8000 1.03 0 20:47 12.01.2022
5909 Clouds 3 1038 93 8000 1.03 280 18:52 12.01.2022
5910 Clouds 3 1038 93 8000 1.03 0 18:18 12.01.2022
5911 Clouds 3 1038 93 9000 2.57 300 16:52 12.01.2022
5912 Clouds 3 1037 87 10000 2.06 310 14:50 12.01.2022
5913 Clouds 3 1038 87 10000 2.57 310 14:19 12.01.2022
5914 Clouds 3 1037 93 10000 0.51 0 12:57 12.01.2022
5915 Clouds 1 1037 93 10000 1.03 140 09:48 12.01.2022
5916 Clouds 0 1036 100 7000 1.03 140 07:57 12.01.2022
5917 Clouds 0 1036 100 7000 1.03 140 07:33 12.01.2022
5918 Clouds 0 1036 91 10000 1.84 187 02:20 12.01.2022
5919 Clouds 0 1037 88 10000 1.47 183 23:26 11.01.2022
5920 Clouds 2 1036 89 10000 1.27 187 22:25 11.01.2022
5921 Clouds 1 1036 89 10000 1.27 187 21:58 11.01.2022
5922 Fog -1 1034 100 10000 0.51 0 20:39 11.01.2022
5923 Fog 1 1034 100 10000 2.06 150 19:31 11.01.2022
5924 Fog 1 1033 100 10000 1.54 160 17:53 11.01.2022
5925 Fog 2 1033 100 4000 1.54 150 16:39 11.01.2022
5926 Fog 2 1033 100 3000 1.03 160 16:18 11.01.2022
5927 Clear 4 1034 75 10000 0.85 211 14:50 11.01.2022
5928 Clear 4 1034 75 10000 0.85 211 14:32 11.01.2022
5929 Clear 4 1034 70 10000 1.38 184 13:48 11.01.2022
5930 Clear 6 1034 72 10000 1.43 178 13:25 11.01.2022
5931 Fog 1 1033 100 100 1.54 120 12:25 11.01.2022
5932 Fog 0 1033 93 100 0.51 0 10:31 11.01.2022
5933 Fog 0 1032 100 50 1.03 90 07:50 11.01.2022
5934 Clouds 1 1031 85 10000 0.46 98 03:51 11.01.2022
5935 Clouds 2 1031 86 10000 0.5 57 00:27 11.01.2022
5936 Clouds 2 1031 86 10000 0.52 56 23:39 10.01.2022
5937 Clouds 2 1030 86 10000 1.4 37 22:20 10.01.2022
5938 Clouds 3 1030 86 10000 1.41 37 21:57 10.01.2022
5939 Clouds 2 1029 85 10000 1.59 14 21:33 10.01.2022
5940 Clouds 3 1029 85 10000 1.59 14 20:59 10.01.2022
5941 Clouds 3 1027 93 6000 1.54 320 20:36 10.01.2022
5942 Clouds 3 1027 93 6000 1.54 320 20:18 10.01.2022
5943 Clouds 3 1027 93 6000 2.06 310 19:37 10.01.2022
5944 Clouds 3 1026 93 5000 1.54 240 19:18 10.01.2022
5945 Clouds 3 1026 93 6000 2.06 250 18:46 10.01.2022
5946 Clouds 5 1024 87 8000 1.03 330 16:48 10.01.2022
5947 Clouds 5 1024 87 9000 2.06 310 16:20 10.01.2022
5948 Clouds 5 1022 87 10000 3.09 300 14:42 10.01.2022
5949 Clouds 5 1020 93 8000 4.63 290 12:50 10.01.2022
5950 Clouds 4 1020 87 10000 4.12 300 11:56 10.01.2022
5951 Clouds 3 1018 93 9000 3.6 280 10:48 10.01.2022
5952 Clouds 3 1018 93 10000 2.06 290 09:33 10.01.2022
5953 Clouds 2 1015 90 10000 1.14 236 05:51 10.01.2022
5954 Clouds 2 1012 93 10000 1.17 217 02:30 10.01.2022
5955 Clouds 3 1011 93 10000 1.52 221 01:20 10.01.2022
5956 Clouds 2 1010 93 10000 1.75 212 00:19 10.01.2022
5957 Clouds 3 1009 93 10000 1.83 218 22:44 09.01.2022
5958 Clouds 3 1008 92 10000 1.96 233 21:57 09.01.2022
5959 Clouds 3 1008 92 10000 1.96 233 21:37 09.01.2022
5960 Clouds 3 1008 92 10000 1.96 233 21:37 09.01.2022
5961 Clouds 3 1007 90 10000 2.43 243 21:18 09.01.2022
5962 Clouds 3 1004 87 10000 2.57 250 20:45 09.01.2022
5963 Clouds 3 1004 87 10000 2.57 250 20:26 09.01.2022
5964 Clouds 3 1004 87 10000 2.06 230 19:38 09.01.2022
5965 Clouds 3 1003 87 10000 3.09 240 19:20 09.01.2022
5966 Clouds 3 1003 87 10000 2.06 250 18:37 09.01.2022
5967 Clouds 3 1002 87 10000 3.09 250 17:48 09.01.2022
5968 Clouds 4 1001 87 10000 3.09 260 17:29 09.01.2022
5969 Clouds 4 1001 87 10000 4.63 260 16:43 09.01.2022
5970 Clouds 4 1000 93 7000 4.63 280 15:42 09.01.2022
5971 Clouds 4 1000 93 7000 4.63 280 15:42 09.01.2022
5972 Clouds 5 999 81 9000 5.14 270 14:58 09.01.2022
5973 Clouds 4 999 81 9000 5.66 260 14:24 09.01.2022
5974 Clouds 4 998 81 9000 6.17 260 13:48 09.01.2022
5975 Rain 3 996 93 10000 7.2 280 11:56 09.01.2022
5976 Rain 3 996 93 10000 6.69 270 11:26 09.01.2022
5977 Snow 2 994 93 10000 2.57 250 09:55 09.01.2022
5978 Snow 2 993 93 7000 4.63 270 09:20 09.01.2022
5979 Rain 2 992 97 27 4.63 202 06:57 09.01.2022
5980 Clouds 2 993 96 968 5.75 162 01:30 09.01.2022
5981 Clouds 2 994 90 10000 6.59 162 00:38 09.01.2022
5982 Clouds 2 996 89 10000 6.68 163 23:34 08.01.2022
5983 Clouds 2 997 88 10000 6.82 167 22:48 08.01.2022
5984 Clouds 2 1001 88 10000 6.73 178 21:28 08.01.2022
5985 Clouds 2 1001 86 10000 7.2 160 20:44 08.01.2022
5986 Clouds 2 1001 86 10000 7.2 160 20:22 08.01.2022
5987 Clouds 2 1003 86 10000 6.17 160 19:22 08.01.2022
5988 Clouds 2 1005 80 10000 6.17 170 17:38 08.01.2022
5989 Clouds 2 1006 80 10000 7.2 170 16:45 08.01.2022
5990 Clouds 3 1007 75 10000 6.17 180 15:33 08.01.2022
5991 Clouds 3 1009 70 10000 5.14 210 13:58 08.01.2022
5992 Clouds 3 1010 80 10000 3.6 230 11:41 08.01.2022
5993 Clouds 2 1010 80 10000 2.57 230 10:33 08.01.2022
5994 Clouds 2 1010 86 10000 2.06 230 09:57 08.01.2022
5995 Clouds 2 1010 86 10000 2.06 230 09:34 08.01.2022
5996 Clouds 1 1010 95 10000 1.33 223 06:18 08.01.2022
5997 Clouds 2 1010 86 10000 3.44 213 01:41 08.01.2022
5998 Clouds 2 1011 90 10000 3.45 208 23:31 07.01.2022
5999 Clouds 2 1009 87 10000 2.57 170 21:49 07.01.2022
6000 Snow 1 1010 100 6000 1.54 30 20:34 07.01.2022
6001 Snow 2 1010 93 10000 5.14 150 19:27 07.01.2022
6002 Snow 2 1010 93 10000 5.14 150 19:27 07.01.2022
6003 Clouds 2 1010 93 10000 3.6 170 18:49 07.01.2022
6004 Clouds 2 1010 93 10000 5.14 150 18:21 07.01.2022
6005 Clouds 2 1010 80 10000 5.14 180 17:24 07.01.2022
6006 Clouds 2 1010 93 10000 4.63 170 14:56 07.01.2022
6007 Clouds 2 1011 80 10000 5.14 180 13:52 07.01.2022
6008 Clouds 2 1011 80 10000 5.14 200 12:51 07.01.2022
6009 Snow 1 1012 86 10000 4.63 180 11:22 07.01.2022
6010 Clouds 0 1017 86 10000 4.8 198 04:25 07.01.2022
6011 Clouds -1 1017 87 10000 4.45 200 02:46 07.01.2022
6012 Clouds -1 1018 86 10000 3.79 200 01:48 07.01.2022
6013 Clouds -1 1018 86 10000 3.79 200 01:48 07.01.2022
6014 Clouds -1 1019 86 10000 3.41 192 01:25 07.01.2022
6015 Clouds -1 1018 88 10000 3.62 195 00:30 07.01.2022
6016 Clouds -1 1019 92 10000 2.92 183 00:30 07.01.2022
6017 Clouds -1 1019 93 10000 2.66 177 22:33 06.01.2022
6018 Clear -1 1020 91 10000 2.37 187 20:51 06.01.2022
6019 Clouds 0 1019 80 10000 3.6 220 20:18 06.01.2022
6020 Clouds 0 1019 86 10000 2.57 200 19:36 06.01.2022
6021 Clouds 1 1018 75 10000 2.06 250 17:51 06.01.2022
6022 Clouds 2 1018 80 10000 1.03 210 17:23 06.01.2022
6023 Clouds 3 1018 75 10000 2.06 290 16:32 06.01.2022
6024 Clouds 4 1018 75 10000 3.09 280 15:44 06.01.2022
6025 Clouds 4 1018 65 10000 4.12 280 15:21 06.01.2022
6026 Clouds 5 1017 75 10000 3.6 280 14:20 06.01.2022
6027 Clouds 5 1017 81 10000 4.63 270 13:33 06.01.2022
6028 Clouds 3 1017 87 10000 3.6 270 12:20 06.01.2022
6029 Clouds 3 1017 87 10000 2.57 260 11:29 06.01.2022
6030 Clear 1 1016 86 10000 1.03 0 09:56 06.01.2022
6031 Clouds 1 1015 90 10000 3.97 304 06:37 06.01.2022
6032 Clouds 4 1010 80 10000 6.48 293 00:27 06.01.2022
6033 Clouds 4 1009 77 10000 7.13 298 23:22 05.01.2022
6034 Clouds 4 1009 77 10000 7.11 298 22:48 05.01.2022
6035 Clouds 4 1009 80 10000 7.51 299 22:21 05.01.2022
6036 Clouds 4 1008 81 10000 7.99 298 21:25 05.01.2022
6037 Drizzle 4 1006 87 10000 5.66 270 20:30 05.01.2022
6038 Drizzle 4 1006 87 10000 5.66 270 20:30 05.01.2022
6039 Drizzle 4 1005 87 10000 6.17 270 19:28 05.01.2022
6040 Clouds 3 1004 87 10000 6.17 250 17:56 05.01.2022
6041 Clouds 3 1003 87 10000 5.66 260 16:56 05.01.2022
6042 Clouds 3 1003 87 10000 7.72 260 16:18 05.01.2022
6043 Clouds 3 1001 93 10000 6.69 250 14:54 05.01.2022
6044 Snow 3 1000 87 6000 9.26 240 13:33 05.01.2022
6045 Rain 3 1001 75 10000 6.17 240 11:59 05.01.2022
6046 Clouds 2 1000 80 10000 5.14 260 08:21 05.01.2022
6047 Clouds 2 1001 77 10000 5.56 279 06:37 05.01.2022
6048 Clouds 2 1001 77 10000 5.56 279 06:37 05.01.2022
6049 Clouds 4 998 99 57 2.83 319 01:20 05.01.2022
6050 Rain 5 998 97 1061 3.04 275 23:41 04.01.2022
6051 Rain 5 998 96 1536 3.69 254 23:19 04.01.2022
6052 Rain 6 997 94 10000 3.88 250 21:32 04.01.2022
6053 Clouds 6 996 93 10000 3.6 250 20:27 04.01.2022
6054 Rain 6 996 87 10000 4.12 240 18:35 04.01.2022
6055 Clouds 6 995 87 10000 4.12 210 17:19 04.01.2022
6056 Clouds 7 995 87 10000 3.6 220 16:31 04.01.2022
6057 Clouds 7 994 87 10000 4.12 220 14:58 04.01.2022
6058 Clouds 7 994 87 10000 4.12 220 14:37 04.01.2022
6059 Drizzle 7 995 93 10000 2.57 220 13:55 04.01.2022
6060 Drizzle 7 995 93 10000 2.57 230 12:20 04.01.2022
6061 Clouds 7 996 93 10000 1.03 200 10:21 04.01.2022
6062 Drizzle 7 996 93 10000 1.54 160 08:49 04.01.2022
6063 Clouds 7 999 95 9744 1.82 219 06:28 04.01.2022
6064 Clouds 8 1003 92 10000 3.27 219 00:42 04.01.2022
6065 Clouds 8 1004 89 10000 4.59 229 23:49 03.01.2022
6066 Clouds 8 1006 93 10000 4.6 217 22:21 03.01.2022
6067 Clouds 8 1006 93 10000 4.6 217 21:38 03.01.2022
6068 Clouds 8 1006 81 10000 5.14 220 20:40 03.01.2022
6069 Clouds 8 1007 87 10000 4.63 210 18:55 03.01.2022
6070 Clouds 8 1007 81 10000 6.69 230 18:30 03.01.2022
6071 Clouds 8 1007 81 10000 6.69 230 18:30 03.01.2022
6072 Drizzle 8 1008 93 10000 3.6 210 17:20 03.01.2022
6073 Clouds 9 1008 76 10000 6.69 240 16:31 03.01.2022
6074 Clouds 10 1010 66 10000 5.66 260 14:31 03.01.2022
6075 Clouds 10 1010 76 10000 7.2 230 12:52 03.01.2022
6076 Clouds 10 1011 76 10000 5.14 220 11:50 03.01.2022
6077 Clouds 9 1011 76 10000 4.63 230 10:38 03.01.2022
6078 Clouds 9 1011 66 10000 4.63 240 09:27 03.01.2022
6079 Clouds 9 1011 71 10000 6.17 250 07:53 03.01.2022
6080 Clouds 10 1011 76 10000 8 257 02:56 03.01.2022
6081 Clouds 9 1011 80 10000 7.96 231 23:23 02.01.2022
6082 Rain 9 1011 80 10000 7.96 231 22:56 02.01.2022
6083 Rain 10 1012 85 10000 6.2 212 21:52 02.01.2022
6084 Clouds 10 1013 81 10000 6 224 20:50 02.01.2022
6085 Clouds 11 1012 81 10000 3.6 190 20:29 02.01.2022
6086 Clouds 11 1011 81 10000 3.09 200 19:31 02.01.2022
6087 Clouds 11 1012 76 10000 4.12 210 18:55 02.01.2022
6088 Clouds 11 1012 76 10000 4.63 220 17:56 02.01.2022
6089 Clouds 11 1012 76 10000 4.63 220 17:38 02.01.2022
6090 Clouds 11 1012 81 10000 4.12 220 17:20 02.01.2022
6091 Clouds 11 1011 71 10000 5.66 230 16:27 02.01.2022
6092 Clouds 11 1011 71 10000 7.72 220 14:41 02.01.2022
6093 Clouds 11 1011 71 10000 7.2 180 13:25 02.01.2022
6094 Clouds 10 1013 87 10000 6.69 210 12:31 02.01.2022
6095 Clouds 9 1013 87 10000 6.69 180 11:36 02.01.2022
6096 Clouds 9 1015 93 10000 1.03 0 10:53 02.01.2022
6097 Clouds 9 1015 93 10000 3.09 170 09:55 02.01.2022
6098 Clouds 8 1018 94 10000 3.13 181 07:29 02.01.2022
6099 Clouds 8 1021 94 10000 3.3 185 02:20 02.01.2022
6100 Clouds 10 1022 95 10000 3.44 172 23:41 01.01.2022
6101 Clouds 10 1023 95 10000 2.98 180 23:22 01.01.2022
6102 Clouds 9 1023 95 10000 3.27 174 22:24 01.01.2022
6103 Clouds 9 1023 95 10000 3.27 174 21:44 01.01.2022
6104 Clouds 10 1024 96 10000 2.97 175 20:56 01.01.2022
6105 Clouds 9 1024 95 10000 2.8 172 19:59 01.01.2022
6106 Clear 10 1024 87 10000 2.57 180 19:32 01.01.2022
6107 Clear 10 1024 81 10000 2.57 160 18:29 01.01.2022
6108 Clouds 11 1024 93 10000 2.82 175 16:51 01.01.2022
6109 Clouds 12 1024 89 10000 2.67 187 16:29 01.01.2022
6110 Clouds 13 1024 89 10000 2.67 187 15:30 01.01.2022
6111 Clouds 13 1024 81 10000 3.12 200 14:21 01.01.2022
6112 Clouds 13 1025 71 10000 5.14 210 12:50 01.01.2022
6113 Clouds 13 1025 76 10000 3.09 210 11:59 01.01.2022
6114 Clouds 13 1025 76 10000 2.57 200 11:24 01.01.2022
6115 Clouds 13 1025 76 10000 2.06 200 10:42 01.01.2022
6116 Clouds 12 1025 82 10000 3.09 180 09:47 01.01.2022
6117 Clouds 12 1024 76 10000 2.57 220 08:26 01.01.2022
6118 Clouds 12 1025 88 10000 2.97 239 07:55 01.01.2022
6119 Clouds 12 1025 88 10000 2.97 239 07:34 01.01.2022
6120 Clouds 12 1024 87 10000 2.91 233 06:41 01.01.2022
6121 Clouds 12 1023 86 10000 3.44 235 04:38 01.01.2022
6122 Clouds 12 1023 82 10000 4.03 251 02:54 01.01.2022
6123 Clouds 12 1022 84 10000 4.73 262 23:44 31.12.2021
6124 Clouds 12 1021 85 10000 4.96 262 21:54 31.12.2021
6125 Clouds 13 1020 82 10000 5.66 260 20:41 31.12.2021
6126 Clouds 12 1018 82 10000 2.57 240 19:31 31.12.2021
6127 Clouds 12 1018 82 10000 2.57 240 19:31 31.12.2021
6128 Clouds 12 1018 82 10000 4.63 250 18:44 31.12.2021
6129 Clouds 12 1019 83 10000 4.51 238 17:45 31.12.2021
6130 Clouds 12 1018 80 10000 5.45 241 17:19 31.12.2021
6131 Clouds 13 1018 80 10000 5.45 241 16:40 31.12.2021
6132 Clouds 13 1018 80 10000 5.97 239 15:57 31.12.2021
6133 Clouds 13 1017 77 10000 5.76 238 15:29 31.12.2021
6134 Clouds 13 1017 77 10000 5.76 238 15:29 31.12.2021
6135 Clouds 14 1017 77 10000 5.76 238 14:57 31.12.2021
6136 Clouds 14 1017 76 10000 5.14 220 14:31 31.12.2021
6137 Clouds 14 1017 76 10000 5.66 230 13:37 31.12.2021
6138 Clouds 14 1018 76 10000 5.14 210 12:49 31.12.2021
6139 Clouds 13 1018 82 10000 5.14 210 11:52 31.12.2021
6140 Clouds 13 1018 82 10000 5.14 210 11:33 31.12.2021
6141 Clouds 13 1018 82 10000 6.69 200 10:38 31.12.2021
6142 Clouds 13 1018 82 10000 6.69 190 10:20 31.12.2021
6143 Clouds 13 1018 82 10000 6.17 200 09:33 31.12.2021
6144 Clouds 12 1018 82 10000 5.66 210 08:47 31.12.2021
6145 Clouds 13 1019 94 10000 5.16 212 07:32 31.12.2021
6146 Clouds 13 1018 87 10000 5.99 237 23:36 30.12.2021
6147 Clouds 13 1018 85 10000 6.32 239 22:50 30.12.2021
6148 Clouds 13 1017 82 10000 4.63 240 22:26 30.12.2021
6149 Clouds 13 1017 82 10000 4.63 240 21:37 30.12.2021
6150 Clouds 13 1017 82 10000 4.63 240 21:37 30.12.2021
6151 Clouds 13 1017 94 10000 4.63 230 20:48 30.12.2021
6152 Drizzle 13 1017 82 10000 5.66 230 20:28 30.12.2021
6153 Clouds 13 1016 82 10000 5.14 220 19:48 30.12.2021
6154 Clouds 13 1016 82 10000 3.6 220 19:18 30.12.2021
6155 Drizzle 13 1016 82 10000 5.66 240 18:20 30.12.2021
6156 Clouds 14 1015 82 10000 4.12 240 16:34 30.12.2021
6157 Clouds 14 1014 77 10000 7.2 250 15:52 30.12.2021
6158 Clouds 14 1014 88 10000 5.66 240 14:41 30.12.2021
6159 Clouds 14 1014 94 10000 5.14 230 14:19 30.12.2021
6160 Clouds 14 1014 94 9000 3.6 230 13:23 30.12.2021
6161 Clouds 12 1014 94 10000 4.63 210 11:34 30.12.2021
6162 Drizzle 11 1013 93 6000 4.63 210 10:27 30.12.2021
6163 Drizzle 11 1013 87 8000 5.66 220 09:27 30.12.2021
6164 Clouds 10 1014 94 10000 4.08 226 06:55 30.12.2021
6165 Clouds 11 1012 87 10000 4.08 248 04:25 30.12.2021
6166 Clouds 10 1012 87 10000 4.08 248 03:40 30.12.2021
6167 Clouds 9 1010 97 7559 3.53 254 00:42 30.12.2021
6168 Clouds 8 1009 97 6813 3.72 232 23:35 29.12.2021
6169 Clouds 8 1008 97 7605 4.16 218 22:30 29.12.2021
6170 Clouds 8 1008 97 10000 4.37 209 21:53 29.12.2021
6171 Clouds 8 1006 93 7000 3.6 140 20:56 29.12.2021
6172 Clouds 7 1006 93 7000 3.6 140 20:18 29.12.2021
6173 Rain 7 1006 93 10000 3.6 120 19:30 29.12.2021
6174 Clouds 7 1007 87 10000 3.09 150 18:26 29.12.2021
6175 Clouds 8 1007 81 10000 3.6 190 17:30 29.12.2021
6176 Clouds 8 1007 81 10000 3.6 200 16:58 29.12.2021
6177 Clouds 8 1007 87 10000 3.6 210 16:19 29.12.2021
6178 Clouds 8 1007 87 10000 3.09 240 14:47 29.12.2021
6179 Clouds 9 1006 87 10000 3.6 230 12:50 29.12.2021
6180 Clouds 8 1006 87 10000 3.09 260 12:27 29.12.2021
6181 Clouds 8 1006 87 10000 4.63 250 10:53 29.12.2021
6182 Clouds 8 1004 93 9000 5.14 280 08:56 29.12.2021
6183 Clouds 7 1003 96 10000 5.35 272 06:49 29.12.2021
6184 Clouds 7 1002 95 10000 5.89 278 06:28 29.12.2021
6185 Clouds 7 1002 95 10000 5.89 278 05:51 29.12.2021
6186 Clouds 6 1001 98 10000 2.58 228 03:47 29.12.2021
6187 Clouds 6 998 95 10000 2.14 266 00:32 29.12.2021
6188 Clouds 6 997 95 10000 1.37 248 23:57 28.12.2021
6189 Clouds 6 995 95 10000 1.89 225 22:56 28.12.2021
6190 Clouds 6 995 92 10000 4.41 215 22:24 28.12.2021
6191 Clouds 6 995 92 10000 4.41 215 21:54 28.12.2021
6192 Clouds 6 994 90 10000 5.74 204 21:28 28.12.2021
6193 Clouds 7 993 81 10000 3.6 170 19:52 28.12.2021
6194 Clouds 7 993 87 10000 2.06 200 18:53 28.12.2021
6195 Clouds 7 993 87 10000 3.6 200 18:24 28.12.2021
6196 Clouds 8 992 87 10000 3.09 230 17:29 28.12.2021
6197 Clouds 8 992 87 10000 5.14 190 15:53 28.12.2021
6198 Rain 7 992 93 10000 4.12 160 15:29 28.12.2021
6199 Clouds 7 992 93 10000 3.09 170 14:54 28.12.2021
6200 Clouds 7 993 93 10000 5.14 150 14:22 28.12.2021
6201 Clouds 7 993 93 10000 5.14 150 13:58 28.12.2021
6202 Clouds 7 993 93 10000 5.14 150 13:33 28.12.2021
6203 Clouds 7 994 93 10000 5.14 160 12:55 28.12.2021
6204 Clouds 7 995 93 10000 5.66 150 12:19 28.12.2021
6205 Drizzle 5 996 93 6000 5.66 150 09:32 28.12.2021
6206 Clouds 5 996 93 9000 6.17 150 07:33 28.12.2021
6207 Clouds 3 1002 97 10000 2.53 156 03:31 28.12.2021
6208 Clouds 2 1002 96 10000 2.33 143 23:37 27.12.2021
6209 Clouds 2 1003 97 10000 2.02 124 22:20 27.12.2021
6210 Clouds 3 1003 97 10000 2.02 124 21:30 27.12.2021
6211 Clouds 3 1000 93 7000 4.12 150 20:32 27.12.2021
6212 Clouds 3 1001 93 10000 6.17 140 19:47 27.12.2021
6213 Clouds 3 1001 100 10000 4.63 140 18:57 27.12.2021
6214 Clouds 3 1001 100 7000 6.69 150 17:51 27.12.2021
6215 Mist 3 1000 93 3500 6.17 140 17:28 27.12.2021
6216 Mist 3 1001 100 5000 2.06 120 15:54 27.12.2021
6217 Clouds 2 1001 100 6000 4.63 130 14:57 27.12.2021
6218 Clouds 3 1001 93 6000 3.09 120 14:21 27.12.2021
6219 Mist 2 1002 93 3800 3.09 130 12:52 27.12.2021
6220 Mist 2 1002 93 4700 5.66 140 10:40 27.12.2021
6221 Mist 1 1003 100 5000 4.12 140 10:22 27.12.2021
6222 Mist 1 1002 100 4600 4.12 130 08:43 27.12.2021
6223 Mist 1 1002 100 5000 4.12 130 07:34 27.12.2021
6224 Clouds 0 1005 97 10000 1.54 137 06:27 27.12.2021
6225 Snow -1 1006 94 10000 1.48 117 01:51 27.12.2021
6226 Clouds -1 1008 92 10000 1.49 123 23:49 26.12.2021
6227 Clouds -1 1008 92 10000 1.52 116 23:19 26.12.2021
6228 Clouds -2 1008 91 10000 1.5 115 21:37 26.12.2021
6229 Clouds -2 1009 91 10000 1.39 106 19:55 26.12.2021
6230 Snow -2 1007 93 9000 2.57 110 18:45 26.12.2021
6231 Clouds -2 1007 93 9000 3.09 100 18:21 26.12.2021
6232 Clouds -2 1010 74 10000 1.36 98 15:38 26.12.2021
6233 Clouds -2 1010 65 10000 1.53 105 13:49 26.12.2021
6234 Clouds -3 1010 65 10000 1.53 105 13:31 26.12.2021
6235 Clouds -3 1011 65 10000 1.51 111 12:36 26.12.2021
6236 Clouds -4 1012 67 10000 1.42 106 11:20 26.12.2021
6237 Clear -6 1009 79 10000 3.09 120 09:31 26.12.2021
6238 Clear -7 1009 86 10000 3.6 110 08:45 26.12.2021
6239 Clear -6 1009 79 10000 3.09 120 08:26 26.12.2021
6240 Clouds -9 1012 69 10000 1.74 75 02:19 26.12.2021
6241 Clouds -8 1013 67 10000 1.55 70 00:40 26.12.2021
6242 Clear -7 1013 60 10000 2.03 81 23:37 25.12.2021
6243 Clear -7 1013 60 10000 2.03 81 22:38 25.12.2021
6244 Clear -7 1013 59 10000 2.3 83 22:20 25.12.2021
6245 Clear -6 1013 58 10000 2.93 86 20:26 25.12.2021
6246 Clear -5 1011 68 10000 3.09 90 19:19 25.12.2021
6247 Clear -5 1010 63 10000 4.63 70 18:37 25.12.2021
6248 Clear -3 1010 58 10000 4.12 100 16:50 25.12.2021
6249 Clouds -3 1012 65 10000 3.61 79 15:38 25.12.2021
6250 Clouds -2 1012 61 10000 4.59 83 14:23 25.12.2021
6251 Clouds -2 1012 61 10000 4.92 85 12:40 25.12.2021
6252 Clouds -3 1011 67 10000 5.08 79 10:49 25.12.2021
6253 Clouds -3 1008 86 10000 6.17 90 09:49 25.12.2021
6254 Clouds -2 1009 88 10000 4.6 77 07:28 25.12.2021
6255 Rain 1 1007 98 36 2.14 41 01:43 25.12.2021
6256 Rain 2 1007 98 90 2.1 47 00:22 25.12.2021
6257 Drizzle 3 1004 93 10000 3.6 30 21:59 24.12.2021
6258 Rain 5 1003 91 10000 3.46 291 19:27 24.12.2021
6259 Clouds 6 1003 91 10000 3.46 291 18:57 24.12.2021
6260 Clouds 8 1003 86 10000 5.52 255 16:49 24.12.2021
6261 Clouds 8 1003 86 10000 6.28 260 15:52 24.12.2021
6262 Clouds 8 1003 86 10000 6.28 260 15:32 24.12.2021
6263 Clouds 8 1001 87 5000 6.17 270 14:35 24.12.2021
6264 Clouds 8 1001 81 10000 6.69 260 13:59 24.12.2021
6265 Clouds 9 1001 81 10000 6.69 260 13:32 24.12.2021
6266 Clouds 8 1001 81 10000 6.17 250 12:47 24.12.2021
6267 Clouds 8 1002 81 10000 4.12 230 11:46 24.12.2021
6268 Clouds 8 1002 81 10000 5.66 240 11:24 24.12.2021
6269 Clouds 8 1002 81 10000 6.17 240 10:36 24.12.2021
6270 Clouds 8 1002 87 10000 6.17 250 09:22 24.12.2021
6271 Clouds 7 1002 95 10000 6.74 249 08:19 24.12.2021
6272 Clouds 8 1001 87 9000 5.14 240 07:42 24.12.2021
6273 Clouds 4 1004 93 10000 7.13 240 00:48 24.12.2021
6274 Rain 4 1005 94 10000 6.34 230 23:54 23.12.2021
6275 Clouds 4 1005 94 10000 6 222 22:54 23.12.2021
6276 Clouds 3 1006 93 10000 5.21 224 22:26 23.12.2021
6277 Clouds 3 1006 92 10000 5.2 224 21:50 23.12.2021
6278 Clouds 2 1007 87 10000 4.06 212 20:53 23.12.2021
6279 Drizzle 2 1006 86 8000 1.03 0 19:31 23.12.2021
6280 Drizzle 2 1006 86 9000 3.6 200 18:32 23.12.2021
6281 Snow 1 1007 86 8000 3.6 210 17:47 23.12.2021
6282 Clouds 0 1007 86 8000 3.6 140 16:40 23.12.2021
6283 Clouds 0 1007 86 9000 3.6 140 16:20 23.12.2021
6284 Clouds 0 1008 86 8000 4.12 150 15:31 23.12.2021
6285 Clouds 0 1009 86 9000 3.09 160 14:42 23.12.2021
6286 Clouds 0 1010 86 9000 3.09 150 14:19 23.12.2021
6287 Clouds 0 1011 86 8000 4.12 170 12:39 23.12.2021
6288 Clouds -1 1012 86 8000 2.57 170 10:36 23.12.2021
6289 Clouds -2 1012 86 8000 4.63 140 09:34 23.12.2021
6290 Clear -2 1013 93 10000 3.09 140 08:58 23.12.2021
6291 Clouds -3 1017 73 10000 3.13 178 06:23 23.12.2021
6292 Clouds -4 1020 74 10000 2.6 170 03:28 23.12.2021
6293 Clouds -4 1022 75 10000 2.61 165 22:54 22.12.2021
6294 Clouds -5 1023 76 10000 2.41 170 22:22 22.12.2021
6295 Clouds -5 1023 76 10000 2.41 170 21:48 22.12.2021
6296 Clouds -5 1023 74 10000 2.42 168 21:26 22.12.2021
6297 Clouds -4 1022 93 8000 2.57 150 20:41 22.12.2021
6298 Clouds -4 1022 93 9000 1.54 150 19:59 22.12.2021
6299 Clouds -4 1023 93 6000 0.51 120 18:57 22.12.2021
6300 Clouds -4 1023 100 8000 1.03 0 17:39 22.12.2021
6301 Clear -3 1023 100 10000 2.57 140 16:34 22.12.2021
6302 Clouds -2 1024 93 9000 3.09 150 15:24 22.12.2021
6303 Clouds -2 1025 93 10000 2.57 150 12:59 22.12.2021
6304 Mist -3 1025 93 6000 3.6 150 11:58 22.12.2021
6305 Mist -5 1026 100 3000 2.06 140 09:53 22.12.2021
6306 Mist -5 1026 93 1900 3.09 150 09:31 22.12.2021
6307 Clouds -5 1028 91 10000 1.85 167 07:22 22.12.2021
6308 Clouds -5 1028 91 10000 1.43 170 05:40 22.12.2021
6309 Clouds -5 1028 91 10000 1.45 165 05:21 22.12.2021
6310 Clouds -5 1028 91 10000 1.45 165 04:43 22.12.2021
6311 Clouds -5 1028 91 10000 1.39 165 03:56 22.12.2021
6312 Clouds -4 1028 91 10000 1.39 165 03:31 22.12.2021
6313 Clear -5 1028 91 10000 1.17 156 23:57 21.12.2021
6314 Clear -5 1028 91 10000 1.03 151 22:49 21.12.2021
6315 Clear -4 1028 91 10000 0.82 153 22:27 21.12.2021
6316 Fog -5 1026 100 100 1.03 0 21:43 21.12.2021
6317 Fog -5 1026 100 100 0.51 0 20:53 21.12.2021
6318 Fog -4 1025 93 100 0.51 0 20:20 21.12.2021
6319 Fog -4 1025 93 100 1.03 0 19:41 21.12.2021
6320 Fog -4 1025 93 100 0.51 0 18:36 21.12.2021
6321 Fog -4 1025 93 100 0.51 0 17:59 21.12.2021
6322 Fog -4 1025 93 100 0.51 0 17:40 21.12.2021
6323 Fog -3 1025 93 100 0.51 0 15:46 21.12.2021
6324 Fog -2 1025 100 100 1.03 0 14:29 21.12.2021
6325 Fog -3 1025 93 100 1.03 0 13:42 21.12.2021
6326 Fog -3 1026 93 150 1.03 40 12:58 21.12.2021
6327 Fog -4 1026 100 6000 1.03 0 10:53 21.12.2021
6328 Fog -5 1026 93 6000 0.51 0 09:57 21.12.2021
6329 Mist -6 1026 93 1800 0.51 0 09:18 21.12.2021
6330 Fog -6 1025 100 150 0.51 130 07:45 21.12.2021
6331 Clouds -4 1027 91 10000 0.25 77 07:24 21.12.2021
6332 Clouds -4 1027 90 10000 0.45 81 04:37 21.12.2021
6333 Clouds -3 1028 89 10000 0.42 352 02:31 21.12.2021
6334 Clear -3 1029 85 10000 0.8 33 23:55 20.12.2021
6335 Clear -3 1029 84 10000 0.95 15 22:44 20.12.2021
6336 Clear -3 1029 83 10000 0.96 3 22:25 20.12.2021
6337 Clear -2 1029 82 10000 1.17 357 21:27 20.12.2021
6338 Clear -2 1029 82 10000 1.17 357 20:55 20.12.2021
6339 Clear -2 1029 81 10000 1.29 356 20:24 20.12.2021
6340 Clear -2 1029 81 10000 1.29 356 19:38 20.12.2021
6341 Clear -2 1029 81 10000 1.29 356 19:38 20.12.2021
6342 Clear -2 1027 100 9000 1.03 220 19:19 20.12.2021
6343 Clear -1 1028 81 10000 1.36 6 18:33 20.12.2021
6344 Clear -1 1028 79 10000 1.43 0 17:51 20.12.2021
6345 Fog 0 1027 100 200 0.51 0 16:47 20.12.2021
6346 Fog 1 1027 100 200 0.51 0 16:18 20.12.2021
6347 Fog 1 1027 100 200 0.51 0 15:40 20.12.2021
6348 Fog 2 1027 100 300 1.03 0 14:26 20.12.2021
6349 Fog 2 1027 100 300 1.54 340 12:40 20.12.2021
6350 Fog 1 1027 100 750 2.06 280 10:50 20.12.2021
6351 Fog 0 1026 100 150 2.06 290 09:40 20.12.2021
6352 Fog -1 1026 100 150 2.06 280 08:50 20.12.2021
6353 Fog 0 1026 100 150 2.06 280 08:32 20.12.2021
6354 Mist 0 1026 100 5000 1.03 0 07:38 20.12.2021
6355 Clouds 0 1025 100 9000 1.54 310 06:39 20.12.2021
6356 Clouds 3 1025 75 10000 3.12 334 00:26 20.12.2021
6357 Clouds 6 1025 80 10000 3.31 342 22:58 19.12.2021
6358 Clouds 6 1025 80 10000 3.31 342 22:40 19.12.2021
6359 Clouds 6 1025 81 10000 4.11 335 21:32 19.12.2021
6360 Drizzle 6 1024 93 10000 6.17 300 20:42 19.12.2021
6361 Drizzle 6 1024 93 10000 6.17 300 20:23 19.12.2021
6362 Clouds 6 1024 93 10000 6.69 310 19:41 19.12.2021
6363 Drizzle 6 1024 93 7000 6.69 300 18:42 19.12.2021
6364 Drizzle 6 1024 93 6000 7.72 290 17:53 19.12.2021
6365 Drizzle 6 1024 93 6000 7.72 290 17:34 19.12.2021
6366 Drizzle 6 1024 93 7000 6.17 300 16:41 19.12.2021
6367 Drizzle 6 1025 93 7000 6.69 300 15:56 19.12.2021
6368 Drizzle 6 1025 93 6000 7.2 300 15:24 19.12.2021
6369 Drizzle 6 1026 93 6000 6.69 300 14:45 19.12.2021
6370 Drizzle 6 1026 87 10000 9.26 300 13:32 19.12.2021
6371 Drizzle 6 1027 87 10000 8.75 310 12:59 19.12.2021
6372 Drizzle 6 1027 87 10000 8.23 310 12:31 19.12.2021
6373 Drizzle 6 1027 87 10000 8.23 300 11:37 19.12.2021
6374 Drizzle 6 1028 93 9000 6.69 300 10:50 19.12.2021
6375 Drizzle 6 1028 87 9000 7.2 300 10:22 19.12.2021
6376 Drizzle 5 1029 93 9000 5.66 290 08:50 19.12.2021
6377 Clouds 6 1030 83 10000 5.89 312 06:45 19.12.2021
6378 Clouds 6 1033 87 10000 5.18 309 01:52 19.12.2021
6379 Clouds 6 1033 95 10000 2.41 290 00:54 19.12.2021
6380 Clouds 6 1034 94 10000 1.82 285 23:18 18.12.2021
6381 Clouds 6 1035 96 10000 1.64 271 22:24 18.12.2021
6382 Clouds 6 1035 96 10000 1.64 271 21:44 18.12.2021
6383 Clouds 6 1035 96 10000 1.6 279 21:25 18.12.2021
6384 Drizzle 6 1035 93 10000 4.63 270 20:43 18.12.2021
6385 Clouds 6 1035 93 10000 5.14 280 19:38 18.12.2021
6386 Mist 6 1035 100 3400 5.14 320 18:25 18.12.2021
6387 Drizzle 6 1035 100 2100 4.63 320 17:49 18.12.2021
6388 Drizzle 7 1035 93 1800 5.14 290 16:48 18.12.2021
6389 Mist 7 1035 100 4700 3.6 310 16:20 18.12.2021
6390 Clouds 7 1035 93 10000 4.12 310 15:24 18.12.2021
6391 Clouds 7 1036 93 10000 3.6 320 13:58 18.12.2021
6392 Clouds 7 1037 100 9000 3.6 300 11:57 18.12.2021
6393 Drizzle 6 1038 100 1200 2.57 290 09:59 18.12.2021
6394 Drizzle 6 1038 100 1200 2.57 290 09:32 18.12.2021
6395 Drizzle 6 1038 93 2000 2.57 300 08:36 18.12.2021
6396 Clouds 6 1038 97 10000 0.89 323 07:24 18.12.2021
6397 Clouds 6 1039 97 10000 0.82 346 01:46 18.12.2021
6398 Clouds 6 1040 97 10000 0.77 320 23:51 17.12.2021
6399 Clear 6 1040 97 10000 1.2 335 22:40 17.12.2021
6400 Clear 5 1040 96 10000 1.23 327 21:31 17.12.2021
6401 Clouds 6 1038 87 10000 3.09 320 20:43 17.12.2021
6402 Clouds 6 1038 93 10000 3.6 300 19:57 17.12.2021
6403 Clouds 6 1039 87 10000 2.06 310 18:40 17.12.2021
6404 Clouds 7 1038 87 10000 3.09 330 17:59 17.12.2021
6405 Clouds 7 1038 87 10000 3.09 340 16:53 17.12.2021
6406 Clouds 7 1038 87 10000 4.12 330 16:28 17.12.2021
6407 Clouds 7 1038 93 10000 4.12 330 15:49 17.12.2021
6408 Clouds 8 1038 87 10000 2.57 340 14:43 17.12.2021
6409 Clouds 8 1039 87 10000 3.6 330 13:51 17.12.2021
6410 Clouds 7 1038 93 10000 4.63 330 12:36 17.12.2021
6411 Mist 7 1038 93 2000 2.06 280 10:42 17.12.2021
6412 Drizzle 7 1038 100 800 0.51 280 09:47 17.12.2021
6413 Fog 7 1038 100 600 1.03 320 08:32 17.12.2021
6414 Drizzle 7 1038 93 3500 1.54 270 07:38 17.12.2021
6415 Clear 7 1039 95 10000 1.05 317 04:57 17.12.2021
6416 Clouds 7 1038 88 10000 0.62 318 00:57 17.12.2021
6417 Clouds 7 1039 91 10000 1.35 356 22:44 16.12.2021
6418 Clouds 7 1039 95 10000 0.94 349 22:22 16.12.2021
6419 Clouds 8 1039 95 10000 0.94 349 21:43 16.12.2021
6420 Mist 8 1038 100 2200 1.54 320 20:40 16.12.2021
6421 Mist 8 1038 100 2200 1.54 320 20:21 16.12.2021
6422 Mist 8 1038 100 3200 2.57 330 19:27 16.12.2021
6423 Clouds 8 1037 93 7000 4.12 320 18:31 16.12.2021
6424 Clouds 8 1037 93 7000 4.12 310 17:36 16.12.2021
6425 Mist 8 1036 93 4100 2.57 290 16:24 16.12.2021
6426 Mist 8 1036 93 3000 2.57 300 15:26 16.12.2021
6427 Mist 8 1036 93 2500 2.06 320 13:45 16.12.2021
6428 Mist 7 1036 93 4000 2.06 270 11:56 16.12.2021
6429 Mist 7 1036 93 3000 1.54 260 11:18 16.12.2021
6430 Mist 6 1035 100 3500 1.54 250 10:39 16.12.2021
6431 Drizzle 6 1035 93 1500 0.51 0 09:42 16.12.2021
6432 Clouds 5 1034 91 10000 1.35 224 06:23 16.12.2021
6433 Clouds 6 1034 90 10000 1.55 234 03:54 16.12.2021
6434 Clouds 7 1033 88 10000 1.43 247 23:47 15.12.2021
6435 Clouds 7 1033 89 10000 1.68 226 22:49 15.12.2021
6436 Clouds 7 1033 90 10000 2.01 208 22:20 15.12.2021
6437 Clouds 7 1033 90 10000 1.99 208 21:31 15.12.2021
6438 Clouds 7 1031 93 10000 3.6 220 20:36 15.12.2021
6439 Clouds 8 1031 93 10000 2.57 210 19:53 15.12.2021
6440 Clouds 8 1031 93 10000 3.6 220 18:50 15.12.2021
6441 Clouds 8 1031 87 10000 3.6 220 18:18 15.12.2021
6442 Clouds 8 1031 87 10000 3.09 230 17:43 15.12.2021
6443 Clouds 8 1030 87 10000 4.12 210 16:59 15.12.2021
6444 Clouds 8 1030 87 10000 3.6 210 15:47 15.12.2021
6445 Clouds 8 1030 87 10000 4.12 210 15:29 15.12.2021
6446 Clouds 8 1030 93 10000 4.12 210 14:44 15.12.2021
6447 Clouds 9 1030 87 10000 5.14 210 13:27 15.12.2021
6448 Clouds 8 1030 87 10000 2.57 0 11:40 15.12.2021
6449 Clouds 7 1030 93 10000 2.57 210 09:38 15.12.2021
6450 Clouds 7 1030 93 8000 1.03 0 07:52 15.12.2021
6451 Clouds 6 1030 96 10000 2.23 188 03:58 15.12.2021
6452 Clouds 6 1030 94 10000 2.28 186 23:47 14.12.2021
6453 Clouds 6 1030 94 10000 2.21 185 22:55 14.12.2021
6454 Clouds 6 1030 94 10000 2.21 185 22:37 14.12.2021
6455 Clouds 6 1030 93 10000 2.16 190 21:25 14.12.2021
6456 Clouds 7 1028 87 10000 1.54 160 20:18 14.12.2021
6457 Clouds 7 1028 87 10000 2.06 170 19:21 14.12.2021
6458 Clouds 7 1027 93 10000 2.06 170 18:38 14.12.2021
6459 Clouds 7 1027 87 10000 1.03 160 17:51 14.12.2021
6460 Clouds 7 1027 87 10000 0.51 0 16:43 14.12.2021
6461 Clouds 8 1027 87 10000 1.03 0 15:54 14.12.2021
6462 Clouds 7 1026 87 10000 2.57 260 13:35 14.12.2021
6463 Clouds 7 1026 87 10000 2.57 250 12:47 14.12.2021
6464 Clouds 7 1027 93 9000 1.54 280 11:25 14.12.2021
6465 Clouds 7 1027 93 10000 2.57 250 10:28 14.12.2021
6466 Clouds 6 1026 93 10000 1.54 240 09:53 14.12.2021
6467 Clouds 6 1025 93 10000 2.57 240 08:40 14.12.2021
6468 Clouds 6 1025 93 10000 2.06 210 08:20 14.12.2021
6469 Clouds 5 1027 97 10000 2.41 175 06:27 14.12.2021
6470 Clouds 6 1029 95 10000 1.96 181 23:40 13.12.2021
6471 Clouds 7 1027 93 10000 2.57 210 21:57 13.12.2021
6472 Clouds 7 1027 93 10000 2.57 210 21:34 13.12.2021
6473 Clouds 6 1029 95 10000 1.96 177 20:50 13.12.2021
6474 Clouds 7 1028 87 10000 2.57 220 19:59 13.12.2021
6475 Clouds 7 1028 93 10000 0.51 0 19:27 13.12.2021
6476 Clouds 7 1027 87 10000 3.09 220 17:27 13.12.2021
6477 Clouds 8 1027 87 10000 3.09 220 16:24 13.12.2021
6478 Clouds 7 1027 93 10000 0.51 0 15:43 13.12.2021
6479 Clouds 7 1027 93 10000 0.51 0 15:43 13.12.2021
6480 Clouds 8 1027 93 10000 0.51 0 13:52 13.12.2021
6481 Clouds 8 1027 93 10000 1.03 0 13:18 13.12.2021
6482 Clouds 8 1027 93 9000 1.54 160 12:36 13.12.2021
6483 Clouds 7 1027 100 8000 2.57 190 11:40 13.12.2021
6484 Clouds 7 1028 100 6000 1.54 150 11:19 13.12.2021
6485 Clouds 7 1027 93 6000 1.54 130 10:21 13.12.2021
6486 Drizzle 6 1026 100 6000 1.54 110 08:31 13.12.2021
6487 Clouds 5 1027 99 1524 2.11 190 05:37 13.12.2021
6488 Clouds 5 1026 99 1170 2.19 188 03:32 13.12.2021
6489 Clouds 5 1026 99 1548 2.17 187 23:43 12.12.2021
6490 Clouds 4 1025 99 7239 2.39 187 21:56 12.12.2021
6491 Clouds 4 1023 100 6000 2.57 160 20:46 12.12.2021
6492 Drizzle 4 1023 100 3600 2.57 160 19:33 12.12.2021
6493 Drizzle 4 1023 100 6000 0.51 0 17:46 12.12.2021
6494 Rain 4 1022 100 6000 3.09 150 16:29 12.12.2021
6495 Rain 4 1022 100 6000 3.6 140 15:53 12.12.2021
6496 Clouds 4 1022 93 8000 3.6 150 15:28 12.12.2021
6497 Clouds 4 1022 93 9000 3.6 150 14:38 12.12.2021
6498 Rain 3 1022 93 8000 3.09 140 13:43 12.12.2021
6499 Clouds 3 1022 93 10000 5.14 180 12:37 12.12.2021
6500 Drizzle 4 1022 87 8000 3.6 170 11:45 12.12.2021
6501 Clouds 4 1022 87 10000 2.57 160 11:25 12.12.2021
6502 Clouds 3 1022 93 10000 2.57 0 10:39 12.12.2021
6503 Drizzle 3 1022 87 10000 3.09 160 09:44 12.12.2021
6504 Clear 2 1022 93 10000 4.12 160 08:38 12.12.2021
6505 Clouds 2 1024 88 10000 3.86 196 06:34 12.12.2021
6506 Clouds 1 1024 94 10000 3.19 184 05:27 12.12.2021
6507 Clouds 1 1024 96 10000 2.61 188 03:58 12.12.2021
6508 Clouds 1 1024 98 10000 2.1 181 00:36 12.12.2021
6509 Clouds 1 1023 94 10000 2.39 209 22:42 11.12.2021
6510 Clouds 1 1023 95 10000 2.58 208 22:19 11.12.2021
6511 Clouds 0 1022 97 7252 2.47 205 21:22 11.12.2021
6512 Clouds 0 1020 93 10000 1.03 120 19:40 11.12.2021
6513 Clouds -1 1019 93 10000 1.03 0 19:20 11.12.2021
6514 Clear 0 1018 93 10000 1.54 210 18:38 11.12.2021
6515 Clear 0 1018 93 10000 2.06 190 17:41 11.12.2021
6516 Clear 2 1016 86 10000 1.54 100 15:57 11.12.2021
6517 Clear 2 1016 86 10000 1.54 100 15:35 11.12.2021
6518 Clouds 2 1015 93 10000 1.54 130 13:46 11.12.2021
6519 Clouds 1 1013 93 10000 1.03 0 11:55 11.12.2021
6520 Clouds -2 1012 100 10000 1.03 170 09:57 11.12.2021
6521 Clouds -2 1012 100 10000 1.03 170 09:34 11.12.2021
6522 Clouds 0 1006 92 10000 1.09 328 02:41 11.12.2021
6523 Clouds 0 1003 92 10000 1.25 339 00:42 11.12.2021
6524 Clouds 0 1002 91 10000 1.25 352 23:39 10.12.2021
6525 Clouds -1 1000 90 10000 1.29 30 22:26 10.12.2021
6526 Clouds 0 1000 90 10000 1.29 30 21:37 10.12.2021
6527 Clear 0 996 80 10000 2.57 130 19:23 10.12.2021
6528 Clear 0 996 80 10000 2.06 110 18:57 10.12.2021
6529 Clouds 1 995 80 10000 3.09 130 17:21 10.12.2021
6530 Clouds 2 996 87 10000 1.78 106 16:30 10.12.2021
6531 Clouds 3 994 75 10000 3.6 120 15:42 10.12.2021
6532 Clouds 4 993 70 10000 4.63 110 15:22 10.12.2021
6533 Clouds 4 993 70 10000 4.63 140 13:52 10.12.2021
6534 Clouds 5 994 70 10000 4.63 140 13:31 10.12.2021
6535 Clouds 5 994 75 10000 4.63 150 12:47 10.12.2021
6536 Clouds 4 994 75 10000 3.6 140 11:34 10.12.2021
6537 Clouds 3 994 81 10000 4.63 130 10:38 10.12.2021
6538 Clouds 3 995 93 10000 3.09 130 09:29 10.12.2021
6539 Clouds 3 998 90 10000 2.83 155 07:21 10.12.2021
6540 Clouds 3 1001 93 10000 2.32 174 02:51 10.12.2021
6541 Clouds 3 1002 91 10000 2.58 184 00:57 10.12.2021
6542 Clouds 3 1004 93 10000 2.78 190 23:37 09.12.2021
6543 Clouds 3 1003 87 10000 4.63 190 22:40 09.12.2021
6544 Clouds 2 1003 87 10000 5.14 190 22:19 09.12.2021
6545 Clouds 2 1003 87 10000 3.09 180 21:20 09.12.2021
6546 Clouds 2 1004 87 10000 3.09 140 20:34 09.12.2021
6547 Clouds 3 1005 80 10000 4.12 190 19:22 09.12.2021
6548 Clouds 3 1005 87 10000 4.12 190 18:50 09.12.2021
6549 Clouds 3 1004 87 10000 2.57 180 17:57 09.12.2021
6550 Clouds 3 1004 87 10000 3.09 190 17:27 09.12.2021
6551 Clouds 4 1004 87 10000 4.12 190 16:57 09.12.2021
6552 Clouds 4 1003 87 10000 3.09 160 15:59 09.12.2021
6553 Clouds 5 1003 70 10000 2.06 170 14:51 09.12.2021
6554 Clouds 6 1003 75 10000 2.57 240 13:39 09.12.2021
6555 Clouds 5 1004 81 10000 3.09 220 12:47 09.12.2021
6556 Clouds 3 1004 100 10000 1.54 50 11:25 09.12.2021
6557 Fog 2 1004 93 10000 0.51 0 09:45 09.12.2021
6558 Clouds 2 1005 95 10000 1.86 208 06:51 09.12.2021
6559 Clouds 2 1004 95 10000 1.06 220 03:46 09.12.2021
6560 Clouds 2 1004 93 10000 0.09 194 23:46 08.12.2021
6561 Clouds 2 1004 93 10000 0.87 231 23:26 08.12.2021
6562 Clouds 3 1004 93 10000 0.87 231 22:50 08.12.2021
6563 Clouds 3 1003 92 10000 1.3 185 21:46 08.12.2021
6564 Clouds 3 1003 92 10000 1.27 147 21:28 08.12.2021
6565 Clouds 3 1001 93 10000 2.06 140 20:18 08.12.2021
6566 Clouds 3 1001 93 10000 2.06 130 19:37 08.12.2021
6567 Clouds 3 1002 90 10000 1.45 205 18:53 08.12.2021
6568 Clouds 3 1000 87 10000 2.57 130 17:47 08.12.2021
6569 Clouds 4 999 81 10000 2.57 130 15:58 08.12.2021
6570 Clouds 4 999 87 10000 3.09 140 15:29 08.12.2021
6571 Clouds 4 999 87 10000 3.6 160 14:50 08.12.2021
6572 Clouds 3 1000 87 10000 5.14 150 12:32 08.12.2021
6573 Clouds 3 999 87 10000 6.69 140 10:32 08.12.2021
6574 Clouds 3 999 87 10000 5.66 150 09:30 08.12.2021
6575 Clouds 2 1000 90 10000 4.35 167 07:29 08.12.2021
6576 Clouds 2 1000 94 7638 6.58 158 04:57 08.12.2021
6577 Clouds 1 1003 87 10000 3.89 131 23:48 07.12.2021
6578 Clouds 1 1005 87 10000 4.51 143 22:27 07.12.2021
6579 Clouds 1 1007 95 10000 2.93 132 21:23 07.12.2021
6580 Clouds 1 1006 93 10000 1.54 140 20:24 07.12.2021
6581 Clouds 1 1007 93 10000 3.09 140 18:55 07.12.2021
6582 Clouds 2 1008 86 10000 3.09 150 17:53 07.12.2021
6583 Clouds 2 1008 87 10000 4.12 190 17:20 07.12.2021
6584 Clouds 3 1008 87 10000 2.57 170 16:34 07.12.2021
6585 Clouds 4 1009 81 10000 3.6 200 15:34 07.12.2021
6586 Clouds 4 1009 87 10000 3.09 220 14:30 07.12.2021
6587 Clouds 3 1009 93 9000 3.09 220 12:56 07.12.2021
6588 Clouds 3 1009 93 9000 3.09 220 12:56 07.12.2021
6589 Clouds 3 1009 93 8000 1.54 90 11:52 07.12.2021
6590 Drizzle 2 1009 100 7000 1.54 230 10:36 07.12.2021
6591 Rain 2 1008 93 10000 2.06 240 08:39 07.12.2021
6592 Rain 1 1007 98 38 4.84 250 06:20 07.12.2021
6593 Clouds 1 1007 98 38 4.84 250 05:39 07.12.2021
6594 Clouds 2 1010 87 10000 4.38 172 23:49 06.12.2021
6595 Clouds 2 1010 90 10000 3.94 177 22:58 06.12.2021
6596 Clouds 2 1010 90 10000 3.94 177 22:37 06.12.2021
6597 Clouds 1 1011 90 10000 3.12 166 21:52 06.12.2021
6598 Clouds 1 1011 93 10000 4.63 160 20:34 06.12.2021
6599 Clear 1 1011 86 10000 4.63 150 19:56 06.12.2021
6600 Clear 1 1011 93 10000 4.63 140 19:21 06.12.2021
6601 Clouds 1 1011 93 10000 4.12 140 18:29 06.12.2021
6602 Clouds 1 1011 87 10000 4.12 140 17:40 06.12.2021
6603 Clouds 2 1012 87 10000 3.09 140 16:48 06.12.2021
6604 Clouds 4 1012 75 10000 3.09 140 15:39 06.12.2021
6605 Clouds 4 1013 81 10000 2.06 120 13:46 06.12.2021
6606 Clouds 3 1014 87 10000 1.54 130 12:39 06.12.2021
6607 Clouds 2 1014 93 10000 2.57 130 11:38 06.12.2021
6608 Clouds 1 1014 93 6000 0.51 0 08:51 06.12.2021
6609 Clouds 1 1015 92 10000 0.57 356 06:42 06.12.2021
6610 Clouds 2 1012 88 10000 0.23 33 23:38 05.12.2021
6611 Clouds 2 1010 85 10000 0.45 142 21:51 05.12.2021
6612 Clouds 3 1010 86 10000 0.57 174 21:19 05.12.2021
6613 Clouds 3 1007 87 10000 1.03 110 20:19 05.12.2021
6614 Clouds 3 1007 87 10000 1.03 130 19:33 05.12.2021
6615 Clouds 3 1006 87 10000 0.51 100 18:47 05.12.2021
6616 Clouds 3 1006 81 10000 1.54 190 18:19 05.12.2021
6617 Clouds 3 1005 87 10000 2.06 180 17:48 05.12.2021
6618 Clouds 4 1005 75 10000 2.06 150 16:48 05.12.2021
6619 Clouds 4 1004 75 10000 2.06 140 16:26 05.12.2021
6620 Clouds 4 1004 75 10000 2.57 180 15:48 05.12.2021
6621 Clouds 5 1003 75 10000 2.57 230 14:41 05.12.2021
6622 Clouds 5 1003 70 10000 2.57 190 14:23 05.12.2021
6623 Clouds 6 1003 70 10000 2.57 230 13:22 05.12.2021
6624 Clouds 5 1003 81 10000 3.09 220 12:40 05.12.2021
6625 Clouds 5 1003 75 10000 3.6 210 12:18 05.12.2021
6626 Clouds 4 1002 81 10000 4.63 210 11:29 05.12.2021
6627 Clouds 3 1002 87 10000 3.09 180 09:59 05.12.2021
6628 Clouds 3 1000 87 10000 3.09 190 07:55 05.12.2021
6629 Clouds 4 1001 89 10000 5.23 216 03:27 05.12.2021
6630 Clouds 4 999 84 10000 4.66 257 23:45 04.12.2021
6631 Clouds 3 998 98 492 3.95 248 21:55 04.12.2021
6632 Clouds 3 997 98 106 3.27 230 20:57 04.12.2021
6633 Mist 3 994 100 2200 1.54 270 19:55 04.12.2021
6634 Mist 3 994 100 2200 1.54 270 19:32 04.12.2021
6635 Clouds 3 993 93 10000 3.6 120 18:20 04.12.2021
6636 Rain 3 994 93 10000 3.6 120 17:38 04.12.2021
6637 Clouds 3 994 87 10000 2.57 140 16:49 04.12.2021
6638 Clouds 3 994 87 10000 3.09 150 16:30 04.12.2021
6639 Clouds 4 995 87 10000 4.12 150 15:40 04.12.2021
6640 Clouds 3 997 93 10000 3.09 160 11:51 04.12.2021
6641 Clouds 3 997 93 10000 3.09 160 11:32 04.12.2021
6642 Clouds 3 998 87 10000 3.09 140 10:44 04.12.2021
6643 Clouds 2 998 93 10000 4.12 160 08:47 04.12.2021
6644 Clouds 2 1001 94 10000 2.76 182 06:28 04.12.2021
6645 Clouds 2 1001 92 10000 3.06 190 04:42 04.12.2021
6646 Clouds 2 1005 87 10000 6.16 201 00:24 04.12.2021
6647 Clouds 2 1002 86 10000 7.2 190 23:26 03.12.2021
6648 Clouds 2 1002 86 10000 7.2 190 23:26 03.12.2021
6649 Clouds 2 1005 86 10000 6.31 202 22:46 03.12.2021
6650 Clouds 2 1006 82 10000 7.06 205 21:26 03.12.2021
6651 Clouds 2 1006 82 10000 7.06 205 20:52 03.12.2021
6652 Drizzle 2 1005 80 10000 5.14 190 19:50 03.12.2021
6653 Clouds 2 1005 86 10000 5.14 170 18:34 03.12.2021
6654 Clouds 2 1006 80 10000 5.66 180 17:59 03.12.2021
6655 Clouds 2 1007 75 10000 6.69 190 15:47 03.12.2021
6656 Clouds 2 1009 86 10000 3.6 0